GEFSCGP_prec_meanprecacc_006.txt.gz
Total_Precipitation_Accumulation
0.09 0.16 0.11 0.05 0.03 0.01 0.00 0.00 0.00 0.00 0.00 0.00 0.00 0.00 0.00 0.00 0.00 0.00 0.00 0.00 0.00 0.00 0.00 0.00 0.00 0.00 0.00 0.00 0.00 0.00 0.00 0.00 0.00 0.00 0.00 0.00 0.00 0.00 0.00 0.00 0.00 0.00 0.00 0.00
0.11 0.11 0.07 0.04 0.03 0.01 0.00 0.00 0.00 0.00 0.00 0.00 0.00 0.00 0.00 0.00 0.00 0.00 0.00 0.00 0.00 0.00 0.00 0.00 0.00 0.00 0.00 0.00 0.00 0.00 0.00 0.00 0.00 0.00 0.00 0.00 0.00 0.00 0.00 0.00 0.00 0.00 0.00 0.00
0.09 0.08 0.08 0.06 0.04 0.02 0.00 0.00 0.00 0.00 0.00 0.00 0.00 0.00 0.00 0.00 0.00 0.00 0.00 0.00 0.00 0.00 0.00 0.00 0.00 0.00 0.00 0.00 0.00 0.00 0.00 0.00 0.00 0.00 0.00 0.00 0.00 0.00 0.00 0.00 0.00 0.00 0.00 0.00
0.10 0.12 0.11 0.08 0.03 0.01 0.01 0.00 0.00 0.00 0.00 0.00 0.00 0.00 0.00 0.00 0.00 0.00 0.00 0.00 0.00 0.00 0.00 0.00 0.00 0.00 0.00 0.00 0.00 0.00 0.00 0.00 0.00 0.00 0.00 0.00 0.00 0.00 0.00 0.00 0.00 0.00 0.00 0.00
0.16 0.17 0.12 0.08 0.02 0.00 0.00 0.00 0.00 0.00 0.00 0.00 0.00 0.00 0.00 0.00 0.00 0.00 0.00 0.00 0.00 0.00 0.00 0.00 0.00 0.00 0.00 0.00 0.00 0.00 0.00 0.00 0.00 0.00 0.00 0.00 0.00 0.00 0.00 0.00 0.00 0.00 0.00 0.00
0.13 0.16 0.12 0.06 0.02 0.01 0.00 0.01 0.01 0.00 0.00 0.00 0.00 0.00 0.00 0.00 0.00 0.00 0.00 0.00 0.00 0.00 0.00 0.00 0.00 0.00 0.00 0.00 0.00 0.00 0.00 0.00 0.00 0.00 0.00 0.00 0.00 0.00 0.00 0.00 0.00 0.00 0.00 0.00
0.23 0.21 0.12 0.07 0.05 0.03 0.01 0.02 0.04 0.03 0.00 0.00 0.00 0.00 0.00 0.00 0.00 0.00 0.00 0.00 0.00 0.00 0.00 0.00 0.00 0.00 0.00 0.00 0.00 0.00 0.00 0.00 0.00 0.00 0.00 0.00 0.00 0.00 0.00 0.00 0.00 0.00 0.00 0.00
0.23 0.22 0.10 0.06 0.04 0.04 0.02 0.01 0.03 0.02 0.00 0.00 0.00 0.00 0.00 0.00 0.00 0.00 0.00 0.00 0.00 0.00 0.00 0.00 0.00 0.00 0.00 0.00 0.00 0.00 0.00 0.00 0.00 0.00 0.00 0.00 0.00 0.00 0.00 0.00 0.00 0.00 0.00 0.00
0.11 0.14 0.05 0.03 0.02 0.02 0.02 0.01 0.00 0.00 0.00 0.00 0.00 0.00 0.00 0.00 0.00 0.00 0.00 0.00 0.00 0.00 0.00 0.00 0.00 0.00 0.00 0.00 0.00 0.00 0.00 0.00 0.00 0.00 0.00 0.00 0.00 0.00 0.00 0.00 0.00 0.00 0.00 0.00
0.06 0.07 0.03 0.02 0.02 0.02 0.02 0.01 0.01 0.00 0.00 0.00 0.00 0.00 0.00 0.00 0.00 0.00 0.00 0.00 0.00 0.00 0.00 0.00 0.00 0.00 0.00 0.00 0.00 0.00 0.00 0.00 0.00 0.00 0.00 0.00 0.00 0.00 0.00 0.00 0.00 0.00 0.00 0.00
0.02 0.03 0.02 0.02 0.02 0.01 0.01 0.01 0.01 0.00 0.00 0.00 0.00 0.00 0.00 0.00 0.00 0.00 0.00 0.00 0.00 0.00 0.00 0.00 0.00 0.00 0.00 0.00 0.00 0.00 0.00 0.00 0.00 0.00 0.00 0.00 0.00 0.00 0.00 0.00 0.00 0.00 0.00 0.00
0.00 0.01 0.01 0.01 0.00 0.00 0.00 0.00 0.00 0.00 0.00 0.00 0.00 0.00 0.00 0.00 0.00 0.00 0.00 0.00 0.00 0.00 0.00 0.00 0.00 0.00 0.00 0.00 0.00 0.00 0.00 0.00 0.00 0.00 0.00 0.00 0.00 0.00 0.00 0.00 0.00 0.00 0.00 0.00
0.00 0.00 0.00 0.01 0.00 0.00 0.00 0.00 0.00 0.00 0.00 0.00 0.00 0.00 0.00 0.00 0.00 0.00 0.00 0.00 0.00 0.00 0.00 0.00 0.00 0.00 0.00 0.00 0.00 0.00 0.00 0.00 0.00 0.00 0.00 0.00 0.00 0.00 0.00 0.00 0.00 0.00 0.00 0.00
0.00 0.00 0.00 0.00 0.00 0.00 0.00 0.00 0.00 0.00 0.00 0.00 0.00 0.00 0.00 0.00 0.00 0.00 0.00 0.00 0.00 0.00 0.00 0.00 0.00 0.00 0.00 0.00 0.00 0.00 0.00 0.00 0.00 0.00 0.00 0.00 0.00 0.00 0.00 0.00 0.00 0.00 0.00 0.00
0.00 0.00 0.00 0.00 0.00 0.00 0.00 0.00 0.00 0.00 0.00 0.00 0.00 0.00 0.00 0.00 0.00 0.00 0.00 0.00 0.00 0.00 0.00 0.00 0.00 0.00 0.00 0.00 0.00 0.00 0.00 0.00 0.00 0.00 0.00 0.00 0.00 0.00 0.00 0.00 0.00 0.00 0.00 0.00
0.00 0.00 0.00 0.00 0.00 0.00 0.00 0.00 0.00 0.00 0.00 0.00 0.00 0.00 0.00 0.00 0.00 0.00 0.00 0.00 0.00 0.00 0.00 0.00 0.00 0.00 0.00 0.00 0.00 0.00 0.00 0.00 0.00 0.00 0.00 0.00 0.00 0.00 0.00 0.00 0.00 0.00 0.00 0.00
0.00 0.00 0.00 0.00 0.00 0.00 0.00 0.00 0.00 0.00 0.00 0.00 0.00 0.00 0.00 0.00 0.00 0.00 0.00 0.00 0.00 0.00 0.00 0.00 0.00 0.00 0.00 0.00 0.00 0.00 0.00 0.00 0.00 0.00 0.00 0.00 0.00 0.00 0.00 0.00 0.00 0.00 0.00 0.00
0.01 0.02 0.01 0.00 0.00 0.00 0.00 0.00 0.00 0.00 0.00 0.00 0.00 0.00 0.00 0.00 0.00 0.00 0.00 0.00 0.00 0.00 0.00 0.00 0.00 0.00 0.00 0.00 0.00 0.00 0.00 0.00 0.00 0.00 0.00 0.00 0.00 0.00 0.00 0.00 0.00 0.00 0.00 0.00
0.01 0.04 0.04 0.01 0.00 0.00 0.00 0.00 0.00 0.00 0.00 0.00 0.00 0.00 0.00 0.00 0.00 0.00 0.00 0.00 0.00 0.00 0.00 0.00 0.00 0.00 0.00 0.00 0.00 0.00 0.00 0.00 0.00 0.00 0.00 0.00 0.00 0.00 0.00 0.00 0.00 0.00 0.00 0.00
0.01 0.04 0.06 0.02 0.00 0.00 0.00 0.00 0.00 0.00 0.00 0.00 0.00 0.00 0.00 0.00 0.00 0.00 0.00 0.00 0.00 0.00 0.00 0.00 0.00 0.00 0.00 0.00 0.00 0.00 0.00 0.00 0.00 0.00 0.00 0.00 0.00 0.00 0.00 0.00 0.00 0.00 0.00 0.00
0.01 0.01 0.02 0.01 0.00 0.00 0.00 0.00 0.00 0.00 0.00 0.00 0.00 0.00 0.00 0.00 0.00 0.00 0.00 0.00 0.00 0.00 0.00 0.00 0.00 0.00 0.00 0.00 0.00 0.00 0.00 0.00 0.00 0.00 0.00 0.00 0.00 0.00 0.00 0.00 0.00 0.00 0.00 0.00
0.00 0.00 0.00 0.00 0.00 0.00 0.00 0.00 0.00 0.00 0.00 0.00 0.00 0.00 0.00 0.00 0.00 0.00 0.00 0.00 0.00 0.00 0.00 0.00 0.00 0.00 0.00 0.00 0.00 0.00 0.00 0.00 0.00 0.00 0.00 0.00 0.00 0.00 0.00 0.00 0.00 0.00 0.00 0.00
0.00 0.00 0.00 0.00 0.00 0.00 0.00 0.00 0.00 0.00 0.00 0.00 0.00 0.00 0.00 0.00 0.00 0.00 0.00 0.00 0.00 0.00 0.00 0.00 0.00 0.00 0.00 0.00 0.00 0.00 0.00 0.00 0.00 0.00 0.00 0.00 0.00 0.00 0.00 0.00 0.00 0.00 0.00 0.00
0.00 0.00 0.00 0.00 0.00 0.00 0.00 0.00 0.00 0.00 0.00 0.00 0.00 0.00 0.00 0.00 0.00 0.00 0.00 0.00 0.00 0.00 0.00 0.00 0.00 0.00 0.00 0.00 0.00 0.00 0.00 0.00 0.00 0.00 0.00 0.00 0.00 0.00 0.00 0.00 0.00 0.00 0.00 0.00
0.00 0.00 0.00 0.00 0.00 0.00 0.00 0.00 0.00 0.00 0.00 0.00 0.00 0.00 0.00 0.00 0.00 0.00 0.00 0.00 0.00 0.00 0.00 0.00 0.00 0.00 0.00 0.00 0.00 0.00 0.00 0.00 0.00 0.00 0.00 0.00 0.00 0.00 0.00 0.00 0.00 0.00 0.00 0.00
0.00 0.00 0.00 0.00 0.00 0.00 0.00 0.00 0.00 0.00 0.00 0.00 0.00 0.00 0.00 0.00 0.00 0.00 0.00 0.00 0.00 0.00 0.00 0.00 0.00 0.00 0.00 0.00 0.00 0.00 0.00 0.00 0.00 0.00 0.00 0.00 0.00 0.00 0.00 0.00 0.00 0.00 0.00 0.00

GEFSCGP_prec_meanprecacc_012.txt.gz
Total_Precipitation_Accumulation
0.16 0.23 0.16 0.08 0.05 0.04 0.04 0.04 0.02 0.00 0.00 0.00 0.00 0.00 0.00 0.00 0.00 0.00 0.00 0.00 0.00 0.00 0.00 0.00 0.00 0.00 0.00 0.00 0.00 0.00 0.00 0.00 0.00 0.00 0.00 0.00 0.00 0.00 0.00 0.00 0.00 0.00 0.00 0.00
0.22 0.18 0.09 0.06 0.07 0.06 0.06 0.07 0.04 0.01 0.00 0.00 0.00 0.00 0.00 0.00 0.00 0.00 0.00 0.00 0.00 0.00 0.00 0.00 0.00 0.00 0.00 0.00 0.00 0.00 0.00 0.00 0.00 0.00 0.00 0.00 0.00 0.00 0.00 0.00 0.00 0.00 0.00 0.00
0.20 0.12 0.10 0.11 0.12 0.10 0.07 0.06 0.06 0.04 0.02 0.01 0.00 0.00 0.00 0.00 0.00 0.00 0.00 0.00 0.00 0.00 0.00 0.00 0.00 0.00 0.00 0.00 0.00 0.00 0.00 0.00 0.00 0.00 0.00 0.00 0.00 0.00 0.00 0.00 0.00 0.00 0.00 0.00
0.21 0.17 0.19 0.18 0.14 0.12 0.08 0.04 0.06 0.07 0.06 0.03 0.00 0.00 0.00 0.00 0.00 0.00 0.00 0.00 0.00 0.00 0.00 0.00 0.00 0.00 0.00 0.00 0.00 0.00 0.00 0.00 0.00 0.00 0.00 0.00 0.00 0.00 0.00 0.00 0.00 0.00 0.00 0.00
0.27 0.25 0.27 0.24 0.12 0.12 0.10 0.05 0.08 0.11 0.11 0.06 0.01 0.00 0.00 0.00 0.00 0.00 0.00 0.00 0.00 0.00 0.00 0.00 0.00 0.00 0.00 0.00 0.00 0.00 0.00 0.00 0.00 0.00 0.00 0.00 0.00 0.00 0.00 0.00 0.00 0.00 0.00 0.00
0.22 0.25 0.30 0.25 0.12 0.14 0.16 0.16 0.14 0.15 0.14 0.07 0.02 0.00 0.00 0.00 0.00 0.00 0.00 0.00 0.00 0.00 0.00 0.00 0.00 0.00 0.00 0.00 0.00 0.00 0.00 0.00 0.00 0.00 0.00 0.00 0.00 0.00 0.00 0.00 0.00 0.00 0.00 0.00
0.39 0.38 0.31 0.31 0.30 0.32 0.34 0.34 0.33 0.28 0.18 0.05 0.01 0.00 0.00 0.00 0.00 0.00 0.00 0.00 0.00 0.00 0.00 0.00 0.00 0.00 0.00 0.00 0.00 0.00 0.00 0.00 0.00 0.00 0.00 0.00 0.00 0.00 0.00 0.00 0.00 0.00 0.00 0.00
0.44 0.42 0.29 0.37 0.42 0.44 0.40 0.36 0.27 0.17 0.08 0.01 0.00 0.00 0.00 0.00 0.00 0.00 0.00 0.00 0.00 0.00 0.00 0.00 0.00 0.00 0.00 0.00 0.00 0.00 0.00 0.00 0.00 0.00 0.00 0.00 0.00 0.00 0.00 0.00 0.00 0.00 0.00 0.00
0.30 0.34 0.21 0.25 0.30 0.28 0.33 0.32 0.16 0.05 0.01 0.00 0.00 0.00 0.00 0.00 0.00 0.00 0.00 0.00 0.00 0.00 0.00 0.00 0.00 0.00 0.00 0.00 0.00 0.00 0.00 0.00 0.00 0.00 0.00 0.00 0.00 0.00 0.00 0.00 0.00 0.00 0.00 0.00
0.33 0.37 0.25 0.25 0.35 0.32 0.27 0.23 0.14 0.04 0.01 0.01 0.00 0.00 0.00 0.00 0.00 0.00 0.00 0.00 0.00 0.00 0.00 0.00 0.00 0.00 0.00 0.00 0.00 0.00 0.00 0.00 0.00 0.00 0.00 0.00 0.00 0.00 0.00 0.00 0.00 0.00 0.00 0.00
0.33 0.43 0.34 0.32 0.40 0.27 0.23 0.19 0.09 0.02 0.00 0.00 0.00 0.00 0.00 0.00 0.00 0.00 0.00 0.00 0.00 0.00 0.00 0.00 0.00 0.00 0.00 0.00 0.00 0.00 0.00 0.00 0.00 0.00 0.00 0.00 0.00 0.00 0.00 0.00 0.00 0.00 0.00 0.00
0.28 0.42 0.36 0.27 0.20 0.12 0.11 0.08 0.02 0.01 0.00 0.00 0.00 0.00 0.00 0.00 0.00 0.00 0.00 0.00 0.00 0.00 0.00 0.00 0.00 0.00 0.00 0.00 0.00 0.00 0.00 0.00 0.00 0.00 0.00 0.00 0.00 0.00 0.00 0.00 0.00 0.00 0.00 0.00
0.22 0.36 0.31 0.23 0.17 0.11 0.07 0.03 0.01 0.00 0.00 0.00 0.00 0.00 0.00 0.00 0.00 0.00 0.00 0.00 0.00 0.00 0.00 0.00 0.00 0.00 0.00 0.00 0.00 0.00 0.00 0.00 0.00 0.00 0.00 0.00 0.00 0.00 0.00 0.00 0.00 0.00 0.00 0.00
0.17 0.24 0.17 0.12 0.07 0.05 0.02 0.00 0.00 0.00 0.00 0.00 0.00 0.00 0.00 0.00 0.00 0.00 0.00 0.00 0.00 0.00 0.00 0.00 0.00 0.00 0.00 0.00 0.00 0.00 0.00 0.00 0.00 0.00 0.00 0.00 0.00 0.00 0.00 0.00 0.00 0.00 0.00 0.00
0.10 0.12 0.05 0.02 0.01 0.00 0.00 0.00 0.00 0.00 0.00 0.00 0.00 0.00 0.00 0.00 0.00 0.00 0.00 0.00 0.00 0.00 0.00 0.00 0.00 0.00 0.00 0.00 0.00 0.00 0.00 0.00 0.00 0.00 0.00 0.00 0.00 0.00 0.00 0.00 0.00 0.00 0.00 0.00
0.03 0.04 0.02 0.00 0.00 0.00 0.00 0.00 0.00 0.00 0.00 0.00 0.00 0.00 0.00 0.00 0.00 0.00 0.00 0.00 0.00 0.00 0.00 0.00 0.00 0.00 0.00 0.00 0.00 0.00 0.00 0.00 0.00 0.00 0.00 0.00 0.00 0.00 0.00 0.00 0.00 0.00 0.00 0.00
0.02 0.02 0.01 0.00 0.00 0.00 0.00 0.00 0.00 0.00 0.00 0.00 0.00 0.00 0.00 0.00 0.00 0.00 0.00 0.00 0.00 0.00 0.00 0.00 0.00 0.00 0.00 0.00 0.00 0.00 0.00 0.00 0.00 0.00 0.00 0.00 0.00 0.00 0.00 0.00 0.00 0.00 0.00 0.00
0.02 0.02 0.01 0.00 0.01 0.00 0.00 0.00 0.00 0.00 0.00 0.00 0.00 0.00 0.00 0.00 0.00 0.00 0.00 0.00 0.00 0.00 0.00 0.00 0.00 0.00 0.00 0.00 0.00 0.00 0.00 0.00 0.00 0.00 0.00 0.00 0.00 0.00 0.00 0.00 0.00 0.00 0.00 0.00
0.03 0.05 0.05 0.01 0.01 0.00 0.00 0.00 0.00 0.00 0.00 0.00 0.00 0.00 0.00 0.00 0.00 0.00 0.00 0.00 0.00 0.00 0.00 0.00 0.00 0.00 0.00 0.00 0.00 0.00 0.00 0.00 0.00 0.00 0.00 0.00 0.00 0.00 0.00 0.00 0.00 0.00 0.00 0.00
0.04 0.07 0.09 0.03 0.01 0.00 0.00 0.00 0.00 0.00 0.00 0.00 0.00 0.00 0.00 0.00 0.00 0.00 0.00 0.00 0.00 0.00 0.00 0.00 0.00 0.00 0.00 0.00 0.00 0.00 0.00 0.00 0.00 0.00 0.00 0.00 0.00 0.00 0.00 0.00 0.00 0.00 0.00 0.00
0.05 0.07 0.08 0.04 0.01 0.00 0.00 0.00 0.00 0.00 0.00 0.00 0.00 0.00 0.00 0.00 0.00 0.00 0.00 0.00 0.00 0.00 0.00 0.00 0.00 0.00 0.00 0.00 0.00 0.00 0.00 0.00 0.00 0.00 0.00 0.00 0.00 0.00 0.00 0.00 0.00 0.00 0.00 0.00
0.01 0.03 0.03 0.03 0.02 0.00 0.00 0.00 0.00 0.00 0.00 0.00 0.00 0.00 0.00 0.00 0.00 0.00 0.00 0.00 0.00 0.00 0.00 0.00 0.00 0.00 0.00 0.00 0.00 0.00 0.00 0.00 0.00 0.00 0.00 0.00 0.00 0.00 0.00 0.00 0.00 0.00 0.00 0.00
0.00 0.00 0.00 0.00 0.00 0.00 0.00 0.00 0.00 0.00 0.00 0.00 0.00 0.00 0.00 0.00 0.00 0.00 0.00 0.00 0.00 0.00 0.00 0.00 0.00 0.00 0.00 0.00 0.00 0.00 0.00 0.00 0.00 0.00 0.00 0.00 0.00 0.00 0.00 0.00 0.00 0.00 0.00 0.00
0.00 0.00 0.00 0.00 0.00 0.00 0.00 0.00 0.00 0.00 0.00 0.00 0.00 0.00 0.00 0.00 0.00 0.00 0.00 0.00 0.00 0.00 0.00 0.00 0.00 0.00 0.00 0.00 0.00 0.00 0.00 0.00 0.00 0.00 0.00 0.00 0.00 0.00 0.00 0.00 0.00 0.00 0.00 0.00
0.00 0.00 0.00 0.00 0.00 0.00 0.00 0.00 0.00 0.00 0.00 0.00 0.00 0.00 0.00 0.00 0.00 0.00 0.00 0.00 0.00 0.00 0.00 0.00 0.00 0.00 0.00 0.00 0.00 0.00 0.00 0.00 0.00 0.00 0.00 0.00 0.00 0.00 0.00 0.00 0.00 0.00 0.00 0.00
0.00 0.00 0.00 0.00 0.00 0.00 0.00 0.00 0.00 0.00 0.00 0.00 0.00 0.00 0.00 0.00 0.00 0.00 0.00 0.00 0.00 0.00 0.00 0.00 0.00 0.00 0.00 0.00 0.00 0.00 0.00 0.00 0.00 0.00 0.00 0.00 0.00 0.00 0.00 0.00 0.00 0.00 0.00 0.00

GEFSCGP_prec_meanprecacc_018.txt.gz
Total_Precipitation_Accumulation
0.16 0.24 0.16 0.08 0.06 0.04 0.04 0.04 0.02 0.00 0.00 0.01 0.00 0.00 0.00 0.00 0.00 0.00 0.00 0.00 0.00 0.00 0.00 0.00 0.00 0.00 0.00 0.00 0.00 0.00 0.00 0.00 0.00 0.00 0.00 0.00 0.00 0.00 0.00 0.00 0.00 0.00 0.00 0.00
0.23 0.18 0.09 0.06 0.07 0.07 0.07 0.08 0.05 0.02 0.01 0.02 0.01 0.00 0.00 0.00 0.00 0.00 0.00 0.00 0.00 0.00 0.00 0.00 0.00 0.00 0.00 0.00 0.00 0.00 0.00 0.00 0.00 0.00 0.00 0.00 0.00 0.00 0.00 0.00 0.00 0.00 0.00 0.00
0.20 0.12 0.10 0.11 0.13 0.11 0.07 0.07 0.07 0.06 0.04 0.04 0.04 0.01 0.00 0.00 0.00 0.00 0.00 0.00 0.00 0.00 0.00 0.00 0.00 0.00 0.00 0.00 0.00 0.00 0.00 0.00 0.00 0.00 0.00 0.00 0.00 0.00 0.00 0.00 0.00 0.00 0.00 0.00
0.22 0.17 0.19 0.18 0.15 0.12 0.08 0.04 0.07 0.09 0.11 0.10 0.07 0.04 0.00 0.00 0.00 0.00 0.00 0.00 0.00 0.00 0.00 0.00 0.00 0.00 0.00 0.00 0.00 0.00 0.00 0.00 0.00 0.00 0.00 0.00 0.00 0.00 0.00 0.00 0.00 0.00 0.00 0.00
0.29 0.25 0.27 0.25 0.12 0.12 0.10 0.06 0.10 0.15 0.18 0.17 0.11 0.06 0.01 0.00 0.00 0.00 0.00 0.00 0.00 0.00 0.00 0.00 0.00 0.00 0.00 0.00 0.00 0.00 0.00 0.00 0.00 0.00 0.00 0.00 0.00 0.00 0.00 0.00 0.00 0.00 0.00 0.00
0.25 0.26 0.31 0.25 0.12 0.15 0.18 0.18 0.20 0.23 0.30 0.29 0.14 0.10 0.04 0.00 0.00 0.00 0.00 0.00 0.00 0.00 0.00 0.00 0.00 0.00 0.00 0.00 0.00 0.00 0.00 0.00 0.00 0.00 0.00 0.00 0.00 0.00 0.00 0.00 0.00 0.00 0.00 0.00
0.47 0.40 0.32 0.33 0.31 0.34 0.37 0.45 0.51 0.47 0.45 0.30 0.11 0.10 0.05 0.00 0.00 0.00 0.00 0.00 0.00 0.00 0.00 0.00 0.00 0.00 0.00 0.00 0.00 0.00 0.00 0.00 0.00 0.00 0.00 0.00 0.00 0.00 0.00 0.00 0.00 0.00 0.00 0.00
0.50 0.45 0.30 0.38 0.44 0.48 0.44 0.48 0.49 0.37 0.24 0.13 0.10 0.09 0.03 0.00 0.00 0.00 0.00 0.00 0.00 0.00 0.00 0.00 0.00 0.00 0.00 0.00 0.00 0.00 0.00 0.00 0.00 0.00 0.00 0.00 0.00 0.00 0.00 0.00 0.00 0.00 0.00 0.00
0.36 0.38 0.24 0.27 0.32 0.34 0.40 0.42 0.34 0.32 0.20 0.12 0.10 0.07 0.02 0.00 0.00 0.00 0.00 0.00 0.00 0.00 0.00 0.00 0.00 0.00 0.00 0.00 0.00 0.00 0.00 0.00 0.00 0.00 0.00 0.00 0.00 0.00 0.00 0.00 0.00 0.00 0.00 0.00
0.39 0.48 0.34 0.34 0.46 0.41 0.40 0.36 0.38 0.48 0.37 0.20 0.09 0.05 0.01 0.00 0.00 0.00 0.00 0.00 0.00 0.00 0.00 0.00 0.00 0.00 0.00 0.00 0.00 0.00 0.00 0.00 0.00 0.00 0.00 0.00 0.00 0.00 0.00 0.00 0.00 0.00 0.00 0.00
0.38 0.57 0.48 0.50 0.58 0.38 0.38 0.40 0.40 0.38 0.32 0.27 0.12 0.03 0.00 0.00 0.00 0.00 0.00 0.00 0.00 0.00 0.00 0.00 0.00 0.00 0.00 0.00 0.00 0.00 0.00 0.00 0.00 0.00 0.00 0.00 0.00 0.00 0.00 0.00 0.00 0.00 0.00 0.00
0.35 0.56 0.50 0.39 0.34 0.24 0.26 0.28 0.29 0.32 0.27 0.21 0.12 0.02 0.00 0.00 0.00 0.00 0.00 0.00 0.00 0.00 0.00 0.00 0.00 0.00 0.00 0.00 0.00 0.00 0.00 0.00 0.00 0.00 0.00 0.00 0.00 0.00 0.00 0.00 0.00 0.00 0.00 0.00
0.36 0.57 0.56 0.41 0.35 0.31 0.29 0.25 0.25 0.30 0.34 0.23 0.13 0.03 0.00 0.00 0.00 0.00 0.00 0.00 0.00 0.00 0.00 0.00 0.00 0.00 0.00 0.00 0.00 0.00 0.00 0.00 0.00 0.00 0.00 0.00 0.00 0.00 0.00 0.00 0.00 0.00 0.00 0.00
0.45 0.59 0.51 0.40 0.27 0.20 0.19 0.20 0.23 0.31 0.34 0.19 0.09 0.02 0.00 0.00 0.00 0.00 0.00 0.00 0.00 0.00 0.00 0.00 0.00 0.00 0.00 0.00 0.00 0.00 0.00 0.00 0.00 0.00 0.00 0.00 0.00 0.00 0.00 0.00 0.00 0.00 0.00 0.00
0.40 0.57 0.43 0.25 0.14 0.12 0.11 0.15 0.19 0.25 0.23 0.15 0.06 0.02 0.01 0.00 0.00 0.00 0.00 0.00 0.00 0.00 0.00 0.00 0.00 0.00 0.00 0.00 0.00 0.00 0.00 0.00 0.00 0.00 0.00 0.00 0.00 0.00 0.00 0.00 0.00 0.00 0.00 0.00
0.21 0.37 0.34 0.21 0.10 0.10 0.09 0.12 0.15 0.19 0.16 0.11 0.05 0.02 0.00 0.00 0.00 0.00 0.00 0.00 0.00 0.00 0.00 0.00 0.00 0.00 0.00 0.00 0.00 0.00 0.00 0.00 0.00 0.00 0.00 0.00 0.00 0.00 0.00 0.00 0.00 0.00 0.00 0.00
0.11 0.20 0.24 0.17 0.12 0.12 0.10 0.07 0.09 0.12 0.09 0.06 0.04 0.01 0.00 0.00 0.00 0.00 0.00 0.00 0.00 0.00 0.00 0.00 0.00 0.00 0.00 0.00 0.00 0.00 0.00 0.00 0.00 0.00 0.00 0.00 0.00 0.00 0.00 0.00 0.00 0.00 0.00 0.00
0.04 0.09 0.11 0.07 0.06 0.07 0.04 0.02 0.02 0.04 0.04 0.03 0.02 0.01 0.00 0.00 0.00 0.00 0.00 0.00 0.00 0.00 0.00 0.00 0.00 0.00 0.00 0.00 0.00 0.00 0.00 0.00 0.00 0.00 0.00 0.00 0.00 0.00 0.00 0.00 0.00 0.00 0.00 0.00
0.03 0.07 0.08 0.03 0.02 0.01 0.00 0.00 0.00 0.01 0.01 0.01 0.01 0.00 0.00 0.00 0.00 0.00 0.00 0.00 0.00 0.00 0.00 0.00 0.00 0.00 0.00 0.00 0.00 0.00 0.00 0.00 0.00 0.00 0.00 0.00 0.00 0.00 0.00 0.00 0.00 0.00 0.00 0.00
0.05 0.08 0.10 0.04 0.01 0.00 0.00 0.00 0.00 0.00 0.00 0.00 0.00 0.00 0.00 0.00 0.00 0.00 0.00 0.00 0.00 0.00 0.00 0.00 0.00 0.00 0.00 0.00 0.00 0.00 0.00 0.00 0.00 0.00 0.00 0.00 0.00 0.00 0.00 0.00 0.00 0.00 0.00 0.00
0.06 0.08 0.09 0.05 0.02 0.00 0.00 0.00 0.00 0.00 0.00 0.00 0.00 0.00 0.00 0.00 0.00 0.00 0.00 0.00 0.00 0.00 0.00 0.00 0.00 0.00 0.00 0.00 0.00 0.00 0.00 0.00 0.00 0.00 0.00 0.00 0.00 0.00 0.00 0.00 0.00 0.00 0.00 0.00
0.02 0.03 0.03 0.03 0.02 0.00 0.00 0.00 0.00 0.00 0.00 0.00 0.00 0.00 0.00 0.00 0.00 0.00 0.00 0.00 0.00 0.00 0.00 0.00 0.00 0.00 0.00 0.00 0.00 0.00 0.00 0.00 0.00 0.00 0.00 0.00 0.00 0.00 0.00 0.00 0.00 0.00 0.00 0.00
0.00 0.00 0.00 0.00 0.00 0.00 0.00 0.00 0.00 0.00 0.00 0.00 0.00 0.00 0.00 0.00 0.00 0.00 0.00 0.00 0.00 0.00 0.00 0.00 0.00 0.00 0.00 0.00 0.00 0.00 0.00 0.00 0.00 0.00 0.00 0.00 0.00 0.00 0.00 0.00 0.00 0.00 0.00 0.00
0.00 0.00 0.00 0.00 0.00 0.00 0.00 0.00 0.00 0.00 0.00 0.00 0.00 0.00 0.00 0.00 0.00 0.00 0.00 0.00 0.00 0.00 0.00 0.00 0.00 0.00 0.00 0.00 0.00 0.00 0.00 0.00 0.00 0.00 0.00 0.00 0.00 0.00 0.00 0.00 0.00 0.00 0.00 0.00
0.00 0.00 0.00 0.00 0.00 0.00 0.00 0.00 0.00 0.00 0.00 0.00 0.00 0.00 0.00 0.00 0.00 0.00 0.00 0.00 0.00 0.00 0.00 0.00 0.00 0.00 0.00 0.00 0.00 0.00 0.00 0.00 0.00 0.00 0.00 0.00 0.00 0.00 0.00 0.00 0.00 0.00 0.00 0.00
0.00 0.00 0.00 0.00 0.00 0.00 0.00 0.00 0.00 0.00 0.00 0.00 0.00 0.00 0.00 0.00 0.00 0.00 0.00 0.00 0.00 0.00 0.00 0.00 0.00 0.00 0.00 0.00 0.00 0.00 0.00 0.00 0.00 0.00 0.00 0.00 0.00 0.00 0.00 0.00 0.00 0.00 0.00 0.00

GEFSCGP_prec_meanprecacc_024.txt.gz
Total_Precipitation_Accumulation
0.16 0.24 0.16 0.08 0.06 0.04 0.04 0.04 0.03 0.01 0.00 0.01 0.00 0.00 0.00 0.00 0.00 0.00 0.00 0.00 0.00 0.00 0.00 0.00 0.00 0.00 0.00 0.00 0.00 0.00 0.00 0.00 0.00 0.01 0.01 0.02 0.02 0.01 0.00 0.00 0.00 0.00 0.00 0.00
0.24 0.19 0.09 0.06 0.07 0.07 0.07 0.08 0.06 0.02 0.01 0.02 0.01 0.00 0.00 0.00 0.00 0.00 0.00 0.00 0.00 0.00 0.00 0.00 0.00 0.00 0.00 0.00 0.00 0.00 0.00 0.00 0.00 0.01 0.02 0.03 0.03 0.01 0.00 0.00 0.00 0.00 0.00 0.00
0.20 0.12 0.10 0.11 0.13 0.11 0.08 0.08 0.07 0.06 0.04 0.04 0.04 0.01 0.00 0.00 0.00 0.00 0.00 0.00 0.00 0.00 0.00 0.00 0.00 0.00 0.00 0.00 0.00 0.00 0.00 0.00 0.00 0.00 0.02 0.02 0.02 0.01 0.00 0.00 0.00 0.00 0.00 0.00
0.22 0.17 0.19 0.18 0.15 0.12 0.09 0.04 0.07 0.09 0.11 0.10 0.07 0.04 0.00 0.00 0.00 0.00 0.00 0.00 0.00 0.00 0.00 0.00 0.00 0.00 0.00 0.00 0.00 0.00 0.00 0.00 0.00 0.00 0.01 0.01 0.01 0.01 0.00 0.00 0.00 0.00 0.00 0.00
0.29 0.25 0.27 0.25 0.12 0.12 0.10 0.06 0.10 0.16 0.19 0.18 0.11 0.07 0.01 0.00 0.00 0.00 0.00 0.00 0.00 0.00 0.00 0.00 0.00 0.00 0.00 0.00 0.00 0.00 0.00 0.00 0.00 0.00 0.00 0.01 0.01 0.00 0.00 0.00 0.00 0.00 0.00 0.00
0.26 0.26 0.31 0.25 0.12 0.15 0.18 0.20 0.22 0.25 0.34 0.32 0.14 0.10 0.04 0.00 0.00 0.00 0.00 0.00 0.00 0.00 0.00 0.00 0.00 0.00 0.00 0.00 0.00 0.00 0.00 0.00 0.00 0.00 0.00 0.00 0.00 0.00 0.00 0.00 0.00 0.00 0.00 0.00
0.49 0.41 0.33 0.33 0.32 0.34 0.39 0.52 0.62 0.54 0.50 0.31 0.11 0.10 0.05 0.00 0.00 0.00 0.00 0.00 0.00 0.00 0.00 0.00 0.00 0.00 0.00 0.00 0.00 0.00 0.00 0.00 0.00 0.00 0.00 0.00 0.00 0.00 0.00 0.00 0.00 0.00 0.00 0.00
0.54 0.46 0.30 0.38 0.44 0.48 0.44 0.52 0.57 0.42 0.26 0.13 0.10 0.09 0.03 0.00 0.00 0.00 0.00 0.00 0.00 0.00 0.00 0.00 0.00 0.00 0.00 0.00 0.00 0.00 0.00 0.00 0.00 0.00 0.00 0.00 0.00 0.00 0.00 0.00 0.00 0.00 0.00 0.00
0.40 0.39 0.24 0.27 0.33 0.35 0.44 0.47 0.38 0.42 0.27 0.16 0.11 0.07 0.02 0.00 0.00 0.00 0.00 0.00 0.00 0.00 0.00 0.00 0.00 0.00 0.00 0.00 0.00 0.00 0.00 0.00 0.00 0.00 0.00 0.00 0.00 0.00 0.00 0.00 0.00 0.00 0.00 0.00
0.40 0.50 0.34 0.35 0.48 0.44 0.42 0.40 0.47 0.67 0.50 0.25 0.10 0.05 0.01 0.00 0.00 0.00 0.00 0.00 0.00 0.00 0.00 0.00 0.00 0.00 0.00 0.00 0.00 0.00 0.00 0.00 0.00 0.00 0.00 0.00 0.00 0.00 0.00 0.00 0.00 0.00 0.00 0.00
0.39 0.60 0.50 0.51 0.60 0.42 0.42 0.47 0.50 0.48 0.39 0.34 0.16 0.05 0.01 0.01 0.01 0.01 0.00 0.00 0.00 0.00 0.00 0.00 0.00 0.00 0.00 0.00 0.00 0.00 0.00 0.00 0.00 0.00 0.00 0.00 0.00 0.00 0.00 0.00 0.00 0.00 0.00 0.00
0.37 0.62 0.54 0.40 0.35 0.27 0.32 0.33 0.35 0.41 0.33 0.27 0.18 0.05 0.01 0.01 0.01 0.02 0.02 0.02 0.01 0.00 0.00 0.00 0.00 0.00 0.00 0.00 0.00 0.00 0.00 0.00 0.00 0.00 0.00 0.00 0.00 0.00 0.00 0.00 0.00 0.00 0.00 0.00
0.39 0.66 0.65 0.48 0.45 0.43 0.41 0.31 0.30 0.36 0.42 0.32 0.22 0.07 0.02 0.01 0.01 0.02 0.02 0.03 0.02 0.01 0.01 0.00 0.00 0.00 0.00 0.00 0.00 0.00 0.00 0.00 0.00 0.00 0.00 0.00 0.00 0.00 0.00 0.00 0.00 0.00 0.00 0.00
0.53 0.70 0.63 0.51 0.42 0.42 0.35 0.27 0.28 0.41 0.47 0.29 0.17 0.08 0.04 0.02 0.02 0.02 0.02 0.02 0.02 0.02 0.01 0.00 0.00 0.00 0.00 0.00 0.00 0.00 0.00 0.00 0.00 0.00 0.00 0.00 0.00 0.00 0.00 0.00 0.00 0.00 0.00 0.00
0.54 0.72 0.55 0.36 0.28 0.32 0.28 0.25 0.27 0.34 0.32 0.24 0.13 0.09 0.07 0.04 0.02 0.02 0.01 0.01 0.01 0.01 0.01 0.00 0.00 0.00 0.00 0.00 0.00 0.00 0.00 0.00 0.00 0.00 0.00 0.00 0.00 0.00 0.00 0.00 0.00 0.00 0.00 0.00
0.35 0.55 0.53 0.40 0.27 0.29 0.26 0.23 0.25 0.29 0.25 0.19 0.14 0.12 0.05 0.03 0.02 0.01 0.01 0.01 0.01 0.01 0.00 0.00 0.00 0.00 0.00 0.00 0.00 0.00 0.00 0.00 0.00 0.00 0.00 0.00 0.00 0.00 0.00 0.00 0.00 0.00 0.00 0.00
0.22 0.38 0.52 0.45 0.31 0.32 0.32 0.23 0.24 0.25 0.17 0.14 0.13 0.08 0.03 0.02 0.02 0.01 0.00 0.00 0.00 0.00 0.00 0.00 0.00 0.00 0.00 0.00 0.00 0.00 0.00 0.00 0.00 0.00 0.00 0.00 0.00 0.00 0.00 0.00 0.00 0.00 0.00 0.00
0.10 0.23 0.37 0.33 0.29 0.29 0.21 0.15 0.16 0.15 0.11 0.09 0.07 0.03 0.01 0.01 0.01 0.00 0.00 0.00 0.00 0.00 0.00 0.00 0.00 0.00 0.00 0.00 0.00 0.00 0.00 0.00 0.00 0.00 0.00 0.00 0.00 0.00 0.00 0.00 0.00 0.00 0.00 0.00
0.05 0.15 0.23 0.18 0.14 0.10 0.05 0.05 0.06 0.07 0.06 0.04 0.03 0.01 0.00 0.00 0.00 0.00 0.00 0.00 0.00 0.00 0.00 0.00 0.00 0.00 0.00 0.00 0.00 0.00 0.00 0.00 0.00 0.00 0.00 0.00 0.00 0.00 0.00 0.00 0.00 0.00 0.00 0.00
0.05 0.10 0.16 0.09 0.06 0.04 0.02 0.01 0.01 0.02 0.02 0.01 0.01 0.00 0.00 0.00 0.00 0.00 0.00 0.00 0.00 0.00 0.00 0.00 0.00 0.00 0.00 0.00 0.00 0.00 0.00 0.00 0.00 0.00 0.00 0.00 0.00 0.00 0.00 0.00 0.00 0.00 0.00 0.00
0.07 0.09 0.10 0.06 0.03 0.01 0.00 0.00 0.00 0.01 0.01 0.00 0.00 0.00 0.00 0.00 0.00 0.00 0.00 0.00 0.00 0.00 0.00 0.00 0.00 0.00 0.00 0.00 0.00 0.00 0.00 0.00 0.00 0.00 0.00 0.00 0.00 0.00 0.00 0.00 0.00 0.00 0.00 0.00
0.02 0.03 0.03 0.03 0.02 0.00 0.00 0.00 0.00 0.00 0.00 0.00 0.00 0.00 0.00 0.00 0.00 0.00 0.00 0.00 0.00 0.00 0.00 0.00 0.00 0.00 0.00 0.00 0.00 0.00 0.00 0.00 0.00 0.00 0.00 0.00 0.00 0.00 0.00 0.00 0.00 0.00 0.00 0.00
0.00 0.00 0.00 0.00 0.00 0.00 0.00 0.00 0.00 0.00 0.00 0.00 0.00 0.00 0.00 0.00 0.00 0.00 0.00 0.00 0.00 0.00 0.00 0.00 0.00 0.00 0.00 0.00 0.00 0.00 0.00 0.00 0.00 0.00 0.00 0.00 0.00 0.00 0.00 0.00 0.00 0.00 0.00 0.00
0.00 0.00 0.00 0.00 0.00 0.00 0.00 0.00 0.00 0.00 0.00 0.00 0.00 0.00 0.00 0.00 0.00 0.00 0.00 0.00 0.00 0.00 0.00 0.00 0.00 0.00 0.00 0.00 0.00 0.00 0.00 0.00 0.00 0.00 0.00 0.00 0.00 0.00 0.00 0.00 0.00 0.00 0.00 0.00
0.00 0.00 0.00 0.00 0.00 0.00 0.00 0.00 0.00 0.00 0.00 0.00 0.00 0.00 0.00 0.00 0.00 0.00 0.00 0.00 0.00 0.00 0.00 0.00 0.00 0.00 0.00 0.00 0.00 0.00 0.00 0.00 0.00 0.00 0.00 0.00 0.00 0.00 0.00 0.00 0.00 0.00 0.00 0.00
0.00 0.00 0.00 0.00 0.00 0.00 0.00 0.00 0.00 0.00 0.00 0.00 0.00 0.00 0.00 0.00 0.00 0.00 0.00 0.00 0.00 0.00 0.00 0.00 0.00 0.00 0.00 0.00 0.00 0.00 0.00 0.00 0.00 0.00 0.00 0.00 0.00 0.00 0.00 0.00 0.00 0.00 0.00 0.00

GEFSCGP_prec_meanprecacc_030.txt.gz
Total_Precipitation_Accumulation
0.16 0.24 0.17 0.08 0.06 0.04 0.04 0.04 0.03 0.01 0.00 0.01 0.00 0.00 0.00 0.00 0.00 0.00 0.00 0.00 0.00 0.00 0.00 0.00 0.00 0.00 0.00 0.00 0.00 0.00 0.00 0.00 0.00 0.01 0.02 0.05 0.08 0.11 0.11 0.09 0.07 0.04 0.02 0.00
0.24 0.19 0.09 0.06 0.07 0.07 0.07 0.09 0.06 0.02 0.01 0.02 0.01 0.00 0.00 0.00 0.00 0.00 0.00 0.00 0.00 0.00 0.00 0.00 0.00 0.00 0.00 0.00 0.00 0.00 0.00 0.00 0.00 0.01 0.04 0.09 0.13 0.14 0.13 0.10 0.07 0.04 0.02 0.01
0.20 0.12 0.10 0.11 0.13 0.11 0.08 0.08 0.07 0.06 0.04 0.04 0.04 0.01 0.00 0.00 0.00 0.00 0.00 0.00 0.00 0.00 0.00 0.00 0.00 0.00 0.00 0.00 0.00 0.00 0.00 0.00 0.00 0.01 0.03 0.06 0.08 0.08 0.07 0.06 0.04 0.03 0.01 0.01
0.23 0.17 0.19 0.18 0.15 0.12 0.09 0.04 0.07 0.09 0.11 0.10 0.07 0.04 0.00 0.00 0.00 0.00 0.00 0.00 0.00 0.00 0.00 0.00 0.00 0.00 0.00 0.00 0.00 0.00 0.00 0.00 0.00 0.00 0.02 0.05 0.07 0.07 0.06 0.05 0.03 0.02 0.01 0.00
0.30 0.25 0.27 0.25 0.12 0.12 0.10 0.06 0.10 0.16 0.19 0.19 0.12 0.07 0.01 0.00 0.00 0.00 0.00 0.00 0.00 0.00 0.00 0.00 0.00 0.00 0.00 0.00 0.00 0.00 0.00 0.00 0.00 0.00 0.01 0.05 0.08 0.07 0.05 0.03 0.02 0.01 0.00 0.00
0.26 0.26 0.31 0.25 0.12 0.15 0.18 0.21 0.23 0.26 0.37 0.35 0.15 0.10 0.04 0.00 0.00 0.00 0.00 0.00 0.00 0.00 0.00 0.00 0.00 0.00 0.00 0.00 0.00 0.00 0.00 0.00 0.00 0.00 0.00 0.02 0.05 0.05 0.03 0.02 0.01 0.00 0.00 0.00
0.50 0.42 0.33 0.33 0.32 0.34 0.39 0.55 0.66 0.56 0.54 0.33 0.11 0.10 0.05 0.00 0.00 0.00 0.00 0.00 0.00 0.00 0.00 0.00 0.00 0.00 0.00 0.00 0.00 0.00 0.00 0.00 0.00 0.00 0.00 0.01 0.05 0.07 0.05 0.02 0.01 0.00 0.00 0.00
0.55 0.46 0.30 0.38 0.44 0.48 0.45 0.54 0.60 0.43 0.26 0.13 0.10 0.09 0.03 0.00 0.00 0.00 0.00 0.00 0.00 0.00 0.00 0.00 0.00 0.00 0.00 0.00 0.00 0.00 0.00 0.00 0.00 0.00 0.00 0.00 0.02 0.03 0.02 0.01 0.00 0.00 0.00 0.00
0.40 0.40 0.24 0.27 0.33 0.36 0.45 0.49 0.39 0.47 0.31 0.18 0.11 0.07 0.02 0.00 0.00 0.00 0.00 0.00 0.00 0.00 0.00 0.00 0.00 0.00 0.00 0.00 0.00 0.00 0.00 0.00 0.00 0.00 0.00 0.00 0.00 0.01 0.01 0.00 0.00 0.00 0.00 0.00
0.40 0.50 0.34 0.35 0.48 0.45 0.43 0.42 0.51 0.79 0.58 0.28 0.11 0.05 0.01 0.00 0.00 0.00 0.00 0.00 0.00 0.00 0.00 0.00 0.00 0.00 0.00 0.00 0.00 0.00 0.00 0.00 0.00 0.00 0.00 0.00 0.00 0.00 0.00 0.00 0.00 0.00 0.00 0.00
0.39 0.60 0.50 0.52 0.61 0.43 0.43 0.52 0.59 0.59 0.45 0.37 0.17 0.05 0.02 0.01 0.01 0.01 0.01 0.00 0.00 0.00 0.00 0.00 0.00 0.00 0.00 0.00 0.00 0.00 0.00 0.00 0.00 0.00 0.00 0.00 0.00 0.00 0.00 0.00 0.00 0.00 0.00 0.00
0.37 0.63 0.55 0.40 0.35 0.27 0.33 0.35 0.43 0.56 0.41 0.31 0.20 0.06 0.01 0.01 0.02 0.03 0.03 0.02 0.01 0.00 0.00 0.00 0.00 0.00 0.00 0.00 0.00 0.00 0.00 0.01 0.01 0.00 0.00 0.00 0.00 0.00 0.00 0.00 0.00 0.00 0.00 0.00
0.39 0.67 0.67 0.48 0.45 0.45 0.44 0.33 0.35 0.50 0.60 0.44 0.29 0.08 0.02 0.02 0.04 0.06 0.06 0.05 0.03 0.01 0.01 0.00 0.00 0.00 0.00 0.00 0.00 0.00 0.01 0.01 0.00 0.00 0.00 0.00 0.00 0.00 0.00 0.00 0.00 0.00 0.00 0.00
0.54 0.72 0.64 0.52 0.43 0.48 0.47 0.34 0.37 0.67 0.76 0.38 0.19 0.09 0.05 0.05 0.06 0.07 0.07 0.06 0.04 0.02 0.01 0.01 0.00 0.00 0.00 0.00 0.00 0.01 0.01 0.01 0.00 0.00 0.00 0.00 0.00 0.00 0.00 0.00 0.00 0.00 0.00 0.00
0.56 0.75 0.56 0.37 0.30 0.41 0.43 0.38 0.44 0.60 0.50 0.34 0.16 0.12 0.12 0.09 0.08 0.07 0.06 0.04 0.03 0.02 0.01 0.01 0.00 0.00 0.00 0.00 0.00 0.00 0.01 0.01 0.00 0.00 0.00 0.00 0.00 0.00 0.00 0.00 0.00 0.00 0.00 0.00
0.36 0.57 0.55 0.42 0.29 0.36 0.40 0.36 0.39 0.42 0.35 0.28 0.20 0.19 0.12 0.09 0.08 0.06 0.06 0.04 0.03 0.02 0.01 0.01 0.00 0.00 0.00 0.00 0.00 0.01 0.01 0.00 0.00 0.00 0.00 0.00 0.00 0.00 0.00 0.00 0.00 0.00 0.00 0.00
0.23 0.41 0.57 0.48 0.32 0.39 0.47 0.37 0.35 0.33 0.22 0.18 0.18 0.13 0.07 0.08 0.09 0.08 0.05 0.03 0.02 0.02 0.01 0.01 0.01 0.00 0.00 0.00 0.01 0.01 0.01 0.01 0.00 0.00 0.00 0.00 0.00 0.00 0.00 0.00 0.00 0.00 0.00 0.00
0.11 0.26 0.45 0.39 0.36 0.45 0.37 0.26 0.24 0.21 0.15 0.12 0.11 0.07 0.06 0.07 0.07 0.05 0.02 0.02 0.02 0.01 0.01 0.01 0.00 0.00 0.00 0.00 0.01 0.01 0.01 0.00 0.00 0.00 0.00 0.00 0.00 0.00 0.00 0.00 0.00 0.00 0.00 0.00
0.06 0.19 0.33 0.27 0.24 0.20 0.12 0.10 0.11 0.13 0.11 0.07 0.06 0.04 0.03 0.03 0.04 0.03 0.01 0.01 0.01 0.01 0.00 0.00 0.00 0.00 0.00 0.01 0.01 0.01 0.00 0.00 0.00 0.00 0.00 0.00 0.00 0.00 0.00 0.00 0.00 0.00 0.00 0.00
0.06 0.12 0.22 0.16 0.14 0.09 0.05 0.02 0.02 0.05 0.05 0.02 0.02 0.02 0.02 0.02 0.03 0.02 0.01 0.01 0.00 0.00 0.00 0.00 0.00 0.00 0.00 0.00 0.00 0.00 0.00 0.00 0.00 0.00 0.00 0.00 0.00 0.00 0.00 0.00 0.00 0.00 0.00 0.00
0.07 0.10 0.11 0.09 0.07 0.02 0.01 0.00 0.00 0.02 0.02 0.00 0.01 0.01 0.02 0.02 0.02 0.01 0.01 0.00 0.00 0.00 0.00 0.00 0.00 0.00 0.00 0.00 0.00 0.00 0.00 0.00 0.00 0.00 0.00 0.00 0.00 0.00 0.00 0.00 0.00 0.00 0.00 0.00
0.02 0.03 0.04 0.04 0.03 0.00 0.00 0.00 0.00 0.00 0.00 0.00 0.00 0.00 0.01 0.01 0.01 0.01 0.01 0.00 0.00 0.00 0.00 0.00 0.00 0.00 0.00 0.00 0.00 0.00 0.00 0.00 0.00 0.00 0.00 0.00 0.00 0.00 0.00 0.00 0.00 0.00 0.00 0.00
0.00 0.00 0.00 0.00 0.00 0.00 0.00 0.00 0.00 0.00 0.00 0.00 0.00 0.01 0.01 0.01 0.01 0.01 0.01 0.00 0.00 0.00 0.00 0.00 0.00 0.00 0.00 0.00 0.00 0.00 0.00 0.00 0.00 0.00 0.00 0.00 0.00 0.00 0.00 0.00 0.00 0.00 0.00 0.00
0.00 0.00 0.00 0.00 0.00 0.00 0.00 0.00 0.00 0.00 0.00 0.00 0.00 0.00 0.01 0.01 0.01 0.01 0.00 0.00 0.00 0.00 0.00 0.00 0.00 0.00 0.00 0.00 0.00 0.00 0.00 0.00 0.00 0.00 0.00 0.00 0.00 0.00 0.00 0.00 0.00 0.00 0.00 0.00
0.00 0.00 0.00 0.00 0.00 0.00 0.00 0.00 0.00 0.00 0.00 0.00 0.00 0.00 0.00 0.00 0.00 0.00 0.00 0.00 0.00 0.00 0.00 0.00 0.00 0.00 0.00 0.00 0.00 0.00 0.00 0.00 0.00 0.00 0.00 0.00 0.00 0.00 0.00 0.00 0.00 0.00 0.00 0.00
0.00 0.00 0.00 0.00 0.00 0.00 0.00 0.00 0.00 0.00 0.00 0.00 0.00 0.00 0.00 0.00 0.00 0.00 0.00 0.00 0.00 0.00 0.00 0.00 0.00 0.00 0.00 0.00 0.00 0.00 0.00 0.00 0.00 0.00 0.00 0.00 0.00 0.00 0.00 0.00 0.00 0.00 0.00 0.00

GEFSCGP_prec_meanprecacc_036.txt.gz
Total_Precipitation_Accumulation
0.17 0.25 0.17 0.08 0.06 0.04 0.04 0.04 0.03 0.01 0.00 0.01 0.00 0.00 0.00 0.00 0.00 0.00 0.00 0.00 0.00 0.00 0.00 0.00 0.00 0.00 0.00 0.00 0.00 0.00 0.00 0.00 0.00 0.01 0.03 0.06 0.09 0.13 0.14 0.13 0.10 0.08 0.05 0.03
0.24 0.19 0.09 0.06 0.07 0.07 0.07 0.09 0.06 0.02 0.01 0.02 0.01 0.00 0.00 0.00 0.00 0.00 0.00 0.00 0.00 0.00 0.00 0.00 0.00 0.00 0.00 0.00 0.00 0.00 0.00 0.00 0.00 0.01 0.04 0.10 0.14 0.15 0.16 0.14 0.11 0.10 0.08 0.06
0.20 0.12 0.10 0.11 0.13 0.11 0.08 0.08 0.07 0.06 0.04 0.04 0.04 0.01 0.00 0.00 0.00 0.00 0.00 0.00 0.00 0.00 0.00 0.00 0.00 0.00 0.00 0.00 0.00 0.00 0.00 0.00 0.00 0.01 0.03 0.06 0.08 0.09 0.09 0.08 0.09 0.09 0.09 0.08
0.23 0.17 0.19 0.18 0.15 0.12 0.09 0.04 0.07 0.09 0.11 0.10 0.07 0.04 0.00 0.00 0.00 0.00 0.00 0.00 0.00 0.00 0.00 0.00 0.00 0.00 0.00 0.00 0.00 0.00 0.00 0.00 0.00 0.00 0.02 0.05 0.07 0.07 0.07 0.08 0.08 0.08 0.08 0.07
0.30 0.25 0.27 0.25 0.12 0.12 0.10 0.06 0.10 0.16 0.19 0.19 0.12 0.07 0.01 0.00 0.00 0.00 0.00 0.00 0.00 0.00 0.00 0.00 0.00 0.00 0.00 0.00 0.00 0.00 0.00 0.00 0.00 0.00 0.01 0.05 0.08 0.08 0.07 0.06 0.05 0.05 0.05 0.05
0.27 0.26 0.31 0.25 0.12 0.15 0.18 0.21 0.23 0.26 0.38 0.35 0.15 0.10 0.04 0.00 0.00 0.00 0.00 0.00 0.00 0.00 0.00 0.00 0.00 0.00 0.00 0.00 0.00 0.00 0.00 0.00 0.00 0.00 0.01 0.02 0.05 0.06 0.05 0.04 0.03 0.04 0.04 0.03
0.50 0.42 0.33 0.33 0.32 0.34 0.39 0.56 0.67 0.57 0.55 0.33 0.11 0.10 0.05 0.00 0.00 0.00 0.00 0.00 0.00 0.00 0.00 0.00 0.00 0.00 0.00 0.00 0.00 0.00 0.00 0.00 0.01 0.00 0.00 0.02 0.05 0.08 0.08 0.06 0.04 0.04 0.04 0.03
0.55 0.46 0.30 0.38 0.44 0.49 0.45 0.54 0.60 0.43 0.26 0.13 0.10 0.09 0.03 0.00 0.00 0.00 0.00 0.00 0.00 0.00 0.00 0.00 0.00 0.00 0.00 0.00 0.00 0.00 0.00 0.00 0.01 0.00 0.00 0.01 0.02 0.03 0.04 0.04 0.04 0.04 0.04 0.04
0.41 0.40 0.24 0.27 0.33 0.36 0.46 0.49 0.39 0.47 0.31 0.18 0.11 0.07 0.02 0.00 0.00 0.00 0.00 0.00 0.00 0.00 0.00 0.00 0.00 0.00 0.00 0.00 0.00 0.00 0.00 0.00 0.01 0.01 0.00 0.00 0.00 0.01 0.02 0.02 0.03 0.03 0.03 0.03
0.40 0.51 0.34 0.35 0.48 0.45 0.43 0.42 0.52 0.81 0.59 0.28 0.11 0.05 0.01 0.00 0.00 0.00 0.00 0.00 0.00 0.00 0.00 0.00 0.00 0.00 0.00 0.00 0.00 0.00 0.00 0.01 0.01 0.01 0.00 0.00 0.00 0.00 0.01 0.01 0.02 0.02 0.02 0.02
0.39 0.61 0.50 0.52 0.61 0.43 0.44 0.52 0.60 0.61 0.47 0.38 0.17 0.05 0.02 0.01 0.01 0.01 0.01 0.00 0.00 0.00 0.00 0.00 0.00 0.00 0.00 0.00 0.00 0.00 0.01 0.01 0.01 0.01 0.00 0.00 0.00 0.00 0.01 0.01 0.01 0.01 0.01 0.01
0.37 0.63 0.55 0.40 0.35 0.27 0.33 0.35 0.44 0.59 0.43 0.33 0.22 0.06 0.01 0.01 0.02 0.03 0.03 0.02 0.01 0.00 0.00 0.00 0.00 0.00 0.00 0.01 0.01 0.02 0.02 0.02 0.01 0.00 0.00 0.00 0.00 0.00 0.01 0.01 0.01 0.01 0.01 0.00
0.39 0.67 0.67 0.48 0.46 0.45 0.44 0.33 0.35 0.54 0.69 0.49 0.32 0.09 0.02 0.02 0.04 0.07 0.06 0.06 0.04 0.02 0.01 0.01 0.00 0.00 0.01 0.01 0.02 0.03 0.02 0.01 0.01 0.00 0.00 0.00 0.00 0.00 0.01 0.01 0.01 0.01 0.00 0.00
0.54 0.72 0.64 0.52 0.44 0.48 0.47 0.34 0.38 0.77 0.90 0.43 0.20 0.09 0.06 0.06 0.08 0.10 0.11 0.09 0.07 0.04 0.02 0.02 0.01 0.02 0.02 0.02 0.02 0.02 0.01 0.01 0.01 0.01 0.00 0.01 0.01 0.01 0.01 0.01 0.01 0.00 0.00 0.00
0.56 0.75 0.56 0.37 0.30 0.41 0.43 0.38 0.46 0.70 0.61 0.46 0.21 0.14 0.14 0.12 0.13 0.11 0.10 0.07 0.05 0.04 0.03 0.03 0.03 0.02 0.02 0.01 0.01 0.01 0.01 0.01 0.01 0.01 0.01 0.01 0.01 0.01 0.01 0.01 0.00 0.00 0.00 0.00
0.37 0.58 0.55 0.42 0.29 0.37 0.40 0.36 0.41 0.47 0.41 0.37 0.29 0.26 0.16 0.13 0.12 0.12 0.11 0.07 0.05 0.04 0.04 0.03 0.02 0.02 0.01 0.01 0.01 0.01 0.01 0.02 0.02 0.02 0.02 0.03 0.02 0.02 0.01 0.01 0.00 0.00 0.00 0.00
0.24 0.42 0.59 0.49 0.32 0.39 0.49 0.39 0.39 0.37 0.27 0.25 0.27 0.20 0.13 0.15 0.14 0.11 0.09 0.06 0.04 0.03 0.02 0.02 0.01 0.01 0.01 0.01 0.01 0.01 0.02 0.02 0.03 0.03 0.03 0.03 0.03 0.02 0.01 0.01 0.00 0.00 0.00 0.00
0.11 0.27 0.48 0.41 0.37 0.47 0.39 0.28 0.27 0.26 0.19 0.17 0.17 0.11 0.11 0.13 0.13 0.10 0.07 0.06 0.04 0.02 0.02 0.01 0.01 0.01 0.01 0.01 0.01 0.02 0.03 0.03 0.04 0.04 0.03 0.02 0.02 0.01 0.01 0.01 0.01 0.01 0.01 0.01
0.06 0.21 0.38 0.30 0.26 0.21 0.14 0.11 0.12 0.16 0.14 0.11 0.11 0.09 0.08 0.10 0.13 0.12 0.10 0.08 0.06 0.04 0.02 0.01 0.01 0.01 0.01 0.02 0.02 0.03 0.04 0.04 0.04 0.03 0.03 0.03 0.02 0.02 0.02 0.02 0.02 0.01 0.01 0.00
0.06 0.14 0.27 0.19 0.18 0.10 0.06 0.03 0.02 0.05 0.07 0.04 0.06 0.08 0.08 0.09 0.11 0.10 0.08 0.07 0.06 0.06 0.04 0.03 0.02 0.02 0.02 0.03 0.03 0.05 0.06 0.06 0.06 0.05 0.05 0.04 0.04 0.04 0.03 0.02 0.01 0.00 0.00 0.00
0.08 0.12 0.15 0.12 0.10 0.02 0.01 0.01 0.00 0.03 0.03 0.01 0.02 0.05 0.07 0.08 0.08 0.07 0.06 0.05 0.05 0.06 0.05 0.05 0.06 0.06 0.07 0.08 0.09 0.10 0.11 0.11 0.10 0.08 0.06 0.05 0.04 0.02 0.01 0.00 0.00 0.00 0.00 0.00
0.02 0.04 0.05 0.05 0.05 0.01 0.00 0.00 0.00 0.01 0.01 0.00 0.01 0.02 0.04 0.06 0.07 0.07 0.05 0.03 0.03 0.04 0.04 0.05 0.06 0.07 0.09 0.10 0.11 0.11 0.10 0.09 0.07 0.05 0.03 0.02 0.01 0.00 0.00 0.00 0.00 0.00 0.00 0.00
0.01 0.01 0.01 0.01 0.01 0.00 0.00 0.00 0.00 0.00 0.00 0.00 0.00 0.01 0.03 0.05 0.05 0.05 0.05 0.03 0.01 0.01 0.01 0.02 0.03 0.03 0.03 0.04 0.05 0.04 0.03 0.02 0.01 0.01 0.00 0.00 0.00 0.00 0.00 0.00 0.00 0.00 0.00 0.00
0.01 0.00 0.00 0.00 0.00 0.00 0.00 0.00 0.00 0.00 0.00 0.00 0.00 0.01 0.02 0.03 0.03 0.02 0.02 0.02 0.01 0.01 0.00 0.00 0.00 0.00 0.01 0.01 0.01 0.00 0.00 0.00 0.00 0.00 0.00 0.00 0.00 0.00 0.00 0.00 0.00 0.00 0.00 0.00
0.01 0.00 0.00 0.00 0.00 0.00 0.00 0.00 0.00 0.00 0.00 0.00 0.00 0.00 0.00 0.00 0.01 0.01 0.01 0.00 0.00 0.00 0.00 0.00 0.00 0.00 0.00 0.00 0.00 0.00 0.00 0.00 0.00 0.00 0.00 0.00 0.00 0.00 0.00 0.00 0.00 0.00 0.00 0.00
0.00 0.00 0.00 0.00 0.00 0.00 0.00 0.00 0.00 0.00 0.00 0.00 0.00 0.00 0.00 0.00 0.00 0.01 0.01 0.00 0.00 0.00 0.00 0.00 0.00 0.00 0.00 0.00 0.00 0.00 0.00 0.00 0.00 0.00 0.00 0.00 0.00 0.00 0.00 0.00 0.00 0.00 0.00 0.00

GEFSCGP_prec_meanprecacc_042.txt.gz
Total_Precipitation_Accumulation
0.23 0.30 0.20 0.09 0.06 0.04 0.04 0.04 0.03 0.01 0.00 0.01 0.00 0.00 0.00 0.00 0.00 0.00 0.00 0.00 0.00 0.00 0.00 0.00 0.00 0.00 0.00 0.00 0.00 0.00 0.00 0.01 0.05 0.09 0.10 0.12 0.13 0.17 0.18 0.16 0.14 0.11 0.07 0.03
0.28 0.22 0.11 0.07 0.08 0.07 0.08 0.09 0.06 0.02 0.01 0.02 0.01 0.00 0.00 0.00 0.00 0.00 0.00 0.00 0.00 0.00 0.00 0.00 0.00 0.00 0.00 0.00 0.00 0.00 0.00 0.01 0.02 0.03 0.07 0.16 0.23 0.26 0.26 0.23 0.18 0.15 0.11 0.08
0.23 0.14 0.11 0.12 0.13 0.11 0.08 0.08 0.07 0.06 0.04 0.04 0.04 0.01 0.00 0.00 0.00 0.00 0.00 0.00 0.00 0.00 0.00 0.00 0.00 0.00 0.00 0.00 0.00 0.00 0.00 0.00 0.02 0.04 0.11 0.17 0.21 0.21 0.19 0.15 0.13 0.15 0.15 0.13
0.23 0.17 0.19 0.19 0.15 0.13 0.09 0.04 0.07 0.09 0.11 0.10 0.07 0.04 0.00 0.00 0.00 0.00 0.00 0.00 0.00 0.00 0.00 0.00 0.00 0.00 0.00 0.00 0.00 0.00 0.00 0.00 0.01 0.04 0.06 0.09 0.10 0.10 0.11 0.13 0.15 0.17 0.16 0.16
0.30 0.25 0.27 0.25 0.12 0.12 0.10 0.06 0.10 0.16 0.19 0.19 0.12 0.07 0.01 0.00 0.00 0.00 0.00 0.00 0.00 0.00 0.00 0.00 0.00 0.00 0.00 0.00 0.00 0.00 0.00 0.00 0.01 0.02 0.03 0.07 0.10 0.10 0.11 0.12 0.12 0.13 0.13 0.14
0.27 0.26 0.31 0.25 0.12 0.15 0.18 0.21 0.23 0.26 0.38 0.35 0.15 0.10 0.04 0.00 0.00 0.00 0.00 0.00 0.00 0.00 0.00 0.00 0.00 0.00 0.00 0.00 0.00 0.00 0.00 0.00 0.01 0.01 0.02 0.04 0.06 0.08 0.07 0.07 0.08 0.10 0.11 0.11
0.51 0.42 0.33 0.33 0.32 0.34 0.39 0.56 0.67 0.57 0.55 0.33 0.11 0.10 0.05 0.00 0.00 0.00 0.00 0.00 0.00 0.00 0.00 0.00 0.00 0.00 0.00 0.00 0.00 0.00 0.00 0.00 0.01 0.01 0.02 0.03 0.06 0.10 0.10 0.09 0.09 0.09 0.09 0.09
0.55 0.46 0.30 0.38 0.44 0.49 0.45 0.54 0.60 0.43 0.26 0.13 0.10 0.09 0.03 0.00 0.00 0.00 0.00 0.00 0.00 0.00 0.00 0.00 0.00 0.00 0.00 0.00 0.00 0.00 0.00 0.00 0.01 0.01 0.01 0.02 0.03 0.06 0.07 0.09 0.08 0.09 0.10 0.10
0.41 0.40 0.24 0.28 0.33 0.36 0.46 0.50 0.39 0.47 0.31 0.18 0.11 0.07 0.02 0.00 0.00 0.00 0.00 0.00 0.00 0.00 0.00 0.00 0.00 0.00 0.00 0.00 0.00 0.00 0.00 0.01 0.02 0.02 0.02 0.02 0.02 0.04 0.06 0.06 0.07 0.08 0.09 0.09
0.40 0.51 0.34 0.35 0.48 0.45 0.44 0.42 0.52 0.81 0.59 0.28 0.11 0.05 0.01 0.00 0.00 0.00 0.00 0.00 0.00 0.00 0.00 0.00 0.00 0.00 0.00 0.00 0.00 0.00 0.01 0.02 0.03 0.03 0.03 0.02 0.03 0.04 0.05 0.05 0.05 0.05 0.06 0.07
0.39 0.61 0.50 0.52 0.61 0.43 0.44 0.52 0.60 0.61 0.47 0.38 0.17 0.05 0.02 0.01 0.01 0.01 0.01 0.00 0.00 0.00 0.00 0.00 0.00 0.00 0.00 0.00 0.00 0.01 0.02 0.03 0.04 0.03 0.03 0.03 0.03 0.03 0.04 0.04 0.04 0.04 0.05 0.05
0.37 0.63 0.55 0.40 0.35 0.27 0.33 0.35 0.44 0.59 0.43 0.33 0.22 0.06 0.01 0.01 0.02 0.03 0.03 0.02 0.01 0.00 0.00 0.00 0.00 0.00 0.00 0.01 0.02 0.03 0.04 0.05 0.04 0.03 0.03 0.03 0.04 0.04 0.04 0.04 0.03 0.03 0.04 0.04
0.39 0.67 0.67 0.48 0.46 0.45 0.44 0.33 0.35 0.54 0.70 0.50 0.33 0.09 0.02 0.02 0.04 0.07 0.07 0.06 0.04 0.03 0.02 0.02 0.02 0.01 0.02 0.02 0.04 0.05 0.05 0.04 0.03 0.04 0.04 0.03 0.03 0.03 0.04 0.04 0.03 0.03 0.03 0.03
0.55 0.72 0.64 0.52 0.44 0.48 0.47 0.34 0.38 0.78 0.92 0.44 0.20 0.09 0.06 0.06 0.09 0.11 0.12 0.11 0.08 0.05 0.04 0.04 0.03 0.04 0.03 0.04 0.04 0.04 0.03 0.03 0.04 0.04 0.04 0.04 0.04 0.04 0.04 0.04 0.03 0.03 0.02 0.02
0.57 0.75 0.56 0.37 0.30 0.41 0.43 0.38 0.46 0.70 0.62 0.48 0.21 0.14 0.14 0.13 0.15 0.13 0.12 0.09 0.06 0.05 0.05 0.05 0.05 0.05 0.05 0.04 0.03 0.02 0.03 0.03 0.04 0.05 0.05 0.05 0.04 0.04 0.04 0.04 0.03 0.02 0.02 0.02
0.37 0.58 0.55 0.42 0.29 0.37 0.40 0.36 0.41 0.47 0.42 0.39 0.30 0.27 0.16 0.15 0.14 0.13 0.12 0.08 0.06 0.05 0.05 0.05 0.05 0.05 0.06 0.06 0.04 0.03 0.04 0.05 0.05 0.06 0.07 0.07 0.06 0.05 0.04 0.04 0.03 0.02 0.02 0.02
0.24 0.42 0.59 0.49 0.32 0.40 0.49 0.39 0.39 0.38 0.27 0.26 0.29 0.22 0.15 0.16 0.16 0.13 0.11 0.08 0.05 0.03 0.03 0.03 0.02 0.03 0.03 0.03 0.03 0.05 0.06 0.07 0.07 0.07 0.07 0.07 0.06 0.05 0.04 0.03 0.03 0.04 0.04 0.04
0.11 0.27 0.49 0.41 0.37 0.47 0.39 0.28 0.27 0.26 0.19 0.18 0.18 0.12 0.12 0.15 0.15 0.11 0.08 0.07 0.04 0.03 0.02 0.01 0.01 0.01 0.02 0.02 0.02 0.03 0.04 0.05 0.06 0.06 0.06 0.05 0.05 0.06 0.06 0.06 0.07 0.09 0.11 0.12
0.06 0.21 0.39 0.31 0.27 0.21 0.14 0.11 0.13 0.16 0.14 0.11 0.11 0.10 0.09 0.11 0.14 0.12 0.11 0.09 0.06 0.04 0.03 0.01 0.01 0.01 0.02 0.02 0.02 0.03 0.04 0.05 0.06 0.07 0.09 0.09 0.10 0.14 0.17 0.19 0.19 0.19 0.18 0.17
0.07 0.15 0.30 0.21 0.19 0.11 0.06 0.03 0.02 0.06 0.07 0.04 0.06 0.08 0.09 0.10 0.12 0.11 0.09 0.08 0.08 0.06 0.05 0.04 0.03 0.03 0.04 0.04 0.04 0.06 0.09 0.12 0.14 0.17 0.21 0.24 0.25 0.30 0.32 0.31 0.28 0.23 0.18 0.13
0.09 0.14 0.18 0.14 0.12 0.03 0.01 0.01 0.01 0.04 0.04 0.01 0.02 0.06 0.09 0.09 0.09 0.08 0.07 0.07 0.07 0.08 0.09 0.10 0.11 0.13 0.14 0.14 0.17 0.21 0.24 0.29 0.30 0.30 0.34 0.36 0.32 0.30 0.28 0.24 0.20 0.14 0.09 0.05
0.03 0.05 0.06 0.06 0.06 0.02 0.01 0.01 0.00 0.01 0.01 0.00 0.01 0.02 0.05 0.07 0.08 0.08 0.06 0.04 0.05 0.06 0.08 0.12 0.17 0.23 0.26 0.29 0.35 0.39 0.39 0.40 0.37 0.34 0.33 0.30 0.26 0.22 0.18 0.13 0.08 0.04 0.02 0.01
0.01 0.01 0.02 0.02 0.01 0.01 0.00 0.00 0.00 0.00 0.00 0.00 0.01 0.02 0.03 0.06 0.06 0.06 0.06 0.04 0.02 0.03 0.05 0.08 0.13 0.16 0.20 0.25 0.29 0.32 0.31 0.27 0.24 0.22 0.20 0.16 0.13 0.09 0.06 0.03 0.01 0.01 0.00 0.00
0.02 0.01 0.01 0.00 0.00 0.00 0.00 0.00 0.00 0.00 0.00 0.00 0.01 0.01 0.02 0.03 0.03 0.02 0.02 0.03 0.02 0.02 0.01 0.02 0.03 0.04 0.05 0.06 0.09 0.11 0.10 0.09 0.07 0.06 0.05 0.03 0.02 0.01 0.00 0.00 0.00 0.00 0.00 0.00
0.02 0.02 0.01 0.01 0.00 0.00 0.00 0.00 0.00 0.00 0.00 0.00 0.00 0.00 0.01 0.01 0.01 0.01 0.01 0.01 0.01 0.01 0.00 0.01 0.01 0.01 0.02 0.02 0.02 0.02 0.02 0.01 0.01 0.01 0.00 0.00 0.00 0.00 0.00 0.00 0.00 0.00 0.00 0.00
0.00 0.00 0.00 0.00 0.00 0.00 0.00 0.00 0.00 0.00 0.00 0.00 0.00 0.00 0.00 0.00 0.00 0.01 0.01 0.00 0.00 0.00 0.00 0.00 0.00 0.00 0.00 0.00 0.00 0.00 0.00 0.00 0.00 0.00 0.00 0.00 0.00 0.00 0.00 0.00 0.00 0.00 0.00 0.00

GEFSCGP_prec_meanprecacc_048.txt.gz
Total_Precipitation_Accumulation
0.30 0.36 0.25 0.11 0.07 0.04 0.04 0.04 0.03 0.01 0.00 0.01 0.00 0.00 0.00 0.00 0.00 0.00 0.00 0.00 0.00 0.00 0.00 0.00 0.00 0.00 0.00 0.00 0.00 0.00 0.00 0.02 0.07 0.12 0.13 0.15 0.15 0.19 0.21 0.19 0.19 0.16 0.09 0.05
0.33 0.26 0.13 0.09 0.09 0.08 0.08 0.09 0.06 0.02 0.01 0.02 0.01 0.00 0.00 0.00 0.00 0.00 0.00 0.00 0.00 0.00 0.00 0.00 0.00 0.00 0.00 0.00 0.00 0.00 0.00 0.01 0.02 0.04 0.08 0.18 0.26 0.29 0.29 0.29 0.26 0.22 0.17 0.14
0.28 0.17 0.13 0.15 0.17 0.13 0.09 0.08 0.07 0.06 0.04 0.04 0.04 0.01 0.00 0.00 0.00 0.00 0.00 0.00 0.00 0.00 0.00 0.00 0.00 0.00 0.00 0.00 0.00 0.00 0.00 0.00 0.02 0.05 0.14 0.23 0.28 0.26 0.23 0.18 0.15 0.19 0.22 0.22
0.29 0.21 0.22 0.23 0.19 0.15 0.10 0.05 0.07 0.09 0.11 0.10 0.07 0.04 0.00 0.00 0.00 0.00 0.00 0.00 0.00 0.00 0.00 0.00 0.00 0.00 0.00 0.00 0.00 0.00 0.00 0.00 0.01 0.04 0.07 0.11 0.12 0.12 0.12 0.14 0.17 0.22 0.25 0.27
0.35 0.28 0.30 0.28 0.15 0.14 0.12 0.06 0.10 0.16 0.19 0.19 0.12 0.07 0.01 0.00 0.00 0.00 0.00 0.00 0.00 0.00 0.00 0.00 0.00 0.00 0.00 0.00 0.00 0.00 0.00 0.00 0.01 0.02 0.04 0.08 0.11 0.11 0.12 0.14 0.16 0.17 0.20 0.23
0.29 0.28 0.33 0.28 0.13 0.16 0.19 0.21 0.23 0.26 0.38 0.35 0.15 0.10 0.04 0.00 0.00 0.00 0.00 0.00 0.00 0.00 0.00 0.00 0.00 0.00 0.00 0.00 0.00 0.00 0.00 0.00 0.01 0.01 0.02 0.05 0.07 0.08 0.09 0.09 0.12 0.14 0.16 0.18
0.52 0.43 0.34 0.34 0.33 0.35 0.40 0.56 0.67 0.57 0.55 0.33 0.11 0.10 0.05 0.00 0.00 0.00 0.00 0.00 0.00 0.00 0.00 0.00 0.00 0.00 0.00 0.00 0.00 0.00 0.00 0.00 0.01 0.01 0.02 0.03 0.07 0.10 0.11 0.11 0.12 0.14 0.13 0.12
0.56 0.47 0.31 0.39 0.45 0.49 0.45 0.55 0.60 0.43 0.26 0.13 0.10 0.09 0.03 0.00 0.00 0.00 0.00 0.00 0.00 0.00 0.00 0.00 0.00 0.00 0.00 0.00 0.00 0.00 0.00 0.00 0.01 0.01 0.02 0.02 0.04 0.07 0.08 0.10 0.10 0.12 0.13 0.16
0.41 0.40 0.24 0.28 0.33 0.36 0.46 0.50 0.39 0.47 0.31 0.18 0.11 0.07 0.02 0.00 0.00 0.00 0.00 0.00 0.00 0.00 0.00 0.00 0.00 0.00 0.00 0.00 0.00 0.00 0.00 0.01 0.02 0.02 0.02 0.02 0.02 0.04 0.06 0.08 0.09 0.11 0.12 0.14
0.40 0.51 0.34 0.35 0.48 0.45 0.44 0.42 0.52 0.81 0.59 0.28 0.11 0.05 0.01 0.00 0.00 0.00 0.00 0.00 0.00 0.00 0.00 0.00 0.00 0.00 0.00 0.00 0.00 0.00 0.01 0.02 0.03 0.03 0.03 0.02 0.03 0.04 0.05 0.06 0.06 0.08 0.10 0.11
0.39 0.61 0.51 0.52 0.61 0.43 0.44 0.52 0.60 0.61 0.47 0.38 0.17 0.05 0.02 0.01 0.01 0.01 0.01 0.00 0.00 0.00 0.00 0.00 0.00 0.00 0.00 0.00 0.00 0.01 0.02 0.03 0.04 0.03 0.03 0.03 0.03 0.04 0.05 0.05 0.06 0.07 0.08 0.09
0.37 0.63 0.55 0.40 0.35 0.27 0.33 0.35 0.44 0.59 0.43 0.33 0.22 0.06 0.01 0.01 0.02 0.03 0.03 0.02 0.01 0.00 0.00 0.00 0.00 0.00 0.00 0.01 0.02 0.03 0.05 0.05 0.04 0.04 0.03 0.04 0.04 0.05 0.05 0.06 0.06 0.06 0.07 0.07
0.39 0.67 0.67 0.48 0.46 0.45 0.44 0.33 0.35 0.54 0.70 0.50 0.33 0.09 0.02 0.02 0.04 0.07 0.07 0.06 0.04 0.03 0.02 0.02 0.02 0.01 0.02 0.02 0.04 0.05 0.05 0.04 0.04 0.04 0.04 0.04 0.04 0.05 0.06 0.07 0.06 0.06 0.05 0.05
0.55 0.72 0.64 0.52 0.44 0.48 0.47 0.34 0.38 0.78 0.92 0.44 0.20 0.09 0.06 0.06 0.09 0.11 0.12 0.11 0.08 0.05 0.04 0.04 0.03 0.04 0.03 0.04 0.05 0.05 0.04 0.04 0.05 0.05 0.05 0.05 0.05 0.06 0.07 0.07 0.06 0.05 0.04 0.03
0.57 0.75 0.56 0.37 0.30 0.41 0.43 0.38 0.46 0.70 0.62 0.48 0.21 0.14 0.14 0.13 0.15 0.13 0.12 0.09 0.07 0.05 0.05 0.05 0.05 0.05 0.05 0.05 0.04 0.03 0.04 0.04 0.05 0.06 0.08 0.08 0.07 0.07 0.07 0.06 0.05 0.04 0.03 0.02
0.37 0.58 0.55 0.42 0.29 0.37 0.40 0.36 0.41 0.47 0.42 0.39 0.30 0.27 0.16 0.15 0.14 0.13 0.12 0.09 0.06 0.05 0.05 0.05 0.05 0.05 0.06 0.07 0.05 0.06 0.07 0.07 0.08 0.10 0.11 0.10 0.09 0.08 0.07 0.06 0.05 0.04 0.03 0.03
0.24 0.42 0.59 0.49 0.32 0.40 0.49 0.39 0.39 0.38 0.28 0.27 0.29 0.22 0.15 0.17 0.16 0.13 0.11 0.08 0.05 0.03 0.03 0.03 0.02 0.03 0.03 0.03 0.04 0.07 0.10 0.13 0.13 0.13 0.13 0.13 0.12 0.11 0.08 0.08 0.09 0.09 0.09 0.10
0.11 0.27 0.49 0.41 0.37 0.47 0.39 0.28 0.27 0.26 0.19 0.18 0.18 0.12 0.13 0.15 0.15 0.11 0.09 0.07 0.04 0.03 0.02 0.01 0.01 0.01 0.02 0.02 0.03 0.04 0.06 0.08 0.12 0.13 0.13 0.13 0.14 0.15 0.13 0.15 0.17 0.19 0.23 0.26
0.06 0.21 0.39 0.31 0.27 0.21 0.14 0.12 0.13 0.16 0.15 0.11 0.11 0.10 0.09 0.11 0.14 0.13 0.11 0.09 0.06 0.04 0.03 0.01 0.01 0.01 0.02 0.02 0.03 0.04 0.05 0.07 0.09 0.12 0.14 0.15 0.17 0.24 0.30 0.34 0.36 0.36 0.38 0.39
0.07 0.16 0.31 0.23 0.20 0.12 0.07 0.03 0.03 0.07 0.08 0.04 0.06 0.08 0.09 0.10 0.12 0.11 0.09 0.08 0.08 0.06 0.05 0.04 0.03 0.03 0.04 0.04 0.04 0.06 0.09 0.13 0.17 0.21 0.26 0.30 0.34 0.44 0.50 0.51 0.50 0.46 0.42 0.38
0.10 0.16 0.20 0.16 0.13 0.03 0.01 0.01 0.01 0.05 0.05 0.01 0.02 0.06 0.09 0.09 0.09 0.08 0.07 0.07 0.07 0.08 0.09 0.10 0.11 0.13 0.14 0.14 0.17 0.21 0.25 0.31 0.35 0.36 0.42 0.47 0.45 0.45 0.45 0.42 0.38 0.32 0.26 0.20
0.03 0.06 0.07 0.07 0.07 0.03 0.01 0.01 0.01 0.02 0.01 0.00 0.01 0.02 0.05 0.07 0.08 0.08 0.06 0.04 0.05 0.07 0.08 0.12 0.18 0.24 0.27 0.30 0.37 0.42 0.43 0.44 0.43 0.42 0.43 0.42 0.39 0.35 0.31 0.26 0.19 0.13 0.09 0.06
0.01 0.01 0.02 0.02 0.02 0.01 0.00 0.00 0.00 0.00 0.00 0.00 0.01 0.02 0.03 0.06 0.06 0.06 0.06 0.04 0.03 0.03 0.05 0.08 0.13 0.17 0.21 0.26 0.30 0.35 0.35 0.33 0.30 0.29 0.27 0.24 0.20 0.16 0.12 0.09 0.05 0.03 0.02 0.01
0.02 0.01 0.02 0.01 0.00 0.00 0.00 0.00 0.00 0.00 0.00 0.00 0.01 0.02 0.02 0.03 0.03 0.02 0.02 0.03 0.03 0.02 0.01 0.02 0.03 0.04 0.05 0.07 0.10 0.13 0.12 0.11 0.10 0.09 0.08 0.06 0.04 0.03 0.02 0.01 0.00 0.00 0.00 0.00
0.03 0.03 0.02 0.02 0.01 0.00 0.01 0.01 0.00 0.00 0.00 0.00 0.00 0.00 0.01 0.01 0.01 0.01 0.01 0.01 0.01 0.01 0.00 0.01 0.01 0.01 0.02 0.02 0.03 0.02 0.02 0.02 0.01 0.01 0.01 0.01 0.00 0.00 0.00 0.00 0.00 0.00 0.00 0.00
0.00 0.00 0.00 0.01 0.00 0.01 0.01 0.00 0.00 0.00 0.00 0.00 0.00 0.00 0.00 0.00 0.00 0.01 0.01 0.00 0.00 0.00 0.00 0.00 0.00 0.00 0.00 0.00 0.00 0.00 0.00 0.00 0.00 0.00 0.00 0.00 0.00 0.00 0.00 0.00 0.00 0.00 0.00 0.00

GEFSCGP_prec_meanprecacc_054.txt.gz
Total_Precipitation_Accumulation
0.55 0.50 0.31 0.12 0.07 0.04 0.04 0.04 0.03 0.01 0.00 0.01 0.00 0.00 0.00 0.00 0.00 0.00 0.00 0.00 0.00 0.00 0.00 0.00 0.00 0.00 0.00 0.00 0.00 0.00 0.00 0.02 0.07 0.13 0.14 0.15 0.16 0.19 0.21 0.20 0.21 0.19 0.13 0.09
0.57 0.38 0.17 0.10 0.10 0.08 0.08 0.09 0.06 0.02 0.01 0.02 0.01 0.00 0.00 0.00 0.00 0.00 0.00 0.00 0.00 0.00 0.00 0.00 0.00 0.00 0.00 0.00 0.00 0.00 0.00 0.01 0.02 0.04 0.08 0.18 0.26 0.29 0.30 0.30 0.27 0.23 0.18 0.17
0.45 0.26 0.18 0.19 0.19 0.14 0.09 0.08 0.07 0.06 0.04 0.04 0.04 0.01 0.00 0.00 0.00 0.00 0.00 0.00 0.00 0.00 0.00 0.00 0.00 0.00 0.00 0.00 0.00 0.00 0.00 0.00 0.02 0.05 0.14 0.23 0.29 0.27 0.24 0.18 0.15 0.19 0.22 0.23
0.42 0.28 0.28 0.28 0.24 0.19 0.12 0.05 0.07 0.10 0.11 0.11 0.07 0.04 0.00 0.00 0.00 0.00 0.00 0.00 0.00 0.00 0.00 0.00 0.00 0.00 0.00 0.00 0.00 0.00 0.00 0.00 0.01 0.04 0.07 0.11 0.12 0.12 0.12 0.14 0.17 0.22 0.25 0.28
0.44 0.35 0.37 0.34 0.20 0.19 0.14 0.07 0.10 0.16 0.19 0.19 0.12 0.07 0.01 0.00 0.00 0.00 0.00 0.00 0.00 0.00 0.00 0.00 0.00 0.00 0.00 0.00 0.00 0.00 0.00 0.00 0.01 0.02 0.04 0.08 0.11 0.11 0.12 0.14 0.16 0.18 0.20 0.24
0.34 0.34 0.40 0.33 0.18 0.21 0.22 0.22 0.23 0.26 0.38 0.35 0.15 0.10 0.04 0.00 0.00 0.00 0.00 0.00 0.00 0.00 0.00 0.00 0.00 0.00 0.00 0.00 0.00 0.00 0.00 0.00 0.01 0.01 0.02 0.05 0.07 0.09 0.09 0.09 0.12 0.15 0.17 0.19
0.59 0.47 0.38 0.38 0.37 0.39 0.43 0.58 0.68 0.58 0.56 0.33 0.11 0.10 0.05 0.00 0.00 0.00 0.00 0.00 0.00 0.00 0.00 0.00 0.00 0.00 0.00 0.00 0.00 0.00 0.00 0.00 0.01 0.01 0.02 0.03 0.07 0.10 0.11 0.11 0.12 0.14 0.14 0.13
0.61 0.52 0.34 0.41 0.48 0.52 0.48 0.56 0.60 0.44 0.26 0.13 0.10 0.09 0.03 0.00 0.00 0.00 0.00 0.00 0.00 0.00 0.00 0.00 0.00 0.00 0.00 0.00 0.00 0.00 0.00 0.00 0.01 0.01 0.02 0.02 0.04 0.07 0.08 0.10 0.11 0.12 0.14 0.17
0.43 0.42 0.25 0.29 0.34 0.37 0.48 0.50 0.39 0.47 0.31 0.18 0.11 0.07 0.02 0.00 0.00 0.00 0.00 0.00 0.00 0.00 0.00 0.00 0.00 0.00 0.00 0.00 0.00 0.00 0.00 0.01 0.02 0.02 0.02 0.02 0.02 0.04 0.06 0.08 0.09 0.11 0.13 0.15
0.41 0.52 0.35 0.35 0.49 0.46 0.44 0.42 0.52 0.81 0.59 0.28 0.11 0.05 0.01 0.00 0.00 0.00 0.00 0.00 0.00 0.00 0.00 0.00 0.00 0.00 0.00 0.00 0.00 0.00 0.01 0.02 0.03 0.03 0.03 0.02 0.03 0.04 0.05 0.06 0.06 0.08 0.10 0.11
0.39 0.61 0.51 0.52 0.61 0.43 0.44 0.52 0.60 0.61 0.47 0.38 0.17 0.05 0.02 0.01 0.01 0.01 0.01 0.00 0.00 0.00 0.00 0.00 0.00 0.00 0.00 0.00 0.00 0.01 0.02 0.03 0.04 0.03 0.03 0.03 0.03 0.04 0.05 0.05 0.06 0.07 0.08 0.09
0.37 0.64 0.56 0.41 0.35 0.27 0.33 0.35 0.44 0.59 0.43 0.33 0.22 0.06 0.01 0.01 0.02 0.03 0.03 0.02 0.01 0.00 0.00 0.00 0.00 0.00 0.00 0.01 0.02 0.03 0.05 0.05 0.04 0.04 0.03 0.04 0.04 0.05 0.05 0.06 0.06 0.06 0.07 0.07
0.39 0.67 0.67 0.48 0.46 0.45 0.44 0.33 0.35 0.54 0.70 0.50 0.33 0.09 0.02 0.02 0.04 0.07 0.07 0.06 0.04 0.03 0.02 0.02 0.02 0.01 0.02 0.02 0.04 0.05 0.05 0.04 0.04 0.04 0.04 0.04 0.04 0.05 0.06 0.07 0.07 0.06 0.06 0.05
0.55 0.72 0.64 0.52 0.44 0.48 0.47 0.34 0.38 0.78 0.92 0.44 0.20 0.09 0.06 0.06 0.09 0.11 0.12 0.11 0.08 0.05 0.04 0.04 0.03 0.04 0.03 0.04 0.05 0.05 0.04 0.04 0.05 0.05 0.05 0.06 0.06 0.07 0.08 0.08 0.07 0.06 0.05 0.05
0.57 0.75 0.56 0.37 0.30 0.41 0.43 0.38 0.46 0.70 0.62 0.48 0.21 0.14 0.14 0.13 0.15 0.13 0.12 0.09 0.07 0.05 0.05 0.05 0.05 0.05 0.05 0.05 0.04 0.03 0.04 0.04 0.05 0.07 0.09 0.09 0.09 0.08 0.08 0.07 0.06 0.05 0.05 0.05
0.37 0.58 0.55 0.42 0.29 0.37 0.40 0.36 0.41 0.47 0.42 0.39 0.30 0.27 0.16 0.15 0.14 0.13 0.12 0.09 0.06 0.05 0.05 0.05 0.05 0.05 0.06 0.07 0.05 0.06 0.07 0.07 0.08 0.10 0.12 0.12 0.11 0.10 0.09 0.09 0.08 0.07 0.07 0.08
0.24 0.42 0.59 0.49 0.32 0.40 0.49 0.39 0.39 0.38 0.28 0.27 0.29 0.22 0.15 0.17 0.16 0.13 0.11 0.08 0.05 0.03 0.03 0.03 0.02 0.03 0.03 0.03 0.04 0.07 0.10 0.13 0.14 0.14 0.14 0.14 0.14 0.13 0.11 0.12 0.13 0.16 0.18 0.19
0.11 0.27 0.49 0.41 0.37 0.47 0.39 0.28 0.27 0.26 0.19 0.18 0.18 0.12 0.13 0.15 0.15 0.11 0.09 0.07 0.04 0.03 0.02 0.01 0.01 0.01 0.02 0.02 0.03 0.04 0.06 0.08 0.12 0.13 0.14 0.15 0.17 0.19 0.17 0.19 0.24 0.30 0.36 0.40
0.06 0.21 0.39 0.31 0.27 0.21 0.14 0.12 0.13 0.16 0.15 0.11 0.11 0.10 0.09 0.11 0.14 0.13 0.11 0.09 0.06 0.04 0.03 0.01 0.01 0.01 0.02 0.02 0.03 0.04 0.05 0.07 0.09 0.12 0.14 0.16 0.19 0.28 0.35 0.40 0.45 0.48 0.53 0.57
0.07 0.16 0.32 0.23 0.20 0.12 0.07 0.03 0.03 0.07 0.10 0.04 0.06 0.09 0.09 0.10 0.12 0.11 0.09 0.08 0.08 0.06 0.05 0.04 0.03 0.03 0.04 0.04 0.04 0.06 0.09 0.13 0.18 0.22 0.27 0.31 0.37 0.48 0.56 0.60 0.61 0.57 0.54 0.53
0.11 0.17 0.21 0.17 0.14 0.03 0.01 0.01 0.02 0.08 0.09 0.01 0.02 0.06 0.09 0.09 0.09 0.08 0.07 0.07 0.07 0.08 0.09 0.10 0.11 0.13 0.14 0.14 0.17 0.22 0.25 0.31 0.35 0.37 0.43 0.48 0.47 0.48 0.49 0.48 0.44 0.39 0.32 0.27
0.03 0.06 0.07 0.07 0.08 0.03 0.02 0.02 0.03 0.04 0.02 0.01 0.01 0.02 0.05 0.07 0.08 0.08 0.06 0.04 0.05 0.07 0.08 0.12 0.18 0.24 0.27 0.30 0.37 0.42 0.43 0.45 0.43 0.42 0.44 0.44 0.42 0.38 0.34 0.29 0.23 0.17 0.12 0.09
0.01 0.01 0.02 0.02 0.02 0.01 0.01 0.02 0.02 0.01 0.01 0.00 0.01 0.02 0.03 0.06 0.06 0.06 0.06 0.04 0.03 0.03 0.05 0.08 0.13 0.17 0.21 0.26 0.30 0.35 0.35 0.33 0.31 0.29 0.28 0.26 0.21 0.17 0.14 0.10 0.07 0.05 0.03 0.02
0.02 0.01 0.02 0.02 0.01 0.00 0.01 0.01 0.01 0.01 0.00 0.00 0.01 0.02 0.02 0.03 0.03 0.02 0.02 0.03 0.03 0.02 0.01 0.02 0.03 0.04 0.05 0.07 0.10 0.13 0.12 0.11 0.10 0.09 0.08 0.07 0.05 0.03 0.02 0.02 0.01 0.01 0.01 0.00
0.03 0.03 0.03 0.02 0.01 0.01 0.01 0.02 0.01 0.01 0.01 0.00 0.00 0.00 0.01 0.01 0.01 0.01 0.01 0.01 0.01 0.01 0.00 0.01 0.01 0.01 0.02 0.02 0.03 0.02 0.02 0.02 0.01 0.01 0.01 0.01 0.01 0.01 0.00 0.00 0.00 0.00 0.00 0.00
0.00 0.00 0.01 0.01 0.01 0.01 0.01 0.01 0.00 0.00 0.00 0.00 0.00 0.00 0.00 0.00 0.00 0.01 0.02 0.00 0.00 0.00 0.00 0.00 0.00 0.00 0.00 0.00 0.00 0.00 0.00 0.00 0.00 0.00 0.00 0.00 0.00 0.00 0.00 0.00 0.00 0.00 0.00 0.00

GEFSCGP_prec_meanprecacc_060.txt.gz
Total_Precipitation_Accumulation
0.74 0.65 0.38 0.15 0.08 0.04 0.04 0.04 0.03 0.01 0.00 0.01 0.00 0.00 0.00 0.00 0.00 0.00 0.00 0.00 0.00 0.00 0.00 0.00 0.00 0.00 0.00 0.00 0.00 0.00 0.00 0.02 0.08 0.15 0.16 0.17 0.17 0.20 0.22 0.20 0.21 0.20 0.14 0.11
0.73 0.49 0.22 0.13 0.12 0.09 0.08 0.09 0.06 0.02 0.01 0.02 0.01 0.00 0.00 0.00 0.00 0.00 0.00 0.00 0.00 0.00 0.00 0.00 0.00 0.00 0.00 0.00 0.00 0.00 0.00 0.01 0.02 0.05 0.09 0.19 0.27 0.30 0.30 0.30 0.27 0.23 0.19 0.18
0.57 0.33 0.24 0.25 0.23 0.16 0.10 0.09 0.07 0.06 0.04 0.04 0.04 0.01 0.00 0.00 0.00 0.00 0.00 0.00 0.00 0.00 0.00 0.00 0.00 0.00 0.00 0.00 0.00 0.00 0.00 0.00 0.02 0.05 0.14 0.23 0.29 0.27 0.24 0.19 0.16 0.20 0.23 0.24
0.58 0.36 0.36 0.36 0.29 0.21 0.14 0.05 0.08 0.10 0.12 0.11 0.07 0.04 0.00 0.00 0.00 0.00 0.00 0.00 0.00 0.00 0.00 0.00 0.00 0.00 0.00 0.00 0.00 0.00 0.00 0.00 0.01 0.04 0.08 0.11 0.12 0.12 0.12 0.14 0.17 0.23 0.26 0.28
0.61 0.46 0.46 0.44 0.27 0.23 0.17 0.08 0.11 0.17 0.20 0.19 0.12 0.07 0.01 0.00 0.00 0.00 0.00 0.00 0.00 0.00 0.00 0.00 0.00 0.00 0.00 0.00 0.00 0.00 0.00 0.00 0.01 0.02 0.04 0.09 0.11 0.11 0.12 0.14 0.16 0.18 0.21 0.25
0.44 0.45 0.53 0.45 0.25 0.26 0.24 0.24 0.24 0.27 0.39 0.36 0.15 0.10 0.04 0.00 0.00 0.00 0.00 0.00 0.00 0.00 0.00 0.00 0.00 0.00 0.00 0.00 0.00 0.00 0.00 0.00 0.01 0.01 0.02 0.05 0.07 0.09 0.09 0.09 0.12 0.15 0.17 0.20
0.69 0.60 0.50 0.48 0.45 0.45 0.47 0.61 0.71 0.60 0.57 0.33 0.11 0.10 0.05 0.00 0.00 0.00 0.00 0.00 0.00 0.00 0.00 0.00 0.00 0.00 0.00 0.00 0.00 0.00 0.00 0.00 0.01 0.01 0.02 0.03 0.07 0.10 0.11 0.11 0.12 0.14 0.14 0.14
0.71 0.65 0.44 0.50 0.56 0.58 0.52 0.60 0.63 0.45 0.27 0.13 0.10 0.09 0.03 0.00 0.00 0.00 0.00 0.00 0.00 0.00 0.00 0.00 0.00 0.00 0.00 0.00 0.00 0.00 0.00 0.00 0.01 0.01 0.02 0.02 0.04 0.07 0.08 0.10 0.11 0.12 0.14 0.17
0.46 0.47 0.30 0.33 0.38 0.40 0.51 0.54 0.41 0.48 0.32 0.18 0.11 0.07 0.02 0.00 0.00 0.00 0.00 0.00 0.00 0.00 0.00 0.00 0.00 0.00 0.00 0.00 0.00 0.00 0.00 0.01 0.02 0.02 0.02 0.02 0.02 0.04 0.06 0.08 0.09 0.11 0.13 0.15
0.42 0.54 0.37 0.37 0.51 0.47 0.46 0.44 0.54 0.82 0.59 0.28 0.11 0.05 0.01 0.00 0.00 0.00 0.00 0.00 0.00 0.00 0.00 0.00 0.00 0.00 0.00 0.00 0.00 0.00 0.01 0.02 0.03 0.03 0.03 0.02 0.03 0.04 0.05 0.06 0.06 0.08 0.10 0.12
0.40 0.62 0.53 0.53 0.63 0.44 0.44 0.53 0.60 0.61 0.47 0.38 0.17 0.05 0.02 0.01 0.01 0.01 0.01 0.00 0.00 0.00 0.00 0.00 0.00 0.00 0.00 0.00 0.00 0.01 0.02 0.03 0.04 0.03 0.03 0.03 0.03 0.04 0.05 0.05 0.06 0.07 0.08 0.09
0.38 0.64 0.57 0.42 0.35 0.27 0.33 0.35 0.44 0.59 0.43 0.33 0.22 0.06 0.01 0.01 0.02 0.03 0.03 0.02 0.01 0.00 0.00 0.00 0.00 0.00 0.00 0.01 0.02 0.03 0.05 0.05 0.04 0.04 0.03 0.04 0.04 0.05 0.05 0.06 0.06 0.06 0.07 0.07
0.39 0.68 0.68 0.49 0.46 0.45 0.44 0.33 0.35 0.54 0.70 0.50 0.33 0.09 0.02 0.02 0.04 0.07 0.07 0.06 0.04 0.03 0.02 0.02 0.02 0.01 0.02 0.02 0.04 0.05 0.05 0.04 0.04 0.04 0.04 0.04 0.04 0.05 0.06 0.07 0.07 0.06 0.06 0.05
0.55 0.72 0.64 0.53 0.44 0.48 0.47 0.34 0.38 0.78 0.92 0.44 0.20 0.09 0.06 0.06 0.09 0.11 0.12 0.11 0.08 0.05 0.04 0.04 0.03 0.04 0.03 0.04 0.05 0.05 0.04 0.04 0.05 0.05 0.05 0.06 0.06 0.07 0.08 0.08 0.07 0.06 0.05 0.05
0.57 0.75 0.56 0.37 0.30 0.41 0.43 0.38 0.46 0.70 0.62 0.48 0.21 0.14 0.14 0.13 0.15 0.13 0.12 0.09 0.07 0.05 0.05 0.05 0.05 0.05 0.05 0.05 0.04 0.03 0.04 0.04 0.05 0.07 0.09 0.09 0.09 0.08 0.08 0.07 0.06 0.05 0.05 0.06
0.37 0.58 0.55 0.42 0.29 0.37 0.40 0.36 0.41 0.47 0.42 0.39 0.30 0.27 0.16 0.15 0.14 0.13 0.12 0.09 0.06 0.05 0.05 0.05 0.05 0.05 0.06 0.07 0.05 0.06 0.07 0.07 0.08 0.10 0.12 0.12 0.11 0.10 0.09 0.09 0.08 0.07 0.08 0.09
0.24 0.42 0.59 0.49 0.32 0.40 0.49 0.39 0.39 0.38 0.28 0.27 0.29 0.22 0.15 0.17 0.16 0.13 0.11 0.08 0.05 0.03 0.03 0.03 0.02 0.03 0.03 0.03 0.04 0.07 0.10 0.13 0.14 0.14 0.14 0.14 0.14 0.13 0.12 0.12 0.13 0.16 0.20 0.22
0.12 0.28 0.50 0.41 0.37 0.47 0.39 0.28 0.27 0.26 0.19 0.18 0.18 0.12 0.13 0.15 0.15 0.11 0.09 0.07 0.04 0.03 0.02 0.01 0.01 0.01 0.02 0.02 0.03 0.04 0.06 0.08 0.12 0.13 0.14 0.15 0.17 0.19 0.17 0.20 0.25 0.31 0.37 0.43
0.07 0.22 0.40 0.32 0.27 0.21 0.14 0.12 0.13 0.16 0.15 0.11 0.11 0.10 0.09 0.11 0.14 0.13 0.11 0.09 0.06 0.04 0.03 0.01 0.01 0.01 0.02 0.02 0.03 0.04 0.05 0.07 0.09 0.12 0.14 0.16 0.19 0.28 0.35 0.40 0.45 0.48 0.54 0.58
0.07 0.17 0.33 0.24 0.20 0.12 0.07 0.03 0.03 0.07 0.11 0.05 0.06 0.09 0.10 0.10 0.12 0.11 0.09 0.08 0.08 0.06 0.05 0.04 0.03 0.03 0.04 0.04 0.04 0.06 0.09 0.13 0.18 0.22 0.27 0.31 0.37 0.48 0.56 0.60 0.61 0.58 0.55 0.54
0.12 0.18 0.23 0.18 0.14 0.03 0.01 0.01 0.02 0.09 0.10 0.02 0.02 0.06 0.09 0.09 0.09 0.08 0.07 0.07 0.07 0.08 0.09 0.10 0.11 0.13 0.14 0.14 0.17 0.22 0.25 0.31 0.35 0.37 0.43 0.48 0.47 0.48 0.49 0.48 0.45 0.39 0.33 0.28
0.04 0.07 0.07 0.08 0.09 0.04 0.02 0.02 0.04 0.05 0.03 0.01 0.01 0.03 0.05 0.07 0.08 0.08 0.06 0.04 0.05 0.07 0.08 0.12 0.18 0.24 0.27 0.30 0.37 0.42 0.43 0.45 0.43 0.42 0.44 0.44 0.42 0.38 0.34 0.29 0.23 0.17 0.12 0.09
0.01 0.02 0.02 0.02 0.02 0.02 0.02 0.02 0.02 0.02 0.02 0.01 0.01 0.02 0.03 0.06 0.06 0.06 0.06 0.04 0.03 0.03 0.05 0.08 0.13 0.17 0.21 0.26 0.30 0.35 0.35 0.33 0.31 0.29 0.28 0.26 0.21 0.17 0.14 0.10 0.07 0.05 0.03 0.02
0.02 0.01 0.02 0.02 0.01 0.01 0.01 0.01 0.01 0.01 0.01 0.01 0.01 0.02 0.02 0.03 0.03 0.02 0.02 0.03 0.03 0.02 0.01 0.02 0.03 0.04 0.05 0.07 0.10 0.13 0.12 0.11 0.10 0.09 0.08 0.07 0.05 0.03 0.02 0.02 0.01 0.01 0.01 0.00
0.04 0.03 0.03 0.02 0.01 0.01 0.02 0.02 0.01 0.01 0.01 0.01 0.01 0.01 0.01 0.01 0.01 0.01 0.01 0.01 0.01 0.01 0.00 0.01 0.01 0.01 0.02 0.02 0.03 0.02 0.02 0.02 0.01 0.01 0.01 0.01 0.01 0.01 0.00 0.00 0.00 0.00 0.00 0.00
0.00 0.01 0.01 0.02 0.01 0.01 0.02 0.01 0.01 0.00 0.01 0.01 0.01 0.00 0.00 0.00 0.00 0.01 0.02 0.00 0.00 0.00 0.00 0.00 0.00 0.00 0.00 0.00 0.00 0.00 0.00 0.00 0.00 0.00 0.00 0.00 0.00 0.00 0.00 0.00 0.00 0.00 0.00 0.00

GEFSCGP_prec_meanprecacc_066.txt.gz
Total_Precipitation_Accumulation
0.89 0.73 0.43 0.17 0.09 0.05 0.05 0.05 0.03 0.01 0.00 0.01 0.01 0.00 0.00 0.00 0.00 0.00 0.00 0.00 0.00 0.00 0.00 0.00 0.00 0.00 0.00 0.00 0.00 0.00 0.00 0.02 0.09 0.16 0.18 0.19 0.18 0.22 0.24 0.23 0.24 0.23 0.18 0.14
0.86 0.54 0.24 0.15 0.15 0.12 0.10 0.10 0.06 0.03 0.01 0.02 0.01 0.00 0.00 0.00 0.00 0.00 0.00 0.00 0.00 0.00 0.00 0.00 0.00 0.00 0.00 0.00 0.00 0.00 0.00 0.01 0.03 0.05 0.11 0.20 0.28 0.31 0.31 0.32 0.29 0.26 0.22 0.21
0.65 0.36 0.26 0.29 0.26 0.18 0.11 0.09 0.08 0.06 0.04 0.04 0.04 0.01 0.00 0.00 0.00 0.00 0.00 0.00 0.00 0.00 0.00 0.00 0.00 0.00 0.00 0.00 0.00 0.00 0.00 0.00 0.02 0.06 0.15 0.24 0.30 0.28 0.25 0.20 0.17 0.22 0.26 0.26
0.65 0.39 0.39 0.40 0.32 0.23 0.15 0.06 0.08 0.10 0.12 0.11 0.07 0.04 0.00 0.00 0.00 0.00 0.00 0.00 0.00 0.00 0.00 0.00 0.00 0.00 0.00 0.00 0.00 0.00 0.00 0.00 0.01 0.04 0.08 0.11 0.13 0.13 0.13 0.15 0.19 0.24 0.28 0.30
0.70 0.50 0.50 0.49 0.31 0.25 0.18 0.09 0.12 0.17 0.21 0.20 0.12 0.07 0.01 0.00 0.00 0.00 0.00 0.00 0.00 0.00 0.00 0.00 0.00 0.00 0.00 0.00 0.00 0.00 0.00 0.00 0.01 0.02 0.04 0.09 0.11 0.11 0.12 0.14 0.17 0.18 0.22 0.26
0.51 0.49 0.58 0.51 0.30 0.29 0.27 0.26 0.26 0.28 0.40 0.37 0.15 0.10 0.04 0.00 0.00 0.00 0.00 0.00 0.00 0.00 0.00 0.00 0.00 0.00 0.00 0.00 0.00 0.00 0.00 0.00 0.01 0.01 0.02 0.05 0.07 0.09 0.09 0.09 0.12 0.15 0.18 0.20
0.80 0.67 0.56 0.54 0.51 0.51 0.51 0.65 0.77 0.66 0.60 0.35 0.11 0.10 0.05 0.00 0.00 0.00 0.00 0.00 0.00 0.00 0.00 0.00 0.00 0.00 0.00 0.00 0.00 0.00 0.00 0.00 0.01 0.01 0.02 0.03 0.07 0.10 0.11 0.11 0.12 0.14 0.14 0.14
0.81 0.77 0.52 0.57 0.62 0.65 0.56 0.63 0.66 0.48 0.28 0.14 0.10 0.09 0.03 0.00 0.00 0.00 0.00 0.00 0.00 0.00 0.00 0.00 0.00 0.00 0.00 0.00 0.00 0.00 0.00 0.00 0.01 0.01 0.02 0.02 0.04 0.07 0.08 0.10 0.11 0.12 0.14 0.18
0.52 0.56 0.36 0.39 0.42 0.45 0.55 0.57 0.43 0.49 0.32 0.18 0.11 0.07 0.02 0.00 0.00 0.00 0.00 0.00 0.00 0.00 0.00 0.00 0.00 0.00 0.00 0.00 0.00 0.00 0.00 0.01 0.02 0.02 0.02 0.02 0.02 0.04 0.06 0.08 0.09 0.11 0.13 0.15
0.44 0.58 0.41 0.42 0.56 0.52 0.50 0.47 0.56 0.83 0.60 0.29 0.11 0.05 0.01 0.00 0.00 0.00 0.00 0.00 0.00 0.00 0.00 0.00 0.00 0.00 0.00 0.00 0.00 0.00 0.01 0.02 0.03 0.03 0.03 0.02 0.03 0.04 0.05 0.06 0.06 0.08 0.10 0.12
0.42 0.65 0.56 0.57 0.68 0.48 0.48 0.56 0.63 0.63 0.48 0.38 0.17 0.05 0.02 0.01 0.01 0.01 0.01 0.00 0.00 0.00 0.00 0.00 0.00 0.00 0.00 0.00 0.00 0.01 0.02 0.03 0.04 0.03 0.03 0.03 0.03 0.04 0.05 0.05 0.06 0.07 0.08 0.09
0.40 0.66 0.58 0.43 0.37 0.28 0.35 0.36 0.46 0.61 0.43 0.33 0.22 0.06 0.01 0.01 0.02 0.03 0.03 0.02 0.01 0.00 0.00 0.00 0.00 0.00 0.00 0.01 0.02 0.03 0.05 0.05 0.04 0.04 0.03 0.04 0.04 0.05 0.05 0.06 0.06 0.06 0.07 0.07
0.40 0.68 0.68 0.50 0.47 0.46 0.45 0.34 0.36 0.55 0.71 0.50 0.33 0.09 0.02 0.02 0.04 0.07 0.07 0.06 0.04 0.03 0.02 0.02 0.02 0.01 0.02 0.02 0.04 0.05 0.05 0.04 0.04 0.04 0.04 0.04 0.04 0.05 0.06 0.07 0.07 0.06 0.06 0.05
0.55 0.72 0.64 0.53 0.44 0.48 0.47 0.35 0.39 0.78 0.93 0.44 0.20 0.09 0.06 0.06 0.09 0.11 0.12 0.11 0.08 0.05 0.04 0.04 0.03 0.04 0.03 0.04 0.05 0.05 0.04 0.04 0.05 0.05 0.05 0.06 0.06 0.07 0.08 0.08 0.07 0.06 0.05 0.05
0.57 0.76 0.56 0.37 0.30 0.41 0.43 0.38 0.47 0.70 0.62 0.48 0.21 0.14 0.14 0.13 0.15 0.13 0.12 0.09 0.07 0.05 0.05 0.05 0.05 0.05 0.05 0.05 0.04 0.03 0.04 0.04 0.05 0.07 0.09 0.09 0.09 0.08 0.08 0.07 0.06 0.05 0.05 0.06
0.38 0.58 0.55 0.42 0.29 0.37 0.40 0.36 0.41 0.47 0.42 0.39 0.30 0.27 0.16 0.15 0.14 0.13 0.12 0.09 0.06 0.05 0.05 0.05 0.05 0.05 0.06 0.07 0.05 0.06 0.07 0.07 0.08 0.10 0.12 0.12 0.11 0.10 0.09 0.09 0.08 0.07 0.08 0.09
0.24 0.42 0.59 0.49 0.32 0.40 0.49 0.39 0.39 0.38 0.28 0.27 0.29 0.22 0.15 0.17 0.16 0.13 0.11 0.08 0.05 0.03 0.03 0.03 0.02 0.03 0.03 0.03 0.04 0.07 0.10 0.13 0.14 0.14 0.14 0.14 0.14 0.13 0.12 0.12 0.13 0.16 0.20 0.22
0.12 0.28 0.50 0.41 0.37 0.47 0.39 0.28 0.27 0.26 0.19 0.18 0.18 0.12 0.13 0.15 0.15 0.11 0.09 0.07 0.04 0.03 0.02 0.01 0.01 0.01 0.02 0.02 0.03 0.04 0.06 0.08 0.12 0.13 0.14 0.15 0.17 0.19 0.17 0.20 0.25 0.31 0.37 0.43
0.07 0.22 0.40 0.32 0.27 0.21 0.14 0.12 0.13 0.16 0.15 0.11 0.11 0.10 0.09 0.11 0.14 0.13 0.11 0.09 0.06 0.04 0.03 0.01 0.01 0.01 0.02 0.02 0.03 0.04 0.05 0.07 0.09 0.12 0.14 0.16 0.19 0.28 0.35 0.40 0.45 0.48 0.54 0.58
0.08 0.17 0.34 0.25 0.21 0.12 0.07 0.03 0.03 0.07 0.11 0.05 0.06 0.09 0.10 0.10 0.12 0.11 0.10 0.08 0.08 0.06 0.05 0.04 0.03 0.03 0.04 0.04 0.04 0.06 0.09 0.13 0.18 0.22 0.27 0.31 0.37 0.48 0.56 0.60 0.61 0.58 0.55 0.54
0.12 0.18 0.23 0.19 0.15 0.03 0.01 0.01 0.02 0.09 0.10 0.02 0.02 0.06 0.09 0.10 0.09 0.08 0.07 0.07 0.07 0.08 0.09 0.10 0.11 0.13 0.14 0.14 0.17 0.22 0.25 0.31 0.35 0.37 0.43 0.48 0.47 0.48 0.49 0.48 0.45 0.39 0.33 0.28
0.04 0.07 0.08 0.08 0.09 0.04 0.02 0.02 0.04 0.06 0.03 0.02 0.02 0.03 0.05 0.07 0.08 0.08 0.06 0.04 0.05 0.07 0.08 0.12 0.18 0.24 0.27 0.30 0.37 0.42 0.43 0.45 0.43 0.42 0.44 0.44 0.42 0.38 0.34 0.29 0.23 0.17 0.12 0.09
0.01 0.02 0.02 0.02 0.03 0.02 0.02 0.02 0.03 0.02 0.02 0.02 0.02 0.02 0.04 0.06 0.07 0.06 0.06 0.04 0.03 0.03 0.05 0.08 0.13 0.17 0.21 0.26 0.30 0.35 0.35 0.33 0.31 0.29 0.28 0.26 0.21 0.17 0.14 0.10 0.07 0.05 0.03 0.02
0.03 0.01 0.02 0.02 0.02 0.01 0.01 0.02 0.02 0.02 0.02 0.02 0.02 0.03 0.03 0.04 0.04 0.03 0.03 0.03 0.03 0.02 0.01 0.02 0.03 0.04 0.05 0.07 0.10 0.13 0.12 0.11 0.10 0.09 0.08 0.07 0.05 0.03 0.02 0.02 0.01 0.01 0.01 0.00
0.04 0.04 0.03 0.03 0.02 0.02 0.02 0.02 0.02 0.01 0.01 0.02 0.02 0.01 0.01 0.01 0.02 0.02 0.02 0.01 0.01 0.01 0.00 0.01 0.01 0.01 0.02 0.02 0.03 0.03 0.02 0.02 0.01 0.01 0.01 0.01 0.01 0.01 0.00 0.00 0.00 0.00 0.00 0.00
0.00 0.01 0.02 0.02 0.01 0.02 0.02 0.01 0.01 0.01 0.01 0.01 0.01 0.01 0.01 0.01 0.01 0.02 0.02 0.01 0.01 0.01 0.00 0.00 0.00 0.00 0.00 0.00 0.00 0.00 0.00 0.00 0.00 0.00 0.00 0.00 0.00 0.00 0.00 0.00 0.00 0.00 0.00 0.00

GEFSCGP_prec_meanprecacc_072.txt.gz
Total_Precipitation_Accumulation
1.05 0.86 0.50 0.20 0.11 0.06 0.05 0.05 0.03 0.01 0.01 0.02 0.01 0.00 0.00 0.01 0.01 0.00 0.00 0.00 0.00 0.00 0.00 0.00 0.00 0.00 0.00 0.00 0.00 0.01 0.01 0.02 0.09 0.17 0.18 0.19 0.19 0.22 0.24 0.24 0.25 0.25 0.20 0.16
1.02 0.62 0.27 0.17 0.17 0.14 0.11 0.11 0.07 0.03 0.01 0.02 0.02 0.01 0.00 0.00 0.01 0.00 0.00 0.00 0.00 0.00 0.00 0.00 0.00 0.00 0.00 0.00 0.00 0.00 0.00 0.01 0.03 0.06 0.11 0.20 0.29 0.32 0.32 0.34 0.31 0.28 0.24 0.23
0.77 0.40 0.28 0.32 0.30 0.22 0.13 0.10 0.08 0.07 0.05 0.05 0.04 0.02 0.00 0.00 0.00 0.00 0.00 0.00 0.00 0.00 0.00 0.00 0.00 0.00 0.00 0.00 0.00 0.00 0.00 0.01 0.02 0.06 0.15 0.24 0.30 0.28 0.25 0.20 0.18 0.23 0.28 0.28
0.75 0.43 0.41 0.43 0.36 0.26 0.17 0.07 0.09 0.11 0.13 0.13 0.09 0.05 0.00 0.00 0.00 0.00 0.00 0.00 0.00 0.00 0.00 0.00 0.00 0.00 0.00 0.00 0.00 0.00 0.00 0.00 0.01 0.04 0.08 0.11 0.13 0.13 0.13 0.16 0.19 0.25 0.29 0.31
0.79 0.53 0.52 0.51 0.34 0.28 0.20 0.10 0.13 0.19 0.22 0.22 0.13 0.08 0.01 0.00 0.00 0.00 0.00 0.00 0.00 0.00 0.00 0.00 0.00 0.00 0.00 0.00 0.00 0.00 0.00 0.00 0.01 0.02 0.04 0.09 0.11 0.11 0.12 0.15 0.17 0.19 0.22 0.27
0.58 0.52 0.61 0.53 0.33 0.33 0.29 0.28 0.28 0.31 0.44 0.41 0.16 0.11 0.04 0.00 0.00 0.00 0.00 0.00 0.00 0.00 0.00 0.00 0.00 0.00 0.00 0.00 0.00 0.00 0.00 0.00 0.01 0.01 0.02 0.05 0.07 0.09 0.09 0.09 0.12 0.15 0.18 0.20
0.87 0.70 0.58 0.57 0.56 0.57 0.55 0.68 0.83 0.75 0.68 0.37 0.11 0.11 0.05 0.00 0.00 0.00 0.00 0.00 0.00 0.00 0.00 0.00 0.00 0.00 0.00 0.00 0.00 0.00 0.00 0.00 0.01 0.01 0.02 0.03 0.07 0.10 0.11 0.11 0.12 0.14 0.14 0.14
0.88 0.81 0.54 0.60 0.67 0.71 0.61 0.66 0.69 0.51 0.30 0.14 0.10 0.09 0.03 0.00 0.00 0.00 0.00 0.00 0.00 0.00 0.00 0.00 0.00 0.00 0.00 0.00 0.00 0.00 0.00 0.00 0.01 0.01 0.02 0.02 0.04 0.07 0.08 0.10 0.11 0.12 0.14 0.18
0.56 0.60 0.39 0.42 0.46 0.49 0.59 0.59 0.44 0.50 0.33 0.18 0.12 0.07 0.02 0.00 0.00 0.00 0.00 0.00 0.00 0.00 0.00 0.00 0.00 0.00 0.00 0.00 0.00 0.00 0.00 0.01 0.02 0.02 0.02 0.02 0.02 0.04 0.06 0.08 0.09 0.11 0.13 0.15
0.49 0.63 0.45 0.46 0.60 0.57 0.54 0.48 0.57 0.85 0.61 0.29 0.11 0.05 0.01 0.00 0.00 0.00 0.00 0.00 0.00 0.00 0.00 0.00 0.00 0.00 0.00 0.00 0.00 0.00 0.01 0.02 0.03 0.03 0.03 0.02 0.03 0.04 0.05 0.06 0.06 0.08 0.10 0.12
0.46 0.69 0.61 0.63 0.73 0.53 0.51 0.58 0.64 0.64 0.48 0.39 0.18 0.05 0.02 0.01 0.01 0.01 0.01 0.00 0.00 0.00 0.00 0.00 0.00 0.00 0.00 0.00 0.00 0.01 0.02 0.03 0.04 0.03 0.03 0.03 0.03 0.04 0.05 0.05 0.06 0.07 0.08 0.09
0.43 0.68 0.62 0.48 0.40 0.31 0.38 0.38 0.46 0.62 0.44 0.33 0.22 0.06 0.01 0.01 0.02 0.03 0.03 0.02 0.01 0.00 0.00 0.00 0.00 0.00 0.00 0.01 0.02 0.03 0.05 0.05 0.04 0.04 0.03 0.04 0.04 0.05 0.05 0.06 0.06 0.06 0.07 0.07
0.43 0.70 0.71 0.54 0.51 0.48 0.47 0.35 0.37 0.56 0.72 0.51 0.33 0.09 0.02 0.02 0.04 0.07 0.07 0.06 0.04 0.03 0.02 0.02 0.02 0.01 0.02 0.02 0.04 0.05 0.05 0.04 0.04 0.04 0.04 0.04 0.04 0.05 0.06 0.07 0.07 0.06 0.06 0.05
0.57 0.73 0.65 0.54 0.45 0.49 0.48 0.35 0.40 0.79 0.94 0.45 0.20 0.09 0.06 0.06 0.09 0.11 0.12 0.11 0.08 0.05 0.04 0.04 0.03 0.04 0.03 0.04 0.05 0.05 0.04 0.04 0.05 0.05 0.05 0.06 0.06 0.07 0.08 0.08 0.07 0.06 0.05 0.05
0.58 0.77 0.57 0.38 0.30 0.41 0.43 0.39 0.47 0.71 0.62 0.48 0.21 0.14 0.14 0.13 0.15 0.13 0.12 0.09 0.07 0.05 0.05 0.05 0.05 0.05 0.05 0.05 0.04 0.03 0.04 0.04 0.05 0.07 0.09 0.09 0.09 0.08 0.08 0.07 0.06 0.05 0.05 0.06
0.38 0.59 0.56 0.42 0.29 0.37 0.40 0.37 0.42 0.47 0.42 0.39 0.30 0.27 0.16 0.15 0.14 0.13 0.12 0.09 0.06 0.05 0.05 0.05 0.05 0.05 0.06 0.07 0.05 0.06 0.07 0.07 0.08 0.10 0.12 0.12 0.11 0.10 0.09 0.09 0.08 0.07 0.08 0.09
0.24 0.42 0.59 0.49 0.33 0.40 0.50 0.40 0.40 0.38 0.28 0.27 0.29 0.22 0.15 0.17 0.16 0.13 0.11 0.08 0.05 0.03 0.03 0.03 0.02 0.03 0.03 0.03 0.04 0.07 0.10 0.13 0.14 0.14 0.14 0.14 0.14 0.13 0.12 0.12 0.13 0.16 0.20 0.22
0.12 0.28 0.50 0.42 0.37 0.47 0.40 0.29 0.27 0.26 0.19 0.18 0.18 0.12 0.13 0.15 0.15 0.11 0.09 0.07 0.04 0.03 0.02 0.01 0.01 0.01 0.02 0.02 0.03 0.04 0.06 0.08 0.12 0.13 0.14 0.15 0.17 0.19 0.17 0.20 0.25 0.31 0.37 0.43
0.07 0.23 0.41 0.33 0.27 0.21 0.14 0.12 0.13 0.16 0.15 0.11 0.11 0.10 0.09 0.11 0.14 0.13 0.11 0.09 0.06 0.04 0.03 0.01 0.01 0.01 0.02 0.02 0.03 0.04 0.05 0.07 0.09 0.12 0.14 0.16 0.19 0.28 0.35 0.41 0.45 0.48 0.54 0.58
0.08 0.17 0.35 0.26 0.22 0.12 0.07 0.03 0.03 0.07 0.11 0.05 0.06 0.09 0.10 0.10 0.12 0.11 0.10 0.08 0.08 0.06 0.05 0.04 0.03 0.03 0.04 0.04 0.04 0.06 0.09 0.13 0.18 0.22 0.27 0.31 0.37 0.48 0.56 0.60 0.61 0.58 0.55 0.54
0.12 0.19 0.25 0.20 0.16 0.03 0.02 0.01 0.02 0.09 0.11 0.02 0.02 0.06 0.09 0.10 0.09 0.08 0.07 0.07 0.07 0.08 0.09 0.10 0.11 0.13 0.14 0.14 0.17 0.22 0.25 0.31 0.35 0.37 0.43 0.48 0.47 0.48 0.49 0.48 0.45 0.39 0.33 0.28
0.04 0.08 0.09 0.09 0.11 0.05 0.02 0.02 0.04 0.06 0.03 0.02 0.02 0.03 0.06 0.07 0.08 0.08 0.06 0.04 0.05 0.07 0.08 0.12 0.18 0.24 0.27 0.30 0.37 0.42 0.43 0.45 0.43 0.43 0.44 0.44 0.42 0.38 0.34 0.29 0.23 0.17 0.12 0.09
0.02 0.03 0.03 0.03 0.03 0.03 0.02 0.02 0.03 0.03 0.03 0.02 0.02 0.03 0.04 0.06 0.07 0.06 0.06 0.04 0.03 0.03 0.05 0.08 0.13 0.17 0.22 0.26 0.31 0.35 0.36 0.33 0.31 0.29 0.28 0.26 0.21 0.17 0.14 0.10 0.07 0.05 0.03 0.02
0.04 0.02 0.03 0.03 0.02 0.02 0.02 0.02 0.02 0.02 0.02 0.03 0.03 0.03 0.03 0.04 0.04 0.03 0.03 0.03 0.03 0.02 0.02 0.03 0.04 0.04 0.05 0.07 0.10 0.13 0.12 0.11 0.10 0.09 0.08 0.07 0.05 0.03 0.02 0.02 0.01 0.01 0.01 0.00
0.05 0.05 0.04 0.03 0.02 0.02 0.03 0.02 0.02 0.02 0.02 0.02 0.03 0.02 0.03 0.03 0.03 0.03 0.03 0.02 0.02 0.01 0.01 0.01 0.02 0.02 0.02 0.02 0.03 0.03 0.02 0.02 0.01 0.01 0.01 0.01 0.01 0.01 0.00 0.00 0.00 0.00 0.00 0.00
0.01 0.02 0.03 0.03 0.02 0.02 0.02 0.01 0.01 0.01 0.01 0.01 0.02 0.02 0.02 0.01 0.02 0.03 0.03 0.02 0.02 0.02 0.01 0.01 0.01 0.01 0.01 0.01 0.00 0.00 0.00 0.00 0.00 0.00 0.00 0.00 0.00 0.00 0.00 0.00 0.00 0.00 0.00 0.00

GEFSCGP_prec_meanprecacc_078.txt.gz
Total_Precipitation_Accumulation
1.15 1.00 0.61 0.28 0.15 0.07 0.06 0.05 0.03 0.01 0.01 0.02 0.02 0.01 0.00 0.01 0.01 0.01 0.00 0.00 0.00 0.00 0.00 0.00 0.01 0.01 0.01 0.02 0.02 0.02 0.03 0.05 0.11 0.18 0.19 0.20 0.19 0.23 0.25 0.24 0.26 0.26 0.20 0.17
1.11 0.72 0.33 0.22 0.22 0.16 0.13 0.12 0.07 0.03 0.02 0.02 0.02 0.01 0.01 0.01 0.01 0.01 0.00 0.00 0.00 0.00 0.00 0.00 0.00 0.01 0.01 0.01 0.01 0.02 0.02 0.03 0.04 0.07 0.12 0.21 0.29 0.32 0.33 0.34 0.31 0.28 0.25 0.24
0.83 0.45 0.34 0.37 0.35 0.26 0.16 0.12 0.09 0.07 0.05 0.06 0.05 0.03 0.01 0.01 0.01 0.01 0.00 0.00 0.00 0.00 0.00 0.00 0.00 0.00 0.00 0.00 0.01 0.01 0.01 0.02 0.03 0.07 0.16 0.25 0.31 0.28 0.25 0.20 0.18 0.24 0.28 0.29
0.80 0.46 0.46 0.48 0.39 0.29 0.20 0.08 0.09 0.12 0.14 0.14 0.09 0.06 0.00 0.00 0.00 0.00 0.00 0.00 0.00 0.00 0.00 0.00 0.00 0.00 0.00 0.00 0.00 0.01 0.01 0.01 0.02 0.06 0.09 0.12 0.14 0.13 0.13 0.16 0.19 0.25 0.29 0.31
0.85 0.56 0.56 0.55 0.36 0.31 0.22 0.11 0.14 0.20 0.24 0.23 0.14 0.08 0.01 0.00 0.00 0.00 0.00 0.00 0.00 0.00 0.00 0.00 0.00 0.00 0.00 0.00 0.00 0.00 0.00 0.01 0.01 0.02 0.05 0.10 0.12 0.12 0.12 0.15 0.17 0.19 0.22 0.27
0.65 0.56 0.65 0.56 0.35 0.36 0.32 0.30 0.30 0.33 0.47 0.44 0.16 0.12 0.04 0.00 0.00 0.00 0.00 0.00 0.00 0.00 0.00 0.00 0.00 0.00 0.00 0.00 0.00 0.00 0.00 0.00 0.01 0.01 0.03 0.05 0.07 0.09 0.09 0.09 0.12 0.15 0.18 0.20
0.96 0.75 0.63 0.60 0.59 0.62 0.60 0.74 0.89 0.81 0.73 0.39 0.11 0.11 0.05 0.00 0.00 0.00 0.00 0.00 0.00 0.00 0.00 0.00 0.00 0.00 0.00 0.00 0.00 0.00 0.00 0.00 0.01 0.01 0.02 0.03 0.07 0.10 0.11 0.11 0.12 0.14 0.14 0.14
0.95 0.88 0.60 0.65 0.70 0.76 0.65 0.70 0.73 0.54 0.31 0.14 0.10 0.09 0.03 0.00 0.00 0.00 0.00 0.00 0.00 0.00 0.00 0.00 0.00 0.00 0.00 0.00 0.00 0.00 0.00 0.00 0.01 0.01 0.02 0.02 0.04 0.07 0.08 0.10 0.11 0.12 0.14 0.18
0.59 0.64 0.42 0.46 0.50 0.52 0.63 0.62 0.47 0.52 0.33 0.18 0.12 0.07 0.02 0.00 0.00 0.00 0.00 0.00 0.00 0.00 0.00 0.00 0.00 0.00 0.00 0.00 0.00 0.00 0.00 0.01 0.02 0.02 0.02 0.02 0.02 0.04 0.06 0.08 0.09 0.11 0.13 0.15
0.51 0.65 0.47 0.49 0.65 0.60 0.57 0.51 0.60 0.87 0.62 0.29 0.11 0.05 0.01 0.00 0.00 0.00 0.00 0.00 0.00 0.00 0.00 0.00 0.00 0.00 0.00 0.00 0.00 0.00 0.01 0.02 0.03 0.03 0.03 0.02 0.03 0.04 0.05 0.06 0.06 0.08 0.10 0.12
0.48 0.72 0.64 0.65 0.77 0.56 0.54 0.60 0.67 0.66 0.49 0.39 0.18 0.05 0.02 0.01 0.01 0.01 0.01 0.00 0.00 0.00 0.00 0.00 0.00 0.00 0.00 0.00 0.00 0.01 0.02 0.03 0.04 0.03 0.03 0.03 0.03 0.04 0.05 0.05 0.06 0.07 0.08 0.09
0.45 0.71 0.65 0.50 0.42 0.34 0.40 0.39 0.48 0.63 0.45 0.33 0.22 0.06 0.01 0.01 0.02 0.03 0.03 0.02 0.01 0.00 0.00 0.00 0.00 0.00 0.00 0.01 0.02 0.03 0.05 0.05 0.04 0.04 0.03 0.04 0.04 0.05 0.05 0.06 0.06 0.06 0.07 0.07
0.46 0.74 0.74 0.57 0.53 0.51 0.51 0.37 0.37 0.56 0.73 0.51 0.33 0.09 0.02 0.02 0.04 0.07 0.07 0.06 0.04 0.03 0.02 0.02 0.02 0.01 0.02 0.02 0.04 0.05 0.05 0.04 0.04 0.04 0.04 0.04 0.04 0.05 0.06 0.07 0.07 0.06 0.06 0.05
0.63 0.78 0.68 0.56 0.47 0.51 0.50 0.37 0.41 0.81 0.96 0.45 0.20 0.09 0.06 0.06 0.09 0.11 0.12 0.11 0.08 0.05 0.04 0.04 0.03 0.04 0.03 0.04 0.05 0.05 0.04 0.04 0.05 0.05 0.05 0.06 0.06 0.07 0.08 0.08 0.07 0.06 0.05 0.05
0.66 0.81 0.59 0.39 0.32 0.42 0.44 0.40 0.48 0.72 0.63 0.48 0.21 0.14 0.14 0.13 0.15 0.13 0.12 0.09 0.07 0.05 0.05 0.05 0.05 0.05 0.05 0.05 0.04 0.03 0.04 0.04 0.05 0.07 0.09 0.09 0.09 0.08 0.08 0.07 0.06 0.05 0.05 0.06
0.42 0.61 0.57 0.44 0.31 0.37 0.41 0.37 0.42 0.48 0.43 0.39 0.30 0.27 0.16 0.15 0.14 0.14 0.12 0.09 0.06 0.05 0.05 0.05 0.05 0.05 0.06 0.07 0.05 0.06 0.07 0.07 0.08 0.10 0.12 0.12 0.11 0.10 0.09 0.09 0.08 0.07 0.08 0.09
0.26 0.43 0.61 0.51 0.34 0.42 0.51 0.41 0.40 0.38 0.28 0.27 0.29 0.22 0.15 0.17 0.16 0.14 0.11 0.08 0.05 0.03 0.03 0.03 0.02 0.03 0.03 0.03 0.04 0.07 0.10 0.13 0.14 0.14 0.14 0.14 0.14 0.13 0.12 0.12 0.13 0.16 0.20 0.22
0.13 0.29 0.52 0.43 0.38 0.49 0.42 0.30 0.28 0.27 0.20 0.18 0.18 0.12 0.13 0.15 0.15 0.12 0.09 0.07 0.04 0.03 0.02 0.01 0.01 0.01 0.02 0.02 0.03 0.04 0.06 0.08 0.12 0.13 0.14 0.15 0.17 0.19 0.17 0.20 0.25 0.31 0.38 0.43
0.07 0.24 0.44 0.35 0.28 0.22 0.15 0.13 0.14 0.18 0.16 0.12 0.12 0.10 0.10 0.11 0.14 0.13 0.11 0.09 0.06 0.04 0.03 0.01 0.01 0.01 0.02 0.02 0.03 0.04 0.05 0.07 0.09 0.12 0.14 0.16 0.19 0.28 0.35 0.41 0.45 0.49 0.54 0.58
0.08 0.18 0.38 0.29 0.24 0.13 0.07 0.03 0.03 0.08 0.11 0.05 0.06 0.09 0.10 0.10 0.12 0.11 0.10 0.08 0.08 0.06 0.05 0.04 0.03 0.03 0.04 0.04 0.04 0.07 0.10 0.13 0.18 0.22 0.27 0.31 0.37 0.48 0.57 0.60 0.61 0.58 0.55 0.54
0.13 0.21 0.27 0.22 0.18 0.04 0.02 0.01 0.02 0.09 0.11 0.02 0.02 0.06 0.09 0.10 0.09 0.08 0.07 0.07 0.07 0.08 0.09 0.10 0.11 0.13 0.14 0.15 0.17 0.22 0.25 0.31 0.35 0.37 0.43 0.48 0.48 0.48 0.49 0.48 0.45 0.39 0.33 0.28
0.06 0.11 0.11 0.10 0.13 0.06 0.02 0.02 0.04 0.06 0.04 0.02 0.02 0.03 0.06 0.07 0.08 0.08 0.06 0.04 0.05 0.07 0.08 0.12 0.18 0.25 0.28 0.31 0.38 0.42 0.43 0.45 0.43 0.43 0.44 0.44 0.42 0.38 0.34 0.29 0.23 0.17 0.13 0.09
0.04 0.06 0.06 0.05 0.05 0.03 0.02 0.03 0.03 0.03 0.03 0.02 0.02 0.03 0.04 0.06 0.07 0.06 0.06 0.04 0.03 0.03 0.05 0.08 0.13 0.17 0.22 0.27 0.31 0.35 0.36 0.33 0.31 0.30 0.29 0.26 0.22 0.17 0.14 0.11 0.07 0.05 0.04 0.03
0.06 0.04 0.05 0.04 0.03 0.02 0.02 0.03 0.03 0.03 0.03 0.03 0.03 0.03 0.03 0.04 0.04 0.03 0.03 0.04 0.03 0.02 0.02 0.03 0.04 0.05 0.06 0.08 0.11 0.13 0.12 0.11 0.11 0.10 0.09 0.07 0.05 0.03 0.03 0.02 0.01 0.01 0.01 0.00
0.07 0.06 0.06 0.04 0.03 0.03 0.03 0.03 0.02 0.02 0.02 0.03 0.03 0.03 0.03 0.04 0.04 0.04 0.04 0.03 0.02 0.02 0.02 0.02 0.02 0.03 0.03 0.03 0.03 0.03 0.03 0.02 0.02 0.02 0.01 0.01 0.01 0.01 0.00 0.00 0.00 0.00 0.00 0.00
0.02 0.03 0.05 0.05 0.02 0.02 0.02 0.01 0.01 0.01 0.01 0.01 0.02 0.03 0.02 0.02 0.02 0.04 0.04 0.03 0.03 0.02 0.02 0.02 0.03 0.02 0.02 0.02 0.02 0.02 0.01 0.01 0.01 0.01 0.00 0.00 0.00 0.00 0.00 0.00 0.00 0.00 0.00 0.00

GEFSCGP_prec_meanprecacc_084.txt.gz
Total_Precipitation_Accumulation
1.23 1.09 0.70 0.34 0.19 0.10 0.08 0.07 0.05 0.03 0.02 0.03 0.03 0.01 0.01 0.02 0.02 0.01 0.01 0.00 0.01 0.00 0.01 0.01 0.02 0.03 0.04 0.05 0.05 0.06 0.06 0.08 0.14 0.20 0.22 0.22 0.21 0.24 0.26 0.26 0.27 0.27 0.21 0.18
1.17 0.79 0.39 0.27 0.26 0.19 0.15 0.15 0.09 0.05 0.03 0.04 0.03 0.02 0.01 0.02 0.02 0.01 0.01 0.00 0.00 0.00 0.01 0.01 0.01 0.02 0.02 0.03 0.05 0.06 0.06 0.07 0.08 0.10 0.15 0.24 0.31 0.34 0.35 0.36 0.32 0.29 0.26 0.25
0.88 0.51 0.39 0.42 0.39 0.29 0.18 0.14 0.11 0.09 0.07 0.07 0.06 0.04 0.02 0.01 0.01 0.01 0.01 0.00 0.00 0.00 0.00 0.01 0.01 0.01 0.02 0.02 0.03 0.05 0.05 0.07 0.08 0.12 0.21 0.30 0.34 0.30 0.27 0.22 0.19 0.25 0.29 0.30
0.84 0.49 0.50 0.53 0.44 0.32 0.22 0.10 0.11 0.14 0.16 0.15 0.10 0.07 0.01 0.00 0.00 0.01 0.01 0.00 0.00 0.00 0.00 0.01 0.01 0.01 0.01 0.01 0.02 0.03 0.04 0.06 0.07 0.10 0.12 0.15 0.16 0.17 0.17 0.19 0.21 0.27 0.29 0.32
0.87 0.58 0.60 0.60 0.41 0.34 0.25 0.13 0.16 0.23 0.27 0.25 0.15 0.09 0.02 0.00 0.00 0.00 0.00 0.00 0.00 0.00 0.00 0.00 0.00 0.00 0.00 0.01 0.01 0.01 0.02 0.04 0.05 0.06 0.08 0.13 0.15 0.15 0.15 0.17 0.19 0.20 0.23 0.27
0.68 0.58 0.68 0.59 0.39 0.40 0.35 0.33 0.34 0.37 0.53 0.47 0.17 0.12 0.04 0.00 0.00 0.00 0.00 0.00 0.00 0.00 0.00 0.00 0.00 0.00 0.00 0.00 0.01 0.01 0.01 0.02 0.02 0.03 0.05 0.08 0.10 0.11 0.11 0.12 0.14 0.16 0.19 0.21
0.98 0.78 0.65 0.62 0.63 0.66 0.65 0.80 0.96 0.89 0.80 0.41 0.12 0.11 0.05 0.00 0.00 0.00 0.00 0.00 0.00 0.00 0.00 0.00 0.00 0.00 0.00 0.00 0.00 0.00 0.00 0.01 0.02 0.02 0.03 0.05 0.08 0.11 0.12 0.12 0.13 0.15 0.14 0.14
0.99 0.92 0.62 0.67 0.74 0.81 0.70 0.76 0.79 0.58 0.34 0.15 0.10 0.09 0.03 0.00 0.00 0.00 0.00 0.00 0.00 0.00 0.00 0.00 0.00 0.00 0.00 0.00 0.00 0.00 0.00 0.01 0.02 0.02 0.03 0.03 0.05 0.08 0.09 0.11 0.11 0.13 0.15 0.18
0.64 0.68 0.44 0.47 0.51 0.56 0.68 0.67 0.49 0.55 0.36 0.20 0.12 0.07 0.02 0.00 0.00 0.00 0.00 0.00 0.00 0.00 0.00 0.00 0.00 0.00 0.00 0.00 0.00 0.00 0.00 0.01 0.02 0.02 0.03 0.02 0.03 0.04 0.06 0.08 0.09 0.11 0.13 0.15
0.54 0.69 0.50 0.51 0.67 0.62 0.60 0.54 0.63 0.91 0.66 0.32 0.12 0.05 0.02 0.00 0.00 0.00 0.00 0.00 0.00 0.00 0.00 0.00 0.00 0.00 0.00 0.00 0.00 0.00 0.01 0.02 0.03 0.03 0.03 0.02 0.03 0.04 0.05 0.06 0.06 0.08 0.10 0.12
0.51 0.76 0.67 0.69 0.81 0.59 0.56 0.63 0.69 0.69 0.52 0.42 0.20 0.06 0.02 0.01 0.01 0.01 0.01 0.00 0.00 0.00 0.00 0.00 0.00 0.00 0.00 0.00 0.00 0.01 0.02 0.03 0.04 0.03 0.03 0.03 0.03 0.04 0.05 0.05 0.06 0.07 0.08 0.09
0.47 0.75 0.68 0.54 0.45 0.36 0.43 0.42 0.50 0.67 0.48 0.35 0.25 0.07 0.01 0.01 0.02 0.03 0.03 0.02 0.01 0.00 0.00 0.00 0.00 0.00 0.00 0.01 0.02 0.03 0.05 0.05 0.04 0.04 0.03 0.04 0.04 0.05 0.05 0.06 0.06 0.06 0.07 0.07
0.49 0.78 0.79 0.62 0.57 0.53 0.53 0.39 0.40 0.59 0.76 0.54 0.36 0.11 0.02 0.02 0.04 0.07 0.07 0.06 0.04 0.03 0.02 0.02 0.02 0.02 0.02 0.03 0.04 0.06 0.06 0.05 0.04 0.04 0.04 0.04 0.04 0.05 0.06 0.07 0.07 0.06 0.06 0.05
0.66 0.82 0.73 0.63 0.53 0.53 0.51 0.38 0.42 0.84 1.00 0.47 0.21 0.10 0.06 0.06 0.09 0.11 0.12 0.11 0.08 0.05 0.04 0.04 0.03 0.04 0.04 0.04 0.05 0.05 0.04 0.04 0.05 0.05 0.05 0.06 0.06 0.07 0.08 0.08 0.07 0.06 0.05 0.05
0.70 0.86 0.62 0.42 0.34 0.44 0.45 0.41 0.49 0.73 0.64 0.49 0.22 0.15 0.14 0.13 0.15 0.13 0.12 0.09 0.07 0.06 0.05 0.05 0.05 0.05 0.05 0.05 0.04 0.03 0.04 0.04 0.05 0.07 0.09 0.09 0.09 0.08 0.08 0.07 0.06 0.05 0.05 0.06
0.46 0.65 0.60 0.46 0.32 0.39 0.42 0.38 0.43 0.48 0.43 0.39 0.31 0.27 0.17 0.15 0.14 0.15 0.14 0.09 0.07 0.05 0.05 0.05 0.05 0.05 0.06 0.07 0.05 0.06 0.07 0.07 0.08 0.10 0.12 0.12 0.11 0.10 0.09 0.09 0.08 0.07 0.08 0.09
0.28 0.46 0.64 0.53 0.36 0.45 0.54 0.41 0.40 0.39 0.28 0.27 0.30 0.22 0.15 0.17 0.17 0.15 0.13 0.09 0.05 0.04 0.03 0.03 0.02 0.03 0.03 0.03 0.04 0.07 0.10 0.13 0.14 0.14 0.14 0.14 0.14 0.13 0.12 0.12 0.13 0.16 0.20 0.22
0.14 0.31 0.55 0.45 0.40 0.53 0.44 0.31 0.29 0.28 0.21 0.20 0.20 0.13 0.13 0.16 0.17 0.13 0.10 0.08 0.05 0.03 0.02 0.01 0.01 0.01 0.02 0.02 0.03 0.04 0.06 0.08 0.12 0.13 0.14 0.15 0.17 0.19 0.17 0.20 0.25 0.31 0.38 0.43
0.07 0.25 0.46 0.38 0.31 0.23 0.16 0.14 0.15 0.19 0.18 0.14 0.13 0.11 0.11 0.12 0.16 0.14 0.11 0.10 0.07 0.04 0.03 0.01 0.01 0.01 0.02 0.02 0.03 0.04 0.05 0.07 0.09 0.12 0.14 0.16 0.19 0.28 0.35 0.41 0.45 0.49 0.55 0.58
0.08 0.18 0.40 0.32 0.26 0.15 0.09 0.04 0.03 0.08 0.13 0.06 0.07 0.10 0.10 0.11 0.13 0.12 0.10 0.08 0.08 0.06 0.05 0.04 0.03 0.03 0.04 0.04 0.04 0.07 0.10 0.13 0.18 0.22 0.27 0.31 0.37 0.48 0.57 0.60 0.62 0.58 0.55 0.54
0.14 0.23 0.30 0.25 0.21 0.07 0.03 0.02 0.02 0.10 0.13 0.02 0.03 0.06 0.09 0.10 0.11 0.09 0.07 0.07 0.07 0.08 0.09 0.10 0.11 0.13 0.14 0.15 0.17 0.22 0.25 0.31 0.35 0.37 0.44 0.48 0.48 0.48 0.49 0.48 0.45 0.39 0.33 0.28
0.08 0.13 0.13 0.13 0.16 0.09 0.03 0.03 0.05 0.08 0.04 0.02 0.02 0.03 0.06 0.07 0.08 0.08 0.06 0.04 0.05 0.07 0.08 0.12 0.18 0.25 0.28 0.31 0.38 0.42 0.43 0.45 0.44 0.43 0.45 0.44 0.42 0.38 0.34 0.29 0.23 0.17 0.13 0.10
0.06 0.08 0.08 0.08 0.10 0.06 0.03 0.04 0.04 0.04 0.03 0.02 0.02 0.03 0.04 0.06 0.07 0.06 0.06 0.04 0.03 0.03 0.05 0.08 0.13 0.18 0.22 0.27 0.31 0.35 0.36 0.34 0.31 0.30 0.29 0.26 0.22 0.18 0.15 0.11 0.08 0.05 0.04 0.03
0.07 0.05 0.05 0.05 0.05 0.03 0.03 0.03 0.03 0.03 0.03 0.03 0.03 0.04 0.04 0.05 0.05 0.04 0.04 0.04 0.03 0.02 0.02 0.03 0.04 0.05 0.06 0.08 0.11 0.14 0.13 0.12 0.11 0.10 0.09 0.07 0.05 0.04 0.03 0.02 0.02 0.01 0.01 0.01
0.08 0.07 0.06 0.05 0.04 0.03 0.03 0.03 0.02 0.02 0.02 0.03 0.03 0.03 0.04 0.04 0.04 0.04 0.04 0.03 0.03 0.02 0.02 0.02 0.03 0.03 0.03 0.04 0.04 0.04 0.03 0.03 0.03 0.02 0.02 0.02 0.02 0.01 0.01 0.01 0.01 0.01 0.01 0.01
0.02 0.04 0.06 0.06 0.03 0.03 0.03 0.01 0.01 0.01 0.01 0.01 0.02 0.03 0.03 0.03 0.03 0.04 0.04 0.03 0.03 0.03 0.02 0.02 0.03 0.03 0.03 0.02 0.02 0.02 0.02 0.02 0.02 0.02 0.01 0.01 0.01 0.01 0.01 0.01 0.01 0.01 0.01 0.01

GEFSCGP_prec_meanprecacc_090.txt.gz
Total_Precipitation_Accumulation
1.26 1.12 0.76 0.38 0.24 0.15 0.13 0.12 0.10 0.08 0.07 0.09 0.09 0.07 0.06 0.06 0.07 0.05 0.04 0.03 0.03 0.03 0.04 0.07 0.10 0.13 0.16 0.19 0.16 0.16 0.16 0.18 0.25 0.29 0.27 0.26 0.25 0.29 0.30 0.29 0.30 0.29 0.22 0.19
1.20 0.81 0.42 0.29 0.29 0.24 0.20 0.18 0.12 0.08 0.07 0.08 0.08 0.06 0.06 0.04 0.05 0.04 0.03 0.02 0.02 0.02 0.03 0.05 0.08 0.11 0.12 0.13 0.16 0.18 0.16 0.16 0.16 0.18 0.22 0.32 0.41 0.43 0.42 0.41 0.36 0.32 0.28 0.27
0.91 0.53 0.41 0.44 0.42 0.32 0.22 0.17 0.14 0.13 0.11 0.10 0.09 0.07 0.04 0.03 0.03 0.03 0.02 0.01 0.01 0.01 0.02 0.03 0.05 0.07 0.10 0.12 0.13 0.15 0.15 0.17 0.18 0.21 0.33 0.43 0.48 0.40 0.33 0.28 0.25 0.29 0.32 0.33
0.85 0.51 0.52 0.55 0.46 0.34 0.25 0.12 0.14 0.18 0.21 0.19 0.12 0.09 0.02 0.01 0.01 0.01 0.01 0.01 0.00 0.00 0.01 0.01 0.02 0.03 0.05 0.08 0.12 0.12 0.14 0.17 0.19 0.22 0.25 0.26 0.26 0.25 0.25 0.26 0.28 0.33 0.35 0.38
0.89 0.59 0.62 0.62 0.42 0.36 0.27 0.15 0.19 0.26 0.31 0.28 0.16 0.10 0.02 0.00 0.00 0.00 0.00 0.00 0.00 0.00 0.00 0.01 0.00 0.00 0.01 0.04 0.07 0.09 0.11 0.12 0.15 0.18 0.18 0.23 0.24 0.24 0.25 0.26 0.26 0.26 0.29 0.32
0.68 0.60 0.70 0.62 0.41 0.41 0.36 0.35 0.37 0.42 0.58 0.52 0.18 0.12 0.04 0.00 0.00 0.00 0.00 0.00 0.00 0.00 0.00 0.00 0.00 0.01 0.01 0.02 0.03 0.05 0.08 0.09 0.10 0.11 0.12 0.15 0.18 0.18 0.19 0.19 0.20 0.21 0.23 0.25
1.01 0.82 0.69 0.66 0.65 0.68 0.66 0.82 1.01 0.96 0.88 0.44 0.12 0.11 0.05 0.00 0.00 0.00 0.00 0.00 0.00 0.00 0.00 0.00 0.01 0.01 0.01 0.01 0.02 0.03 0.04 0.06 0.08 0.10 0.11 0.12 0.15 0.17 0.17 0.16 0.16 0.17 0.17 0.16
1.02 0.95 0.65 0.70 0.77 0.83 0.72 0.78 0.81 0.63 0.38 0.16 0.11 0.09 0.03 0.00 0.00 0.00 0.00 0.00 0.00 0.00 0.00 0.00 0.00 0.00 0.01 0.01 0.01 0.02 0.03 0.04 0.06 0.08 0.09 0.10 0.11 0.13 0.14 0.15 0.14 0.15 0.17 0.20
0.65 0.70 0.45 0.49 0.54 0.58 0.71 0.69 0.51 0.58 0.39 0.22 0.13 0.07 0.02 0.00 0.00 0.00 0.00 0.00 0.00 0.00 0.00 0.00 0.00 0.00 0.00 0.00 0.01 0.01 0.02 0.03 0.04 0.05 0.06 0.06 0.06 0.08 0.11 0.12 0.13 0.14 0.15 0.17
0.56 0.70 0.51 0.52 0.69 0.63 0.62 0.57 0.66 0.94 0.70 0.34 0.13 0.06 0.02 0.01 0.00 0.00 0.00 0.00 0.00 0.00 0.00 0.00 0.00 0.00 0.00 0.00 0.00 0.00 0.01 0.02 0.04 0.04 0.04 0.04 0.05 0.06 0.08 0.10 0.10 0.11 0.12 0.13
0.52 0.77 0.68 0.70 0.83 0.61 0.58 0.66 0.72 0.72 0.54 0.45 0.22 0.07 0.02 0.01 0.01 0.01 0.01 0.00 0.00 0.00 0.00 0.00 0.00 0.00 0.00 0.00 0.00 0.01 0.02 0.03 0.04 0.04 0.03 0.03 0.04 0.05 0.05 0.06 0.07 0.08 0.09 0.09
0.49 0.77 0.69 0.55 0.47 0.37 0.45 0.45 0.54 0.70 0.49 0.37 0.28 0.09 0.02 0.01 0.02 0.03 0.03 0.02 0.01 0.01 0.01 0.01 0.01 0.01 0.01 0.01 0.02 0.04 0.05 0.05 0.05 0.04 0.04 0.04 0.04 0.05 0.05 0.06 0.06 0.07 0.07 0.07
0.50 0.80 0.81 0.63 0.59 0.54 0.54 0.41 0.42 0.62 0.78 0.57 0.39 0.13 0.03 0.02 0.04 0.07 0.07 0.06 0.04 0.03 0.02 0.02 0.02 0.02 0.02 0.03 0.04 0.06 0.06 0.05 0.04 0.04 0.04 0.04 0.04 0.05 0.06 0.07 0.07 0.06 0.06 0.05
0.68 0.82 0.74 0.65 0.55 0.55 0.53 0.39 0.44 0.87 1.04 0.50 0.24 0.13 0.09 0.08 0.09 0.11 0.12 0.11 0.08 0.05 0.04 0.04 0.04 0.04 0.04 0.04 0.05 0.05 0.05 0.05 0.05 0.06 0.06 0.06 0.06 0.07 0.08 0.08 0.07 0.06 0.05 0.05
0.70 0.86 0.63 0.43 0.35 0.45 0.46 0.42 0.51 0.75 0.67 0.52 0.24 0.18 0.19 0.18 0.17 0.14 0.13 0.09 0.07 0.06 0.06 0.05 0.05 0.05 0.05 0.05 0.04 0.03 0.04 0.05 0.05 0.07 0.09 0.09 0.09 0.09 0.08 0.08 0.06 0.06 0.05 0.06
0.46 0.66 0.60 0.46 0.33 0.39 0.42 0.38 0.43 0.49 0.44 0.40 0.31 0.28 0.18 0.17 0.16 0.16 0.14 0.10 0.07 0.06 0.06 0.05 0.05 0.06 0.06 0.07 0.05 0.06 0.07 0.07 0.08 0.10 0.12 0.12 0.11 0.10 0.09 0.09 0.08 0.07 0.08 0.09
0.28 0.47 0.65 0.53 0.36 0.46 0.54 0.43 0.41 0.39 0.29 0.28 0.31 0.23 0.16 0.18 0.18 0.16 0.13 0.09 0.06 0.04 0.04 0.03 0.03 0.03 0.03 0.03 0.04 0.07 0.11 0.13 0.14 0.14 0.14 0.14 0.14 0.13 0.12 0.12 0.13 0.16 0.20 0.22
0.14 0.32 0.56 0.46 0.41 0.54 0.45 0.32 0.30 0.29 0.22 0.21 0.20 0.14 0.14 0.17 0.18 0.14 0.11 0.08 0.05 0.04 0.03 0.02 0.02 0.02 0.02 0.02 0.03 0.04 0.06 0.09 0.12 0.14 0.14 0.15 0.17 0.19 0.17 0.20 0.25 0.31 0.38 0.43
0.08 0.25 0.48 0.39 0.32 0.24 0.16 0.14 0.16 0.20 0.19 0.14 0.14 0.12 0.12 0.13 0.17 0.14 0.12 0.10 0.07 0.05 0.03 0.02 0.01 0.01 0.02 0.02 0.03 0.04 0.05 0.08 0.09 0.12 0.14 0.16 0.19 0.28 0.36 0.41 0.45 0.49 0.55 0.58
0.08 0.19 0.41 0.33 0.29 0.17 0.10 0.04 0.04 0.09 0.15 0.07 0.08 0.10 0.11 0.12 0.14 0.13 0.10 0.09 0.08 0.07 0.05 0.04 0.03 0.03 0.04 0.04 0.04 0.07 0.10 0.14 0.18 0.22 0.27 0.32 0.37 0.48 0.57 0.60 0.62 0.58 0.55 0.54
0.15 0.24 0.31 0.26 0.23 0.09 0.03 0.02 0.02 0.12 0.16 0.03 0.03 0.07 0.10 0.11 0.11 0.09 0.07 0.07 0.07 0.08 0.09 0.10 0.11 0.13 0.14 0.15 0.17 0.22 0.25 0.32 0.35 0.37 0.44 0.49 0.48 0.48 0.49 0.48 0.45 0.39 0.33 0.28
0.09 0.14 0.14 0.14 0.18 0.11 0.04 0.03 0.05 0.09 0.05 0.03 0.02 0.04 0.06 0.08 0.09 0.09 0.07 0.05 0.06 0.07 0.09 0.12 0.18 0.25 0.28 0.31 0.38 0.43 0.43 0.45 0.44 0.43 0.45 0.45 0.42 0.39 0.34 0.30 0.23 0.17 0.13 0.10
0.06 0.08 0.09 0.10 0.12 0.08 0.04 0.04 0.04 0.04 0.04 0.03 0.03 0.03 0.04 0.07 0.08 0.07 0.07 0.05 0.03 0.04 0.05 0.09 0.13 0.18 0.22 0.27 0.31 0.36 0.36 0.34 0.32 0.30 0.29 0.26 0.22 0.18 0.15 0.11 0.08 0.06 0.04 0.03
0.07 0.05 0.06 0.07 0.06 0.05 0.04 0.04 0.04 0.03 0.03 0.03 0.04 0.04 0.05 0.05 0.05 0.04 0.04 0.04 0.04 0.03 0.03 0.03 0.05 0.06 0.07 0.08 0.12 0.14 0.13 0.12 0.11 0.10 0.09 0.08 0.06 0.04 0.03 0.03 0.02 0.02 0.01 0.01
0.08 0.07 0.06 0.05 0.04 0.04 0.04 0.03 0.03 0.02 0.02 0.03 0.04 0.05 0.06 0.05 0.05 0.05 0.05 0.04 0.04 0.04 0.03 0.03 0.04 0.04 0.04 0.04 0.05 0.04 0.04 0.03 0.03 0.03 0.03 0.03 0.02 0.02 0.02 0.02 0.01 0.01 0.01 0.01
0.02 0.04 0.06 0.06 0.03 0.03 0.03 0.02 0.01 0.01 0.01 0.01 0.02 0.04 0.04 0.03 0.04 0.06 0.05 0.04 0.04 0.04 0.03 0.03 0.04 0.04 0.03 0.03 0.03 0.03 0.03 0.02 0.02 0.02 0.02 0.02 0.02 0.02 0.01 0.01 0.01 0.02 0.02 0.02

GEFSCGP_prec_meanprecacc_096.txt.gz
Total_Precipitation_Accumulation
1.29 1.18 0.83 0.45 0.30 0.23 0.21 0.20 0.17 0.16 0.13 0.15 0.13 0.11 0.11 0.13 0.11 0.10 0.08 0.07 0.08 0.08 0.10 0.14 0.21 0.31 0.41 0.50 0.50 0.50 0.51 0.51 0.55 0.54 0.47 0.42 0.40 0.44 0.44 0.42 0.38 0.35 0.27 0.23
1.22 0.86 0.47 0.32 0.33 0.30 0.27 0.25 0.17 0.13 0.14 0.13 0.13 0.11 0.11 0.10 0.09 0.08 0.07 0.04 0.04 0.05 0.07 0.09 0.13 0.22 0.30 0.35 0.44 0.50 0.53 0.55 0.51 0.48 0.50 0.57 0.66 0.68 0.65 0.60 0.49 0.43 0.37 0.34
0.94 0.57 0.44 0.47 0.47 0.40 0.28 0.22 0.17 0.15 0.15 0.16 0.14 0.12 0.08 0.07 0.05 0.05 0.05 0.03 0.02 0.02 0.03 0.05 0.08 0.13 0.21 0.28 0.33 0.40 0.46 0.56 0.58 0.58 0.68 0.76 0.77 0.66 0.54 0.45 0.41 0.44 0.46 0.44
0.87 0.53 0.55 0.58 0.50 0.40 0.32 0.15 0.17 0.20 0.23 0.22 0.16 0.15 0.05 0.04 0.03 0.02 0.02 0.02 0.01 0.01 0.02 0.03 0.04 0.06 0.09 0.16 0.25 0.32 0.39 0.47 0.58 0.64 0.61 0.59 0.53 0.47 0.44 0.43 0.44 0.47 0.48 0.48
0.90 0.61 0.64 0.64 0.44 0.39 0.32 0.18 0.21 0.28 0.34 0.30 0.18 0.12 0.04 0.02 0.02 0.01 0.00 0.01 0.00 0.00 0.01 0.01 0.01 0.01 0.03 0.07 0.13 0.21 0.29 0.34 0.43 0.55 0.52 0.54 0.49 0.46 0.46 0.45 0.42 0.39 0.39 0.41
0.69 0.60 0.71 0.63 0.41 0.43 0.41 0.38 0.40 0.45 0.62 0.55 0.19 0.13 0.05 0.01 0.01 0.00 0.00 0.00 0.00 0.00 0.00 0.00 0.01 0.02 0.02 0.04 0.06 0.12 0.18 0.24 0.29 0.36 0.41 0.42 0.41 0.40 0.38 0.37 0.37 0.36 0.35 0.36
1.02 0.83 0.70 0.67 0.66 0.69 0.68 0.85 1.07 1.02 0.92 0.46 0.13 0.11 0.05 0.00 0.00 0.00 0.00 0.00 0.00 0.00 0.00 0.00 0.01 0.01 0.02 0.03 0.04 0.06 0.09 0.15 0.21 0.26 0.32 0.34 0.37 0.38 0.35 0.32 0.32 0.32 0.29 0.26
1.04 0.97 0.67 0.71 0.79 0.84 0.73 0.79 0.84 0.65 0.39 0.17 0.11 0.10 0.03 0.00 0.00 0.00 0.00 0.00 0.00 0.00 0.00 0.00 0.00 0.01 0.01 0.02 0.03 0.04 0.07 0.10 0.16 0.21 0.24 0.28 0.31 0.31 0.28 0.28 0.27 0.28 0.28 0.30
0.67 0.72 0.47 0.51 0.55 0.58 0.72 0.70 0.52 0.60 0.40 0.23 0.14 0.07 0.02 0.01 0.01 0.00 0.00 0.00 0.00 0.00 0.00 0.00 0.00 0.00 0.00 0.01 0.01 0.02 0.05 0.07 0.10 0.14 0.17 0.20 0.22 0.22 0.22 0.22 0.22 0.21 0.21 0.22
0.57 0.72 0.53 0.54 0.69 0.64 0.64 0.59 0.68 0.97 0.72 0.35 0.13 0.06 0.03 0.02 0.01 0.00 0.00 0.00 0.00 0.00 0.00 0.00 0.00 0.00 0.00 0.00 0.00 0.01 0.02 0.05 0.07 0.09 0.11 0.12 0.14 0.15 0.17 0.18 0.17 0.16 0.16 0.16
0.54 0.78 0.69 0.71 0.84 0.63 0.60 0.68 0.75 0.74 0.57 0.46 0.22 0.07 0.03 0.03 0.03 0.02 0.01 0.01 0.00 0.00 0.00 0.00 0.00 0.00 0.00 0.00 0.01 0.01 0.03 0.04 0.05 0.06 0.06 0.07 0.09 0.11 0.13 0.14 0.14 0.13 0.13 0.12
0.50 0.78 0.70 0.56 0.48 0.38 0.47 0.47 0.56 0.73 0.52 0.39 0.29 0.09 0.02 0.03 0.05 0.05 0.04 0.02 0.01 0.01 0.01 0.01 0.01 0.01 0.01 0.01 0.02 0.04 0.05 0.06 0.05 0.05 0.05 0.06 0.07 0.07 0.09 0.10 0.11 0.10 0.10 0.09
0.50 0.81 0.82 0.64 0.59 0.56 0.56 0.42 0.44 0.65 0.82 0.59 0.41 0.13 0.03 0.02 0.05 0.07 0.07 0.06 0.04 0.03 0.02 0.02 0.02 0.02 0.02 0.03 0.05 0.06 0.07 0.05 0.04 0.04 0.05 0.05 0.05 0.06 0.07 0.08 0.08 0.08 0.07 0.07
0.69 0.83 0.75 0.65 0.55 0.56 0.54 0.40 0.45 0.90 1.08 0.53 0.25 0.13 0.09 0.09 0.10 0.12 0.13 0.12 0.08 0.05 0.04 0.04 0.04 0.04 0.04 0.04 0.05 0.05 0.05 0.05 0.05 0.06 0.06 0.06 0.06 0.07 0.08 0.08 0.07 0.07 0.06 0.06
0.71 0.87 0.63 0.43 0.36 0.45 0.46 0.42 0.51 0.76 0.68 0.54 0.25 0.18 0.19 0.19 0.19 0.16 0.14 0.10 0.07 0.06 0.06 0.05 0.05 0.05 0.05 0.05 0.04 0.04 0.04 0.05 0.06 0.07 0.09 0.09 0.09 0.09 0.08 0.08 0.07 0.06 0.05 0.06
0.46 0.66 0.60 0.46 0.33 0.39 0.42 0.39 0.44 0.50 0.45 0.41 0.32 0.28 0.19 0.18 0.18 0.18 0.16 0.11 0.08 0.06 0.06 0.05 0.05 0.06 0.06 0.07 0.06 0.06 0.07 0.08 0.09 0.10 0.12 0.12 0.11 0.10 0.09 0.10 0.08 0.07 0.08 0.09
0.28 0.47 0.65 0.54 0.36 0.46 0.55 0.43 0.42 0.40 0.30 0.29 0.31 0.24 0.16 0.18 0.20 0.18 0.14 0.10 0.07 0.05 0.04 0.04 0.03 0.03 0.03 0.04 0.04 0.07 0.11 0.14 0.14 0.14 0.15 0.14 0.15 0.13 0.12 0.12 0.13 0.16 0.20 0.22
0.14 0.32 0.56 0.47 0.42 0.55 0.46 0.32 0.31 0.30 0.24 0.21 0.21 0.15 0.14 0.17 0.19 0.15 0.11 0.09 0.06 0.04 0.03 0.03 0.02 0.02 0.02 0.03 0.03 0.04 0.06 0.09 0.13 0.14 0.15 0.15 0.18 0.19 0.18 0.21 0.26 0.32 0.38 0.44
0.08 0.26 0.48 0.40 0.32 0.24 0.17 0.14 0.16 0.20 0.20 0.15 0.14 0.12 0.12 0.14 0.17 0.16 0.14 0.11 0.08 0.06 0.04 0.02 0.02 0.02 0.02 0.03 0.03 0.04 0.05 0.08 0.10 0.13 0.15 0.16 0.20 0.29 0.37 0.43 0.48 0.51 0.56 0.60
0.08 0.19 0.42 0.34 0.30 0.18 0.10 0.04 0.04 0.10 0.17 0.08 0.08 0.11 0.12 0.13 0.15 0.14 0.12 0.10 0.09 0.08 0.06 0.05 0.04 0.04 0.04 0.04 0.05 0.07 0.10 0.14 0.18 0.23 0.28 0.33 0.38 0.49 0.58 0.62 0.63 0.59 0.56 0.54
0.16 0.24 0.31 0.27 0.25 0.10 0.03 0.02 0.03 0.13 0.17 0.04 0.03 0.07 0.11 0.12 0.12 0.10 0.08 0.08 0.08 0.09 0.10 0.11 0.12 0.14 0.15 0.15 0.18 0.22 0.26 0.32 0.36 0.37 0.44 0.49 0.48 0.49 0.50 0.49 0.46 0.40 0.33 0.28
0.09 0.14 0.14 0.14 0.19 0.12 0.04 0.03 0.06 0.10 0.06 0.03 0.03 0.04 0.07 0.09 0.09 0.09 0.07 0.05 0.06 0.08 0.09 0.13 0.19 0.25 0.29 0.32 0.39 0.43 0.44 0.45 0.44 0.43 0.45 0.45 0.43 0.39 0.36 0.31 0.25 0.19 0.14 0.11
0.06 0.08 0.10 0.10 0.12 0.08 0.05 0.04 0.05 0.04 0.04 0.03 0.03 0.04 0.05 0.07 0.08 0.07 0.08 0.06 0.04 0.04 0.06 0.09 0.14 0.18 0.23 0.28 0.32 0.37 0.37 0.35 0.32 0.31 0.30 0.27 0.22 0.18 0.16 0.13 0.10 0.08 0.06 0.05
0.07 0.05 0.06 0.07 0.06 0.05 0.04 0.04 0.04 0.04 0.04 0.04 0.04 0.04 0.05 0.05 0.05 0.04 0.04 0.05 0.04 0.04 0.04 0.04 0.05 0.06 0.08 0.10 0.13 0.15 0.14 0.13 0.12 0.11 0.10 0.08 0.06 0.05 0.04 0.03 0.03 0.03 0.02 0.02
0.08 0.07 0.06 0.05 0.04 0.04 0.04 0.03 0.03 0.02 0.02 0.03 0.04 0.05 0.06 0.06 0.06 0.05 0.05 0.04 0.04 0.04 0.04 0.04 0.05 0.06 0.06 0.06 0.06 0.06 0.06 0.06 0.06 0.05 0.05 0.04 0.04 0.03 0.03 0.03 0.03 0.03 0.02 0.03
0.02 0.04 0.06 0.06 0.03 0.03 0.03 0.02 0.01 0.01 0.01 0.01 0.02 0.04 0.04 0.04 0.05 0.06 0.05 0.04 0.04 0.04 0.04 0.05 0.05 0.05 0.05 0.05 0.05 0.05 0.05 0.04 0.05 0.05 0.05 0.04 0.04 0.04 0.03 0.03 0.03 0.04 0.04 0.04

GEFSCGP_prec_meanprecacc_102.txt.gz
Total_Precipitation_Accumulation
1.32 1.21 0.87 0.49 0.34 0.26 0.28 0.27 0.23 0.23 0.19 0.22 0.18 0.15 0.15 0.17 0.15 0.14 0.14 0.15 0.19 0.21 0.28 0.34 0.44 0.56 0.68 0.80 0.87 0.81 0.73 0.74 0.79 0.75 0.66 0.59 0.58 0.62 0.60 0.55 0.49 0.45 0.36 0.30
1.25 0.89 0.49 0.35 0.36 0.34 0.33 0.31 0.22 0.19 0.19 0.21 0.19 0.14 0.14 0.14 0.12 0.11 0.12 0.11 0.12 0.15 0.20 0.26 0.33 0.45 0.57 0.65 0.74 0.82 0.80 0.80 0.80 0.75 0.73 0.79 0.86 0.88 0.86 0.83 0.70 0.59 0.51 0.45
0.96 0.59 0.45 0.48 0.49 0.44 0.32 0.25 0.20 0.20 0.21 0.23 0.20 0.16 0.12 0.12 0.08 0.07 0.08 0.08 0.08 0.09 0.13 0.19 0.25 0.31 0.42 0.54 0.61 0.67 0.70 0.80 0.84 0.90 1.00 1.06 1.05 0.91 0.75 0.64 0.60 0.64 0.65 0.61
0.89 0.54 0.56 0.60 0.54 0.43 0.35 0.18 0.20 0.25 0.29 0.29 0.22 0.22 0.10 0.07 0.05 0.04 0.04 0.05 0.05 0.05 0.07 0.11 0.16 0.21 0.25 0.34 0.47 0.55 0.63 0.73 0.83 0.94 0.96 0.91 0.82 0.73 0.65 0.64 0.65 0.67 0.68 0.70
0.92 0.62 0.65 0.67 0.48 0.42 0.36 0.20 0.23 0.32 0.37 0.34 0.21 0.18 0.09 0.04 0.03 0.02 0.02 0.02 0.03 0.03 0.03 0.05 0.08 0.11 0.13 0.20 0.31 0.41 0.50 0.61 0.70 0.81 0.83 0.88 0.81 0.75 0.72 0.70 0.66 0.63 0.61 0.62
0.70 0.62 0.73 0.66 0.44 0.47 0.43 0.41 0.43 0.47 0.64 0.58 0.21 0.15 0.09 0.03 0.02 0.01 0.02 0.01 0.02 0.02 0.01 0.01 0.03 0.07 0.09 0.12 0.19 0.28 0.35 0.43 0.54 0.64 0.69 0.71 0.72 0.70 0.69 0.66 0.61 0.58 0.59 0.59
1.02 0.83 0.72 0.69 0.69 0.71 0.71 0.89 1.11 1.06 0.94 0.48 0.14 0.13 0.07 0.02 0.01 0.01 0.01 0.01 0.01 0.01 0.01 0.01 0.02 0.04 0.06 0.08 0.11 0.17 0.23 0.30 0.40 0.49 0.59 0.64 0.69 0.70 0.67 0.63 0.60 0.57 0.50 0.45
1.04 0.98 0.69 0.74 0.81 0.86 0.76 0.81 0.87 0.68 0.41 0.19 0.13 0.10 0.03 0.01 0.01 0.00 0.00 0.00 0.01 0.01 0.01 0.01 0.01 0.02 0.04 0.05 0.06 0.09 0.15 0.22 0.30 0.37 0.45 0.54 0.62 0.65 0.62 0.61 0.58 0.56 0.52 0.49
0.68 0.73 0.50 0.54 0.56 0.60 0.74 0.71 0.54 0.64 0.42 0.24 0.15 0.08 0.03 0.02 0.01 0.01 0.00 0.00 0.00 0.00 0.00 0.00 0.01 0.02 0.02 0.02 0.03 0.05 0.09 0.15 0.19 0.25 0.32 0.37 0.43 0.48 0.51 0.52 0.52 0.50 0.45 0.41
0.58 0.73 0.54 0.55 0.70 0.65 0.65 0.60 0.71 1.01 0.75 0.38 0.15 0.07 0.04 0.02 0.01 0.01 0.01 0.01 0.01 0.00 0.00 0.01 0.01 0.01 0.01 0.01 0.01 0.02 0.04 0.09 0.13 0.17 0.20 0.21 0.25 0.30 0.36 0.39 0.39 0.37 0.36 0.35
0.54 0.79 0.70 0.72 0.85 0.63 0.60 0.69 0.78 0.78 0.60 0.48 0.24 0.09 0.04 0.03 0.04 0.04 0.03 0.03 0.02 0.01 0.01 0.01 0.01 0.01 0.01 0.01 0.01 0.02 0.03 0.06 0.08 0.10 0.11 0.12 0.14 0.18 0.22 0.25 0.26 0.27 0.28 0.28
0.50 0.78 0.70 0.56 0.48 0.39 0.48 0.48 0.58 0.76 0.53 0.40 0.30 0.11 0.03 0.03 0.06 0.07 0.06 0.05 0.03 0.02 0.01 0.01 0.01 0.01 0.01 0.02 0.03 0.04 0.06 0.07 0.07 0.06 0.08 0.10 0.11 0.11 0.12 0.15 0.16 0.18 0.19 0.20
0.51 0.81 0.83 0.64 0.60 0.57 0.57 0.43 0.45 0.66 0.83 0.60 0.43 0.15 0.03 0.03 0.06 0.09 0.08 0.09 0.06 0.04 0.03 0.02 0.02 0.02 0.03 0.03 0.05 0.07 0.07 0.06 0.05 0.06 0.07 0.08 0.08 0.08 0.10 0.11 0.11 0.11 0.12 0.12
0.71 0.84 0.75 0.66 0.56 0.57 0.54 0.40 0.46 0.91 1.09 0.54 0.26 0.15 0.10 0.09 0.11 0.13 0.14 0.14 0.10 0.06 0.05 0.04 0.04 0.04 0.04 0.04 0.05 0.06 0.05 0.06 0.06 0.07 0.08 0.09 0.08 0.09 0.10 0.11 0.09 0.09 0.08 0.08
0.72 0.88 0.63 0.43 0.36 0.45 0.46 0.42 0.51 0.77 0.69 0.55 0.26 0.19 0.20 0.20 0.20 0.18 0.15 0.12 0.09 0.07 0.07 0.06 0.06 0.06 0.05 0.05 0.04 0.04 0.04 0.05 0.06 0.08 0.10 0.11 0.11 0.10 0.09 0.09 0.08 0.07 0.07 0.07
0.46 0.67 0.61 0.46 0.33 0.39 0.42 0.39 0.44 0.50 0.45 0.42 0.32 0.29 0.19 0.19 0.18 0.19 0.16 0.12 0.10 0.08 0.07 0.06 0.06 0.06 0.06 0.07 0.06 0.06 0.07 0.08 0.09 0.11 0.13 0.13 0.12 0.11 0.10 0.10 0.09 0.08 0.09 0.10
0.28 0.47 0.65 0.54 0.36 0.46 0.55 0.43 0.43 0.41 0.31 0.30 0.33 0.25 0.16 0.19 0.20 0.18 0.15 0.11 0.09 0.08 0.06 0.05 0.04 0.04 0.04 0.04 0.05 0.08 0.11 0.14 0.14 0.15 0.15 0.15 0.16 0.14 0.12 0.13 0.14 0.17 0.21 0.22
0.14 0.32 0.56 0.47 0.42 0.55 0.46 0.32 0.31 0.31 0.26 0.23 0.22 0.15 0.15 0.18 0.19 0.16 0.12 0.10 0.07 0.06 0.05 0.04 0.03 0.03 0.03 0.03 0.04 0.05 0.07 0.10 0.13 0.15 0.15 0.16 0.19 0.20 0.19 0.21 0.26 0.32 0.39 0.45
0.08 0.26 0.48 0.40 0.33 0.25 0.17 0.14 0.16 0.22 0.22 0.16 0.15 0.13 0.12 0.14 0.18 0.17 0.16 0.13 0.09 0.06 0.06 0.04 0.03 0.03 0.04 0.04 0.04 0.05 0.07 0.10 0.11 0.14 0.16 0.17 0.21 0.30 0.38 0.43 0.49 0.52 0.58 0.62
0.08 0.19 0.42 0.34 0.30 0.18 0.10 0.04 0.04 0.10 0.19 0.08 0.08 0.11 0.12 0.13 0.16 0.15 0.12 0.11 0.10 0.09 0.07 0.07 0.05 0.05 0.06 0.06 0.06 0.08 0.11 0.15 0.20 0.25 0.30 0.34 0.39 0.50 0.59 0.62 0.64 0.60 0.58 0.56
0.16 0.25 0.32 0.27 0.25 0.10 0.03 0.02 0.03 0.14 0.18 0.04 0.03 0.07 0.11 0.12 0.13 0.10 0.08 0.08 0.08 0.10 0.10 0.11 0.13 0.15 0.16 0.16 0.19 0.23 0.27 0.33 0.37 0.39 0.46 0.51 0.50 0.51 0.52 0.51 0.48 0.42 0.35 0.30
0.09 0.15 0.14 0.14 0.19 0.12 0.04 0.03 0.06 0.10 0.06 0.03 0.03 0.04 0.07 0.09 0.10 0.10 0.08 0.06 0.06 0.08 0.10 0.13 0.19 0.26 0.29 0.33 0.39 0.44 0.45 0.46 0.45 0.44 0.47 0.47 0.45 0.41 0.37 0.32 0.26 0.20 0.15 0.11
0.06 0.08 0.10 0.10 0.13 0.08 0.05 0.04 0.05 0.04 0.04 0.03 0.03 0.04 0.05 0.08 0.09 0.08 0.08 0.06 0.04 0.04 0.06 0.10 0.14 0.18 0.23 0.28 0.33 0.37 0.38 0.36 0.34 0.33 0.31 0.28 0.24 0.21 0.18 0.14 0.11 0.09 0.07 0.06
0.07 0.05 0.06 0.07 0.06 0.05 0.04 0.04 0.04 0.04 0.04 0.04 0.04 0.05 0.05 0.05 0.05 0.04 0.05 0.05 0.05 0.04 0.04 0.04 0.06 0.07 0.08 0.10 0.14 0.16 0.15 0.14 0.14 0.13 0.13 0.11 0.09 0.07 0.06 0.05 0.05 0.04 0.04 0.03
0.08 0.07 0.06 0.05 0.04 0.04 0.04 0.03 0.03 0.02 0.02 0.03 0.04 0.05 0.06 0.06 0.06 0.05 0.05 0.04 0.05 0.05 0.05 0.05 0.05 0.06 0.07 0.07 0.07 0.08 0.08 0.07 0.08 0.08 0.07 0.07 0.06 0.06 0.06 0.06 0.06 0.06 0.05 0.05
0.02 0.04 0.06 0.06 0.03 0.03 0.03 0.02 0.01 0.01 0.01 0.01 0.02 0.04 0.04 0.04 0.05 0.06 0.05 0.04 0.04 0.04 0.05 0.06 0.06 0.07 0.08 0.07 0.07 0.07 0.07 0.07 0.08 0.09 0.09 0.08 0.07 0.07 0.07 0.08 0.07 0.07 0.08 0.08

GEFSCGP_prec_meanprecacc_108.txt.gz
Total_Precipitation_Accumulation
1.35 1.25 0.91 0.52 0.37 0.29 0.32 0.32 0.27 0.26 0.23 0.27 0.24 0.22 0.22 0.26 0.29 0.26 0.23 0.25 0.33 0.43 0.51 0.56 0.66 0.78 0.89 1.04 1.14 1.11 1.04 1.03 1.02 0.99 0.87 0.81 0.76 0.76 0.69 0.61 0.53 0.48 0.40 0.35
1.28 0.92 0.51 0.36 0.39 0.37 0.36 0.36 0.26 0.23 0.25 0.30 0.28 0.23 0.22 0.23 0.25 0.21 0.19 0.19 0.23 0.32 0.40 0.44 0.53 0.66 0.80 0.90 0.98 1.08 1.05 1.03 1.00 0.95 0.93 0.99 1.06 1.04 0.99 0.92 0.74 0.63 0.56 0.52
0.99 0.60 0.46 0.50 0.52 0.48 0.36 0.30 0.24 0.26 0.29 0.32 0.29 0.27 0.20 0.19 0.15 0.15 0.17 0.17 0.17 0.19 0.28 0.36 0.45 0.53 0.65 0.81 0.88 0.92 0.94 1.01 1.03 1.12 1.24 1.28 1.28 1.13 0.96 0.80 0.69 0.70 0.72 0.69
0.90 0.55 0.58 0.63 0.56 0.48 0.39 0.20 0.22 0.30 0.38 0.39 0.33 0.36 0.20 0.15 0.12 0.11 0.12 0.13 0.15 0.15 0.19 0.27 0.35 0.43 0.51 0.60 0.76 0.83 0.87 0.96 1.04 1.17 1.22 1.16 1.03 0.93 0.84 0.82 0.78 0.76 0.76 0.77
0.94 0.64 0.68 0.70 0.50 0.45 0.38 0.21 0.25 0.36 0.45 0.43 0.28 0.27 0.18 0.10 0.08 0.08 0.08 0.09 0.10 0.13 0.15 0.16 0.21 0.28 0.32 0.41 0.55 0.66 0.72 0.81 0.90 1.02 1.05 1.14 1.05 0.94 0.92 0.89 0.81 0.73 0.69 0.71
0.72 0.63 0.74 0.67 0.46 0.48 0.45 0.43 0.45 0.51 0.72 0.67 0.26 0.22 0.19 0.09 0.06 0.05 0.05 0.06 0.08 0.11 0.12 0.10 0.12 0.19 0.25 0.28 0.36 0.47 0.54 0.61 0.73 0.86 0.92 0.93 0.94 0.90 0.86 0.84 0.77 0.70 0.68 0.68
1.04 0.85 0.73 0.70 0.71 0.73 0.73 0.92 1.16 1.12 1.01 0.55 0.17 0.18 0.15 0.07 0.06 0.05 0.04 0.05 0.06 0.08 0.09 0.09 0.08 0.12 0.17 0.20 0.24 0.32 0.38 0.45 0.55 0.66 0.80 0.84 0.88 0.89 0.83 0.78 0.78 0.71 0.61 0.54
1.06 1.00 0.71 0.75 0.83 0.88 0.78 0.84 0.92 0.75 0.46 0.23 0.15 0.16 0.09 0.04 0.04 0.03 0.03 0.05 0.06 0.08 0.07 0.07 0.05 0.07 0.10 0.13 0.17 0.22 0.30 0.36 0.44 0.51 0.60 0.70 0.78 0.82 0.78 0.76 0.76 0.74 0.65 0.60
0.69 0.75 0.51 0.54 0.57 0.62 0.76 0.74 0.57 0.68 0.45 0.28 0.18 0.12 0.06 0.04 0.03 0.02 0.03 0.05 0.07 0.08 0.05 0.04 0.04 0.05 0.06 0.06 0.09 0.14 0.22 0.29 0.32 0.38 0.47 0.53 0.60 0.63 0.66 0.67 0.69 0.71 0.66 0.59
0.59 0.75 0.55 0.56 0.72 0.67 0.67 0.63 0.73 1.04 0.79 0.42 0.18 0.10 0.08 0.05 0.03 0.03 0.03 0.05 0.07 0.06 0.04 0.04 0.04 0.06 0.06 0.05 0.06 0.08 0.14 0.23 0.28 0.30 0.35 0.37 0.39 0.46 0.53 0.57 0.56 0.57 0.57 0.57
0.55 0.80 0.71 0.73 0.87 0.65 0.62 0.71 0.80 0.80 0.62 0.52 0.28 0.13 0.07 0.06 0.06 0.05 0.05 0.07 0.07 0.04 0.03 0.04 0.05 0.06 0.06 0.07 0.08 0.09 0.09 0.13 0.18 0.20 0.20 0.23 0.27 0.31 0.37 0.43 0.43 0.45 0.47 0.48
0.51 0.79 0.71 0.57 0.49 0.39 0.49 0.50 0.60 0.79 0.55 0.42 0.33 0.15 0.05 0.05 0.08 0.10 0.08 0.08 0.06 0.04 0.04 0.05 0.05 0.07 0.06 0.07 0.09 0.11 0.10 0.11 0.12 0.13 0.16 0.18 0.19 0.20 0.24 0.28 0.31 0.32 0.33 0.35
0.52 0.82 0.84 0.65 0.61 0.57 0.58 0.43 0.45 0.67 0.85 0.62 0.46 0.19 0.05 0.04 0.07 0.10 0.11 0.11 0.07 0.06 0.06 0.05 0.05 0.08 0.08 0.08 0.08 0.10 0.09 0.08 0.07 0.09 0.13 0.17 0.16 0.18 0.21 0.22 0.22 0.22 0.23 0.24
0.71 0.84 0.76 0.67 0.57 0.57 0.55 0.41 0.46 0.92 1.11 0.56 0.28 0.17 0.11 0.10 0.12 0.14 0.16 0.17 0.12 0.08 0.08 0.07 0.06 0.08 0.08 0.08 0.08 0.07 0.07 0.08 0.08 0.09 0.11 0.14 0.16 0.18 0.20 0.21 0.18 0.16 0.15 0.16
0.72 0.88 0.63 0.44 0.36 0.46 0.47 0.43 0.52 0.78 0.70 0.57 0.28 0.20 0.21 0.21 0.21 0.19 0.18 0.16 0.13 0.10 0.10 0.09 0.08 0.08 0.08 0.07 0.05 0.05 0.05 0.07 0.08 0.10 0.12 0.15 0.16 0.16 0.17 0.17 0.14 0.13 0.13 0.13
0.46 0.68 0.61 0.46 0.33 0.40 0.43 0.39 0.44 0.50 0.46 0.43 0.33 0.30 0.20 0.20 0.19 0.19 0.18 0.17 0.16 0.12 0.12 0.10 0.10 0.09 0.08 0.09 0.07 0.07 0.08 0.09 0.11 0.13 0.15 0.16 0.16 0.15 0.15 0.17 0.15 0.14 0.15 0.16
0.28 0.48 0.66 0.54 0.37 0.46 0.55 0.44 0.43 0.41 0.32 0.31 0.34 0.25 0.17 0.19 0.20 0.19 0.16 0.13 0.13 0.11 0.09 0.08 0.08 0.09 0.07 0.06 0.06 0.09 0.13 0.15 0.16 0.17 0.17 0.18 0.19 0.18 0.15 0.16 0.19 0.23 0.26 0.29
0.14 0.32 0.57 0.47 0.42 0.55 0.46 0.32 0.31 0.31 0.26 0.23 0.23 0.16 0.15 0.18 0.20 0.18 0.14 0.10 0.08 0.07 0.06 0.05 0.05 0.06 0.07 0.06 0.06 0.07 0.09 0.12 0.15 0.18 0.18 0.18 0.21 0.23 0.22 0.24 0.30 0.37 0.44 0.50
0.08 0.26 0.48 0.40 0.33 0.25 0.17 0.14 0.16 0.22 0.23 0.16 0.15 0.13 0.12 0.14 0.19 0.19 0.17 0.14 0.10 0.07 0.06 0.04 0.03 0.04 0.05 0.05 0.06 0.07 0.08 0.11 0.14 0.18 0.20 0.19 0.23 0.32 0.40 0.47 0.53 0.57 0.63 0.67
0.08 0.19 0.43 0.35 0.30 0.18 0.10 0.04 0.04 0.11 0.19 0.08 0.08 0.11 0.12 0.13 0.16 0.15 0.13 0.12 0.11 0.09 0.08 0.08 0.06 0.06 0.06 0.06 0.07 0.10 0.12 0.16 0.22 0.28 0.33 0.37 0.41 0.52 0.62 0.65 0.66 0.63 0.62 0.61
0.16 0.25 0.32 0.27 0.25 0.10 0.03 0.02 0.03 0.14 0.19 0.04 0.03 0.07 0.11 0.12 0.13 0.10 0.08 0.08 0.09 0.10 0.11 0.13 0.15 0.16 0.16 0.17 0.19 0.24 0.28 0.35 0.39 0.42 0.48 0.54 0.54 0.55 0.56 0.54 0.50 0.44 0.38 0.34
0.09 0.15 0.14 0.15 0.19 0.12 0.04 0.03 0.06 0.10 0.06 0.03 0.03 0.04 0.07 0.09 0.10 0.10 0.08 0.07 0.07 0.08 0.10 0.13 0.20 0.28 0.31 0.33 0.40 0.45 0.47 0.48 0.47 0.47 0.50 0.51 0.50 0.47 0.43 0.37 0.30 0.23 0.19 0.15
0.06 0.08 0.10 0.10 0.13 0.08 0.05 0.04 0.05 0.04 0.04 0.03 0.03 0.04 0.05 0.08 0.09 0.08 0.08 0.06 0.04 0.04 0.06 0.10 0.14 0.19 0.25 0.29 0.33 0.38 0.39 0.37 0.36 0.36 0.36 0.34 0.31 0.27 0.25 0.20 0.17 0.14 0.11 0.10
0.07 0.05 0.06 0.07 0.06 0.05 0.04 0.04 0.04 0.04 0.04 0.04 0.04 0.05 0.05 0.05 0.05 0.05 0.05 0.05 0.05 0.04 0.04 0.04 0.06 0.07 0.08 0.10 0.15 0.18 0.16 0.15 0.16 0.17 0.19 0.17 0.15 0.12 0.11 0.11 0.11 0.10 0.09 0.08
0.08 0.07 0.06 0.05 0.04 0.04 0.04 0.03 0.03 0.02 0.02 0.03 0.04 0.05 0.06 0.06 0.06 0.06 0.05 0.04 0.05 0.05 0.05 0.05 0.06 0.06 0.07 0.07 0.08 0.09 0.09 0.08 0.08 0.09 0.10 0.10 0.09 0.09 0.09 0.09 0.10 0.11 0.10 0.11
0.02 0.04 0.06 0.06 0.03 0.03 0.03 0.02 0.01 0.01 0.01 0.01 0.02 0.04 0.04 0.04 0.05 0.06 0.05 0.04 0.04 0.04 0.05 0.06 0.07 0.07 0.08 0.08 0.07 0.07 0.08 0.08 0.09 0.10 0.10 0.10 0.10 0.10 0.10 0.11 0.11 0.12 0.13 0.16

GEFSCGP_prec_meanprecacc_114.txt.gz
Total_Precipitation_Accumulation
1.37 1.28 0.93 0.53 0.38 0.32 0.36 0.36 0.30 0.29 0.27 0.31 0.29 0.28 0.27 0.31 0.34 0.33 0.32 0.34 0.42 0.53 0.64 0.73 0.86 1.01 1.10 1.24 1.36 1.33 1.27 1.21 1.19 1.24 1.21 1.18 1.08 0.97 0.86 0.74 0.64 0.57 0.47 0.41
1.31 0.95 0.52 0.36 0.40 0.40 0.39 0.40 0.30 0.28 0.30 0.36 0.36 0.31 0.28 0.32 0.34 0.31 0.29 0.28 0.32 0.42 0.53 0.63 0.75 0.88 1.00 1.08 1.18 1.30 1.31 1.27 1.19 1.16 1.21 1.28 1.34 1.27 1.19 1.09 0.89 0.74 0.64 0.59
1.01 0.62 0.47 0.51 0.55 0.52 0.39 0.34 0.30 0.33 0.35 0.39 0.38 0.35 0.29 0.32 0.27 0.28 0.28 0.28 0.27 0.28 0.38 0.52 0.67 0.76 0.87 1.00 1.07 1.12 1.18 1.25 1.27 1.32 1.52 1.58 1.56 1.36 1.17 1.00 0.87 0.83 0.82 0.77
0.92 0.56 0.59 0.65 0.60 0.51 0.43 0.23 0.25 0.35 0.45 0.48 0.43 0.49 0.35 0.29 0.23 0.22 0.25 0.24 0.24 0.25 0.30 0.41 0.52 0.66 0.74 0.81 0.96 1.04 1.08 1.17 1.26 1.39 1.49 1.48 1.32 1.17 1.04 0.99 0.95 0.93 0.89 0.86
0.95 0.64 0.69 0.72 0.52 0.47 0.40 0.23 0.27 0.41 0.51 0.51 0.36 0.38 0.34 0.21 0.18 0.17 0.17 0.18 0.21 0.23 0.26 0.31 0.35 0.46 0.54 0.62 0.76 0.89 0.93 1.02 1.14 1.26 1.30 1.44 1.36 1.18 1.13 1.12 1.02 0.93 0.87 0.84
0.73 0.63 0.75 0.68 0.46 0.49 0.47 0.46 0.50 0.57 0.78 0.74 0.30 0.30 0.33 0.22 0.16 0.13 0.14 0.17 0.20 0.23 0.26 0.27 0.26 0.32 0.40 0.44 0.52 0.67 0.77 0.83 0.98 1.12 1.19 1.20 1.23 1.14 1.08 1.09 1.03 0.92 0.88 0.84
1.05 0.86 0.74 0.71 0.72 0.74 0.75 0.95 1.20 1.16 1.06 0.62 0.21 0.25 0.28 0.19 0.16 0.15 0.14 0.16 0.15 0.16 0.20 0.22 0.18 0.22 0.30 0.32 0.36 0.46 0.57 0.65 0.77 0.91 1.06 1.09 1.14 1.12 1.04 0.97 0.99 0.93 0.81 0.73
1.08 1.01 0.72 0.76 0.84 0.90 0.79 0.86 0.95 0.79 0.49 0.26 0.18 0.22 0.19 0.12 0.11 0.12 0.12 0.13 0.13 0.16 0.16 0.17 0.14 0.17 0.22 0.24 0.27 0.33 0.42 0.50 0.61 0.70 0.82 0.94 1.01 1.02 0.95 0.92 0.91 0.91 0.82 0.77
0.71 0.77 0.52 0.55 0.57 0.62 0.77 0.76 0.59 0.70 0.47 0.29 0.22 0.19 0.14 0.08 0.08 0.10 0.11 0.13 0.14 0.17 0.15 0.17 0.16 0.17 0.19 0.18 0.18 0.22 0.30 0.40 0.46 0.53 0.62 0.71 0.79 0.81 0.81 0.81 0.82 0.85 0.81 0.74
0.60 0.76 0.56 0.56 0.72 0.68 0.69 0.64 0.74 1.07 0.82 0.45 0.21 0.15 0.16 0.10 0.09 0.10 0.11 0.14 0.18 0.18 0.17 0.19 0.20 0.20 0.20 0.17 0.16 0.17 0.24 0.35 0.41 0.44 0.48 0.52 0.56 0.63 0.68 0.69 0.68 0.69 0.71 0.72
0.55 0.81 0.71 0.73 0.88 0.66 0.63 0.73 0.81 0.81 0.65 0.56 0.31 0.19 0.16 0.13 0.11 0.10 0.12 0.15 0.17 0.16 0.16 0.17 0.17 0.20 0.22 0.22 0.22 0.21 0.22 0.26 0.33 0.33 0.34 0.36 0.40 0.46 0.53 0.58 0.57 0.57 0.61 0.65
0.51 0.80 0.72 0.57 0.49 0.40 0.50 0.51 0.61 0.80 0.58 0.45 0.36 0.22 0.11 0.10 0.13 0.15 0.14 0.16 0.15 0.13 0.13 0.15 0.17 0.21 0.21 0.23 0.25 0.25 0.23 0.24 0.28 0.27 0.27 0.28 0.30 0.34 0.38 0.42 0.45 0.47 0.48 0.51
0.52 0.83 0.85 0.66 0.61 0.57 0.58 0.44 0.45 0.68 0.87 0.63 0.48 0.24 0.10 0.07 0.10 0.14 0.16 0.17 0.15 0.13 0.13 0.14 0.16 0.20 0.22 0.24 0.25 0.25 0.22 0.22 0.24 0.22 0.23 0.27 0.26 0.29 0.31 0.33 0.34 0.36 0.37 0.37
0.72 0.85 0.77 0.68 0.57 0.58 0.55 0.41 0.46 0.93 1.13 0.57 0.30 0.21 0.15 0.12 0.14 0.17 0.20 0.21 0.17 0.15 0.16 0.16 0.16 0.18 0.21 0.22 0.22 0.22 0.21 0.22 0.22 0.20 0.22 0.24 0.25 0.27 0.29 0.28 0.26 0.27 0.27 0.28
0.72 0.89 0.64 0.44 0.36 0.46 0.47 0.43 0.52 0.79 0.71 0.58 0.29 0.22 0.23 0.22 0.23 0.22 0.21 0.20 0.17 0.16 0.16 0.15 0.15 0.16 0.16 0.15 0.15 0.15 0.15 0.16 0.18 0.18 0.20 0.24 0.25 0.24 0.27 0.25 0.21 0.20 0.22 0.22
0.47 0.68 0.62 0.47 0.33 0.40 0.43 0.39 0.44 0.51 0.46 0.43 0.34 0.31 0.21 0.21 0.20 0.21 0.21 0.20 0.20 0.16 0.15 0.13 0.14 0.14 0.12 0.13 0.12 0.14 0.14 0.14 0.16 0.18 0.19 0.22 0.23 0.24 0.26 0.27 0.22 0.21 0.22 0.24
0.28 0.48 0.66 0.54 0.37 0.46 0.55 0.44 0.43 0.41 0.32 0.32 0.35 0.26 0.17 0.19 0.21 0.20 0.16 0.14 0.15 0.13 0.11 0.10 0.10 0.13 0.13 0.10 0.10 0.14 0.17 0.19 0.20 0.21 0.20 0.22 0.24 0.24 0.22 0.23 0.26 0.31 0.33 0.36
0.14 0.33 0.57 0.47 0.42 0.55 0.46 0.32 0.31 0.31 0.27 0.24 0.23 0.16 0.15 0.18 0.20 0.18 0.14 0.11 0.08 0.08 0.07 0.07 0.07 0.09 0.12 0.10 0.10 0.11 0.12 0.14 0.19 0.22 0.21 0.21 0.25 0.28 0.27 0.30 0.37 0.46 0.52 0.57
0.08 0.26 0.48 0.40 0.33 0.25 0.17 0.14 0.16 0.22 0.23 0.17 0.16 0.13 0.12 0.14 0.19 0.19 0.17 0.15 0.10 0.08 0.08 0.06 0.06 0.07 0.08 0.09 0.10 0.11 0.11 0.13 0.16 0.21 0.24 0.22 0.26 0.36 0.45 0.53 0.60 0.65 0.72 0.75
0.08 0.19 0.43 0.35 0.31 0.18 0.10 0.04 0.04 0.11 0.20 0.09 0.09 0.11 0.12 0.13 0.17 0.16 0.13 0.12 0.11 0.09 0.09 0.09 0.07 0.07 0.08 0.08 0.10 0.11 0.14 0.18 0.24 0.31 0.37 0.40 0.44 0.55 0.65 0.70 0.73 0.69 0.68 0.68
0.16 0.25 0.32 0.27 0.25 0.10 0.03 0.02 0.03 0.14 0.19 0.04 0.03 0.07 0.11 0.12 0.13 0.10 0.08 0.08 0.09 0.10 0.11 0.13 0.15 0.16 0.17 0.18 0.22 0.26 0.29 0.36 0.41 0.43 0.51 0.57 0.57 0.58 0.59 0.59 0.56 0.48 0.42 0.38
0.09 0.15 0.14 0.15 0.19 0.12 0.04 0.03 0.06 0.10 0.06 0.03 0.03 0.04 0.07 0.09 0.10 0.10 0.08 0.07 0.07 0.09 0.11 0.14 0.20 0.28 0.31 0.34 0.41 0.46 0.48 0.49 0.48 0.49 0.52 0.54 0.54 0.51 0.47 0.42 0.35 0.27 0.22 0.19
0.06 0.08 0.10 0.10 0.13 0.08 0.05 0.04 0.05 0.04 0.04 0.03 0.03 0.04 0.05 0.08 0.09 0.08 0.08 0.06 0.04 0.04 0.06 0.10 0.14 0.20 0.25 0.29 0.34 0.39 0.39 0.37 0.37 0.37 0.38 0.38 0.35 0.32 0.30 0.25 0.21 0.18 0.15 0.14
0.07 0.05 0.06 0.07 0.06 0.05 0.04 0.04 0.04 0.04 0.04 0.04 0.04 0.05 0.05 0.05 0.05 0.05 0.05 0.05 0.05 0.04 0.04 0.04 0.06 0.07 0.09 0.11 0.15 0.18 0.16 0.16 0.16 0.18 0.21 0.21 0.19 0.17 0.17 0.16 0.16 0.15 0.13 0.12
0.08 0.07 0.06 0.05 0.04 0.04 0.04 0.03 0.03 0.02 0.02 0.03 0.04 0.05 0.06 0.06 0.06 0.06 0.05 0.04 0.05 0.05 0.05 0.05 0.06 0.06 0.07 0.07 0.08 0.09 0.09 0.08 0.09 0.09 0.11 0.12 0.12 0.12 0.13 0.14 0.14 0.15 0.14 0.15
0.02 0.04 0.06 0.06 0.03 0.03 0.03 0.02 0.01 0.01 0.01 0.01 0.02 0.04 0.04 0.04 0.05 0.06 0.06 0.04 0.04 0.04 0.05 0.06 0.07 0.07 0.08 0.08 0.07 0.07 0.08 0.08 0.09 0.10 0.10 0.11 0.11 0.12 0.12 0.13 0.14 0.16 0.17 0.19

GEFSCGP_prec_meanprecacc_120.txt.gz
Total_Precipitation_Accumulation
1.39 1.30 0.94 0.54 0.40 0.34 0.37 0.37 0.31 0.32 0.30 0.33 0.32 0.32 0.31 0.35 0.39 0.38 0.38 0.39 0.48 0.61 0.74 0.82 0.96 1.10 1.21 1.40 1.51 1.50 1.41 1.35 1.33 1.39 1.36 1.34 1.24 1.13 1.01 0.87 0.76 0.68 0.57 0.50
1.34 0.97 0.54 0.38 0.42 0.42 0.41 0.42 0.32 0.32 0.34 0.40 0.41 0.36 0.33 0.37 0.40 0.37 0.36 0.37 0.40 0.51 0.64 0.76 0.87 0.98 1.13 1.28 1.37 1.49 1.47 1.41 1.35 1.30 1.34 1.42 1.50 1.45 1.37 1.26 1.03 0.86 0.75 0.69
1.03 0.63 0.48 0.52 0.56 0.53 0.41 0.36 0.32 0.37 0.41 0.45 0.45 0.44 0.39 0.42 0.35 0.39 0.41 0.41 0.40 0.40 0.54 0.69 0.83 0.93 1.05 1.19 1.27 1.34 1.38 1.41 1.45 1.50 1.66 1.70 1.70 1.53 1.35 1.19 1.04 0.96 0.92 0.88
0.93 0.56 0.60 0.67 0.62 0.54 0.46 0.25 0.29 0.40 0.52 0.57 0.51 0.61 0.48 0.41 0.33 0.35 0.39 0.38 0.39 0.41 0.49 0.63 0.72 0.87 0.97 1.00 1.13 1.22 1.26 1.33 1.42 1.55 1.63 1.60 1.44 1.31 1.17 1.11 1.08 1.05 1.00 0.97
0.96 0.65 0.70 0.75 0.55 0.51 0.45 0.27 0.32 0.45 0.57 0.58 0.41 0.46 0.44 0.30 0.28 0.28 0.29 0.30 0.33 0.38 0.44 0.51 0.56 0.66 0.76 0.80 0.91 1.04 1.09 1.17 1.29 1.42 1.44 1.56 1.47 1.30 1.25 1.22 1.12 1.05 0.97 0.94
0.73 0.64 0.77 0.71 0.49 0.52 0.51 0.50 0.54 0.61 0.81 0.80 0.34 0.37 0.43 0.32 0.27 0.26 0.28 0.29 0.31 0.34 0.39 0.43 0.45 0.52 0.61 0.64 0.70 0.84 0.95 1.00 1.12 1.26 1.32 1.32 1.34 1.25 1.19 1.19 1.13 1.03 0.97 0.92
1.06 0.87 0.76 0.73 0.74 0.77 0.78 0.99 1.23 1.18 1.08 0.65 0.23 0.28 0.36 0.26 0.25 0.26 0.25 0.25 0.25 0.27 0.31 0.34 0.32 0.40 0.48 0.50 0.55 0.64 0.78 0.86 0.94 1.07 1.20 1.22 1.27 1.26 1.18 1.12 1.12 1.07 0.96 0.84
1.10 1.04 0.75 0.78 0.86 0.91 0.81 0.87 0.97 0.81 0.51 0.27 0.19 0.26 0.25 0.17 0.17 0.19 0.20 0.20 0.22 0.24 0.25 0.27 0.26 0.31 0.38 0.40 0.43 0.48 0.59 0.73 0.81 0.87 0.98 1.09 1.15 1.16 1.10 1.06 1.05 1.06 0.99 0.92
0.72 0.78 0.53 0.56 0.58 0.63 0.78 0.77 0.60 0.71 0.48 0.30 0.23 0.22 0.18 0.12 0.14 0.16 0.18 0.19 0.22 0.24 0.24 0.27 0.27 0.30 0.33 0.32 0.32 0.37 0.45 0.59 0.65 0.69 0.78 0.88 0.94 0.94 0.93 0.92 0.93 0.96 0.94 0.87
0.61 0.77 0.56 0.56 0.72 0.69 0.69 0.65 0.75 1.08 0.83 0.46 0.22 0.17 0.21 0.15 0.15 0.16 0.17 0.21 0.24 0.25 0.24 0.26 0.30 0.32 0.31 0.28 0.26 0.29 0.38 0.50 0.58 0.57 0.61 0.66 0.72 0.78 0.80 0.80 0.79 0.80 0.82 0.81
0.56 0.82 0.72 0.73 0.88 0.66 0.64 0.73 0.82 0.82 0.66 0.58 0.32 0.21 0.21 0.19 0.17 0.16 0.17 0.21 0.24 0.24 0.24 0.26 0.28 0.30 0.32 0.33 0.33 0.32 0.34 0.40 0.48 0.47 0.44 0.46 0.52 0.61 0.67 0.69 0.67 0.67 0.70 0.74
0.52 0.80 0.72 0.57 0.49 0.40 0.50 0.52 0.62 0.81 0.58 0.46 0.37 0.24 0.15 0.15 0.18 0.20 0.20 0.23 0.22 0.20 0.21 0.24 0.27 0.31 0.32 0.34 0.37 0.39 0.37 0.38 0.42 0.41 0.40 0.40 0.39 0.45 0.52 0.54 0.55 0.57 0.56 0.59
0.53 0.84 0.85 0.66 0.61 0.58 0.58 0.44 0.45 0.68 0.87 0.64 0.50 0.27 0.13 0.11 0.15 0.19 0.21 0.23 0.20 0.18 0.19 0.20 0.23 0.29 0.33 0.35 0.36 0.36 0.36 0.35 0.37 0.34 0.34 0.39 0.38 0.40 0.46 0.46 0.45 0.46 0.46 0.47
0.73 0.86 0.77 0.68 0.57 0.58 0.55 0.41 0.46 0.93 1.14 0.58 0.32 0.23 0.17 0.14 0.17 0.20 0.23 0.26 0.22 0.20 0.21 0.21 0.23 0.27 0.31 0.33 0.35 0.35 0.36 0.37 0.38 0.34 0.33 0.35 0.37 0.39 0.45 0.45 0.39 0.40 0.40 0.39
0.73 0.89 0.64 0.44 0.36 0.46 0.47 0.43 0.52 0.79 0.71 0.59 0.31 0.23 0.25 0.24 0.25 0.23 0.23 0.22 0.20 0.19 0.20 0.20 0.22 0.25 0.26 0.26 0.27 0.29 0.29 0.31 0.33 0.34 0.35 0.37 0.37 0.36 0.41 0.41 0.36 0.35 0.37 0.35
0.47 0.68 0.62 0.47 0.33 0.40 0.43 0.39 0.44 0.51 0.46 0.44 0.35 0.32 0.22 0.22 0.22 0.23 0.22 0.21 0.22 0.18 0.18 0.18 0.19 0.20 0.19 0.22 0.24 0.25 0.26 0.28 0.31 0.34 0.34 0.35 0.35 0.35 0.36 0.38 0.35 0.34 0.35 0.35
0.29 0.48 0.66 0.54 0.37 0.46 0.55 0.44 0.43 0.41 0.32 0.32 0.36 0.27 0.18 0.20 0.21 0.20 0.17 0.16 0.16 0.15 0.13 0.14 0.15 0.18 0.18 0.17 0.19 0.22 0.26 0.29 0.33 0.35 0.34 0.35 0.36 0.35 0.34 0.34 0.37 0.43 0.45 0.46
0.15 0.33 0.57 0.48 0.42 0.55 0.46 0.32 0.31 0.31 0.27 0.24 0.24 0.16 0.16 0.19 0.20 0.18 0.14 0.11 0.09 0.09 0.09 0.09 0.10 0.12 0.16 0.15 0.15 0.17 0.18 0.21 0.26 0.30 0.29 0.30 0.35 0.38 0.38 0.41 0.48 0.57 0.62 0.67
0.08 0.26 0.49 0.40 0.33 0.25 0.17 0.14 0.16 0.22 0.24 0.17 0.16 0.13 0.12 0.14 0.19 0.19 0.18 0.15 0.11 0.08 0.09 0.08 0.07 0.09 0.11 0.12 0.13 0.14 0.15 0.17 0.20 0.25 0.27 0.26 0.31 0.43 0.53 0.61 0.69 0.73 0.80 0.83
0.09 0.20 0.43 0.35 0.31 0.18 0.10 0.04 0.04 0.11 0.20 0.09 0.09 0.11 0.12 0.14 0.17 0.16 0.13 0.12 0.11 0.09 0.09 0.10 0.08 0.08 0.09 0.10 0.12 0.13 0.15 0.19 0.26 0.32 0.38 0.42 0.47 0.59 0.70 0.75 0.78 0.75 0.74 0.74
0.17 0.25 0.33 0.28 0.25 0.10 0.03 0.02 0.03 0.14 0.19 0.04 0.04 0.08 0.11 0.12 0.13 0.10 0.09 0.09 0.09 0.10 0.11 0.13 0.15 0.16 0.17 0.18 0.22 0.27 0.30 0.37 0.41 0.44 0.51 0.58 0.59 0.60 0.61 0.61 0.59 0.52 0.45 0.41
0.09 0.15 0.14 0.15 0.19 0.12 0.04 0.03 0.06 0.10 0.06 0.03 0.03 0.04 0.07 0.09 0.10 0.10 0.08 0.07 0.07 0.09 0.11 0.14 0.20 0.28 0.31 0.34 0.41 0.47 0.48 0.50 0.49 0.49 0.52 0.54 0.55 0.53 0.49 0.43 0.36 0.30 0.25 0.22
0.06 0.08 0.10 0.11 0.13 0.08 0.05 0.04 0.05 0.04 0.04 0.03 0.03 0.04 0.05 0.08 0.09 0.08 0.08 0.06 0.04 0.04 0.06 0.10 0.14 0.20 0.25 0.29 0.34 0.39 0.39 0.38 0.38 0.38 0.39 0.39 0.36 0.33 0.31 0.27 0.23 0.20 0.18 0.17
0.07 0.05 0.06 0.07 0.06 0.05 0.04 0.04 0.04 0.04 0.04 0.04 0.04 0.05 0.05 0.05 0.05 0.05 0.05 0.05 0.05 0.04 0.04 0.04 0.06 0.07 0.09 0.11 0.15 0.18 0.17 0.16 0.17 0.19 0.21 0.22 0.20 0.18 0.18 0.18 0.17 0.16 0.15 0.15
0.08 0.07 0.06 0.05 0.04 0.04 0.04 0.03 0.03 0.02 0.02 0.03 0.04 0.05 0.06 0.06 0.06 0.06 0.05 0.04 0.05 0.05 0.05 0.05 0.06 0.06 0.07 0.07 0.08 0.09 0.09 0.09 0.09 0.10 0.12 0.13 0.13 0.13 0.14 0.14 0.15 0.16 0.16 0.16
0.02 0.04 0.06 0.06 0.03 0.03 0.03 0.02 0.01 0.01 0.01 0.01 0.02 0.04 0.04 0.04 0.05 0.06 0.06 0.04 0.04 0.04 0.05 0.06 0.07 0.07 0.08 0.08 0.07 0.07 0.08 0.08 0.09 0.10 0.10 0.11 0.11 0.12 0.13 0.13 0.14 0.17 0.18 0.19

GEFSCGP_prec_meanprecacc_126.txt.gz
Total_Precipitation_Accumulation
1.41 1.31 0.95 0.55 0.41 0.35 0.38 0.38 0.31 0.32 0.31 0.33 0.33 0.33 0.32 0.37 0.42 0.41 0.39 0.40 0.49 0.63 0.77 0.85 1.02 1.17 1.27 1.44 1.56 1.58 1.51 1.43 1.41 1.47 1.47 1.46 1.35 1.23 1.09 0.93 0.81 0.74 0.62 0.57
1.36 0.99 0.55 0.38 0.42 0.43 0.42 0.43 0.33 0.33 0.34 0.40 0.41 0.37 0.34 0.40 0.44 0.41 0.40 0.39 0.43 0.57 0.70 0.82 0.95 1.06 1.18 1.34 1.44 1.59 1.59 1.50 1.43 1.36 1.42 1.55 1.63 1.55 1.46 1.33 1.08 0.93 0.83 0.77
1.05 0.65 0.49 0.53 0.57 0.55 0.42 0.37 0.33 0.38 0.42 0.46 0.46 0.46 0.42 0.46 0.39 0.43 0.46 0.46 0.46 0.49 0.64 0.77 0.91 1.02 1.11 1.28 1.38 1.46 1.53 1.52 1.52 1.58 1.75 1.82 1.83 1.65 1.46 1.28 1.12 1.03 0.99 0.94
0.95 0.58 0.61 0.68 0.63 0.55 0.47 0.26 0.30 0.41 0.55 0.60 0.54 0.66 0.54 0.48 0.39 0.41 0.45 0.46 0.48 0.50 0.63 0.75 0.83 0.99 1.08 1.12 1.24 1.33 1.40 1.48 1.51 1.66 1.75 1.73 1.58 1.42 1.28 1.21 1.18 1.13 1.07 1.04
0.98 0.67 0.72 0.77 0.57 0.53 0.46 0.28 0.33 0.47 0.60 0.62 0.45 0.52 0.52 0.38 0.36 0.37 0.39 0.39 0.43 0.49 0.56 0.62 0.68 0.79 0.90 0.95 1.04 1.16 1.23 1.32 1.39 1.52 1.55 1.66 1.58 1.41 1.35 1.32 1.20 1.12 1.04 1.01
0.75 0.66 0.80 0.74 0.51 0.54 0.52 0.51 0.56 0.63 0.85 0.84 0.38 0.41 0.49 0.38 0.35 0.36 0.38 0.39 0.41 0.44 0.50 0.54 0.55 0.63 0.73 0.78 0.82 0.97 1.13 1.15 1.23 1.36 1.42 1.40 1.41 1.32 1.26 1.27 1.21 1.11 1.06 0.99
1.09 0.89 0.78 0.75 0.76 0.78 0.79 1.01 1.26 1.21 1.12 0.69 0.26 0.31 0.40 0.31 0.31 0.35 0.34 0.35 0.35 0.35 0.41 0.44 0.41 0.48 0.59 0.64 0.69 0.80 0.94 1.00 1.06 1.18 1.28 1.30 1.35 1.32 1.24 1.18 1.19 1.14 1.05 0.91
1.12 1.06 0.76 0.79 0.87 0.93 0.82 0.89 0.99 0.83 0.53 0.30 0.21 0.28 0.29 0.21 0.22 0.25 0.26 0.26 0.30 0.33 0.34 0.36 0.35 0.41 0.49 0.53 0.58 0.64 0.73 0.85 0.92 0.96 1.05 1.15 1.22 1.25 1.18 1.14 1.12 1.13 1.07 1.01
0.74 0.80 0.54 0.56 0.58 0.64 0.81 0.78 0.61 0.73 0.49 0.31 0.24 0.24 0.21 0.15 0.17 0.19 0.22 0.23 0.27 0.31 0.31 0.35 0.35 0.39 0.43 0.44 0.48 0.51 0.56 0.69 0.73 0.76 0.85 0.94 1.01 1.02 1.02 1.02 1.02 1.03 1.01 0.94
0.62 0.79 0.57 0.57 0.73 0.70 0.70 0.66 0.76 1.10 0.84 0.47 0.24 0.19 0.23 0.17 0.17 0.18 0.21 0.25 0.29 0.30 0.29 0.32 0.37 0.39 0.40 0.39 0.39 0.41 0.48 0.58 0.65 0.65 0.67 0.73 0.80 0.86 0.87 0.87 0.88 0.88 0.88 0.87
0.56 0.83 0.72 0.74 0.89 0.67 0.64 0.74 0.83 0.83 0.67 0.59 0.33 0.23 0.23 0.21 0.19 0.18 0.20 0.25 0.28 0.28 0.29 0.32 0.34 0.38 0.40 0.42 0.44 0.44 0.44 0.49 0.57 0.54 0.50 0.52 0.60 0.68 0.74 0.75 0.73 0.73 0.77 0.81
0.52 0.81 0.73 0.57 0.49 0.40 0.50 0.52 0.62 0.82 0.59 0.46 0.38 0.26 0.17 0.17 0.20 0.22 0.22 0.26 0.26 0.24 0.25 0.29 0.32 0.37 0.38 0.41 0.46 0.48 0.47 0.49 0.54 0.51 0.47 0.46 0.46 0.52 0.57 0.57 0.58 0.61 0.61 0.65
0.54 0.85 0.86 0.66 0.61 0.58 0.58 0.44 0.46 0.69 0.88 0.65 0.51 0.29 0.14 0.12 0.16 0.21 0.23 0.26 0.23 0.21 0.22 0.23 0.26 0.32 0.37 0.40 0.42 0.43 0.44 0.46 0.49 0.47 0.45 0.47 0.46 0.47 0.51 0.50 0.48 0.49 0.51 0.51
0.75 0.87 0.78 0.68 0.58 0.58 0.55 0.41 0.47 0.94 1.14 0.59 0.32 0.24 0.18 0.15 0.18 0.22 0.25 0.28 0.24 0.22 0.24 0.24 0.26 0.30 0.34 0.37 0.40 0.39 0.41 0.43 0.45 0.44 0.42 0.44 0.46 0.45 0.51 0.49 0.42 0.43 0.44 0.44
0.74 0.90 0.64 0.44 0.36 0.46 0.47 0.43 0.52 0.79 0.71 0.60 0.31 0.24 0.26 0.25 0.26 0.25 0.25 0.24 0.22 0.21 0.24 0.24 0.27 0.29 0.29 0.30 0.32 0.33 0.32 0.34 0.38 0.39 0.41 0.45 0.46 0.45 0.49 0.49 0.43 0.42 0.44 0.43
0.48 0.69 0.62 0.47 0.33 0.40 0.43 0.39 0.44 0.51 0.46 0.44 0.36 0.33 0.23 0.23 0.22 0.23 0.23 0.22 0.23 0.21 0.22 0.22 0.24 0.25 0.24 0.26 0.29 0.30 0.31 0.33 0.36 0.39 0.40 0.42 0.43 0.42 0.44 0.46 0.43 0.43 0.46 0.45
0.29 0.49 0.66 0.54 0.37 0.46 0.55 0.45 0.44 0.42 0.32 0.33 0.38 0.28 0.18 0.21 0.22 0.21 0.18 0.17 0.17 0.17 0.16 0.17 0.19 0.22 0.22 0.21 0.24 0.28 0.31 0.35 0.38 0.41 0.42 0.42 0.43 0.42 0.41 0.41 0.45 0.52 0.56 0.56
0.15 0.34 0.57 0.48 0.42 0.55 0.46 0.33 0.32 0.31 0.27 0.25 0.25 0.17 0.16 0.19 0.21 0.19 0.15 0.12 0.10 0.10 0.10 0.11 0.13 0.17 0.21 0.20 0.21 0.23 0.22 0.26 0.31 0.36 0.36 0.37 0.43 0.46 0.46 0.49 0.57 0.67 0.74 0.79
0.08 0.27 0.49 0.40 0.33 0.25 0.17 0.14 0.16 0.22 0.24 0.17 0.17 0.14 0.13 0.15 0.20 0.20 0.18 0.15 0.11 0.09 0.10 0.09 0.09 0.11 0.14 0.16 0.18 0.19 0.19 0.21 0.24 0.30 0.34 0.34 0.40 0.52 0.62 0.69 0.79 0.84 0.92 0.96
0.09 0.20 0.43 0.35 0.31 0.18 0.10 0.04 0.04 0.11 0.20 0.09 0.09 0.12 0.13 0.14 0.18 0.16 0.13 0.12 0.11 0.10 0.10 0.10 0.08 0.08 0.09 0.11 0.14 0.16 0.19 0.23 0.29 0.37 0.43 0.47 0.54 0.67 0.77 0.82 0.87 0.85 0.84 0.85
0.17 0.26 0.33 0.28 0.25 0.10 0.03 0.02 0.03 0.15 0.20 0.04 0.04 0.08 0.12 0.13 0.14 0.11 0.09 0.09 0.09 0.10 0.12 0.13 0.15 0.16 0.17 0.19 0.23 0.27 0.31 0.38 0.43 0.46 0.54 0.61 0.61 0.63 0.64 0.65 0.64 0.58 0.53 0.49
0.09 0.15 0.14 0.15 0.19 0.12 0.04 0.03 0.06 0.10 0.06 0.03 0.03 0.05 0.08 0.10 0.10 0.10 0.09 0.07 0.07 0.09 0.11 0.14 0.20 0.28 0.31 0.34 0.41 0.47 0.48 0.50 0.49 0.50 0.53 0.55 0.55 0.53 0.50 0.44 0.37 0.31 0.26 0.24
0.06 0.08 0.10 0.11 0.13 0.08 0.05 0.04 0.05 0.04 0.04 0.03 0.03 0.04 0.05 0.08 0.09 0.09 0.09 0.06 0.04 0.04 0.06 0.10 0.14 0.20 0.25 0.29 0.34 0.39 0.40 0.38 0.38 0.39 0.40 0.39 0.37 0.34 0.32 0.28 0.24 0.21 0.19 0.18
0.07 0.05 0.06 0.07 0.06 0.05 0.04 0.04 0.04 0.04 0.04 0.04 0.04 0.05 0.05 0.05 0.05 0.05 0.05 0.05 0.05 0.04 0.04 0.04 0.06 0.07 0.09 0.11 0.15 0.19 0.17 0.16 0.17 0.19 0.22 0.22 0.20 0.19 0.19 0.18 0.18 0.17 0.16 0.15
0.08 0.07 0.06 0.05 0.04 0.04 0.04 0.03 0.03 0.02 0.02 0.03 0.04 0.05 0.06 0.06 0.06 0.06 0.05 0.05 0.05 0.05 0.05 0.05 0.06 0.07 0.07 0.07 0.08 0.09 0.09 0.09 0.09 0.10 0.12 0.13 0.13 0.13 0.14 0.15 0.15 0.17 0.16 0.17
0.02 0.04 0.06 0.06 0.03 0.03 0.03 0.02 0.01 0.01 0.01 0.01 0.02 0.04 0.04 0.04 0.05 0.06 0.06 0.05 0.04 0.04 0.05 0.06 0.07 0.07 0.08 0.08 0.07 0.07 0.08 0.08 0.09 0.10 0.10 0.11 0.12 0.12 0.13 0.14 0.15 0.17 0.18 0.20

GEFSCGP_prec_meanprecacc_132.txt.gz
Total_Precipitation_Accumulation
1.45 1.35 0.98 0.57 0.42 0.36 0.39 0.38 0.33 0.33 0.31 0.33 0.33 0.34 0.33 0.37 0.43 0.42 0.40 0.41 0.49 0.64 0.77 0.85 1.02 1.18 1.28 1.46 1.59 1.63 1.54 1.45 1.44 1.52 1.54 1.52 1.43 1.34 1.21 1.07 0.96 0.87 0.74 0.68
1.40 1.02 0.56 0.39 0.43 0.44 0.43 0.44 0.34 0.34 0.34 0.40 0.41 0.38 0.35 0.40 0.44 0.41 0.40 0.40 0.43 0.57 0.70 0.82 0.96 1.08 1.22 1.38 1.48 1.64 1.63 1.53 1.46 1.41 1.48 1.62 1.72 1.67 1.59 1.47 1.22 1.05 0.94 0.87
1.09 0.68 0.51 0.54 0.58 0.56 0.43 0.38 0.34 0.39 0.42 0.46 0.46 0.46 0.42 0.46 0.40 0.43 0.47 0.47 0.47 0.50 0.65 0.79 0.95 1.06 1.15 1.32 1.43 1.51 1.58 1.57 1.58 1.65 1.81 1.89 1.93 1.78 1.60 1.42 1.25 1.15 1.09 1.04
0.98 0.60 0.63 0.70 0.65 0.57 0.48 0.26 0.30 0.42 0.56 0.61 0.55 0.67 0.55 0.49 0.40 0.42 0.47 0.48 0.51 0.53 0.66 0.80 0.87 1.01 1.12 1.18 1.30 1.40 1.48 1.56 1.59 1.75 1.85 1.83 1.70 1.56 1.42 1.35 1.32 1.27 1.19 1.15
1.01 0.69 0.74 0.79 0.58 0.54 0.48 0.29 0.34 0.48 0.61 0.64 0.46 0.53 0.53 0.39 0.38 0.39 0.41 0.42 0.46 0.54 0.61 0.67 0.72 0.83 0.94 1.02 1.12 1.26 1.33 1.41 1.48 1.60 1.65 1.79 1.73 1.55 1.50 1.45 1.34 1.28 1.19 1.13
0.77 0.68 0.82 0.76 0.52 0.56 0.54 0.53 0.58 0.65 0.87 0.86 0.39 0.42 0.51 0.40 0.38 0.40 0.40 0.42 0.45 0.50 0.55 0.58 0.59 0.67 0.78 0.85 0.91 1.06 1.21 1.23 1.31 1.43 1.49 1.49 1.53 1.44 1.41 1.43 1.34 1.26 1.20 1.09
1.11 0.92 0.80 0.76 0.78 0.80 0.81 1.04 1.30 1.25 1.15 0.71 0.27 0.32 0.42 0.33 0.34 0.39 0.38 0.38 0.38 0.40 0.45 0.47 0.44 0.52 0.65 0.72 0.78 0.89 1.05 1.09 1.13 1.24 1.37 1.40 1.44 1.41 1.36 1.31 1.31 1.26 1.17 0.99
1.15 1.08 0.77 0.80 0.88 0.94 0.83 0.92 1.04 0.88 0.56 0.32 0.22 0.29 0.30 0.23 0.25 0.28 0.29 0.29 0.33 0.37 0.39 0.41 0.40 0.45 0.54 0.61 0.68 0.74 0.86 0.93 1.00 1.04 1.13 1.26 1.31 1.33 1.29 1.24 1.21 1.21 1.14 1.07
0.75 0.82 0.55 0.57 0.59 0.65 0.82 0.80 0.62 0.76 0.51 0.33 0.25 0.25 0.22 0.16 0.18 0.21 0.24 0.25 0.30 0.35 0.36 0.40 0.40 0.44 0.47 0.52 0.58 0.62 0.66 0.78 0.83 0.86 0.94 1.05 1.10 1.12 1.11 1.09 1.09 1.09 1.06 0.99
0.62 0.80 0.57 0.57 0.74 0.71 0.71 0.67 0.78 1.12 0.87 0.49 0.25 0.20 0.25 0.18 0.18 0.19 0.22 0.26 0.30 0.32 0.32 0.36 0.42 0.45 0.45 0.46 0.48 0.51 0.57 0.67 0.75 0.76 0.78 0.83 0.88 0.94 0.94 0.92 0.93 0.94 0.94 0.92
0.57 0.84 0.73 0.75 0.90 0.68 0.65 0.75 0.84 0.84 0.68 0.61 0.35 0.24 0.23 0.21 0.19 0.18 0.21 0.25 0.29 0.30 0.31 0.34 0.38 0.43 0.46 0.49 0.51 0.51 0.53 0.57 0.67 0.67 0.63 0.63 0.68 0.76 0.80 0.81 0.78 0.79 0.82 0.86
0.52 0.82 0.73 0.58 0.49 0.40 0.51 0.53 0.63 0.83 0.60 0.47 0.39 0.27 0.17 0.17 0.20 0.22 0.23 0.26 0.26 0.24 0.27 0.31 0.34 0.40 0.42 0.47 0.52 0.55 0.54 0.56 0.61 0.60 0.58 0.56 0.54 0.59 0.65 0.63 0.63 0.65 0.65 0.69
0.55 0.86 0.87 0.67 0.62 0.58 0.58 0.44 0.46 0.70 0.89 0.65 0.52 0.29 0.14 0.12 0.16 0.21 0.24 0.26 0.23 0.22 0.23 0.24 0.28 0.35 0.40 0.43 0.47 0.49 0.50 0.52 0.55 0.52 0.52 0.55 0.52 0.53 0.58 0.55 0.52 0.53 0.54 0.54
0.76 0.87 0.78 0.70 0.58 0.58 0.55 0.41 0.47 0.94 1.15 0.59 0.33 0.25 0.18 0.16 0.18 0.22 0.26 0.28 0.24 0.23 0.25 0.25 0.27 0.32 0.36 0.39 0.43 0.43 0.45 0.49 0.51 0.49 0.47 0.50 0.51 0.50 0.55 0.54 0.46 0.46 0.47 0.46
0.74 0.90 0.64 0.44 0.36 0.46 0.47 0.43 0.52 0.79 0.71 0.60 0.31 0.24 0.26 0.26 0.26 0.25 0.25 0.25 0.22 0.22 0.24 0.26 0.28 0.31 0.31 0.32 0.34 0.35 0.35 0.38 0.42 0.44 0.45 0.49 0.50 0.49 0.54 0.54 0.48 0.47 0.48 0.45
0.48 0.69 0.62 0.47 0.33 0.40 0.43 0.39 0.45 0.51 0.47 0.44 0.36 0.33 0.23 0.23 0.22 0.24 0.24 0.23 0.24 0.21 0.22 0.24 0.26 0.28 0.26 0.29 0.31 0.32 0.33 0.35 0.39 0.42 0.43 0.45 0.45 0.45 0.48 0.50 0.48 0.49 0.51 0.50
0.30 0.49 0.66 0.54 0.37 0.46 0.56 0.45 0.44 0.42 0.32 0.33 0.38 0.28 0.19 0.21 0.22 0.21 0.18 0.17 0.18 0.17 0.16 0.19 0.21 0.24 0.25 0.24 0.26 0.31 0.34 0.37 0.41 0.44 0.44 0.45 0.45 0.43 0.42 0.43 0.47 0.55 0.60 0.61
0.15 0.34 0.58 0.48 0.42 0.56 0.46 0.33 0.32 0.31 0.27 0.25 0.25 0.17 0.17 0.20 0.21 0.19 0.15 0.12 0.10 0.11 0.11 0.12 0.15 0.19 0.23 0.22 0.23 0.25 0.25 0.28 0.33 0.38 0.38 0.39 0.45 0.48 0.47 0.51 0.59 0.69 0.76 0.81
0.08 0.27 0.49 0.41 0.33 0.25 0.17 0.14 0.16 0.22 0.24 0.18 0.17 0.14 0.13 0.15 0.20 0.20 0.18 0.16 0.11 0.09 0.10 0.09 0.09 0.12 0.16 0.18 0.21 0.21 0.22 0.24 0.27 0.33 0.35 0.36 0.42 0.54 0.64 0.72 0.81 0.87 0.95 0.99
0.09 0.20 0.44 0.35 0.31 0.18 0.10 0.04 0.04 0.11 0.21 0.09 0.09 0.12 0.13 0.15 0.18 0.17 0.14 0.12 0.11 0.10 0.10 0.10 0.08 0.08 0.10 0.13 0.17 0.19 0.21 0.25 0.32 0.39 0.45 0.49 0.55 0.69 0.80 0.84 0.90 0.89 0.88 0.90
0.17 0.26 0.33 0.28 0.26 0.10 0.03 0.02 0.03 0.15 0.20 0.04 0.04 0.08 0.12 0.13 0.14 0.11 0.09 0.09 0.09 0.10 0.12 0.13 0.15 0.16 0.18 0.19 0.24 0.29 0.33 0.41 0.46 0.48 0.56 0.63 0.64 0.65 0.67 0.68 0.66 0.62 0.57 0.54
0.09 0.15 0.15 0.15 0.19 0.12 0.04 0.03 0.06 0.10 0.06 0.03 0.03 0.05 0.08 0.10 0.10 0.10 0.09 0.07 0.07 0.09 0.11 0.14 0.20 0.28 0.31 0.34 0.41 0.47 0.50 0.53 0.52 0.52 0.55 0.57 0.58 0.55 0.51 0.46 0.40 0.33 0.29 0.27
0.06 0.08 0.10 0.11 0.13 0.08 0.05 0.04 0.05 0.04 0.04 0.03 0.03 0.04 0.05 0.08 0.09 0.09 0.09 0.07 0.05 0.05 0.06 0.10 0.15 0.20 0.26 0.29 0.34 0.39 0.40 0.39 0.39 0.40 0.41 0.41 0.38 0.35 0.33 0.29 0.26 0.22 0.20 0.19
0.07 0.05 0.06 0.07 0.06 0.05 0.04 0.04 0.04 0.04 0.04 0.04 0.04 0.05 0.05 0.05 0.05 0.05 0.05 0.05 0.05 0.04 0.04 0.04 0.06 0.07 0.09 0.11 0.15 0.19 0.17 0.16 0.17 0.20 0.22 0.23 0.21 0.20 0.20 0.19 0.19 0.18 0.17 0.16
0.08 0.07 0.06 0.05 0.04 0.04 0.04 0.03 0.03 0.02 0.02 0.03 0.04 0.05 0.06 0.06 0.06 0.06 0.05 0.05 0.05 0.05 0.05 0.05 0.06 0.07 0.07 0.07 0.08 0.09 0.09 0.09 0.09 0.10 0.12 0.13 0.13 0.13 0.14 0.15 0.16 0.17 0.17 0.17
0.02 0.04 0.06 0.06 0.03 0.03 0.03 0.02 0.01 0.01 0.01 0.01 0.02 0.04 0.04 0.04 0.05 0.06 0.06 0.05 0.05 0.04 0.05 0.06 0.07 0.07 0.08 0.08 0.07 0.07 0.08 0.08 0.09 0.10 0.10 0.11 0.12 0.12 0.13 0.14 0.15 0.17 0.18 0.20

GEFSCGP_prec_meanprecacc_138.txt.gz
Total_Precipitation_Accumulation
1.50 1.39 1.02 0.59 0.43 0.37 0.40 0.39 0.34 0.35 0.33 0.35 0.34 0.34 0.33 0.37 0.43 0.42 0.40 0.41 0.50 0.64 0.77 0.85 1.02 1.18 1.29 1.47 1.60 1.64 1.55 1.46 1.45 1.54 1.56 1.55 1.46 1.37 1.24 1.11 1.03 1.00 0.89 0.81
1.43 1.06 0.59 0.41 0.44 0.45 0.44 0.45 0.35 0.36 0.36 0.42 0.42 0.38 0.35 0.40 0.45 0.42 0.41 0.40 0.44 0.58 0.71 0.83 0.97 1.09 1.23 1.39 1.49 1.65 1.65 1.54 1.47 1.43 1.50 1.65 1.75 1.70 1.63 1.51 1.30 1.18 1.10 1.02
1.12 0.70 0.52 0.54 0.59 0.58 0.44 0.39 0.35 0.40 0.43 0.47 0.47 0.47 0.42 0.46 0.40 0.44 0.47 0.48 0.48 0.51 0.66 0.80 0.97 1.07 1.15 1.33 1.43 1.51 1.58 1.58 1.58 1.66 1.84 1.94 1.98 1.82 1.65 1.49 1.36 1.27 1.23 1.20
0.99 0.61 0.64 0.71 0.66 0.58 0.50 0.28 0.31 0.42 0.56 0.62 0.55 0.68 0.56 0.49 0.40 0.42 0.47 0.48 0.51 0.54 0.67 0.80 0.88 1.02 1.13 1.20 1.30 1.40 1.48 1.57 1.61 1.77 1.88 1.87 1.75 1.62 1.49 1.44 1.42 1.40 1.31 1.29
1.02 0.70 0.75 0.81 0.60 0.55 0.49 0.29 0.34 0.48 0.61 0.64 0.46 0.54 0.55 0.40 0.39 0.40 0.41 0.42 0.47 0.55 0.62 0.68 0.74 0.85 0.97 1.04 1.14 1.28 1.35 1.43 1.49 1.62 1.70 1.84 1.78 1.62 1.58 1.55 1.44 1.38 1.31 1.28
0.77 0.69 0.82 0.76 0.53 0.56 0.54 0.53 0.58 0.65 0.87 0.87 0.39 0.43 0.52 0.42 0.40 0.41 0.41 0.43 0.46 0.51 0.56 0.59 0.60 0.69 0.80 0.87 0.93 1.09 1.23 1.26 1.35 1.47 1.54 1.53 1.57 1.49 1.49 1.51 1.41 1.34 1.29 1.22
1.13 0.93 0.80 0.77 0.78 0.80 0.81 1.04 1.31 1.27 1.17 0.72 0.27 0.32 0.43 0.34 0.35 0.40 0.39 0.39 0.39 0.40 0.46 0.48 0.45 0.54 0.67 0.75 0.80 0.91 1.06 1.11 1.18 1.30 1.41 1.44 1.48 1.48 1.44 1.37 1.37 1.33 1.25 1.10
1.17 1.10 0.78 0.81 0.89 0.94 0.84 0.92 1.06 0.91 0.58 0.33 0.22 0.30 0.31 0.23 0.25 0.29 0.30 0.30 0.33 0.37 0.39 0.41 0.41 0.47 0.57 0.64 0.71 0.76 0.88 0.96 1.03 1.08 1.19 1.31 1.36 1.39 1.37 1.31 1.26 1.28 1.23 1.16
0.76 0.84 0.55 0.57 0.59 0.66 0.83 0.81 0.64 0.78 0.52 0.35 0.26 0.25 0.23 0.16 0.18 0.21 0.24 0.25 0.30 0.35 0.36 0.40 0.41 0.45 0.49 0.54 0.61 0.64 0.69 0.80 0.86 0.89 0.99 1.10 1.14 1.15 1.14 1.13 1.12 1.14 1.13 1.06
0.63 0.80 0.57 0.57 0.74 0.71 0.72 0.67 0.78 1.13 0.88 0.51 0.26 0.20 0.25 0.18 0.18 0.19 0.22 0.26 0.30 0.32 0.33 0.37 0.42 0.45 0.46 0.48 0.50 0.52 0.59 0.70 0.77 0.79 0.82 0.87 0.93 0.98 0.97 0.95 0.96 0.98 1.00 0.97
0.57 0.84 0.73 0.75 0.90 0.68 0.65 0.76 0.84 0.85 0.68 0.62 0.36 0.25 0.24 0.22 0.19 0.19 0.21 0.26 0.29 0.30 0.31 0.35 0.39 0.44 0.47 0.51 0.53 0.52 0.54 0.59 0.70 0.70 0.66 0.66 0.72 0.81 0.85 0.84 0.82 0.83 0.86 0.90
0.52 0.82 0.73 0.58 0.49 0.40 0.51 0.53 0.64 0.84 0.61 0.48 0.41 0.28 0.18 0.17 0.20 0.22 0.23 0.26 0.26 0.25 0.27 0.31 0.35 0.41 0.43 0.48 0.54 0.57 0.56 0.57 0.64 0.64 0.62 0.59 0.57 0.64 0.69 0.67 0.66 0.69 0.69 0.72
0.55 0.86 0.87 0.68 0.63 0.58 0.59 0.44 0.46 0.70 0.90 0.66 0.52 0.30 0.14 0.12 0.16 0.21 0.24 0.26 0.23 0.22 0.23 0.24 0.28 0.35 0.40 0.45 0.48 0.50 0.52 0.54 0.58 0.57 0.57 0.60 0.55 0.57 0.62 0.60 0.56 0.57 0.58 0.57
0.76 0.88 0.78 0.70 0.59 0.58 0.55 0.41 0.47 0.95 1.16 0.60 0.33 0.25 0.18 0.16 0.18 0.22 0.26 0.28 0.24 0.23 0.25 0.25 0.27 0.32 0.36 0.40 0.44 0.45 0.47 0.50 0.53 0.51 0.51 0.53 0.54 0.53 0.58 0.57 0.49 0.50 0.50 0.49
0.74 0.91 0.64 0.44 0.36 0.46 0.47 0.43 0.52 0.79 0.72 0.61 0.31 0.25 0.26 0.26 0.26 0.25 0.25 0.25 0.22 0.22 0.24 0.26 0.28 0.31 0.31 0.32 0.34 0.35 0.36 0.40 0.44 0.46 0.47 0.52 0.53 0.51 0.56 0.57 0.51 0.50 0.50 0.47
0.48 0.70 0.62 0.47 0.33 0.40 0.43 0.40 0.45 0.51 0.47 0.44 0.36 0.33 0.23 0.23 0.22 0.24 0.24 0.23 0.24 0.21 0.22 0.24 0.27 0.28 0.27 0.29 0.32 0.32 0.33 0.36 0.40 0.43 0.45 0.47 0.47 0.47 0.50 0.53 0.51 0.51 0.53 0.52
0.30 0.50 0.67 0.55 0.37 0.46 0.56 0.45 0.44 0.42 0.32 0.33 0.38 0.28 0.19 0.21 0.22 0.21 0.18 0.17 0.18 0.17 0.17 0.19 0.21 0.25 0.25 0.24 0.27 0.31 0.35 0.38 0.41 0.44 0.45 0.46 0.46 0.45 0.44 0.44 0.49 0.56 0.61 0.63
0.16 0.34 0.58 0.48 0.42 0.56 0.46 0.33 0.32 0.31 0.27 0.25 0.25 0.17 0.17 0.20 0.21 0.19 0.15 0.12 0.10 0.11 0.11 0.12 0.15 0.19 0.24 0.23 0.24 0.26 0.26 0.29 0.34 0.39 0.39 0.40 0.45 0.48 0.48 0.52 0.60 0.70 0.77 0.82
0.08 0.27 0.50 0.41 0.33 0.25 0.17 0.14 0.16 0.22 0.24 0.18 0.17 0.14 0.13 0.15 0.20 0.20 0.18 0.16 0.11 0.09 0.10 0.09 0.09 0.13 0.17 0.19 0.21 0.22 0.22 0.25 0.28 0.34 0.37 0.37 0.43 0.55 0.65 0.72 0.82 0.87 0.95 1.00
0.09 0.20 0.44 0.36 0.31 0.18 0.10 0.04 0.04 0.11 0.21 0.09 0.09 0.12 0.13 0.15 0.18 0.17 0.14 0.12 0.11 0.10 0.10 0.10 0.08 0.08 0.10 0.13 0.17 0.19 0.22 0.26 0.33 0.40 0.46 0.50 0.56 0.70 0.80 0.85 0.90 0.89 0.89 0.90
0.17 0.27 0.34 0.29 0.27 0.10 0.03 0.02 0.03 0.15 0.20 0.04 0.04 0.08 0.12 0.13 0.14 0.11 0.09 0.09 0.09 0.10 0.12 0.14 0.15 0.16 0.18 0.19 0.24 0.30 0.34 0.41 0.47 0.49 0.57 0.64 0.65 0.66 0.67 0.68 0.67 0.62 0.57 0.54
0.09 0.15 0.15 0.16 0.20 0.12 0.04 0.03 0.06 0.10 0.06 0.03 0.03 0.05 0.08 0.10 0.10 0.10 0.09 0.07 0.07 0.09 0.11 0.14 0.21 0.28 0.31 0.34 0.41 0.48 0.50 0.53 0.52 0.53 0.56 0.58 0.58 0.56 0.52 0.47 0.40 0.34 0.29 0.28
0.06 0.09 0.10 0.11 0.13 0.08 0.05 0.04 0.05 0.04 0.04 0.03 0.03 0.04 0.05 0.08 0.09 0.09 0.09 0.07 0.05 0.05 0.06 0.10 0.15 0.20 0.26 0.29 0.34 0.39 0.40 0.39 0.39 0.40 0.42 0.41 0.39 0.36 0.33 0.30 0.26 0.22 0.20 0.19
0.07 0.05 0.06 0.07 0.07 0.05 0.04 0.04 0.04 0.04 0.04 0.04 0.04 0.05 0.05 0.05 0.05 0.05 0.05 0.05 0.05 0.04 0.04 0.05 0.06 0.07 0.09 0.11 0.15 0.19 0.17 0.17 0.17 0.20 0.23 0.23 0.22 0.20 0.20 0.20 0.20 0.19 0.18 0.17
0.08 0.07 0.07 0.06 0.04 0.04 0.04 0.03 0.03 0.02 0.02 0.03 0.04 0.05 0.06 0.06 0.06 0.06 0.05 0.05 0.05 0.05 0.05 0.05 0.06 0.07 0.07 0.07 0.08 0.09 0.09 0.09 0.09 0.10 0.12 0.13 0.13 0.14 0.15 0.15 0.16 0.18 0.17 0.19
0.02 0.04 0.07 0.07 0.04 0.03 0.03 0.02 0.01 0.01 0.01 0.01 0.02 0.04 0.04 0.04 0.05 0.06 0.06 0.05 0.05 0.05 0.05 0.06 0.07 0.07 0.08 0.08 0.07 0.07 0.08 0.08 0.10 0.10 0.11 0.11 0.12 0.12 0.13 0.14 0.15 0.17 0.18 0.21

GEFSCGP_prec_meanprecacc_144.txt.gz
Total_Precipitation_Accumulation
1.51 1.41 1.04 0.61 0.44 0.38 0.40 0.39 0.35 0.36 0.33 0.36 0.35 0.34 0.33 0.37 0.43 0.42 0.40 0.41 0.50 0.64 0.77 0.85 1.02 1.18 1.29 1.47 1.60 1.64 1.56 1.47 1.45 1.54 1.57 1.57 1.48 1.40 1.29 1.15 1.06 1.04 0.92 0.85
1.44 1.07 0.60 0.42 0.45 0.46 0.44 0.45 0.36 0.37 0.37 0.43 0.44 0.39 0.35 0.40 0.45 0.42 0.41 0.40 0.44 0.58 0.71 0.83 0.97 1.09 1.23 1.39 1.49 1.65 1.65 1.54 1.47 1.43 1.52 1.67 1.77 1.72 1.65 1.54 1.33 1.21 1.12 1.04
1.12 0.71 0.53 0.55 0.60 0.59 0.45 0.40 0.36 0.41 0.44 0.49 0.48 0.48 0.43 0.47 0.40 0.44 0.48 0.48 0.48 0.51 0.66 0.80 0.97 1.07 1.16 1.33 1.43 1.51 1.59 1.58 1.59 1.66 1.85 1.95 2.00 1.85 1.67 1.51 1.37 1.29 1.25 1.22
1.00 0.61 0.64 0.72 0.67 0.58 0.51 0.29 0.32 0.43 0.57 0.64 0.57 0.70 0.57 0.50 0.40 0.42 0.47 0.48 0.51 0.54 0.68 0.81 0.89 1.03 1.13 1.20 1.30 1.40 1.48 1.57 1.61 1.77 1.88 1.87 1.76 1.63 1.50 1.45 1.44 1.41 1.32 1.31
1.03 0.70 0.75 0.81 0.60 0.55 0.49 0.30 0.35 0.49 0.62 0.65 0.47 0.55 0.56 0.40 0.39 0.40 0.42 0.43 0.47 0.55 0.63 0.69 0.75 0.86 0.97 1.04 1.14 1.28 1.35 1.43 1.50 1.65 1.72 1.85 1.78 1.62 1.59 1.56 1.46 1.41 1.33 1.31
0.78 0.69 0.82 0.77 0.53 0.56 0.54 0.53 0.59 0.66 0.88 0.87 0.40 0.44 0.53 0.42 0.40 0.41 0.41 0.43 0.46 0.51 0.57 0.60 0.62 0.70 0.81 0.87 0.93 1.09 1.24 1.27 1.36 1.49 1.57 1.56 1.58 1.50 1.50 1.52 1.43 1.37 1.32 1.26
1.13 0.93 0.81 0.77 0.79 0.80 0.81 1.04 1.32 1.27 1.17 0.73 0.28 0.33 0.44 0.34 0.35 0.41 0.40 0.39 0.39 0.41 0.46 0.49 0.46 0.55 0.68 0.76 0.81 0.92 1.07 1.12 1.19 1.31 1.43 1.48 1.52 1.51 1.46 1.38 1.40 1.36 1.28 1.13
1.17 1.11 0.78 0.81 0.89 0.95 0.84 0.92 1.06 0.91 0.59 0.34 0.23 0.30 0.31 0.23 0.26 0.29 0.30 0.30 0.33 0.37 0.40 0.42 0.42 0.47 0.57 0.65 0.72 0.77 0.89 0.97 1.05 1.10 1.21 1.36 1.40 1.43 1.42 1.35 1.33 1.34 1.27 1.19
0.76 0.84 0.56 0.57 0.59 0.66 0.83 0.81 0.64 0.79 0.53 0.35 0.27 0.25 0.23 0.16 0.18 0.21 0.24 0.25 0.30 0.35 0.36 0.41 0.41 0.45 0.50 0.55 0.61 0.64 0.70 0.82 0.87 0.91 1.02 1.13 1.17 1.18 1.19 1.18 1.17 1.19 1.19 1.10
0.63 0.81 0.58 0.57 0.74 0.71 0.72 0.67 0.79 1.13 0.88 0.51 0.26 0.20 0.25 0.18 0.18 0.19 0.22 0.26 0.30 0.32 0.33 0.37 0.42 0.45 0.46 0.48 0.50 0.53 0.60 0.71 0.79 0.81 0.84 0.89 0.95 1.01 0.99 0.97 0.98 1.01 1.03 1.01
0.57 0.84 0.73 0.75 0.90 0.68 0.66 0.76 0.85 0.85 0.69 0.62 0.36 0.25 0.24 0.22 0.19 0.19 0.21 0.26 0.29 0.30 0.31 0.35 0.39 0.44 0.47 0.51 0.53 0.53 0.54 0.60 0.70 0.71 0.68 0.68 0.74 0.83 0.88 0.87 0.84 0.86 0.90 0.94
0.52 0.82 0.74 0.58 0.50 0.40 0.51 0.53 0.64 0.85 0.61 0.48 0.41 0.28 0.18 0.17 0.20 0.22 0.23 0.27 0.26 0.25 0.27 0.31 0.35 0.41 0.44 0.48 0.54 0.57 0.56 0.58 0.65 0.65 0.63 0.60 0.58 0.65 0.71 0.69 0.68 0.72 0.72 0.76
0.55 0.87 0.88 0.68 0.63 0.58 0.59 0.44 0.46 0.71 0.91 0.66 0.53 0.30 0.14 0.12 0.16 0.21 0.24 0.26 0.23 0.22 0.23 0.24 0.28 0.35 0.40 0.45 0.49 0.51 0.52 0.54 0.59 0.58 0.58 0.60 0.56 0.58 0.63 0.62 0.58 0.59 0.59 0.59
0.76 0.88 0.79 0.70 0.59 0.58 0.55 0.41 0.48 0.96 1.17 0.60 0.33 0.25 0.18 0.16 0.18 0.22 0.26 0.28 0.24 0.23 0.25 0.25 0.27 0.32 0.36 0.40 0.44 0.45 0.47 0.51 0.54 0.53 0.52 0.55 0.55 0.54 0.59 0.58 0.50 0.51 0.51 0.49
0.75 0.91 0.64 0.44 0.36 0.46 0.47 0.43 0.52 0.79 0.72 0.61 0.32 0.25 0.26 0.26 0.26 0.25 0.25 0.25 0.22 0.22 0.24 0.26 0.28 0.31 0.31 0.32 0.35 0.36 0.36 0.40 0.45 0.47 0.48 0.53 0.54 0.53 0.58 0.59 0.53 0.51 0.51 0.48
0.49 0.70 0.62 0.47 0.33 0.40 0.43 0.40 0.45 0.51 0.47 0.44 0.36 0.33 0.23 0.23 0.22 0.24 0.24 0.23 0.24 0.21 0.22 0.24 0.27 0.28 0.27 0.29 0.32 0.32 0.33 0.36 0.41 0.44 0.45 0.48 0.48 0.48 0.51 0.55 0.53 0.53 0.55 0.54
0.30 0.50 0.68 0.55 0.37 0.46 0.56 0.45 0.44 0.42 0.32 0.33 0.38 0.28 0.19 0.21 0.22 0.21 0.18 0.17 0.18 0.17 0.17 0.19 0.21 0.25 0.26 0.24 0.27 0.31 0.35 0.38 0.42 0.45 0.46 0.46 0.47 0.45 0.44 0.45 0.50 0.58 0.63 0.65
0.16 0.34 0.59 0.49 0.42 0.56 0.46 0.33 0.32 0.31 0.27 0.25 0.25 0.17 0.17 0.20 0.21 0.19 0.15 0.12 0.10 0.11 0.11 0.12 0.15 0.19 0.24 0.23 0.24 0.26 0.26 0.29 0.35 0.39 0.39 0.40 0.46 0.49 0.49 0.52 0.61 0.71 0.78 0.83
0.08 0.28 0.51 0.42 0.34 0.25 0.17 0.14 0.16 0.22 0.24 0.18 0.17 0.14 0.13 0.15 0.20 0.20 0.18 0.16 0.11 0.09 0.10 0.09 0.09 0.13 0.17 0.19 0.21 0.22 0.22 0.25 0.28 0.34 0.37 0.37 0.44 0.56 0.66 0.73 0.83 0.89 0.96 1.01
0.09 0.21 0.45 0.37 0.32 0.18 0.10 0.04 0.04 0.11 0.21 0.09 0.09 0.12 0.13 0.15 0.18 0.17 0.14 0.12 0.11 0.10 0.10 0.10 0.08 0.08 0.11 0.13 0.17 0.19 0.22 0.26 0.33 0.40 0.46 0.50 0.57 0.70 0.81 0.86 0.91 0.91 0.90 0.91
0.17 0.28 0.36 0.30 0.28 0.10 0.03 0.02 0.03 0.15 0.20 0.04 0.04 0.08 0.12 0.13 0.14 0.11 0.09 0.09 0.09 0.10 0.12 0.14 0.15 0.16 0.18 0.19 0.24 0.30 0.34 0.41 0.47 0.49 0.57 0.65 0.65 0.67 0.68 0.69 0.68 0.63 0.58 0.55
0.10 0.16 0.16 0.17 0.22 0.12 0.04 0.03 0.06 0.11 0.07 0.03 0.03 0.05 0.08 0.10 0.10 0.10 0.09 0.07 0.07 0.09 0.11 0.14 0.21 0.28 0.32 0.34 0.42 0.48 0.50 0.53 0.53 0.53 0.56 0.58 0.59 0.56 0.53 0.47 0.41 0.34 0.30 0.28
0.06 0.09 0.10 0.12 0.13 0.08 0.05 0.04 0.05 0.04 0.04 0.04 0.03 0.04 0.05 0.08 0.09 0.09 0.09 0.07 0.05 0.05 0.06 0.10 0.15 0.20 0.26 0.30 0.34 0.39 0.40 0.39 0.40 0.40 0.42 0.41 0.39 0.36 0.34 0.30 0.27 0.23 0.21 0.20
0.07 0.05 0.06 0.07 0.07 0.05 0.04 0.04 0.04 0.04 0.04 0.04 0.04 0.05 0.05 0.05 0.05 0.05 0.05 0.05 0.05 0.04 0.04 0.05 0.06 0.07 0.09 0.11 0.16 0.19 0.17 0.17 0.17 0.20 0.23 0.23 0.22 0.20 0.20 0.20 0.20 0.19 0.18 0.18
0.08 0.07 0.07 0.07 0.05 0.04 0.04 0.03 0.03 0.02 0.02 0.03 0.04 0.05 0.06 0.06 0.06 0.06 0.05 0.05 0.05 0.05 0.05 0.05 0.06 0.07 0.07 0.07 0.08 0.09 0.09 0.09 0.09 0.10 0.12 0.13 0.14 0.14 0.15 0.15 0.16 0.18 0.18 0.19
0.02 0.05 0.08 0.08 0.04 0.04 0.04 0.02 0.01 0.01 0.01 0.01 0.02 0.04 0.04 0.04 0.05 0.06 0.06 0.05 0.05 0.05 0.05 0.06 0.07 0.07 0.08 0.08 0.07 0.07 0.08 0.08 0.10 0.10 0.11 0.11 0.12 0.13 0.13 0.14 0.15 0.18 0.19 0.21

GEFSCGP_prec_meanprecacc_150.txt.gz
Total_Precipitation_Accumulation
1.52 1.41 1.05 0.62 0.45 0.38 0.40 0.40 0.35 0.37 0.33 0.37 0.36 0.35 0.34 0.37 0.43 0.43 0.41 0.42 0.50 0.64 0.78 0.85 1.02 1.19 1.29 1.47 1.61 1.64 1.56 1.47 1.46 1.56 1.59 1.59 1.50 1.42 1.31 1.17 1.10 1.07 0.96 0.88
1.44 1.08 0.61 0.42 0.45 0.46 0.44 0.46 0.36 0.37 0.37 0.44 0.44 0.39 0.36 0.41 0.45 0.44 0.42 0.41 0.44 0.58 0.71 0.83 0.97 1.09 1.23 1.39 1.49 1.65 1.65 1.54 1.47 1.43 1.52 1.67 1.78 1.74 1.68 1.56 1.35 1.23 1.15 1.07
1.12 0.71 0.53 0.56 0.60 0.59 0.45 0.40 0.37 0.41 0.44 0.49 0.48 0.49 0.44 0.47 0.41 0.46 0.50 0.50 0.49 0.52 0.67 0.81 0.97 1.07 1.16 1.33 1.43 1.51 1.59 1.58 1.59 1.67 1.85 1.95 2.00 1.85 1.68 1.52 1.38 1.30 1.26 1.23
1.00 0.62 0.65 0.72 0.67 0.59 0.51 0.29 0.32 0.43 0.57 0.64 0.57 0.71 0.57 0.50 0.41 0.44 0.50 0.51 0.53 0.56 0.68 0.81 0.89 1.03 1.13 1.20 1.31 1.40 1.49 1.57 1.61 1.78 1.89 1.88 1.76 1.64 1.51 1.46 1.45 1.42 1.33 1.32
1.03 0.70 0.75 0.81 0.60 0.55 0.50 0.30 0.35 0.50 0.62 0.65 0.48 0.56 0.56 0.40 0.39 0.41 0.43 0.44 0.48 0.56 0.63 0.69 0.75 0.86 0.97 1.04 1.14 1.28 1.35 1.43 1.51 1.66 1.73 1.86 1.79 1.63 1.60 1.58 1.47 1.42 1.35 1.32
0.78 0.69 0.83 0.77 0.53 0.56 0.54 0.54 0.59 0.66 0.88 0.88 0.41 0.44 0.53 0.42 0.40 0.41 0.42 0.44 0.47 0.51 0.57 0.60 0.62 0.70 0.81 0.87 0.93 1.09 1.24 1.27 1.36 1.50 1.58 1.57 1.59 1.50 1.51 1.54 1.45 1.38 1.33 1.27
1.14 0.94 0.81 0.77 0.79 0.80 0.81 1.05 1.33 1.28 1.18 0.73 0.28 0.33 0.44 0.34 0.35 0.41 0.40 0.39 0.39 0.41 0.46 0.49 0.46 0.55 0.68 0.76 0.81 0.92 1.08 1.13 1.19 1.31 1.44 1.49 1.53 1.52 1.47 1.40 1.42 1.38 1.30 1.15
1.18 1.12 0.79 0.81 0.89 0.95 0.84 0.92 1.07 0.91 0.59 0.34 0.23 0.30 0.31 0.23 0.26 0.29 0.30 0.30 0.33 0.37 0.40 0.42 0.42 0.47 0.57 0.65 0.72 0.77 0.89 0.97 1.05 1.11 1.22 1.37 1.42 1.44 1.44 1.37 1.36 1.37 1.29 1.21
0.76 0.85 0.56 0.57 0.59 0.66 0.83 0.81 0.64 0.79 0.53 0.35 0.27 0.25 0.23 0.16 0.18 0.21 0.24 0.25 0.30 0.35 0.36 0.41 0.41 0.45 0.50 0.55 0.61 0.64 0.70 0.82 0.87 0.91 1.02 1.13 1.19 1.19 1.21 1.20 1.20 1.24 1.23 1.15
0.63 0.81 0.58 0.57 0.74 0.71 0.72 0.67 0.79 1.13 0.88 0.51 0.26 0.20 0.25 0.18 0.18 0.19 0.22 0.26 0.30 0.32 0.33 0.37 0.42 0.45 0.46 0.48 0.50 0.53 0.60 0.71 0.79 0.81 0.84 0.89 0.95 1.02 1.00 0.99 0.99 1.03 1.05 1.02
0.57 0.84 0.73 0.75 0.90 0.69 0.66 0.76 0.85 0.86 0.69 0.62 0.36 0.25 0.24 0.22 0.19 0.19 0.21 0.26 0.29 0.30 0.31 0.35 0.39 0.44 0.47 0.51 0.53 0.53 0.54 0.60 0.70 0.71 0.68 0.68 0.74 0.84 0.88 0.88 0.86 0.87 0.91 0.95
0.52 0.82 0.74 0.58 0.50 0.40 0.51 0.54 0.64 0.86 0.62 0.48 0.41 0.28 0.18 0.17 0.20 0.22 0.23 0.27 0.26 0.25 0.27 0.31 0.35 0.41 0.44 0.48 0.54 0.57 0.56 0.58 0.65 0.65 0.63 0.60 0.58 0.65 0.71 0.69 0.69 0.72 0.72 0.76
0.56 0.88 0.88 0.68 0.63 0.58 0.59 0.44 0.46 0.72 0.92 0.67 0.53 0.30 0.14 0.12 0.16 0.21 0.24 0.26 0.23 0.22 0.23 0.24 0.28 0.35 0.40 0.45 0.49 0.51 0.52 0.54 0.59 0.58 0.58 0.61 0.57 0.59 0.64 0.62 0.58 0.59 0.60 0.59
0.76 0.89 0.79 0.70 0.59 0.58 0.56 0.41 0.48 0.97 1.18 0.60 0.33 0.25 0.18 0.16 0.18 0.22 0.26 0.28 0.24 0.23 0.25 0.25 0.27 0.32 0.36 0.40 0.44 0.45 0.47 0.51 0.54 0.53 0.53 0.55 0.56 0.55 0.60 0.58 0.51 0.51 0.51 0.50
0.75 0.91 0.64 0.44 0.36 0.46 0.47 0.43 0.52 0.80 0.73 0.61 0.32 0.25 0.26 0.26 0.26 0.25 0.25 0.25 0.22 0.22 0.24 0.26 0.28 0.31 0.31 0.32 0.35 0.36 0.36 0.40 0.45 0.47 0.48 0.53 0.54 0.53 0.58 0.59 0.53 0.51 0.52 0.49
0.49 0.71 0.63 0.47 0.33 0.40 0.43 0.40 0.45 0.51 0.47 0.45 0.36 0.33 0.23 0.23 0.22 0.24 0.24 0.23 0.24 0.21 0.22 0.24 0.27 0.28 0.27 0.29 0.32 0.32 0.33 0.36 0.41 0.44 0.46 0.48 0.48 0.48 0.52 0.55 0.54 0.54 0.56 0.54
0.30 0.50 0.69 0.55 0.37 0.46 0.56 0.45 0.44 0.42 0.32 0.33 0.38 0.28 0.19 0.21 0.22 0.21 0.18 0.17 0.18 0.17 0.17 0.19 0.21 0.25 0.26 0.24 0.27 0.31 0.35 0.38 0.42 0.46 0.46 0.46 0.47 0.45 0.45 0.46 0.50 0.58 0.64 0.66
0.16 0.35 0.61 0.50 0.43 0.56 0.46 0.33 0.32 0.31 0.27 0.25 0.25 0.17 0.17 0.20 0.21 0.19 0.15 0.12 0.10 0.11 0.11 0.12 0.15 0.19 0.24 0.23 0.24 0.26 0.26 0.29 0.35 0.39 0.40 0.41 0.46 0.49 0.49 0.53 0.61 0.71 0.78 0.84
0.08 0.28 0.52 0.43 0.34 0.25 0.17 0.14 0.17 0.22 0.24 0.18 0.17 0.14 0.13 0.15 0.20 0.20 0.18 0.16 0.11 0.09 0.10 0.09 0.09 0.13 0.17 0.19 0.21 0.22 0.23 0.25 0.28 0.34 0.37 0.37 0.44 0.56 0.66 0.73 0.83 0.89 0.97 1.01
0.09 0.21 0.47 0.38 0.33 0.19 0.10 0.04 0.04 0.11 0.21 0.09 0.09 0.12 0.13 0.15 0.18 0.17 0.14 0.12 0.11 0.10 0.10 0.10 0.08 0.08 0.11 0.13 0.17 0.19 0.22 0.26 0.33 0.40 0.46 0.50 0.57 0.71 0.82 0.87 0.92 0.91 0.91 0.92
0.18 0.29 0.38 0.32 0.30 0.11 0.03 0.02 0.03 0.15 0.20 0.04 0.04 0.08 0.12 0.13 0.14 0.11 0.09 0.09 0.09 0.10 0.12 0.14 0.15 0.16 0.18 0.19 0.24 0.30 0.34 0.41 0.47 0.49 0.57 0.65 0.65 0.67 0.68 0.69 0.69 0.64 0.59 0.56
0.10 0.17 0.17 0.18 0.24 0.13 0.04 0.03 0.06 0.11 0.07 0.03 0.03 0.05 0.08 0.10 0.10 0.10 0.09 0.07 0.07 0.09 0.11 0.14 0.21 0.28 0.32 0.34 0.42 0.48 0.50 0.53 0.53 0.53 0.56 0.58 0.59 0.56 0.53 0.48 0.41 0.35 0.31 0.29
0.06 0.09 0.11 0.12 0.13 0.08 0.05 0.04 0.05 0.04 0.05 0.04 0.03 0.04 0.05 0.08 0.09 0.09 0.09 0.07 0.05 0.05 0.06 0.10 0.15 0.20 0.26 0.30 0.34 0.39 0.40 0.39 0.40 0.40 0.42 0.41 0.39 0.36 0.34 0.30 0.27 0.23 0.21 0.20
0.07 0.05 0.06 0.08 0.07 0.05 0.04 0.04 0.04 0.04 0.04 0.04 0.04 0.05 0.05 0.05 0.05 0.05 0.05 0.05 0.05 0.04 0.04 0.05 0.06 0.07 0.09 0.11 0.16 0.19 0.17 0.17 0.17 0.20 0.23 0.23 0.22 0.20 0.20 0.20 0.20 0.19 0.19 0.18
0.08 0.07 0.08 0.07 0.05 0.04 0.04 0.03 0.03 0.02 0.02 0.03 0.04 0.05 0.06 0.06 0.06 0.06 0.05 0.05 0.05 0.05 0.05 0.05 0.06 0.07 0.07 0.07 0.08 0.09 0.09 0.09 0.09 0.10 0.12 0.13 0.14 0.14 0.15 0.16 0.17 0.19 0.19 0.20
0.03 0.05 0.08 0.09 0.04 0.04 0.04 0.02 0.01 0.01 0.01 0.01 0.02 0.04 0.04 0.04 0.05 0.06 0.06 0.05 0.05 0.05 0.05 0.06 0.07 0.07 0.08 0.08 0.07 0.07 0.08 0.08 0.10 0.11 0.11 0.11 0.12 0.13 0.14 0.15 0.16 0.18 0.19 0.22

GEFSCGP_prec_meanprecacc_156.txt.gz
Total_Precipitation_Accumulation
1.52 1.42 1.05 0.62 0.45 0.39 0.40 0.40 0.35 0.37 0.33 0.37 0.36 0.35 0.35 0.38 0.43 0.43 0.41 0.43 0.52 0.67 0.81 0.87 1.03 1.19 1.29 1.48 1.61 1.65 1.58 1.50 1.50 1.61 1.67 1.67 1.55 1.45 1.33 1.19 1.11 1.09 0.97 0.91
1.45 1.08 0.61 0.42 0.45 0.46 0.45 0.46 0.37 0.37 0.37 0.44 0.45 0.39 0.36 0.41 0.46 0.44 0.43 0.42 0.47 0.60 0.72 0.84 0.98 1.10 1.23 1.39 1.49 1.66 1.66 1.56 1.49 1.46 1.56 1.73 1.84 1.78 1.70 1.58 1.36 1.24 1.16 1.08
1.13 0.71 0.53 0.56 0.61 0.59 0.45 0.40 0.37 0.41 0.44 0.49 0.48 0.49 0.44 0.47 0.42 0.46 0.50 0.50 0.51 0.53 0.67 0.81 0.97 1.07 1.16 1.33 1.43 1.51 1.59 1.59 1.59 1.67 1.86 1.97 2.03 1.88 1.71 1.54 1.40 1.31 1.27 1.24
1.00 0.62 0.65 0.72 0.67 0.59 0.52 0.29 0.32 0.44 0.57 0.65 0.57 0.71 0.58 0.50 0.42 0.45 0.50 0.51 0.54 0.57 0.69 0.81 0.89 1.03 1.14 1.20 1.31 1.40 1.49 1.58 1.61 1.78 1.89 1.88 1.77 1.65 1.52 1.47 1.46 1.43 1.34 1.32
1.03 0.70 0.75 0.81 0.60 0.55 0.50 0.30 0.35 0.50 0.63 0.65 0.48 0.56 0.56 0.40 0.40 0.42 0.44 0.45 0.49 0.56 0.63 0.69 0.75 0.86 0.97 1.04 1.14 1.28 1.35 1.43 1.51 1.66 1.73 1.86 1.79 1.64 1.61 1.59 1.48 1.42 1.35 1.33
0.78 0.69 0.83 0.77 0.53 0.56 0.54 0.54 0.59 0.66 0.89 0.88 0.41 0.44 0.53 0.42 0.41 0.42 0.42 0.44 0.47 0.51 0.57 0.60 0.62 0.70 0.81 0.87 0.94 1.09 1.24 1.27 1.36 1.50 1.58 1.57 1.59 1.51 1.51 1.54 1.46 1.39 1.34 1.28
1.15 0.94 0.81 0.77 0.79 0.80 0.81 1.05 1.33 1.29 1.18 0.73 0.28 0.33 0.44 0.34 0.35 0.41 0.40 0.39 0.39 0.41 0.46 0.49 0.46 0.55 0.68 0.76 0.81 0.92 1.08 1.13 1.19 1.31 1.44 1.49 1.53 1.53 1.48 1.41 1.42 1.39 1.31 1.16
1.18 1.12 0.79 0.81 0.89 0.95 0.84 0.93 1.07 0.92 0.59 0.34 0.23 0.30 0.31 0.23 0.26 0.29 0.30 0.30 0.33 0.37 0.40 0.42 0.42 0.47 0.57 0.65 0.72 0.77 0.89 0.97 1.05 1.11 1.22 1.37 1.42 1.45 1.44 1.38 1.37 1.38 1.31 1.22
0.77 0.85 0.56 0.57 0.59 0.66 0.83 0.81 0.64 0.79 0.53 0.36 0.27 0.25 0.23 0.16 0.18 0.21 0.24 0.25 0.30 0.35 0.36 0.41 0.41 0.45 0.50 0.55 0.61 0.64 0.70 0.82 0.88 0.91 1.02 1.13 1.19 1.19 1.21 1.20 1.21 1.24 1.24 1.16
0.63 0.81 0.58 0.57 0.74 0.71 0.72 0.67 0.79 1.14 0.89 0.51 0.26 0.20 0.25 0.18 0.18 0.19 0.22 0.26 0.30 0.32 0.33 0.37 0.42 0.45 0.46 0.48 0.50 0.53 0.60 0.71 0.79 0.81 0.84 0.89 0.95 1.02 1.01 0.99 1.00 1.04 1.06 1.03
0.57 0.84 0.74 0.75 0.91 0.69 0.66 0.76 0.85 0.86 0.69 0.62 0.37 0.25 0.24 0.22 0.19 0.19 0.21 0.26 0.29 0.30 0.31 0.35 0.39 0.44 0.47 0.51 0.53 0.53 0.54 0.60 0.70 0.71 0.68 0.68 0.74 0.84 0.88 0.88 0.86 0.87 0.91 0.95
0.53 0.82 0.74 0.58 0.50 0.40 0.51 0.54 0.64 0.86 0.62 0.48 0.41 0.28 0.18 0.17 0.20 0.22 0.23 0.27 0.26 0.25 0.27 0.31 0.35 0.41 0.44 0.48 0.54 0.57 0.56 0.58 0.65 0.65 0.63 0.60 0.58 0.66 0.71 0.69 0.69 0.72 0.73 0.77
0.56 0.88 0.89 0.68 0.63 0.58 0.59 0.44 0.46 0.72 0.92 0.68 0.53 0.30 0.14 0.12 0.16 0.21 0.24 0.26 0.23 0.22 0.23 0.24 0.28 0.35 0.40 0.45 0.49 0.51 0.52 0.54 0.59 0.58 0.58 0.61 0.57 0.59 0.64 0.62 0.58 0.60 0.60 0.60
0.77 0.89 0.79 0.70 0.59 0.58 0.56 0.41 0.48 0.98 1.19 0.61 0.33 0.25 0.18 0.16 0.18 0.22 0.26 0.28 0.24 0.23 0.25 0.25 0.27 0.32 0.36 0.40 0.44 0.45 0.47 0.51 0.54 0.53 0.53 0.55 0.56 0.55 0.60 0.58 0.51 0.52 0.52 0.51
0.75 0.92 0.65 0.44 0.36 0.46 0.47 0.43 0.52 0.80 0.73 0.62 0.32 0.25 0.26 0.26 0.26 0.25 0.25 0.25 0.22 0.22 0.24 0.26 0.28 0.31 0.31 0.32 0.35 0.36 0.37 0.40 0.45 0.47 0.48 0.53 0.54 0.53 0.58 0.60 0.53 0.52 0.52 0.49
0.50 0.72 0.63 0.47 0.33 0.40 0.43 0.40 0.45 0.51 0.47 0.45 0.36 0.33 0.23 0.23 0.22 0.24 0.24 0.23 0.24 0.21 0.22 0.24 0.27 0.28 0.27 0.29 0.32 0.32 0.33 0.36 0.41 0.44 0.46 0.48 0.48 0.48 0.52 0.55 0.54 0.54 0.56 0.55
0.31 0.52 0.70 0.56 0.37 0.47 0.56 0.45 0.44 0.42 0.33 0.34 0.38 0.28 0.19 0.22 0.23 0.21 0.18 0.17 0.18 0.17 0.17 0.19 0.21 0.25 0.26 0.24 0.27 0.31 0.35 0.38 0.42 0.46 0.46 0.47 0.47 0.46 0.45 0.46 0.50 0.58 0.64 0.66
0.16 0.36 0.63 0.51 0.44 0.57 0.47 0.33 0.32 0.31 0.27 0.25 0.25 0.17 0.17 0.20 0.21 0.19 0.15 0.12 0.10 0.11 0.11 0.12 0.15 0.19 0.24 0.23 0.24 0.26 0.26 0.29 0.35 0.40 0.40 0.41 0.46 0.49 0.49 0.53 0.61 0.71 0.79 0.84
0.09 0.29 0.55 0.46 0.36 0.26 0.17 0.14 0.17 0.23 0.24 0.18 0.17 0.14 0.13 0.15 0.20 0.20 0.18 0.16 0.11 0.09 0.10 0.09 0.09 0.13 0.17 0.19 0.21 0.22 0.23 0.25 0.28 0.34 0.37 0.37 0.44 0.56 0.66 0.73 0.83 0.89 0.97 1.02
0.09 0.22 0.49 0.41 0.36 0.19 0.10 0.04 0.04 0.12 0.21 0.09 0.09 0.12 0.13 0.15 0.18 0.17 0.14 0.12 0.11 0.10 0.10 0.10 0.08 0.08 0.11 0.13 0.17 0.19 0.22 0.26 0.33 0.40 0.46 0.50 0.57 0.71 0.82 0.87 0.92 0.91 0.91 0.92
0.19 0.30 0.39 0.33 0.31 0.11 0.04 0.02 0.03 0.16 0.20 0.04 0.04 0.08 0.12 0.13 0.14 0.11 0.09 0.09 0.09 0.10 0.12 0.14 0.15 0.16 0.18 0.19 0.24 0.30 0.34 0.41 0.47 0.49 0.57 0.65 0.65 0.67 0.68 0.69 0.69 0.64 0.59 0.56
0.10 0.17 0.18 0.19 0.25 0.14 0.04 0.03 0.06 0.11 0.07 0.03 0.03 0.05 0.08 0.10 0.10 0.10 0.09 0.07 0.07 0.09 0.11 0.14 0.21 0.28 0.32 0.34 0.42 0.48 0.50 0.53 0.53 0.53 0.56 0.58 0.59 0.57 0.53 0.48 0.41 0.35 0.31 0.29
0.07 0.09 0.11 0.13 0.14 0.09 0.05 0.05 0.05 0.04 0.05 0.04 0.04 0.04 0.05 0.08 0.09 0.09 0.09 0.07 0.05 0.05 0.06 0.10 0.15 0.20 0.26 0.30 0.34 0.40 0.40 0.39 0.40 0.40 0.42 0.41 0.39 0.36 0.34 0.30 0.27 0.24 0.21 0.20
0.08 0.05 0.07 0.08 0.07 0.05 0.04 0.04 0.04 0.04 0.04 0.04 0.04 0.05 0.05 0.05 0.05 0.05 0.05 0.05 0.05 0.04 0.04 0.05 0.06 0.07 0.09 0.11 0.16 0.19 0.17 0.17 0.18 0.20 0.23 0.23 0.22 0.20 0.21 0.20 0.20 0.19 0.19 0.18
0.09 0.08 0.09 0.08 0.05 0.04 0.04 0.04 0.03 0.03 0.03 0.03 0.04 0.05 0.06 0.06 0.06 0.06 0.05 0.05 0.05 0.05 0.05 0.05 0.06 0.07 0.07 0.07 0.08 0.09 0.09 0.09 0.09 0.10 0.12 0.14 0.14 0.14 0.15 0.16 0.17 0.19 0.19 0.20
0.03 0.05 0.09 0.09 0.04 0.05 0.05 0.03 0.02 0.02 0.01 0.01 0.02 0.04 0.04 0.04 0.05 0.06 0.06 0.05 0.05 0.05 0.05 0.06 0.07 0.07 0.08 0.08 0.07 0.07 0.08 0.09 0.10 0.11 0.11 0.12 0.12 0.13 0.14 0.15 0.16 0.18 0.19 0.22

GEFSCGP_prec_meanprecacc_162.txt.gz
Total_Precipitation_Accumulation
1.53 1.42 1.05 0.62 0.45 0.39 0.41 0.40 0.35 0.37 0.33 0.37 0.36 0.35 0.35 0.38 0.44 0.43 0.41 0.43 0.53 0.68 0.83 0.91 1.07 1.23 1.33 1.52 1.66 1.70 1.64 1.55 1.55 1.66 1.70 1.70 1.58 1.50 1.40 1.27 1.18 1.13 1.03 0.99
1.45 1.08 0.61 0.42 0.46 0.46 0.45 0.46 0.37 0.37 0.37 0.44 0.45 0.39 0.36 0.41 0.46 0.44 0.43 0.42 0.47 0.60 0.74 0.87 1.00 1.12 1.25 1.42 1.52 1.68 1.69 1.59 1.53 1.50 1.59 1.76 1.88 1.82 1.75 1.63 1.41 1.28 1.20 1.12
1.13 0.71 0.53 0.56 0.61 0.59 0.46 0.40 0.37 0.41 0.44 0.49 0.48 0.49 0.44 0.47 0.42 0.46 0.50 0.50 0.51 0.54 0.68 0.82 0.98 1.08 1.17 1.34 1.45 1.52 1.60 1.60 1.61 1.69 1.88 1.99 2.06 1.92 1.75 1.58 1.42 1.33 1.30 1.27
1.00 0.62 0.65 0.72 0.67 0.59 0.52 0.29 0.32 0.44 0.57 0.65 0.57 0.71 0.58 0.50 0.42 0.45 0.50 0.51 0.54 0.57 0.69 0.82 0.89 1.03 1.14 1.20 1.31 1.41 1.49 1.58 1.62 1.78 1.89 1.89 1.78 1.66 1.54 1.50 1.48 1.44 1.35 1.34
1.03 0.70 0.75 0.81 0.61 0.55 0.50 0.30 0.35 0.50 0.63 0.65 0.48 0.56 0.56 0.40 0.40 0.42 0.44 0.45 0.49 0.56 0.63 0.69 0.75 0.86 0.97 1.04 1.15 1.28 1.35 1.43 1.51 1.66 1.73 1.86 1.80 1.64 1.61 1.59 1.49 1.43 1.36 1.34
0.78 0.69 0.83 0.77 0.53 0.56 0.54 0.54 0.59 0.66 0.89 0.88 0.41 0.44 0.53 0.42 0.41 0.42 0.42 0.44 0.47 0.51 0.57 0.60 0.62 0.70 0.81 0.87 0.94 1.09 1.24 1.28 1.36 1.50 1.58 1.57 1.59 1.51 1.51 1.54 1.46 1.39 1.35 1.28
1.15 0.94 0.81 0.77 0.79 0.80 0.81 1.05 1.33 1.29 1.18 0.73 0.28 0.33 0.44 0.34 0.35 0.41 0.40 0.39 0.39 0.41 0.46 0.49 0.46 0.55 0.68 0.76 0.81 0.92 1.08 1.13 1.19 1.31 1.44 1.49 1.53 1.53 1.48 1.41 1.42 1.39 1.32 1.17
1.19 1.12 0.79 0.81 0.89 0.95 0.84 0.93 1.07 0.92 0.59 0.34 0.23 0.30 0.31 0.23 0.26 0.29 0.30 0.30 0.33 0.37 0.40 0.42 0.42 0.47 0.57 0.65 0.72 0.77 0.89 0.97 1.05 1.11 1.22 1.37 1.42 1.45 1.45 1.38 1.37 1.38 1.31 1.23
0.77 0.85 0.56 0.57 0.59 0.66 0.83 0.81 0.64 0.79 0.53 0.36 0.27 0.26 0.23 0.16 0.18 0.21 0.24 0.25 0.30 0.35 0.36 0.41 0.41 0.45 0.50 0.55 0.61 0.65 0.70 0.82 0.88 0.91 1.02 1.13 1.19 1.20 1.21 1.20 1.21 1.25 1.25 1.17
0.63 0.81 0.58 0.57 0.74 0.71 0.72 0.67 0.79 1.14 0.89 0.51 0.27 0.20 0.25 0.18 0.18 0.19 0.22 0.26 0.30 0.32 0.33 0.37 0.42 0.45 0.46 0.48 0.50 0.53 0.60 0.71 0.79 0.81 0.84 0.89 0.95 1.02 1.01 0.99 1.00 1.04 1.06 1.04
0.57 0.84 0.74 0.75 0.91 0.69 0.66 0.76 0.85 0.86 0.69 0.63 0.37 0.26 0.24 0.22 0.19 0.19 0.21 0.26 0.29 0.30 0.31 0.35 0.39 0.44 0.47 0.51 0.53 0.53 0.54 0.60 0.70 0.71 0.68 0.68 0.74 0.84 0.88 0.88 0.86 0.87 0.91 0.96
0.53 0.82 0.74 0.58 0.50 0.40 0.51 0.54 0.64 0.86 0.62 0.49 0.42 0.28 0.18 0.17 0.20 0.22 0.23 0.27 0.26 0.25 0.27 0.31 0.35 0.41 0.44 0.48 0.54 0.57 0.56 0.58 0.65 0.65 0.63 0.60 0.58 0.66 0.71 0.69 0.69 0.73 0.73 0.77
0.56 0.89 0.89 0.68 0.63 0.58 0.59 0.44 0.47 0.72 0.94 0.69 0.55 0.30 0.14 0.12 0.16 0.21 0.25 0.27 0.23 0.22 0.23 0.24 0.28 0.35 0.40 0.45 0.49 0.51 0.52 0.54 0.59 0.58 0.58 0.61 0.57 0.59 0.64 0.62 0.58 0.60 0.60 0.60
0.78 0.91 0.81 0.71 0.59 0.58 0.56 0.42 0.48 0.99 1.22 0.63 0.34 0.25 0.18 0.16 0.18 0.22 0.27 0.28 0.24 0.23 0.25 0.25 0.27 0.32 0.37 0.40 0.44 0.45 0.47 0.51 0.54 0.53 0.53 0.55 0.56 0.55 0.60 0.58 0.51 0.52 0.52 0.51
0.77 0.94 0.65 0.44 0.36 0.46 0.47 0.43 0.52 0.81 0.74 0.63 0.33 0.25 0.28 0.27 0.27 0.26 0.25 0.25 0.22 0.22 0.25 0.26 0.29 0.31 0.31 0.32 0.35 0.36 0.37 0.40 0.45 0.47 0.48 0.53 0.54 0.53 0.58 0.60 0.54 0.52 0.52 0.50
0.51 0.73 0.64 0.48 0.33 0.40 0.43 0.40 0.45 0.52 0.47 0.46 0.37 0.35 0.25 0.24 0.23 0.24 0.24 0.23 0.24 0.22 0.23 0.24 0.27 0.28 0.27 0.29 0.32 0.32 0.33 0.36 0.41 0.44 0.46 0.48 0.49 0.48 0.52 0.55 0.54 0.54 0.56 0.55
0.32 0.53 0.71 0.57 0.37 0.47 0.57 0.46 0.45 0.43 0.33 0.34 0.39 0.29 0.19 0.22 0.23 0.21 0.18 0.17 0.18 0.17 0.17 0.19 0.21 0.25 0.26 0.24 0.27 0.31 0.35 0.38 0.42 0.46 0.46 0.47 0.47 0.46 0.45 0.46 0.51 0.59 0.64 0.66
0.17 0.37 0.65 0.54 0.45 0.59 0.48 0.34 0.32 0.32 0.27 0.25 0.25 0.18 0.17 0.20 0.21 0.19 0.15 0.12 0.10 0.11 0.11 0.12 0.15 0.19 0.24 0.23 0.24 0.26 0.26 0.29 0.35 0.40 0.40 0.41 0.46 0.50 0.49 0.53 0.61 0.72 0.79 0.84
0.09 0.30 0.58 0.50 0.38 0.27 0.17 0.15 0.17 0.23 0.24 0.18 0.17 0.14 0.13 0.15 0.20 0.20 0.18 0.16 0.11 0.09 0.10 0.09 0.09 0.13 0.17 0.19 0.21 0.22 0.23 0.25 0.28 0.34 0.37 0.38 0.44 0.56 0.66 0.74 0.83 0.89 0.97 1.02
0.09 0.22 0.51 0.44 0.38 0.20 0.10 0.04 0.04 0.12 0.21 0.09 0.09 0.12 0.13 0.15 0.18 0.17 0.14 0.12 0.11 0.10 0.10 0.10 0.08 0.08 0.11 0.13 0.17 0.19 0.22 0.26 0.33 0.40 0.46 0.50 0.57 0.71 0.82 0.87 0.92 0.91 0.91 0.92
0.19 0.31 0.41 0.35 0.33 0.12 0.04 0.03 0.03 0.16 0.21 0.05 0.04 0.08 0.12 0.14 0.14 0.11 0.09 0.09 0.09 0.10 0.12 0.14 0.15 0.16 0.18 0.19 0.24 0.30 0.34 0.41 0.47 0.49 0.57 0.65 0.65 0.67 0.68 0.69 0.69 0.64 0.59 0.56
0.11 0.18 0.19 0.20 0.28 0.15 0.05 0.04 0.07 0.11 0.07 0.04 0.03 0.05 0.08 0.10 0.11 0.10 0.09 0.07 0.07 0.09 0.11 0.14 0.21 0.28 0.32 0.34 0.42 0.48 0.50 0.53 0.53 0.53 0.56 0.58 0.59 0.57 0.53 0.48 0.42 0.35 0.31 0.29
0.08 0.11 0.13 0.15 0.16 0.09 0.05 0.05 0.05 0.05 0.05 0.04 0.04 0.04 0.05 0.08 0.09 0.09 0.09 0.07 0.05 0.05 0.06 0.10 0.15 0.20 0.26 0.30 0.34 0.40 0.40 0.39 0.40 0.40 0.42 0.41 0.39 0.36 0.34 0.31 0.27 0.24 0.22 0.21
0.08 0.05 0.07 0.09 0.07 0.05 0.05 0.04 0.04 0.04 0.04 0.04 0.04 0.05 0.05 0.06 0.06 0.05 0.05 0.06 0.05 0.04 0.04 0.05 0.06 0.07 0.09 0.11 0.16 0.19 0.17 0.17 0.18 0.20 0.23 0.23 0.22 0.20 0.21 0.20 0.20 0.19 0.19 0.18
0.09 0.08 0.09 0.08 0.05 0.05 0.05 0.04 0.03 0.03 0.03 0.03 0.04 0.05 0.06 0.06 0.06 0.06 0.05 0.05 0.05 0.05 0.05 0.05 0.06 0.07 0.07 0.07 0.08 0.09 0.09 0.09 0.09 0.11 0.12 0.14 0.14 0.14 0.15 0.16 0.17 0.19 0.19 0.20
0.03 0.06 0.10 0.10 0.05 0.06 0.06 0.03 0.02 0.02 0.01 0.02 0.03 0.04 0.05 0.04 0.06 0.07 0.06 0.05 0.05 0.05 0.05 0.06 0.07 0.07 0.08 0.08 0.07 0.07 0.08 0.09 0.10 0.11 0.11 0.12 0.12 0.13 0.14 0.15 0.16 0.18 0.19 0.22

GEFSCGP_prec_meanprecacc_168.txt.gz
Total_Precipitation_Accumulation
1.56 1.45 1.06 0.62 0.46 0.39 0.41 0.41 0.36 0.37 0.34 0.38 0.37 0.36 0.35 0.38 0.44 0.43 0.42 0.43 0.53 0.69 0.84 0.92 1.09 1.24 1.35 1.55 1.69 1.74 1.73 1.68 1.67 1.77 1.81 1.76 1.62 1.53 1.43 1.30 1.21 1.17 1.08 1.05
1.47 1.09 0.61 0.42 0.46 0.46 0.45 0.47 0.38 0.38 0.37 0.44 0.45 0.39 0.37 0.41 0.46 0.44 0.43 0.42 0.47 0.61 0.75 0.88 1.02 1.13 1.27 1.43 1.54 1.71 1.74 1.68 1.63 1.61 1.72 1.86 1.94 1.86 1.77 1.65 1.43 1.30 1.22 1.16
1.14 0.72 0.53 0.56 0.61 0.60 0.46 0.41 0.38 0.42 0.45 0.49 0.49 0.49 0.44 0.47 0.42 0.47 0.50 0.50 0.51 0.54 0.68 0.82 0.99 1.09 1.18 1.35 1.46 1.54 1.63 1.65 1.69 1.79 2.00 2.12 2.14 1.97 1.79 1.60 1.44 1.36 1.32 1.29
1.01 0.62 0.65 0.72 0.67 0.59 0.52 0.29 0.32 0.44 0.58 0.65 0.57 0.71 0.58 0.50 0.42 0.45 0.50 0.52 0.54 0.57 0.69 0.82 0.89 1.03 1.14 1.21 1.33 1.42 1.51 1.61 1.66 1.84 1.97 2.00 1.89 1.73 1.60 1.55 1.51 1.48 1.39 1.37
1.03 0.70 0.75 0.82 0.61 0.55 0.50 0.30 0.35 0.50 0.63 0.65 0.48 0.56 0.56 0.40 0.40 0.42 0.44 0.45 0.49 0.56 0.63 0.69 0.75 0.86 0.97 1.05 1.15 1.29 1.37 1.46 1.54 1.68 1.76 1.92 1.88 1.71 1.66 1.64 1.53 1.47 1.40 1.37
0.78 0.69 0.83 0.77 0.53 0.56 0.54 0.54 0.59 0.66 0.89 0.88 0.41 0.44 0.53 0.42 0.41 0.42 0.42 0.44 0.47 0.51 0.57 0.60 0.62 0.70 0.81 0.87 0.94 1.10 1.25 1.28 1.38 1.52 1.60 1.60 1.63 1.55 1.55 1.58 1.50 1.43 1.38 1.32
1.15 0.94 0.81 0.77 0.79 0.80 0.81 1.05 1.33 1.29 1.18 0.73 0.28 0.33 0.44 0.34 0.36 0.41 0.40 0.39 0.39 0.41 0.46 0.49 0.46 0.55 0.68 0.76 0.81 0.92 1.08 1.13 1.19 1.32 1.45 1.51 1.56 1.55 1.51 1.43 1.45 1.42 1.34 1.19
1.19 1.12 0.79 0.81 0.89 0.95 0.84 0.93 1.07 0.92 0.59 0.34 0.23 0.30 0.31 0.23 0.26 0.29 0.30 0.30 0.33 0.37 0.40 0.42 0.42 0.47 0.57 0.65 0.72 0.77 0.89 0.97 1.05 1.11 1.22 1.37 1.43 1.46 1.47 1.40 1.39 1.40 1.32 1.24
0.77 0.85 0.56 0.57 0.59 0.66 0.83 0.81 0.64 0.79 0.53 0.36 0.27 0.26 0.23 0.16 0.18 0.21 0.24 0.25 0.30 0.35 0.36 0.41 0.41 0.45 0.50 0.55 0.61 0.65 0.70 0.82 0.88 0.92 1.02 1.13 1.19 1.20 1.21 1.21 1.22 1.25 1.25 1.17
0.63 0.81 0.58 0.57 0.74 0.71 0.72 0.67 0.79 1.14 0.89 0.51 0.27 0.21 0.25 0.18 0.18 0.19 0.22 0.26 0.30 0.32 0.33 0.37 0.42 0.45 0.46 0.48 0.50 0.53 0.60 0.71 0.79 0.81 0.84 0.90 0.96 1.02 1.01 0.99 1.00 1.04 1.06 1.04
0.57 0.84 0.74 0.75 0.91 0.69 0.66 0.76 0.85 0.87 0.70 0.64 0.38 0.26 0.24 0.22 0.19 0.19 0.21 0.26 0.29 0.30 0.31 0.35 0.39 0.44 0.47 0.51 0.53 0.53 0.54 0.60 0.71 0.72 0.68 0.68 0.75 0.84 0.89 0.88 0.86 0.87 0.91 0.96
0.53 0.83 0.74 0.58 0.50 0.40 0.51 0.54 0.64 0.88 0.63 0.50 0.43 0.29 0.18 0.18 0.21 0.23 0.24 0.27 0.27 0.25 0.27 0.31 0.35 0.41 0.44 0.48 0.54 0.57 0.56 0.58 0.65 0.65 0.63 0.61 0.59 0.66 0.72 0.70 0.69 0.73 0.73 0.77
0.57 0.91 0.91 0.69 0.63 0.58 0.59 0.44 0.47 0.73 0.95 0.70 0.56 0.31 0.15 0.12 0.17 0.22 0.25 0.27 0.24 0.22 0.23 0.25 0.28 0.35 0.40 0.45 0.49 0.51 0.52 0.54 0.59 0.58 0.58 0.61 0.57 0.59 0.64 0.63 0.59 0.60 0.60 0.60
0.80 0.94 0.83 0.72 0.59 0.59 0.56 0.42 0.48 1.00 1.24 0.65 0.36 0.26 0.19 0.16 0.19 0.23 0.27 0.29 0.24 0.23 0.25 0.25 0.27 0.32 0.37 0.40 0.45 0.45 0.47 0.51 0.54 0.53 0.53 0.55 0.56 0.55 0.60 0.59 0.51 0.52 0.52 0.51
0.78 0.97 0.67 0.45 0.37 0.46 0.47 0.43 0.53 0.81 0.75 0.65 0.33 0.26 0.28 0.27 0.27 0.26 0.25 0.25 0.22 0.22 0.25 0.26 0.29 0.31 0.31 0.32 0.35 0.36 0.37 0.40 0.45 0.47 0.48 0.53 0.54 0.53 0.59 0.60 0.54 0.52 0.52 0.50
0.52 0.75 0.65 0.48 0.33 0.40 0.43 0.40 0.45 0.52 0.48 0.46 0.38 0.35 0.25 0.24 0.23 0.24 0.24 0.23 0.24 0.22 0.23 0.24 0.27 0.28 0.27 0.29 0.32 0.32 0.33 0.36 0.41 0.44 0.46 0.48 0.49 0.48 0.52 0.55 0.54 0.54 0.56 0.55
0.33 0.54 0.73 0.58 0.37 0.48 0.58 0.46 0.45 0.43 0.34 0.35 0.39 0.29 0.20 0.22 0.23 0.21 0.18 0.17 0.18 0.17 0.17 0.19 0.21 0.25 0.26 0.24 0.27 0.31 0.35 0.38 0.42 0.46 0.46 0.47 0.47 0.46 0.45 0.46 0.51 0.59 0.64 0.66
0.18 0.38 0.67 0.55 0.46 0.60 0.48 0.34 0.32 0.32 0.27 0.25 0.25 0.18 0.17 0.20 0.22 0.19 0.15 0.12 0.10 0.11 0.11 0.12 0.15 0.19 0.24 0.23 0.24 0.26 0.26 0.29 0.35 0.40 0.40 0.41 0.46 0.50 0.49 0.53 0.61 0.72 0.79 0.84
0.09 0.31 0.60 0.53 0.40 0.27 0.17 0.15 0.17 0.23 0.24 0.18 0.17 0.15 0.13 0.15 0.20 0.20 0.18 0.16 0.11 0.09 0.10 0.09 0.09 0.13 0.17 0.19 0.21 0.22 0.23 0.25 0.28 0.34 0.37 0.38 0.44 0.56 0.66 0.74 0.83 0.89 0.97 1.02
0.09 0.23 0.55 0.48 0.41 0.21 0.10 0.05 0.04 0.12 0.21 0.09 0.10 0.12 0.14 0.15 0.19 0.17 0.14 0.12 0.11 0.10 0.10 0.10 0.08 0.08 0.11 0.13 0.17 0.19 0.22 0.26 0.33 0.40 0.46 0.50 0.57 0.71 0.82 0.87 0.92 0.91 0.91 0.92
0.19 0.32 0.43 0.38 0.36 0.13 0.04 0.03 0.03 0.17 0.21 0.05 0.04 0.09 0.12 0.14 0.15 0.12 0.09 0.09 0.09 0.10 0.12 0.14 0.15 0.16 0.18 0.19 0.24 0.30 0.34 0.41 0.47 0.49 0.57 0.65 0.65 0.67 0.68 0.69 0.69 0.64 0.59 0.56
0.11 0.19 0.20 0.22 0.31 0.17 0.05 0.04 0.08 0.12 0.08 0.04 0.04 0.05 0.08 0.10 0.11 0.10 0.09 0.07 0.07 0.09 0.11 0.14 0.21 0.28 0.32 0.34 0.42 0.48 0.50 0.53 0.53 0.53 0.56 0.58 0.59 0.57 0.53 0.48 0.42 0.35 0.31 0.29
0.08 0.11 0.13 0.16 0.17 0.10 0.05 0.05 0.06 0.05 0.06 0.04 0.04 0.04 0.06 0.08 0.09 0.09 0.09 0.07 0.05 0.05 0.06 0.10 0.15 0.20 0.26 0.30 0.34 0.40 0.40 0.39 0.40 0.40 0.42 0.41 0.39 0.37 0.34 0.31 0.27 0.24 0.22 0.21
0.08 0.06 0.08 0.10 0.07 0.05 0.05 0.04 0.04 0.04 0.05 0.04 0.05 0.05 0.05 0.06 0.06 0.05 0.05 0.06 0.05 0.04 0.04 0.05 0.06 0.07 0.09 0.11 0.16 0.19 0.17 0.17 0.18 0.20 0.23 0.23 0.22 0.20 0.21 0.20 0.20 0.20 0.19 0.18
0.09 0.08 0.09 0.09 0.05 0.05 0.05 0.04 0.04 0.03 0.03 0.04 0.04 0.05 0.06 0.06 0.06 0.06 0.05 0.05 0.05 0.05 0.05 0.05 0.06 0.07 0.08 0.08 0.08 0.09 0.09 0.09 0.09 0.11 0.12 0.14 0.14 0.14 0.15 0.16 0.17 0.19 0.19 0.21
0.04 0.06 0.12 0.12 0.07 0.08 0.07 0.04 0.03 0.02 0.02 0.02 0.03 0.04 0.05 0.05 0.06 0.07 0.06 0.05 0.05 0.05 0.05 0.06 0.07 0.07 0.08 0.08 0.07 0.08 0.08 0.09 0.10 0.11 0.11 0.12 0.13 0.13 0.14 0.15 0.16 0.18 0.19 0.22

GEFSCGP_prec_meanprecacc_174.txt.gz
Total_Precipitation_Accumulation
1.57 1.46 1.07 0.63 0.46 0.41 0.43 0.42 0.37 0.39 0.35 0.40 0.38 0.37 0.36 0.39 0.45 0.45 0.44 0.46 0.57 0.71 0.86 0.96 1.16 1.31 1.40 1.58 1.74 1.81 1.81 1.82 1.84 1.93 1.95 1.85 1.72 1.64 1.57 1.44 1.29 1.22 1.12 1.11
1.47 1.10 0.62 0.43 0.46 0.47 0.47 0.49 0.39 0.39 0.40 0.47 0.47 0.41 0.37 0.42 0.47 0.46 0.44 0.44 0.49 0.63 0.76 0.89 1.05 1.16 1.29 1.45 1.56 1.76 1.81 1.77 1.78 1.78 1.89 1.97 2.04 1.97 1.89 1.79 1.54 1.37 1.27 1.19
1.14 0.72 0.54 0.57 0.62 0.61 0.48 0.43 0.39 0.44 0.47 0.52 0.51 0.50 0.44 0.48 0.43 0.48 0.51 0.51 0.52 0.55 0.69 0.83 1.00 1.10 1.19 1.37 1.47 1.56 1.67 1.71 1.77 1.89 2.15 2.29 2.27 2.08 1.89 1.70 1.57 1.45 1.37 1.34
1.02 0.62 0.65 0.73 0.68 0.59 0.53 0.29 0.33 0.45 0.59 0.66 0.58 0.72 0.58 0.51 0.43 0.46 0.52 0.52 0.55 0.58 0.70 0.82 0.90 1.03 1.15 1.22 1.33 1.44 1.53 1.63 1.70 1.88 2.04 2.12 2.04 1.87 1.71 1.63 1.60 1.58 1.47 1.42
1.05 0.71 0.75 0.82 0.61 0.56 0.50 0.31 0.35 0.50 0.63 0.65 0.48 0.56 0.56 0.41 0.40 0.43 0.45 0.46 0.49 0.56 0.64 0.69 0.76 0.86 0.97 1.05 1.15 1.30 1.37 1.47 1.55 1.71 1.79 1.98 1.98 1.84 1.80 1.75 1.62 1.54 1.48 1.45
0.79 0.70 0.83 0.77 0.53 0.57 0.54 0.54 0.59 0.66 0.89 0.88 0.41 0.44 0.53 0.42 0.41 0.42 0.43 0.45 0.47 0.51 0.57 0.60 0.62 0.70 0.81 0.87 0.94 1.10 1.25 1.29 1.38 1.53 1.61 1.63 1.68 1.64 1.68 1.70 1.61 1.51 1.43 1.38
1.16 0.95 0.81 0.77 0.79 0.81 0.82 1.05 1.34 1.29 1.19 0.73 0.28 0.33 0.44 0.34 0.36 0.41 0.40 0.39 0.39 0.41 0.46 0.49 0.46 0.55 0.68 0.76 0.81 0.92 1.08 1.13 1.19 1.32 1.46 1.52 1.58 1.59 1.57 1.52 1.54 1.51 1.40 1.23
1.19 1.13 0.79 0.81 0.89 0.95 0.84 0.93 1.07 0.92 0.60 0.34 0.23 0.30 0.31 0.23 0.26 0.29 0.30 0.30 0.33 0.37 0.40 0.42 0.42 0.47 0.57 0.65 0.72 0.77 0.89 0.97 1.05 1.11 1.22 1.38 1.44 1.48 1.49 1.44 1.45 1.47 1.40 1.29
0.77 0.86 0.56 0.57 0.59 0.66 0.83 0.81 0.64 0.79 0.54 0.36 0.27 0.26 0.23 0.16 0.18 0.21 0.24 0.25 0.30 0.35 0.36 0.41 0.41 0.45 0.50 0.55 0.61 0.65 0.70 0.82 0.88 0.92 1.02 1.14 1.19 1.21 1.23 1.23 1.25 1.29 1.30 1.22
0.63 0.82 0.58 0.57 0.75 0.71 0.72 0.67 0.79 1.15 0.90 0.52 0.27 0.21 0.25 0.18 0.18 0.19 0.22 0.26 0.30 0.33 0.33 0.37 0.42 0.45 0.46 0.48 0.50 0.53 0.60 0.71 0.79 0.81 0.84 0.90 0.96 1.02 1.02 1.00 1.02 1.06 1.09 1.07
0.57 0.85 0.74 0.75 0.91 0.69 0.66 0.76 0.85 0.87 0.71 0.65 0.38 0.26 0.24 0.22 0.20 0.19 0.21 0.26 0.29 0.30 0.31 0.35 0.39 0.44 0.47 0.51 0.53 0.53 0.55 0.60 0.71 0.72 0.68 0.69 0.75 0.85 0.89 0.89 0.87 0.88 0.93 0.98
0.53 0.83 0.75 0.58 0.50 0.40 0.51 0.54 0.65 0.89 0.64 0.50 0.44 0.29 0.18 0.18 0.21 0.23 0.24 0.27 0.27 0.25 0.27 0.31 0.35 0.41 0.44 0.48 0.54 0.57 0.56 0.58 0.65 0.65 0.64 0.61 0.59 0.66 0.73 0.71 0.71 0.74 0.74 0.78
0.58 0.93 0.93 0.69 0.63 0.58 0.59 0.45 0.47 0.74 0.97 0.71 0.57 0.32 0.15 0.12 0.17 0.22 0.25 0.27 0.24 0.22 0.23 0.25 0.28 0.35 0.40 0.45 0.49 0.51 0.52 0.54 0.59 0.59 0.58 0.61 0.57 0.60 0.65 0.63 0.60 0.62 0.62 0.62
0.81 0.95 0.84 0.73 0.60 0.59 0.57 0.42 0.49 1.01 1.26 0.66 0.36 0.26 0.19 0.16 0.19 0.23 0.27 0.29 0.24 0.23 0.25 0.25 0.27 0.32 0.37 0.40 0.45 0.45 0.47 0.51 0.54 0.53 0.53 0.55 0.56 0.56 0.61 0.60 0.52 0.53 0.54 0.53
0.79 0.97 0.67 0.45 0.37 0.47 0.48 0.44 0.53 0.82 0.76 0.66 0.34 0.26 0.28 0.28 0.27 0.26 0.25 0.25 0.22 0.22 0.25 0.26 0.29 0.31 0.31 0.32 0.35 0.36 0.37 0.40 0.45 0.47 0.48 0.53 0.54 0.53 0.59 0.60 0.55 0.53 0.53 0.51
0.53 0.76 0.65 0.48 0.33 0.40 0.43 0.40 0.45 0.52 0.48 0.47 0.38 0.35 0.25 0.24 0.23 0.24 0.24 0.23 0.24 0.22 0.23 0.24 0.27 0.28 0.27 0.29 0.32 0.32 0.33 0.36 0.41 0.44 0.46 0.48 0.49 0.48 0.52 0.55 0.54 0.55 0.57 0.56
0.35 0.56 0.75 0.59 0.37 0.48 0.58 0.46 0.45 0.43 0.34 0.35 0.39 0.29 0.20 0.22 0.23 0.21 0.18 0.17 0.18 0.17 0.17 0.19 0.21 0.25 0.26 0.24 0.27 0.31 0.35 0.38 0.42 0.46 0.46 0.47 0.47 0.46 0.45 0.46 0.51 0.59 0.64 0.66
0.19 0.40 0.70 0.58 0.47 0.60 0.48 0.34 0.32 0.32 0.27 0.26 0.26 0.18 0.17 0.20 0.22 0.19 0.15 0.12 0.10 0.11 0.11 0.12 0.15 0.19 0.24 0.23 0.24 0.26 0.26 0.29 0.35 0.40 0.40 0.41 0.46 0.50 0.49 0.53 0.61 0.72 0.79 0.84
0.09 0.33 0.64 0.56 0.42 0.28 0.17 0.15 0.17 0.23 0.25 0.18 0.17 0.15 0.13 0.15 0.20 0.20 0.18 0.16 0.11 0.09 0.10 0.09 0.09 0.13 0.17 0.19 0.21 0.22 0.23 0.25 0.28 0.34 0.37 0.38 0.44 0.56 0.66 0.74 0.83 0.89 0.97 1.02
0.10 0.24 0.58 0.52 0.43 0.22 0.11 0.05 0.04 0.12 0.22 0.10 0.10 0.13 0.14 0.15 0.19 0.17 0.14 0.12 0.11 0.10 0.10 0.10 0.08 0.08 0.11 0.13 0.17 0.19 0.22 0.26 0.33 0.40 0.46 0.50 0.57 0.71 0.82 0.87 0.92 0.91 0.91 0.92
0.20 0.34 0.47 0.41 0.39 0.14 0.05 0.03 0.04 0.18 0.23 0.06 0.05 0.09 0.13 0.15 0.15 0.12 0.09 0.09 0.09 0.10 0.12 0.14 0.15 0.16 0.18 0.19 0.24 0.30 0.34 0.41 0.47 0.49 0.57 0.65 0.65 0.67 0.68 0.69 0.69 0.64 0.59 0.56
0.12 0.20 0.21 0.24 0.35 0.18 0.06 0.05 0.09 0.14 0.08 0.05 0.04 0.05 0.09 0.11 0.11 0.11 0.09 0.07 0.07 0.09 0.11 0.14 0.21 0.28 0.32 0.34 0.42 0.48 0.50 0.53 0.53 0.53 0.56 0.58 0.59 0.57 0.53 0.48 0.42 0.35 0.31 0.29
0.08 0.12 0.15 0.18 0.18 0.11 0.06 0.06 0.06 0.06 0.06 0.05 0.04 0.05 0.06 0.09 0.10 0.09 0.10 0.07 0.05 0.05 0.06 0.10 0.15 0.20 0.26 0.30 0.34 0.40 0.40 0.39 0.40 0.40 0.42 0.41 0.39 0.37 0.34 0.31 0.27 0.24 0.22 0.21
0.09 0.07 0.10 0.12 0.09 0.06 0.06 0.05 0.05 0.05 0.05 0.05 0.05 0.06 0.06 0.07 0.07 0.06 0.06 0.06 0.05 0.05 0.04 0.05 0.06 0.07 0.09 0.11 0.16 0.19 0.17 0.17 0.18 0.20 0.23 0.23 0.22 0.20 0.21 0.20 0.20 0.20 0.19 0.19
0.11 0.10 0.13 0.12 0.07 0.06 0.07 0.06 0.05 0.05 0.04 0.04 0.05 0.06 0.07 0.07 0.07 0.06 0.06 0.05 0.05 0.06 0.06 0.06 0.07 0.07 0.08 0.08 0.09 0.09 0.09 0.09 0.10 0.11 0.12 0.14 0.14 0.14 0.15 0.16 0.17 0.19 0.19 0.21
0.05 0.08 0.14 0.14 0.08 0.10 0.09 0.05 0.04 0.03 0.03 0.02 0.03 0.05 0.05 0.05 0.07 0.08 0.07 0.06 0.06 0.06 0.06 0.06 0.07 0.08 0.08 0.08 0.07 0.08 0.08 0.09 0.10 0.11 0.11 0.12 0.13 0.13 0.14 0.15 0.16 0.18 0.19 0.22

GEFSCGP_prec_meanprecacc_180.txt.gz
Total_Precipitation_Accumulation
1.58 1.47 1.08 0.64 0.48 0.42 0.45 0.44 0.38 0.40 0.36 0.40 0.40 0.38 0.37 0.40 0.47 0.48 0.47 0.50 0.61 0.77 0.90 1.00 1.22 1.36 1.46 1.66 1.83 1.89 1.90 1.92 1.95 2.04 2.06 1.95 1.84 1.74 1.64 1.49 1.33 1.25 1.16 1.15
1.48 1.10 0.62 0.44 0.47 0.48 0.49 0.51 0.40 0.40 0.41 0.47 0.48 0.42 0.38 0.43 0.48 0.48 0.47 0.47 0.52 0.66 0.78 0.92 1.11 1.21 1.36 1.53 1.65 1.84 1.88 1.84 1.86 1.87 2.00 2.09 2.18 2.09 1.97 1.85 1.58 1.41 1.31 1.23
1.15 0.72 0.54 0.57 0.62 0.61 0.48 0.44 0.40 0.45 0.48 0.53 0.52 0.51 0.45 0.49 0.44 0.49 0.53 0.53 0.55 0.57 0.71 0.84 1.04 1.14 1.25 1.42 1.54 1.64 1.73 1.77 1.83 1.97 2.25 2.39 2.41 2.25 2.03 1.80 1.64 1.49 1.41 1.37
1.02 0.63 0.66 0.73 0.68 0.60 0.53 0.30 0.35 0.46 0.60 0.67 0.59 0.72 0.58 0.52 0.44 0.47 0.52 0.53 0.56 0.59 0.72 0.83 0.91 1.06 1.18 1.26 1.37 1.48 1.57 1.68 1.76 1.96 2.13 2.20 2.15 2.01 1.87 1.79 1.74 1.65 1.51 1.45
1.05 0.71 0.75 0.82 0.61 0.56 0.51 0.31 0.36 0.51 0.64 0.66 0.48 0.56 0.57 0.41 0.41 0.43 0.45 0.46 0.50 0.57 0.65 0.70 0.77 0.88 0.99 1.06 1.17 1.32 1.40 1.50 1.60 1.77 1.86 2.05 2.07 1.95 1.90 1.88 1.77 1.65 1.54 1.48
0.80 0.70 0.83 0.77 0.54 0.57 0.55 0.54 0.60 0.67 0.90 0.89 0.41 0.45 0.53 0.42 0.41 0.42 0.43 0.45 0.48 0.52 0.57 0.61 0.63 0.71 0.82 0.88 0.94 1.10 1.26 1.30 1.40 1.55 1.64 1.67 1.73 1.73 1.76 1.78 1.73 1.65 1.52 1.43
1.17 0.95 0.81 0.77 0.79 0.81 0.82 1.06 1.35 1.30 1.20 0.74 0.28 0.33 0.44 0.34 0.36 0.41 0.40 0.39 0.40 0.41 0.47 0.50 0.47 0.56 0.69 0.76 0.82 0.92 1.08 1.14 1.20 1.32 1.47 1.53 1.60 1.64 1.64 1.58 1.62 1.63 1.53 1.32
1.21 1.14 0.79 0.81 0.90 0.96 0.84 0.93 1.08 0.93 0.60 0.34 0.23 0.30 0.31 0.23 0.26 0.29 0.30 0.30 0.34 0.38 0.40 0.42 0.42 0.48 0.58 0.65 0.72 0.78 0.89 0.97 1.05 1.11 1.23 1.38 1.45 1.49 1.52 1.48 1.50 1.54 1.50 1.40
0.78 0.86 0.56 0.57 0.59 0.66 0.84 0.81 0.65 0.80 0.54 0.36 0.27 0.26 0.23 0.16 0.18 0.21 0.24 0.25 0.30 0.35 0.37 0.41 0.41 0.45 0.50 0.55 0.62 0.65 0.71 0.82 0.88 0.92 1.03 1.14 1.20 1.22 1.24 1.25 1.27 1.33 1.35 1.30
0.63 0.82 0.59 0.58 0.75 0.72 0.72 0.68 0.80 1.16 0.91 0.52 0.27 0.21 0.25 0.19 0.18 0.19 0.22 0.26 0.30 0.33 0.33 0.37 0.42 0.46 0.46 0.48 0.50 0.53 0.60 0.71 0.79 0.81 0.85 0.90 0.96 1.03 1.03 1.01 1.03 1.08 1.11 1.10
0.57 0.85 0.74 0.75 0.91 0.69 0.67 0.77 0.86 0.88 0.71 0.66 0.39 0.26 0.24 0.22 0.20 0.19 0.21 0.26 0.29 0.30 0.31 0.35 0.39 0.44 0.47 0.51 0.53 0.53 0.55 0.60 0.71 0.72 0.69 0.69 0.75 0.85 0.90 0.89 0.87 0.89 0.93 0.99
0.53 0.84 0.75 0.58 0.50 0.40 0.52 0.54 0.66 0.90 0.65 0.51 0.45 0.30 0.18 0.18 0.21 0.23 0.24 0.27 0.27 0.25 0.27 0.31 0.35 0.41 0.44 0.48 0.54 0.57 0.56 0.58 0.65 0.65 0.64 0.61 0.59 0.67 0.73 0.71 0.71 0.74 0.75 0.79
0.58 0.93 0.94 0.70 0.63 0.58 0.59 0.45 0.48 0.75 0.98 0.72 0.58 0.32 0.15 0.12 0.17 0.22 0.25 0.27 0.24 0.22 0.23 0.25 0.28 0.35 0.40 0.45 0.49 0.51 0.52 0.54 0.59 0.59 0.58 0.61 0.57 0.60 0.65 0.64 0.60 0.62 0.63 0.62
0.81 0.96 0.85 0.74 0.61 0.59 0.57 0.42 0.49 1.02 1.27 0.66 0.36 0.26 0.19 0.16 0.19 0.23 0.27 0.29 0.25 0.23 0.25 0.25 0.27 0.32 0.37 0.40 0.45 0.45 0.47 0.51 0.54 0.53 0.53 0.55 0.56 0.56 0.61 0.60 0.52 0.54 0.54 0.53
0.79 0.98 0.67 0.45 0.37 0.47 0.48 0.44 0.53 0.83 0.77 0.67 0.34 0.26 0.28 0.28 0.27 0.26 0.25 0.25 0.22 0.22 0.25 0.26 0.29 0.31 0.31 0.32 0.35 0.36 0.37 0.40 0.45 0.47 0.48 0.53 0.54 0.53 0.59 0.60 0.55 0.53 0.53 0.51
0.54 0.77 0.66 0.49 0.33 0.40 0.44 0.40 0.46 0.52 0.48 0.47 0.38 0.35 0.25 0.24 0.23 0.24 0.24 0.23 0.24 0.22 0.23 0.24 0.27 0.28 0.27 0.29 0.32 0.32 0.33 0.36 0.41 0.44 0.46 0.48 0.49 0.49 0.52 0.55 0.54 0.55 0.57 0.56
0.36 0.57 0.76 0.60 0.37 0.48 0.58 0.46 0.45 0.43 0.34 0.35 0.39 0.30 0.20 0.22 0.23 0.21 0.18 0.17 0.18 0.17 0.17 0.19 0.21 0.25 0.26 0.24 0.27 0.31 0.35 0.38 0.42 0.46 0.46 0.47 0.47 0.46 0.45 0.46 0.51 0.59 0.64 0.66
0.20 0.41 0.73 0.60 0.48 0.61 0.48 0.34 0.32 0.32 0.27 0.26 0.26 0.18 0.18 0.20 0.22 0.19 0.15 0.13 0.11 0.11 0.11 0.12 0.15 0.19 0.24 0.23 0.24 0.26 0.26 0.29 0.35 0.40 0.40 0.41 0.46 0.50 0.49 0.53 0.61 0.72 0.79 0.84
0.09 0.34 0.67 0.59 0.44 0.29 0.18 0.15 0.17 0.23 0.25 0.18 0.18 0.15 0.14 0.16 0.20 0.20 0.18 0.16 0.11 0.09 0.10 0.09 0.09 0.13 0.17 0.19 0.21 0.22 0.23 0.25 0.28 0.34 0.37 0.38 0.44 0.56 0.66 0.74 0.83 0.89 0.97 1.02
0.10 0.25 0.61 0.55 0.47 0.24 0.12 0.05 0.05 0.13 0.23 0.11 0.10 0.13 0.15 0.16 0.20 0.18 0.14 0.13 0.12 0.10 0.10 0.10 0.08 0.08 0.11 0.13 0.17 0.19 0.22 0.26 0.33 0.40 0.46 0.50 0.57 0.71 0.82 0.87 0.92 0.92 0.91 0.92
0.20 0.35 0.49 0.43 0.42 0.16 0.05 0.03 0.04 0.19 0.25 0.07 0.05 0.10 0.13 0.15 0.16 0.13 0.10 0.09 0.10 0.11 0.12 0.14 0.16 0.17 0.18 0.19 0.24 0.30 0.34 0.41 0.47 0.49 0.57 0.65 0.65 0.67 0.68 0.69 0.69 0.64 0.59 0.56
0.13 0.22 0.23 0.26 0.37 0.20 0.07 0.05 0.10 0.15 0.09 0.05 0.05 0.06 0.10 0.12 0.12 0.11 0.09 0.07 0.08 0.09 0.11 0.14 0.21 0.29 0.32 0.34 0.42 0.48 0.50 0.53 0.53 0.53 0.56 0.58 0.59 0.57 0.53 0.48 0.42 0.35 0.31 0.29
0.09 0.13 0.17 0.20 0.21 0.13 0.08 0.08 0.08 0.07 0.07 0.06 0.05 0.06 0.07 0.09 0.10 0.09 0.10 0.07 0.05 0.05 0.07 0.10 0.15 0.20 0.26 0.30 0.34 0.40 0.40 0.40 0.40 0.41 0.42 0.42 0.39 0.37 0.34 0.31 0.27 0.24 0.22 0.21
0.11 0.08 0.12 0.14 0.11 0.08 0.08 0.07 0.06 0.06 0.07 0.06 0.06 0.06 0.07 0.07 0.07 0.06 0.06 0.06 0.06 0.05 0.05 0.05 0.07 0.08 0.10 0.12 0.16 0.19 0.17 0.17 0.18 0.20 0.23 0.24 0.22 0.20 0.21 0.20 0.20 0.20 0.19 0.19
0.12 0.11 0.14 0.14 0.08 0.07 0.07 0.07 0.06 0.06 0.05 0.05 0.06 0.07 0.08 0.08 0.08 0.07 0.06 0.06 0.06 0.06 0.06 0.07 0.07 0.08 0.09 0.09 0.09 0.10 0.10 0.09 0.10 0.11 0.12 0.14 0.14 0.14 0.15 0.16 0.17 0.19 0.19 0.21
0.05 0.09 0.16 0.16 0.08 0.11 0.10 0.05 0.04 0.04 0.03 0.03 0.04 0.05 0.06 0.06 0.07 0.08 0.08 0.06 0.06 0.06 0.06 0.07 0.08 0.08 0.09 0.08 0.08 0.08 0.09 0.09 0.10 0.11 0.11 0.12 0.13 0.13 0.14 0.15 0.16 0.19 0.20 0.22

GEFSCGP_prec_meanprecacc_186.txt.gz
Total_Precipitation_Accumulation
1.58 1.47 1.09 0.65 0.48 0.42 0.45 0.44 0.38 0.41 0.37 0.41 0.40 0.39 0.38 0.41 0.48 0.50 0.50 0.54 0.65 0.81 0.97 1.07 1.31 1.47 1.56 1.77 1.94 2.00 1.99 2.12 2.20 2.23 2.16 2.03 1.94 1.84 1.72 1.57 1.40 1.32 1.22 1.22
1.49 1.11 0.62 0.44 0.48 0.49 0.49 0.51 0.40 0.40 0.41 0.48 0.48 0.43 0.39 0.44 0.50 0.50 0.49 0.48 0.55 0.70 0.83 1.00 1.19 1.31 1.45 1.62 1.73 1.94 1.99 2.01 2.09 2.05 2.12 2.16 2.27 2.18 2.05 1.92 1.65 1.46 1.36 1.29
1.15 0.73 0.54 0.57 0.62 0.62 0.49 0.44 0.41 0.45 0.49 0.54 0.53 0.52 0.46 0.50 0.46 0.51 0.54 0.55 0.57 0.60 0.73 0.89 1.11 1.24 1.35 1.52 1.62 1.72 1.83 1.90 2.04 2.12 2.36 2.46 2.48 2.34 2.11 1.87 1.70 1.54 1.45 1.41
1.02 0.63 0.66 0.73 0.68 0.60 0.54 0.30 0.35 0.47 0.61 0.69 0.60 0.73 0.59 0.53 0.45 0.49 0.54 0.55 0.58 0.62 0.74 0.85 0.95 1.13 1.28 1.36 1.46 1.55 1.66 1.78 1.96 2.12 2.23 2.28 2.20 2.09 1.96 1.87 1.81 1.70 1.54 1.49
1.05 0.71 0.76 0.82 0.61 0.56 0.51 0.31 0.37 0.52 0.65 0.67 0.49 0.57 0.57 0.42 0.41 0.44 0.47 0.48 0.52 0.59 0.66 0.72 0.78 0.91 1.06 1.16 1.26 1.39 1.47 1.57 1.75 1.96 1.96 2.11 2.12 2.01 1.99 1.96 1.85 1.72 1.58 1.51
0.80 0.70 0.83 0.77 0.54 0.57 0.55 0.54 0.60 0.67 0.91 0.90 0.41 0.45 0.53 0.42 0.41 0.42 0.43 0.46 0.49 0.53 0.59 0.62 0.65 0.74 0.86 0.94 1.01 1.16 1.31 1.36 1.51 1.76 1.78 1.75 1.79 1.78 1.82 1.85 1.80 1.73 1.57 1.46
1.17 0.95 0.81 0.77 0.80 0.81 0.82 1.06 1.36 1.31 1.21 0.75 0.28 0.33 0.44 0.34 0.36 0.41 0.40 0.39 0.40 0.42 0.48 0.51 0.49 0.57 0.71 0.80 0.86 0.96 1.11 1.18 1.27 1.45 1.60 1.65 1.69 1.69 1.68 1.65 1.70 1.73 1.61 1.37
1.21 1.14 0.80 0.81 0.90 0.96 0.85 0.94 1.09 0.94 0.60 0.35 0.23 0.31 0.31 0.23 0.26 0.29 0.30 0.30 0.34 0.38 0.41 0.43 0.43 0.49 0.59 0.68 0.75 0.81 0.92 1.00 1.10 1.17 1.31 1.47 1.55 1.57 1.57 1.53 1.56 1.63 1.61 1.48
0.79 0.87 0.56 0.57 0.59 0.67 0.84 0.82 0.65 0.81 0.55 0.36 0.27 0.26 0.23 0.16 0.19 0.22 0.25 0.25 0.30 0.35 0.37 0.41 0.42 0.46 0.51 0.56 0.63 0.67 0.72 0.84 0.90 0.94 1.05 1.19 1.27 1.29 1.29 1.29 1.31 1.38 1.43 1.38
0.64 0.83 0.59 0.58 0.75 0.72 0.72 0.68 0.80 1.17 0.92 0.53 0.27 0.21 0.26 0.19 0.19 0.19 0.22 0.26 0.30 0.33 0.33 0.37 0.43 0.46 0.47 0.49 0.51 0.54 0.61 0.72 0.81 0.82 0.85 0.92 1.00 1.07 1.07 1.05 1.07 1.12 1.15 1.15
0.57 0.86 0.74 0.76 0.91 0.69 0.67 0.77 0.86 0.89 0.72 0.67 0.39 0.26 0.25 0.22 0.20 0.19 0.21 0.26 0.29 0.30 0.31 0.35 0.39 0.44 0.47 0.51 0.53 0.53 0.55 0.60 0.71 0.72 0.69 0.69 0.76 0.86 0.92 0.92 0.89 0.92 0.97 1.03
0.53 0.84 0.76 0.59 0.50 0.40 0.52 0.55 0.66 0.90 0.65 0.52 0.46 0.30 0.18 0.18 0.21 0.23 0.24 0.27 0.27 0.25 0.27 0.31 0.35 0.41 0.44 0.49 0.54 0.57 0.56 0.58 0.65 0.65 0.64 0.61 0.59 0.67 0.73 0.72 0.71 0.75 0.76 0.81
0.59 0.94 0.94 0.70 0.64 0.59 0.59 0.45 0.48 0.75 0.99 0.73 0.59 0.32 0.16 0.12 0.17 0.22 0.25 0.27 0.24 0.22 0.23 0.25 0.28 0.35 0.41 0.45 0.49 0.51 0.53 0.55 0.59 0.59 0.58 0.61 0.57 0.60 0.65 0.64 0.60 0.62 0.63 0.62
0.82 0.97 0.86 0.75 0.61 0.60 0.57 0.42 0.49 1.03 1.29 0.67 0.37 0.27 0.19 0.16 0.19 0.23 0.27 0.29 0.25 0.23 0.25 0.25 0.27 0.32 0.37 0.40 0.45 0.45 0.47 0.51 0.54 0.53 0.53 0.55 0.56 0.56 0.61 0.60 0.52 0.54 0.54 0.53
0.80 0.99 0.67 0.45 0.37 0.47 0.48 0.44 0.53 0.83 0.78 0.68 0.35 0.26 0.28 0.28 0.28 0.26 0.26 0.25 0.22 0.22 0.25 0.26 0.29 0.31 0.31 0.32 0.35 0.36 0.37 0.40 0.45 0.47 0.48 0.53 0.54 0.53 0.59 0.60 0.55 0.53 0.53 0.51
0.55 0.78 0.67 0.49 0.33 0.40 0.44 0.40 0.46 0.52 0.49 0.47 0.39 0.36 0.25 0.25 0.23 0.24 0.24 0.23 0.24 0.22 0.23 0.24 0.27 0.28 0.27 0.29 0.32 0.33 0.33 0.36 0.41 0.44 0.46 0.48 0.49 0.49 0.52 0.55 0.54 0.55 0.57 0.56
0.37 0.59 0.78 0.61 0.37 0.49 0.58 0.47 0.46 0.43 0.34 0.35 0.40 0.30 0.20 0.22 0.23 0.22 0.18 0.17 0.18 0.18 0.17 0.19 0.22 0.25 0.26 0.25 0.27 0.32 0.35 0.38 0.42 0.46 0.46 0.47 0.47 0.46 0.45 0.46 0.51 0.59 0.64 0.66
0.20 0.42 0.75 0.62 0.49 0.62 0.49 0.34 0.33 0.32 0.28 0.26 0.26 0.19 0.18 0.21 0.22 0.19 0.15 0.13 0.11 0.11 0.11 0.12 0.15 0.19 0.24 0.23 0.24 0.26 0.26 0.29 0.35 0.40 0.40 0.41 0.46 0.50 0.49 0.53 0.61 0.72 0.79 0.84
0.09 0.34 0.69 0.62 0.46 0.30 0.18 0.15 0.17 0.24 0.26 0.19 0.18 0.15 0.14 0.16 0.20 0.20 0.18 0.16 0.12 0.10 0.10 0.09 0.10 0.13 0.17 0.19 0.22 0.23 0.23 0.25 0.28 0.34 0.37 0.38 0.44 0.56 0.66 0.74 0.83 0.89 0.97 1.02
0.10 0.26 0.63 0.58 0.49 0.25 0.12 0.05 0.05 0.13 0.25 0.12 0.11 0.14 0.15 0.16 0.20 0.18 0.14 0.13 0.12 0.10 0.10 0.10 0.08 0.09 0.11 0.14 0.18 0.20 0.22 0.27 0.33 0.40 0.46 0.50 0.57 0.71 0.82 0.87 0.92 0.92 0.91 0.92
0.21 0.36 0.52 0.46 0.45 0.18 0.07 0.04 0.05 0.20 0.26 0.07 0.06 0.10 0.14 0.15 0.17 0.13 0.10 0.10 0.10 0.11 0.12 0.14 0.16 0.17 0.19 0.20 0.25 0.30 0.34 0.42 0.47 0.49 0.57 0.65 0.65 0.67 0.68 0.69 0.69 0.64 0.59 0.56
0.15 0.25 0.26 0.29 0.41 0.23 0.08 0.06 0.11 0.17 0.10 0.06 0.05 0.07 0.10 0.12 0.12 0.11 0.10 0.08 0.08 0.10 0.11 0.14 0.21 0.29 0.32 0.34 0.42 0.48 0.50 0.53 0.53 0.53 0.56 0.58 0.59 0.57 0.53 0.48 0.42 0.35 0.31 0.29
0.11 0.16 0.20 0.24 0.25 0.17 0.10 0.09 0.09 0.08 0.08 0.07 0.06 0.06 0.08 0.10 0.10 0.10 0.10 0.07 0.05 0.05 0.07 0.10 0.15 0.20 0.26 0.30 0.35 0.40 0.41 0.40 0.40 0.41 0.42 0.42 0.39 0.37 0.34 0.31 0.27 0.24 0.22 0.21
0.13 0.10 0.14 0.16 0.13 0.10 0.09 0.08 0.07 0.07 0.08 0.07 0.07 0.07 0.07 0.08 0.08 0.06 0.06 0.07 0.06 0.05 0.05 0.05 0.07 0.08 0.10 0.12 0.16 0.19 0.18 0.17 0.18 0.20 0.23 0.24 0.22 0.21 0.21 0.21 0.20 0.20 0.19 0.19
0.13 0.12 0.15 0.16 0.09 0.08 0.08 0.07 0.07 0.07 0.06 0.06 0.06 0.07 0.08 0.08 0.08 0.07 0.06 0.06 0.06 0.06 0.06 0.07 0.07 0.08 0.09 0.09 0.09 0.10 0.10 0.10 0.10 0.11 0.13 0.14 0.14 0.15 0.16 0.17 0.18 0.20 0.20 0.21
0.06 0.10 0.17 0.17 0.09 0.12 0.11 0.06 0.05 0.05 0.03 0.03 0.04 0.05 0.06 0.06 0.07 0.08 0.08 0.07 0.06 0.06 0.06 0.07 0.08 0.08 0.09 0.09 0.08 0.08 0.09 0.09 0.11 0.12 0.12 0.12 0.13 0.14 0.14 0.15 0.17 0.20 0.21 0.24

GEFSCGP_prec_meanprecacc_192.txt.gz
Total_Precipitation_Accumulation
1.58 1.47 1.10 0.66 0.50 0.43 0.46 0.45 0.39 0.42 0.38 0.41 0.40 0.39 0.38 0.42 0.49 0.51 0.51 0.55 0.67 0.84 1.01 1.13 1.38 1.55 1.65 1.87 2.06 2.17 2.19 2.34 2.41 2.40 2.30 2.14 2.03 1.91 1.78 1.61 1.47 1.39 1.27 1.26
1.49 1.11 0.62 0.44 0.49 0.50 0.50 0.52 0.41 0.41 0.42 0.48 0.49 0.43 0.39 0.45 0.51 0.50 0.50 0.50 0.57 0.71 0.87 1.04 1.23 1.38 1.53 1.71 1.83 2.06 2.17 2.20 2.27 2.21 2.27 2.25 2.33 2.23 2.09 1.95 1.69 1.53 1.42 1.34
1.15 0.73 0.54 0.57 0.63 0.62 0.50 0.45 0.41 0.46 0.50 0.55 0.53 0.52 0.46 0.50 0.46 0.51 0.55 0.56 0.58 0.61 0.76 0.93 1.15 1.29 1.40 1.59 1.70 1.82 1.98 2.09 2.22 2.28 2.51 2.56 2.53 2.37 2.14 1.90 1.73 1.59 1.50 1.45
1.02 0.63 0.66 0.73 0.68 0.60 0.54 0.30 0.35 0.48 0.63 0.71 0.61 0.74 0.59 0.53 0.45 0.49 0.55 0.55 0.59 0.63 0.75 0.88 0.98 1.17 1.32 1.41 1.53 1.66 1.80 1.93 2.13 2.28 2.37 2.40 2.28 2.13 1.98 1.89 1.83 1.74 1.60 1.54
1.05 0.71 0.76 0.82 0.61 0.57 0.51 0.32 0.37 0.52 0.66 0.68 0.50 0.58 0.57 0.42 0.41 0.44 0.47 0.48 0.52 0.61 0.67 0.73 0.82 0.95 1.10 1.21 1.33 1.47 1.60 1.71 1.91 2.12 2.12 2.26 2.22 2.05 2.01 1.97 1.87 1.75 1.63 1.57
0.80 0.70 0.83 0.77 0.54 0.57 0.55 0.54 0.60 0.68 0.92 0.91 0.42 0.46 0.54 0.43 0.41 0.43 0.44 0.46 0.49 0.54 0.60 0.64 0.68 0.77 0.90 0.99 1.07 1.25 1.42 1.49 1.65 1.90 1.94 1.91 1.90 1.83 1.85 1.88 1.82 1.76 1.62 1.52
1.17 0.95 0.81 0.77 0.80 0.81 0.82 1.07 1.36 1.32 1.22 0.75 0.28 0.33 0.44 0.34 0.36 0.41 0.41 0.40 0.41 0.43 0.49 0.53 0.51 0.60 0.75 0.85 0.91 1.04 1.22 1.29 1.38 1.55 1.72 1.80 1.80 1.75 1.72 1.69 1.72 1.76 1.65 1.41
1.21 1.14 0.80 0.81 0.90 0.96 0.85 0.94 1.10 0.94 0.61 0.35 0.23 0.31 0.31 0.23 0.26 0.29 0.31 0.30 0.34 0.39 0.42 0.45 0.45 0.51 0.63 0.74 0.80 0.85 0.97 1.08 1.19 1.26 1.40 1.59 1.67 1.64 1.62 1.58 1.60 1.67 1.65 1.52
0.79 0.87 0.57 0.57 0.59 0.67 0.84 0.82 0.65 0.81 0.55 0.37 0.27 0.26 0.23 0.17 0.19 0.22 0.25 0.25 0.30 0.36 0.38 0.42 0.44 0.48 0.53 0.59 0.68 0.71 0.76 0.88 0.96 1.00 1.12 1.27 1.37 1.37 1.35 1.35 1.37 1.42 1.47 1.43
0.64 0.83 0.59 0.58 0.75 0.72 0.73 0.68 0.81 1.17 0.92 0.53 0.27 0.21 0.26 0.20 0.19 0.19 0.22 0.26 0.30 0.33 0.33 0.38 0.43 0.47 0.48 0.50 0.53 0.57 0.64 0.75 0.84 0.86 0.89 0.96 1.07 1.15 1.13 1.10 1.12 1.17 1.20 1.19
0.57 0.86 0.75 0.76 0.91 0.69 0.67 0.77 0.87 0.90 0.73 0.67 0.40 0.26 0.25 0.22 0.20 0.19 0.21 0.26 0.29 0.30 0.31 0.35 0.40 0.45 0.48 0.52 0.54 0.55 0.57 0.63 0.73 0.74 0.71 0.71 0.79 0.93 0.97 0.97 0.94 0.96 1.01 1.07
0.54 0.85 0.76 0.59 0.50 0.41 0.52 0.55 0.66 0.91 0.66 0.52 0.46 0.30 0.19 0.18 0.21 0.23 0.24 0.27 0.27 0.25 0.27 0.31 0.35 0.42 0.44 0.49 0.55 0.59 0.58 0.60 0.67 0.67 0.65 0.62 0.61 0.70 0.78 0.76 0.75 0.78 0.79 0.85
0.60 0.96 0.96 0.71 0.64 0.59 0.60 0.46 0.49 0.77 1.00 0.74 0.60 0.33 0.16 0.13 0.17 0.22 0.25 0.27 0.24 0.22 0.23 0.25 0.28 0.35 0.41 0.45 0.49 0.52 0.54 0.55 0.60 0.59 0.60 0.63 0.59 0.62 0.67 0.66 0.63 0.65 0.65 0.64
0.83 0.99 0.87 0.76 0.62 0.61 0.58 0.43 0.50 1.04 1.31 0.68 0.37 0.27 0.19 0.17 0.19 0.23 0.27 0.29 0.25 0.23 0.25 0.25 0.27 0.32 0.37 0.41 0.45 0.46 0.48 0.52 0.54 0.53 0.53 0.56 0.57 0.57 0.62 0.61 0.54 0.55 0.56 0.55
0.81 1.00 0.68 0.46 0.37 0.47 0.49 0.45 0.54 0.84 0.78 0.68 0.35 0.26 0.28 0.28 0.28 0.26 0.26 0.25 0.22 0.22 0.25 0.26 0.29 0.31 0.32 0.32 0.35 0.36 0.37 0.41 0.46 0.47 0.48 0.54 0.55 0.54 0.59 0.61 0.55 0.54 0.55 0.52
0.55 0.79 0.67 0.49 0.34 0.40 0.44 0.40 0.46 0.53 0.49 0.48 0.39 0.36 0.25 0.25 0.23 0.24 0.24 0.23 0.24 0.22 0.23 0.24 0.27 0.28 0.27 0.29 0.32 0.33 0.34 0.37 0.41 0.45 0.46 0.49 0.49 0.49 0.52 0.56 0.54 0.55 0.57 0.56
0.38 0.60 0.79 0.61 0.37 0.49 0.59 0.47 0.46 0.43 0.34 0.35 0.40 0.31 0.20 0.22 0.23 0.22 0.19 0.17 0.18 0.18 0.17 0.19 0.22 0.25 0.26 0.25 0.27 0.32 0.35 0.39 0.43 0.46 0.47 0.47 0.48 0.46 0.45 0.46 0.51 0.59 0.64 0.66
0.21 0.44 0.77 0.63 0.50 0.63 0.49 0.34 0.33 0.32 0.28 0.26 0.26 0.19 0.18 0.21 0.22 0.19 0.16 0.13 0.11 0.11 0.11 0.12 0.15 0.19 0.24 0.23 0.24 0.27 0.26 0.30 0.35 0.40 0.40 0.41 0.47 0.50 0.50 0.53 0.61 0.72 0.79 0.84
0.10 0.36 0.72 0.64 0.47 0.30 0.19 0.15 0.17 0.24 0.26 0.19 0.18 0.15 0.14 0.16 0.20 0.20 0.18 0.16 0.12 0.10 0.10 0.09 0.10 0.13 0.17 0.19 0.22 0.23 0.23 0.26 0.29 0.34 0.37 0.38 0.44 0.56 0.66 0.74 0.83 0.90 0.98 1.02
0.11 0.27 0.67 0.61 0.51 0.26 0.13 0.06 0.05 0.14 0.26 0.12 0.11 0.14 0.15 0.16 0.20 0.18 0.14 0.13 0.12 0.10 0.10 0.10 0.08 0.09 0.11 0.14 0.18 0.20 0.23 0.27 0.33 0.40 0.46 0.51 0.57 0.71 0.82 0.87 0.92 0.92 0.91 0.93
0.23 0.39 0.56 0.49 0.47 0.19 0.08 0.04 0.05 0.22 0.28 0.08 0.07 0.11 0.14 0.16 0.17 0.13 0.10 0.10 0.10 0.11 0.12 0.14 0.16 0.17 0.19 0.20 0.25 0.30 0.34 0.42 0.47 0.50 0.58 0.65 0.66 0.67 0.68 0.69 0.69 0.64 0.59 0.56
0.16 0.27 0.29 0.32 0.46 0.26 0.09 0.07 0.13 0.20 0.12 0.08 0.07 0.08 0.11 0.13 0.13 0.13 0.11 0.08 0.08 0.10 0.11 0.14 0.21 0.29 0.32 0.34 0.42 0.48 0.50 0.54 0.53 0.53 0.56 0.58 0.59 0.57 0.53 0.48 0.42 0.35 0.31 0.29
0.12 0.18 0.23 0.27 0.28 0.19 0.11 0.10 0.10 0.09 0.10 0.09 0.09 0.09 0.10 0.12 0.12 0.12 0.12 0.09 0.06 0.05 0.07 0.10 0.15 0.20 0.26 0.30 0.35 0.40 0.41 0.40 0.40 0.41 0.42 0.42 0.39 0.37 0.34 0.31 0.27 0.24 0.22 0.21
0.15 0.12 0.16 0.19 0.16 0.12 0.10 0.08 0.08 0.08 0.09 0.08 0.08 0.08 0.08 0.09 0.08 0.07 0.07 0.07 0.07 0.06 0.05 0.06 0.07 0.08 0.10 0.12 0.16 0.19 0.18 0.17 0.18 0.20 0.24 0.24 0.22 0.21 0.21 0.21 0.21 0.20 0.19 0.19
0.15 0.14 0.18 0.18 0.12 0.10 0.09 0.08 0.08 0.08 0.07 0.07 0.07 0.08 0.09 0.09 0.08 0.07 0.07 0.06 0.07 0.07 0.07 0.07 0.08 0.09 0.09 0.09 0.10 0.11 0.10 0.10 0.10 0.11 0.13 0.15 0.15 0.15 0.16 0.17 0.18 0.20 0.20 0.22
0.08 0.12 0.20 0.19 0.11 0.13 0.12 0.07 0.05 0.05 0.04 0.03 0.04 0.06 0.06 0.06 0.08 0.09 0.08 0.07 0.07 0.07 0.07 0.08 0.09 0.09 0.10 0.09 0.08 0.08 0.09 0.09 0.11 0.12 0.12 0.13 0.13 0.14 0.15 0.16 0.17 0.20 0.22 0.24

GEFSCGP_prec_meanprecacc_198.txt.gz
Total_Precipitation_Accumulation
1.58 1.48 1.10 0.67 0.50 0.43 0.46 0.45 0.40 0.43 0.39 0.42 0.41 0.40 0.39 0.43 0.50 0.51 0.51 0.55 0.67 0.84 1.03 1.15 1.43 1.61 1.74 1.95 2.13 2.23 2.28 2.46 2.57 2.61 2.53 2.33 2.16 1.98 1.82 1.65 1.50 1.43 1.31 1.30
1.49 1.11 0.63 0.45 0.49 0.50 0.51 0.53 0.42 0.41 0.43 0.49 0.50 0.44 0.40 0.46 0.51 0.50 0.50 0.50 0.57 0.72 0.88 1.06 1.27 1.42 1.59 1.79 1.89 2.12 2.23 2.29 2.38 2.36 2.43 2.43 2.50 2.33 2.13 1.99 1.72 1.57 1.46 1.37
1.15 0.73 0.54 0.58 0.64 0.64 0.51 0.45 0.42 0.47 0.51 0.56 0.54 0.53 0.46 0.51 0.46 0.51 0.55 0.56 0.58 0.61 0.77 0.95 1.18 1.33 1.44 1.65 1.75 1.88 2.04 2.17 2.31 2.38 2.64 2.70 2.68 2.50 2.21 1.95 1.77 1.63 1.55 1.48
1.02 0.63 0.66 0.74 0.69 0.61 0.55 0.32 0.36 0.49 0.64 0.73 0.62 0.75 0.59 0.53 0.45 0.49 0.55 0.55 0.59 0.64 0.76 0.89 1.01 1.21 1.36 1.48 1.61 1.72 1.88 2.01 2.19 2.35 2.47 2.51 2.38 2.22 2.06 1.94 1.88 1.78 1.65 1.58
1.05 0.71 0.76 0.82 0.61 0.57 0.51 0.32 0.38 0.54 0.68 0.70 0.50 0.58 0.57 0.42 0.42 0.44 0.47 0.48 0.52 0.61 0.68 0.74 0.84 1.00 1.16 1.27 1.42 1.57 1.68 1.79 1.98 2.21 2.20 2.35 2.31 2.14 2.07 2.02 1.91 1.79 1.68 1.61
0.80 0.70 0.83 0.77 0.54 0.57 0.55 0.55 0.61 0.68 0.93 0.92 0.42 0.46 0.54 0.43 0.41 0.43 0.44 0.46 0.49 0.55 0.62 0.66 0.70 0.83 0.97 1.05 1.14 1.35 1.53 1.59 1.75 2.02 2.05 2.00 1.98 1.92 1.93 1.92 1.85 1.79 1.67 1.57
1.17 0.95 0.81 0.77 0.80 0.81 0.82 1.07 1.38 1.33 1.23 0.75 0.28 0.34 0.44 0.34 0.36 0.41 0.41 0.40 0.41 0.43 0.50 0.55 0.53 0.63 0.82 0.92 0.97 1.12 1.34 1.43 1.51 1.68 1.83 1.90 1.88 1.83 1.81 1.76 1.77 1.78 1.69 1.47
1.22 1.14 0.80 0.81 0.90 0.96 0.85 0.94 1.10 0.95 0.61 0.35 0.23 0.31 0.31 0.23 0.26 0.30 0.31 0.30 0.34 0.39 0.42 0.46 0.47 0.54 0.69 0.81 0.86 0.91 1.07 1.24 1.34 1.38 1.51 1.70 1.76 1.72 1.70 1.66 1.67 1.71 1.70 1.58
0.80 0.87 0.57 0.58 0.59 0.67 0.85 0.82 0.65 0.82 0.56 0.37 0.27 0.26 0.23 0.17 0.19 0.22 0.25 0.25 0.30 0.36 0.38 0.43 0.45 0.51 0.56 0.64 0.73 0.75 0.81 0.98 1.10 1.16 1.28 1.42 1.45 1.43 1.41 1.42 1.44 1.48 1.53 1.50
0.65 0.84 0.59 0.58 0.75 0.72 0.73 0.68 0.81 1.18 0.93 0.53 0.27 0.21 0.26 0.20 0.19 0.20 0.22 0.26 0.30 0.33 0.33 0.38 0.44 0.48 0.50 0.54 0.58 0.64 0.69 0.81 0.92 0.97 1.03 1.10 1.16 1.22 1.19 1.15 1.17 1.21 1.24 1.26
0.58 0.87 0.75 0.76 0.92 0.70 0.67 0.78 0.87 0.91 0.74 0.68 0.40 0.27 0.25 0.23 0.20 0.19 0.22 0.26 0.30 0.31 0.32 0.35 0.40 0.46 0.50 0.56 0.58 0.60 0.63 0.68 0.80 0.83 0.81 0.79 0.85 0.98 1.03 1.01 0.98 0.99 1.05 1.13
0.54 0.86 0.77 0.59 0.50 0.41 0.53 0.55 0.67 0.92 0.67 0.53 0.46 0.31 0.19 0.19 0.22 0.23 0.24 0.27 0.27 0.25 0.27 0.32 0.36 0.43 0.46 0.52 0.58 0.63 0.63 0.65 0.72 0.73 0.73 0.70 0.67 0.77 0.84 0.80 0.78 0.81 0.82 0.90
0.61 0.99 0.98 0.71 0.65 0.60 0.61 0.47 0.50 0.78 1.02 0.75 0.61 0.34 0.17 0.13 0.18 0.22 0.26 0.28 0.24 0.23 0.24 0.26 0.29 0.37 0.43 0.47 0.51 0.56 0.57 0.59 0.65 0.64 0.66 0.69 0.65 0.69 0.77 0.72 0.67 0.68 0.68 0.68
0.85 1.01 0.89 0.77 0.63 0.62 0.59 0.44 0.52 1.07 1.34 0.70 0.39 0.28 0.20 0.17 0.20 0.24 0.27 0.29 0.25 0.24 0.26 0.26 0.28 0.34 0.38 0.42 0.47 0.49 0.51 0.54 0.57 0.56 0.58 0.61 0.63 0.63 0.71 0.71 0.60 0.59 0.59 0.58
0.84 1.03 0.69 0.46 0.38 0.48 0.50 0.45 0.54 0.85 0.80 0.70 0.36 0.27 0.29 0.28 0.28 0.27 0.26 0.25 0.23 0.23 0.25 0.27 0.29 0.32 0.32 0.33 0.36 0.38 0.40 0.43 0.48 0.49 0.51 0.57 0.59 0.59 0.66 0.68 0.63 0.61 0.59 0.56
0.58 0.82 0.68 0.50 0.34 0.40 0.44 0.40 0.46 0.53 0.49 0.48 0.40 0.36 0.26 0.25 0.23 0.25 0.25 0.24 0.25 0.22 0.23 0.24 0.27 0.29 0.27 0.30 0.33 0.35 0.37 0.39 0.43 0.46 0.47 0.50 0.51 0.52 0.57 0.61 0.60 0.61 0.63 0.61
0.40 0.63 0.82 0.63 0.38 0.49 0.59 0.47 0.46 0.44 0.35 0.36 0.41 0.31 0.20 0.23 0.23 0.22 0.19 0.18 0.19 0.18 0.17 0.19 0.22 0.25 0.27 0.25 0.27 0.32 0.37 0.41 0.44 0.48 0.48 0.48 0.48 0.47 0.47 0.49 0.54 0.63 0.69 0.71
0.24 0.47 0.81 0.66 0.51 0.65 0.50 0.35 0.33 0.33 0.28 0.26 0.27 0.19 0.18 0.21 0.22 0.20 0.16 0.13 0.11 0.12 0.11 0.12 0.16 0.19 0.24 0.23 0.24 0.27 0.27 0.32 0.37 0.41 0.41 0.42 0.48 0.51 0.50 0.54 0.62 0.73 0.81 0.87
0.12 0.40 0.78 0.68 0.50 0.32 0.19 0.16 0.18 0.24 0.27 0.19 0.18 0.15 0.14 0.16 0.20 0.21 0.18 0.16 0.12 0.10 0.10 0.09 0.10 0.13 0.17 0.19 0.22 0.23 0.24 0.27 0.30 0.35 0.38 0.39 0.45 0.57 0.66 0.74 0.83 0.90 0.98 1.03
0.13 0.32 0.74 0.68 0.55 0.28 0.14 0.06 0.05 0.15 0.28 0.13 0.11 0.14 0.15 0.16 0.21 0.18 0.15 0.13 0.12 0.10 0.10 0.10 0.08 0.09 0.11 0.14 0.18 0.20 0.23 0.28 0.35 0.41 0.47 0.51 0.57 0.71 0.82 0.87 0.92 0.92 0.91 0.93
0.27 0.45 0.63 0.55 0.52 0.22 0.09 0.04 0.06 0.24 0.30 0.09 0.07 0.12 0.15 0.17 0.19 0.14 0.11 0.10 0.10 0.11 0.12 0.14 0.16 0.17 0.19 0.20 0.25 0.30 0.34 0.42 0.48 0.51 0.59 0.66 0.66 0.67 0.68 0.69 0.69 0.64 0.59 0.56
0.20 0.31 0.33 0.36 0.51 0.31 0.10 0.07 0.14 0.21 0.13 0.09 0.08 0.09 0.13 0.15 0.15 0.14 0.12 0.10 0.09 0.10 0.12 0.14 0.21 0.29 0.32 0.34 0.42 0.48 0.51 0.54 0.54 0.56 0.59 0.60 0.60 0.57 0.53 0.48 0.42 0.35 0.31 0.29
0.16 0.22 0.26 0.30 0.33 0.22 0.12 0.11 0.11 0.10 0.11 0.10 0.10 0.10 0.11 0.14 0.14 0.14 0.14 0.11 0.08 0.07 0.08 0.11 0.16 0.21 0.26 0.30 0.35 0.40 0.41 0.41 0.41 0.43 0.45 0.45 0.42 0.38 0.35 0.31 0.27 0.24 0.22 0.21
0.18 0.15 0.19 0.22 0.20 0.15 0.12 0.09 0.08 0.08 0.09 0.09 0.09 0.09 0.09 0.10 0.10 0.10 0.09 0.10 0.09 0.08 0.08 0.08 0.09 0.10 0.12 0.13 0.17 0.20 0.18 0.17 0.18 0.21 0.25 0.27 0.26 0.24 0.23 0.21 0.21 0.20 0.19 0.19
0.18 0.17 0.21 0.21 0.15 0.13 0.12 0.11 0.09 0.08 0.07 0.07 0.07 0.09 0.10 0.10 0.10 0.09 0.08 0.07 0.08 0.08 0.08 0.09 0.09 0.10 0.11 0.11 0.11 0.11 0.11 0.10 0.11 0.11 0.13 0.15 0.16 0.17 0.18 0.18 0.19 0.20 0.20 0.22
0.12 0.16 0.23 0.23 0.14 0.16 0.15 0.10 0.08 0.07 0.06 0.05 0.06 0.07 0.08 0.08 0.09 0.10 0.09 0.08 0.08 0.08 0.08 0.09 0.10 0.10 0.10 0.10 0.09 0.09 0.09 0.10 0.11 0.12 0.12 0.13 0.14 0.14 0.15 0.16 0.17 0.20 0.22 0.25

GEFSCGP_prec_meanprecacc_204.txt.gz
Total_Precipitation_Accumulation
1.59 1.48 1.11 0.67 0.50 0.44 0.47 0.46 0.40 0.43 0.40 0.44 0.42 0.41 0.40 0.43 0.50 0.52 0.52 0.56 0.67 0.85 1.04 1.18 1.48 1.69 1.82 2.02 2.21 2.30 2.36 2.53 2.65 2.70 2.62 2.42 2.25 2.08 1.91 1.71 1.54 1.46 1.34 1.35
1.49 1.11 0.63 0.45 0.49 0.51 0.51 0.53 0.42 0.42 0.43 0.50 0.50 0.45 0.40 0.46 0.52 0.51 0.50 0.50 0.57 0.72 0.88 1.07 1.30 1.46 1.65 1.85 1.95 2.17 2.27 2.34 2.44 2.43 2.50 2.49 2.57 2.41 2.22 2.05 1.76 1.60 1.48 1.40
1.16 0.73 0.54 0.58 0.64 0.64 0.51 0.46 0.42 0.47 0.51 0.56 0.55 0.53 0.46 0.51 0.46 0.51 0.55 0.56 0.59 0.61 0.77 0.95 1.19 1.35 1.48 1.70 1.81 1.91 2.07 2.20 2.35 2.44 2.70 2.75 2.72 2.56 2.29 2.01 1.82 1.66 1.57 1.51
1.03 0.63 0.66 0.74 0.69 0.61 0.56 0.32 0.37 0.50 0.66 0.73 0.63 0.75 0.59 0.53 0.45 0.49 0.55 0.55 0.59 0.64 0.76 0.89 1.01 1.21 1.38 1.50 1.65 1.76 1.91 2.05 2.22 2.39 2.54 2.57 2.42 2.27 2.11 2.00 1.93 1.82 1.67 1.59
1.05 0.71 0.76 0.82 0.61 0.57 0.52 0.32 0.38 0.54 0.69 0.71 0.51 0.60 0.58 0.42 0.42 0.44 0.47 0.48 0.52 0.61 0.68 0.74 0.84 1.00 1.18 1.30 1.46 1.61 1.72 1.83 2.01 2.24 2.24 2.40 2.36 2.18 2.10 2.05 1.95 1.83 1.71 1.63
0.80 0.70 0.83 0.77 0.54 0.57 0.55 0.55 0.61 0.69 0.95 0.94 0.42 0.47 0.55 0.43 0.41 0.43 0.44 0.46 0.49 0.55 0.62 0.66 0.70 0.83 0.98 1.08 1.18 1.39 1.58 1.64 1.79 2.06 2.07 2.03 2.02 1.96 1.97 1.95 1.87 1.82 1.69 1.59
1.18 0.95 0.81 0.77 0.80 0.82 0.83 1.08 1.39 1.34 1.24 0.76 0.28 0.34 0.44 0.34 0.36 0.41 0.41 0.40 0.41 0.43 0.50 0.55 0.53 0.64 0.83 0.95 1.02 1.16 1.38 1.49 1.56 1.72 1.86 1.93 1.91 1.87 1.85 1.79 1.80 1.80 1.71 1.49
1.23 1.15 0.80 0.81 0.90 0.96 0.85 0.94 1.11 0.95 0.61 0.35 0.24 0.31 0.31 0.23 0.26 0.30 0.31 0.30 0.34 0.39 0.42 0.46 0.47 0.54 0.69 0.83 0.92 0.97 1.11 1.28 1.38 1.42 1.54 1.73 1.80 1.76 1.74 1.69 1.70 1.74 1.72 1.60
0.81 0.88 0.57 0.58 0.60 0.67 0.85 0.83 0.66 0.83 0.56 0.37 0.27 0.26 0.24 0.17 0.20 0.22 0.25 0.25 0.30 0.36 0.38 0.43 0.45 0.51 0.57 0.66 0.77 0.83 0.88 1.04 1.16 1.21 1.32 1.46 1.50 1.47 1.45 1.46 1.48 1.52 1.57 1.53
0.67 0.86 0.59 0.58 0.75 0.73 0.73 0.69 0.82 1.20 0.94 0.54 0.28 0.22 0.27 0.21 0.20 0.20 0.22 0.26 0.30 0.33 0.33 0.38 0.44 0.48 0.51 0.55 0.61 0.68 0.77 0.89 1.01 1.06 1.12 1.16 1.21 1.26 1.22 1.20 1.22 1.26 1.29 1.31
0.61 0.91 0.77 0.77 0.92 0.71 0.68 0.79 0.89 0.92 0.75 0.68 0.40 0.27 0.25 0.23 0.20 0.20 0.22 0.26 0.30 0.31 0.32 0.36 0.40 0.46 0.51 0.58 0.60 0.63 0.67 0.75 0.88 0.94 0.92 0.87 0.91 1.02 1.06 1.05 1.02 1.04 1.10 1.19
0.57 0.90 0.79 0.60 0.51 0.42 0.53 0.56 0.68 0.95 0.68 0.54 0.47 0.32 0.19 0.19 0.22 0.24 0.25 0.28 0.27 0.25 0.28 0.32 0.36 0.44 0.47 0.53 0.59 0.64 0.64 0.68 0.76 0.80 0.82 0.79 0.75 0.83 0.88 0.83 0.82 0.85 0.86 0.95
0.65 1.03 1.02 0.74 0.67 0.61 0.62 0.48 0.50 0.79 1.03 0.76 0.62 0.36 0.17 0.14 0.18 0.23 0.26 0.28 0.25 0.23 0.24 0.26 0.30 0.38 0.44 0.48 0.52 0.56 0.58 0.60 0.67 0.69 0.73 0.76 0.74 0.78 0.85 0.79 0.71 0.71 0.72 0.73
0.89 1.06 0.93 0.79 0.64 0.63 0.60 0.45 0.52 1.08 1.36 0.72 0.40 0.29 0.21 0.18 0.21 0.24 0.28 0.30 0.26 0.24 0.26 0.27 0.30 0.35 0.39 0.43 0.48 0.50 0.53 0.56 0.58 0.59 0.64 0.68 0.70 0.72 0.80 0.80 0.69 0.67 0.67 0.67
0.89 1.08 0.71 0.47 0.39 0.49 0.50 0.46 0.55 0.86 0.81 0.71 0.37 0.28 0.30 0.29 0.29 0.28 0.27 0.26 0.24 0.23 0.26 0.28 0.31 0.33 0.33 0.35 0.38 0.40 0.42 0.45 0.49 0.51 0.54 0.63 0.65 0.66 0.74 0.77 0.73 0.72 0.72 0.69
0.61 0.88 0.72 0.52 0.34 0.41 0.45 0.41 0.46 0.53 0.50 0.49 0.40 0.37 0.26 0.26 0.24 0.25 0.26 0.24 0.26 0.23 0.24 0.25 0.28 0.30 0.29 0.31 0.34 0.36 0.39 0.41 0.45 0.48 0.50 0.53 0.56 0.57 0.63 0.69 0.68 0.69 0.72 0.74
0.42 0.66 0.86 0.66 0.39 0.52 0.61 0.47 0.46 0.44 0.35 0.36 0.41 0.31 0.21 0.23 0.24 0.22 0.20 0.18 0.20 0.20 0.19 0.20 0.23 0.26 0.28 0.26 0.28 0.33 0.38 0.42 0.46 0.50 0.50 0.50 0.51 0.52 0.52 0.56 0.61 0.69 0.76 0.79
0.26 0.49 0.86 0.69 0.55 0.71 0.52 0.35 0.33 0.33 0.29 0.27 0.28 0.20 0.18 0.21 0.22 0.20 0.16 0.14 0.13 0.13 0.13 0.14 0.17 0.21 0.26 0.24 0.25 0.28 0.28 0.33 0.38 0.43 0.43 0.44 0.50 0.54 0.54 0.58 0.68 0.78 0.86 0.93
0.14 0.43 0.83 0.73 0.54 0.35 0.21 0.16 0.19 0.25 0.28 0.20 0.19 0.16 0.14 0.16 0.21 0.21 0.19 0.17 0.14 0.12 0.12 0.11 0.11 0.15 0.19 0.20 0.22 0.24 0.25 0.29 0.32 0.37 0.40 0.41 0.47 0.59 0.69 0.77 0.87 0.93 1.01 1.06
0.15 0.35 0.80 0.73 0.60 0.32 0.16 0.06 0.06 0.16 0.30 0.14 0.12 0.15 0.15 0.17 0.22 0.19 0.15 0.13 0.13 0.12 0.11 0.11 0.09 0.10 0.12 0.15 0.18 0.20 0.24 0.30 0.37 0.43 0.49 0.54 0.61 0.73 0.84 0.89 0.95 0.94 0.93 0.94
0.31 0.51 0.69 0.60 0.57 0.27 0.11 0.05 0.07 0.27 0.33 0.09 0.08 0.12 0.16 0.18 0.20 0.15 0.11 0.11 0.11 0.12 0.13 0.15 0.16 0.18 0.19 0.21 0.25 0.31 0.35 0.44 0.52 0.55 0.62 0.68 0.68 0.69 0.71 0.72 0.71 0.66 0.60 0.57
0.24 0.36 0.38 0.41 0.57 0.36 0.13 0.09 0.16 0.24 0.14 0.09 0.09 0.10 0.14 0.16 0.15 0.15 0.13 0.10 0.10 0.11 0.12 0.15 0.22 0.30 0.32 0.35 0.42 0.48 0.51 0.55 0.57 0.60 0.62 0.63 0.63 0.59 0.55 0.50 0.43 0.37 0.32 0.30
0.20 0.27 0.32 0.35 0.38 0.26 0.15 0.14 0.13 0.11 0.12 0.11 0.11 0.11 0.12 0.14 0.15 0.15 0.15 0.12 0.09 0.08 0.09 0.12 0.17 0.22 0.27 0.31 0.35 0.40 0.42 0.41 0.42 0.46 0.49 0.49 0.46 0.41 0.37 0.33 0.29 0.25 0.23 0.22
0.21 0.18 0.23 0.26 0.23 0.17 0.14 0.11 0.10 0.09 0.10 0.10 0.10 0.10 0.10 0.11 0.11 0.11 0.10 0.10 0.10 0.09 0.08 0.08 0.09 0.11 0.12 0.14 0.18 0.21 0.19 0.18 0.19 0.23 0.28 0.30 0.30 0.28 0.25 0.23 0.22 0.21 0.20 0.19
0.21 0.20 0.24 0.26 0.19 0.15 0.15 0.13 0.12 0.10 0.09 0.08 0.08 0.10 0.11 0.11 0.11 0.10 0.08 0.08 0.09 0.09 0.09 0.09 0.10 0.11 0.11 0.11 0.12 0.13 0.12 0.12 0.12 0.13 0.15 0.17 0.18 0.19 0.20 0.20 0.20 0.21 0.21 0.22
0.16 0.19 0.27 0.29 0.17 0.18 0.18 0.12 0.10 0.09 0.09 0.07 0.07 0.09 0.09 0.08 0.10 0.11 0.10 0.09 0.09 0.09 0.09 0.10 0.11 0.11 0.11 0.11 0.10 0.10 0.10 0.11 0.12 0.13 0.13 0.13 0.15 0.16 0.18 0.19 0.20 0.22 0.23 0.26

GEFSCGP_prec_meanprecacc_210.txt.gz
Total_Precipitation_Accumulation
1.59 1.49 1.11 0.68 0.50 0.44 0.47 0.46 0.40 0.44 0.40 0.45 0.44 0.42 0.41 0.44 0.51 0.53 0.52 0.56 0.68 0.85 1.04 1.18 1.49 1.71 1.86 2.06 2.28 2.42 2.44 2.59 2.71 2.77 2.69 2.48 2.32 2.14 1.99 1.81 1.64 1.52 1.39 1.37
1.50 1.12 0.63 0.45 0.49 0.51 0.51 0.53 0.42 0.42 0.43 0.50 0.51 0.45 0.40 0.47 0.55 0.52 0.51 0.50 0.58 0.73 0.89 1.08 1.32 1.49 1.69 1.89 2.01 2.27 2.36 2.39 2.47 2.47 2.55 2.54 2.62 2.47 2.29 2.14 1.85 1.68 1.54 1.44
1.17 0.73 0.55 0.58 0.64 0.64 0.51 0.46 0.42 0.47 0.52 0.56 0.55 0.54 0.47 0.52 0.48 0.52 0.55 0.56 0.59 0.63 0.78 0.96 1.20 1.36 1.50 1.74 1.86 1.98 2.16 2.25 2.38 2.46 2.73 2.78 2.76 2.60 2.34 2.09 1.89 1.74 1.64 1.56
1.03 0.63 0.66 0.74 0.69 0.62 0.56 0.32 0.37 0.50 0.66 0.74 0.63 0.76 0.60 0.53 0.46 0.50 0.55 0.56 0.60 0.64 0.76 0.90 1.01 1.22 1.40 1.53 1.69 1.79 1.96 2.10 2.26 2.42 2.56 2.59 2.44 2.29 2.14 2.05 2.00 1.88 1.73 1.65
1.06 0.71 0.76 0.83 0.62 0.57 0.52 0.32 0.38 0.55 0.69 0.72 0.52 0.60 0.58 0.42 0.42 0.44 0.47 0.49 0.52 0.61 0.68 0.75 0.84 1.01 1.18 1.32 1.49 1.65 1.76 1.87 2.06 2.27 2.26 2.42 2.37 2.19 2.12 2.09 2.03 1.91 1.78 1.68
0.80 0.70 0.83 0.78 0.54 0.58 0.56 0.55 0.62 0.70 0.96 0.95 0.43 0.47 0.55 0.43 0.41 0.43 0.44 0.46 0.49 0.55 0.62 0.66 0.70 0.83 0.99 1.09 1.20 1.42 1.63 1.69 1.83 2.10 2.09 2.04 2.03 1.97 1.98 1.98 1.95 1.91 1.77 1.65
1.19 0.96 0.82 0.77 0.80 0.82 0.83 1.10 1.41 1.36 1.25 0.77 0.28 0.34 0.44 0.34 0.36 0.41 0.41 0.40 0.41 0.43 0.50 0.55 0.53 0.64 0.84 0.95 1.03 1.17 1.41 1.53 1.61 1.77 1.89 1.95 1.93 1.88 1.86 1.81 1.85 1.89 1.79 1.55
1.24 1.16 0.80 0.82 0.90 0.97 0.86 0.95 1.12 0.96 0.61 0.35 0.24 0.31 0.31 0.23 0.26 0.30 0.31 0.30 0.34 0.39 0.42 0.46 0.47 0.54 0.69 0.83 0.92 0.98 1.13 1.31 1.42 1.47 1.59 1.76 1.82 1.77 1.75 1.72 1.74 1.81 1.79 1.66
0.84 0.90 0.57 0.58 0.60 0.68 0.86 0.83 0.66 0.84 0.57 0.38 0.28 0.26 0.24 0.17 0.20 0.22 0.25 0.25 0.30 0.36 0.38 0.43 0.45 0.51 0.57 0.66 0.77 0.83 0.88 1.06 1.18 1.24 1.36 1.49 1.52 1.49 1.47 1.48 1.51 1.56 1.62 1.59
0.73 0.89 0.60 0.59 0.77 0.74 0.74 0.71 0.84 1.23 0.97 0.55 0.28 0.22 0.27 0.21 0.20 0.20 0.23 0.26 0.30 0.33 0.34 0.38 0.44 0.48 0.51 0.55 0.61 0.68 0.77 0.90 1.02 1.08 1.14 1.19 1.23 1.28 1.24 1.22 1.24 1.28 1.33 1.35
0.69 0.96 0.79 0.78 0.94 0.72 0.70 0.81 0.92 0.96 0.78 0.70 0.41 0.28 0.25 0.24 0.21 0.20 0.22 0.27 0.30 0.31 0.33 0.36 0.41 0.46 0.51 0.58 0.61 0.63 0.68 0.75 0.89 0.96 0.95 0.91 0.93 1.04 1.08 1.08 1.06 1.07 1.13 1.22
0.63 0.97 0.83 0.61 0.52 0.42 0.54 0.58 0.71 0.99 0.72 0.55 0.49 0.33 0.20 0.20 0.22 0.24 0.25 0.29 0.28 0.26 0.28 0.33 0.37 0.44 0.48 0.54 0.61 0.65 0.65 0.68 0.77 0.83 0.86 0.83 0.79 0.87 0.91 0.86 0.85 0.88 0.91 1.00
0.71 1.12 1.08 0.78 0.70 0.64 0.64 0.49 0.52 0.81 1.06 0.79 0.64 0.37 0.18 0.15 0.19 0.24 0.27 0.29 0.25 0.24 0.25 0.27 0.31 0.39 0.45 0.50 0.55 0.58 0.60 0.62 0.68 0.71 0.76 0.82 0.80 0.85 0.91 0.84 0.74 0.74 0.76 0.78
0.94 1.13 1.00 0.86 0.69 0.67 0.64 0.48 0.54 1.10 1.39 0.74 0.41 0.30 0.21 0.19 0.22 0.25 0.29 0.30 0.26 0.25 0.27 0.28 0.31 0.36 0.41 0.46 0.51 0.52 0.56 0.58 0.61 0.62 0.67 0.73 0.76 0.79 0.87 0.86 0.74 0.70 0.70 0.70
0.91 1.12 0.73 0.49 0.40 0.51 0.53 0.48 0.57 0.88 0.82 0.72 0.38 0.29 0.31 0.30 0.30 0.29 0.28 0.26 0.25 0.24 0.27 0.29 0.32 0.35 0.36 0.38 0.42 0.43 0.45 0.48 0.52 0.54 0.58 0.67 0.69 0.70 0.79 0.83 0.80 0.78 0.77 0.74
0.64 0.91 0.74 0.53 0.35 0.43 0.47 0.43 0.48 0.55 0.51 0.50 0.41 0.38 0.27 0.26 0.25 0.27 0.27 0.25 0.27 0.24 0.26 0.27 0.30 0.32 0.32 0.35 0.38 0.40 0.42 0.44 0.48 0.51 0.52 0.56 0.58 0.61 0.67 0.74 0.73 0.75 0.80 0.80
0.44 0.68 0.90 0.68 0.40 0.53 0.63 0.49 0.48 0.46 0.36 0.37 0.42 0.32 0.21 0.23 0.24 0.23 0.21 0.20 0.21 0.21 0.20 0.22 0.25 0.29 0.31 0.30 0.32 0.36 0.40 0.45 0.48 0.52 0.53 0.53 0.54 0.55 0.56 0.60 0.67 0.74 0.81 0.85
0.28 0.51 0.89 0.72 0.57 0.73 0.55 0.37 0.35 0.35 0.31 0.29 0.29 0.20 0.19 0.21 0.23 0.21 0.17 0.15 0.14 0.14 0.14 0.15 0.19 0.23 0.28 0.27 0.27 0.29 0.29 0.34 0.39 0.44 0.45 0.47 0.52 0.57 0.57 0.62 0.73 0.84 0.91 0.98
0.16 0.46 0.86 0.75 0.56 0.37 0.23 0.18 0.21 0.29 0.31 0.23 0.20 0.17 0.15 0.17 0.22 0.23 0.20 0.18 0.15 0.13 0.13 0.13 0.13 0.17 0.20 0.22 0.24 0.25 0.27 0.30 0.33 0.38 0.41 0.43 0.50 0.62 0.73 0.80 0.90 0.99 1.07 1.11
0.17 0.39 0.84 0.76 0.63 0.34 0.18 0.07 0.09 0.19 0.33 0.16 0.14 0.17 0.17 0.18 0.23 0.20 0.15 0.14 0.14 0.13 0.12 0.12 0.11 0.11 0.13 0.16 0.20 0.22 0.26 0.32 0.39 0.45 0.51 0.56 0.63 0.76 0.87 0.92 0.97 0.98 0.98 0.99
0.33 0.54 0.75 0.65 0.62 0.30 0.13 0.06 0.08 0.31 0.37 0.12 0.10 0.14 0.18 0.21 0.22 0.16 0.12 0.11 0.11 0.12 0.13 0.15 0.17 0.19 0.21 0.22 0.26 0.32 0.36 0.45 0.53 0.56 0.64 0.70 0.71 0.72 0.73 0.75 0.74 0.69 0.64 0.62
0.27 0.39 0.41 0.45 0.63 0.40 0.15 0.11 0.20 0.29 0.17 0.12 0.11 0.12 0.16 0.18 0.17 0.16 0.14 0.11 0.10 0.11 0.13 0.16 0.22 0.30 0.33 0.36 0.43 0.49 0.52 0.56 0.58 0.61 0.63 0.65 0.65 0.62 0.58 0.54 0.48 0.40 0.35 0.33
0.24 0.33 0.38 0.40 0.44 0.32 0.19 0.18 0.18 0.14 0.14 0.13 0.13 0.14 0.15 0.17 0.17 0.17 0.16 0.13 0.10 0.09 0.10 0.13 0.18 0.22 0.28 0.32 0.36 0.42 0.43 0.42 0.43 0.47 0.50 0.50 0.47 0.43 0.40 0.36 0.33 0.30 0.26 0.24
0.25 0.20 0.27 0.31 0.28 0.22 0.17 0.14 0.13 0.12 0.14 0.14 0.13 0.13 0.13 0.14 0.14 0.13 0.11 0.11 0.10 0.09 0.09 0.09 0.10 0.11 0.13 0.15 0.19 0.22 0.20 0.19 0.20 0.24 0.29 0.32 0.32 0.30 0.28 0.26 0.26 0.25 0.24 0.22
0.26 0.24 0.28 0.30 0.23 0.17 0.17 0.15 0.14 0.12 0.11 0.11 0.11 0.12 0.13 0.13 0.14 0.12 0.10 0.09 0.09 0.10 0.10 0.10 0.11 0.11 0.12 0.12 0.13 0.13 0.13 0.13 0.13 0.14 0.16 0.19 0.21 0.23 0.24 0.23 0.24 0.25 0.25 0.25
0.21 0.25 0.33 0.35 0.22 0.21 0.21 0.14 0.11 0.10 0.10 0.08 0.08 0.10 0.10 0.10 0.12 0.13 0.12 0.11 0.11 0.11 0.11 0.11 0.12 0.12 0.12 0.12 0.11 0.11 0.11 0.12 0.13 0.14 0.14 0.15 0.17 0.19 0.20 0.22 0.23 0.26 0.27 0.29

GEFSCGP_prec_meanprecacc_216.txt.gz
Total_Precipitation_Accumulation
1.60 1.51 1.12 0.68 0.50 0.44 0.47 0.46 0.40 0.44 0.40 0.45 0.44 0.42 0.41 0.44 0.52 0.53 0.52 0.56 0.68 0.85 1.05 1.19 1.50 1.72 1.86 2.06 2.28 2.46 2.51 2.64 2.76 2.83 2.76 2.55 2.38 2.20 2.03 1.84 1.66 1.56 1.43 1.42
1.52 1.13 0.63 0.45 0.50 0.51 0.51 0.54 0.42 0.42 0.43 0.50 0.51 0.45 0.40 0.47 0.55 0.53 0.52 0.52 0.59 0.75 0.91 1.09 1.32 1.49 1.69 1.90 2.01 2.30 2.44 2.46 2.52 2.52 2.60 2.59 2.67 2.53 2.34 2.18 1.89 1.72 1.60 1.50
1.18 0.74 0.55 0.59 0.65 0.65 0.52 0.46 0.42 0.47 0.52 0.56 0.55 0.54 0.47 0.53 0.49 0.53 0.57 0.58 0.61 0.66 0.80 0.97 1.21 1.37 1.51 1.75 1.87 2.00 2.23 2.35 2.44 2.51 2.79 2.84 2.81 2.64 2.37 2.12 1.92 1.76 1.67 1.61
1.04 0.63 0.66 0.74 0.70 0.63 0.56 0.32 0.37 0.51 0.67 0.74 0.64 0.76 0.60 0.54 0.47 0.51 0.57 0.58 0.63 0.66 0.78 0.91 1.03 1.23 1.40 1.54 1.70 1.82 2.01 2.19 2.33 2.47 2.62 2.65 2.49 2.32 2.16 2.07 2.02 1.90 1.75 1.68
1.07 0.72 0.76 0.83 0.62 0.58 0.52 0.32 0.39 0.56 0.71 0.73 0.52 0.61 0.58 0.42 0.42 0.46 0.50 0.52 0.55 0.63 0.69 0.76 0.85 1.01 1.19 1.33 1.50 1.67 1.80 1.93 2.13 2.32 2.31 2.48 2.42 2.22 2.15 2.11 2.04 1.93 1.80 1.71
0.81 0.71 0.84 0.78 0.54 0.58 0.56 0.56 0.63 0.71 0.99 0.99 0.43 0.47 0.55 0.43 0.42 0.44 0.45 0.48 0.50 0.56 0.63 0.67 0.71 0.84 1.00 1.11 1.21 1.44 1.65 1.73 1.89 2.15 2.14 2.09 2.08 2.00 2.00 2.00 1.96 1.93 1.79 1.68
1.21 0.97 0.83 0.79 0.81 0.83 0.85 1.13 1.46 1.40 1.29 0.79 0.29 0.34 0.44 0.34 0.36 0.42 0.41 0.40 0.42 0.44 0.51 0.56 0.54 0.64 0.84 0.97 1.04 1.19 1.42 1.57 1.64 1.81 1.93 1.99 1.97 1.91 1.88 1.83 1.86 1.90 1.82 1.58
1.27 1.18 0.82 0.84 0.92 0.98 0.87 0.98 1.15 0.98 0.62 0.35 0.24 0.31 0.31 0.23 0.26 0.30 0.31 0.30 0.35 0.39 0.43 0.46 0.48 0.55 0.70 0.84 0.94 1.00 1.14 1.33 1.45 1.50 1.62 1.81 1.86 1.81 1.78 1.74 1.75 1.83 1.82 1.70
0.88 0.92 0.58 0.60 0.62 0.69 0.88 0.86 0.68 0.86 0.58 0.38 0.28 0.26 0.24 0.18 0.20 0.22 0.25 0.26 0.30 0.36 0.38 0.43 0.45 0.51 0.57 0.66 0.78 0.84 0.90 1.08 1.21 1.27 1.39 1.53 1.56 1.52 1.49 1.49 1.52 1.58 1.65 1.63
0.77 0.91 0.61 0.59 0.78 0.76 0.76 0.72 0.87 1.27 0.99 0.56 0.28 0.22 0.28 0.21 0.20 0.20 0.23 0.26 0.30 0.33 0.34 0.38 0.44 0.48 0.51 0.56 0.62 0.69 0.78 0.91 1.04 1.10 1.18 1.22 1.26 1.31 1.27 1.24 1.26 1.30 1.35 1.37
0.72 0.99 0.80 0.80 0.96 0.74 0.72 0.84 0.96 1.00 0.80 0.71 0.42 0.28 0.26 0.24 0.21 0.20 0.22 0.27 0.30 0.31 0.33 0.36 0.41 0.46 0.51 0.58 0.61 0.64 0.68 0.76 0.90 0.98 0.97 0.93 0.95 1.07 1.11 1.10 1.07 1.08 1.14 1.24
0.65 1.00 0.85 0.62 0.53 0.44 0.57 0.61 0.74 1.03 0.75 0.57 0.49 0.34 0.20 0.20 0.23 0.24 0.26 0.29 0.28 0.26 0.28 0.33 0.37 0.44 0.48 0.54 0.61 0.66 0.65 0.69 0.78 0.84 0.87 0.84 0.81 0.89 0.94 0.88 0.86 0.89 0.91 1.00
0.75 1.16 1.12 0.80 0.73 0.67 0.68 0.53 0.56 0.87 1.11 0.82 0.66 0.38 0.19 0.15 0.20 0.24 0.27 0.29 0.26 0.25 0.26 0.27 0.31 0.39 0.45 0.51 0.55 0.59 0.61 0.63 0.69 0.72 0.78 0.83 0.82 0.87 0.93 0.86 0.76 0.75 0.76 0.79
0.98 1.18 1.02 0.88 0.73 0.72 0.69 0.51 0.57 1.15 1.45 0.77 0.43 0.31 0.22 0.19 0.22 0.26 0.29 0.31 0.27 0.26 0.28 0.29 0.31 0.37 0.42 0.46 0.51 0.53 0.56 0.59 0.62 0.63 0.69 0.75 0.78 0.81 0.90 0.89 0.77 0.73 0.72 0.72
0.94 1.15 0.75 0.50 0.41 0.53 0.56 0.50 0.59 0.90 0.85 0.74 0.38 0.29 0.31 0.30 0.30 0.29 0.28 0.27 0.25 0.25 0.28 0.30 0.33 0.37 0.38 0.39 0.42 0.44 0.46 0.50 0.54 0.56 0.59 0.69 0.72 0.73 0.83 0.87 0.85 0.83 0.81 0.77
0.65 0.93 0.75 0.54 0.35 0.43 0.49 0.44 0.49 0.57 0.52 0.51 0.41 0.39 0.27 0.26 0.25 0.27 0.28 0.26 0.28 0.25 0.26 0.28 0.31 0.34 0.33 0.36 0.40 0.42 0.44 0.46 0.50 0.54 0.55 0.59 0.61 0.64 0.70 0.78 0.77 0.80 0.85 0.85
0.45 0.70 0.91 0.68 0.40 0.54 0.65 0.52 0.50 0.47 0.38 0.38 0.43 0.33 0.22 0.24 0.24 0.24 0.22 0.21 0.22 0.23 0.21 0.23 0.26 0.30 0.33 0.32 0.34 0.38 0.42 0.47 0.50 0.55 0.56 0.57 0.58 0.58 0.59 0.63 0.71 0.78 0.85 0.89
0.30 0.53 0.91 0.74 0.58 0.75 0.57 0.40 0.37 0.37 0.34 0.32 0.31 0.22 0.20 0.23 0.24 0.23 0.19 0.17 0.15 0.16 0.16 0.17 0.21 0.24 0.30 0.30 0.30 0.31 0.31 0.36 0.41 0.46 0.48 0.50 0.56 0.61 0.61 0.66 0.78 0.88 0.95 1.02
0.17 0.48 0.89 0.79 0.59 0.39 0.24 0.19 0.24 0.32 0.34 0.26 0.23 0.19 0.17 0.19 0.23 0.24 0.22 0.19 0.16 0.14 0.14 0.14 0.15 0.18 0.22 0.24 0.26 0.27 0.28 0.32 0.35 0.40 0.43 0.44 0.51 0.64 0.76 0.85 0.95 1.04 1.11 1.15
0.18 0.41 0.88 0.80 0.68 0.38 0.20 0.08 0.11 0.23 0.36 0.19 0.17 0.19 0.19 0.20 0.25 0.22 0.18 0.16 0.16 0.14 0.13 0.13 0.12 0.12 0.14 0.18 0.22 0.24 0.27 0.34 0.40 0.46 0.52 0.56 0.63 0.77 0.88 0.95 1.00 1.01 1.02 1.03
0.35 0.57 0.78 0.69 0.66 0.33 0.15 0.07 0.09 0.34 0.41 0.15 0.13 0.17 0.20 0.23 0.25 0.18 0.14 0.13 0.13 0.13 0.14 0.16 0.18 0.20 0.21 0.23 0.28 0.33 0.38 0.47 0.54 0.57 0.65 0.71 0.72 0.73 0.75 0.77 0.76 0.70 0.66 0.64
0.30 0.43 0.45 0.48 0.66 0.44 0.17 0.12 0.24 0.34 0.20 0.15 0.13 0.14 0.17 0.20 0.18 0.17 0.15 0.12 0.11 0.12 0.13 0.16 0.24 0.32 0.35 0.37 0.44 0.50 0.53 0.58 0.59 0.62 0.65 0.67 0.66 0.64 0.60 0.56 0.50 0.43 0.37 0.35
0.30 0.40 0.44 0.45 0.49 0.37 0.23 0.22 0.22 0.18 0.17 0.16 0.16 0.16 0.17 0.19 0.19 0.18 0.18 0.15 0.11 0.10 0.11 0.14 0.19 0.24 0.30 0.33 0.38 0.43 0.44 0.44 0.45 0.48 0.52 0.53 0.50 0.45 0.42 0.39 0.36 0.32 0.29 0.27
0.30 0.24 0.31 0.35 0.32 0.25 0.20 0.16 0.15 0.15 0.17 0.17 0.16 0.16 0.16 0.17 0.17 0.16 0.14 0.14 0.13 0.12 0.10 0.10 0.11 0.13 0.16 0.17 0.22 0.24 0.22 0.22 0.23 0.26 0.31 0.33 0.34 0.33 0.30 0.28 0.28 0.28 0.26 0.24
0.30 0.27 0.31 0.34 0.27 0.20 0.19 0.17 0.16 0.14 0.13 0.13 0.13 0.15 0.17 0.16 0.17 0.15 0.14 0.13 0.12 0.12 0.12 0.12 0.12 0.13 0.15 0.15 0.16 0.16 0.16 0.16 0.16 0.17 0.18 0.21 0.23 0.24 0.26 0.26 0.26 0.27 0.27 0.27
0.25 0.30 0.39 0.40 0.26 0.25 0.24 0.17 0.13 0.12 0.12 0.10 0.10 0.12 0.13 0.13 0.15 0.15 0.15 0.14 0.14 0.14 0.13 0.14 0.14 0.14 0.15 0.15 0.14 0.14 0.14 0.15 0.17 0.17 0.17 0.17 0.19 0.21 0.23 0.25 0.26 0.28 0.29 0.32

GEFSCGP_prec_meanprecacc_222.txt.gz
Total_Precipitation_Accumulation
1.62 1.52 1.14 0.69 0.51 0.44 0.47 0.46 0.41 0.44 0.40 0.45 0.44 0.42 0.41 0.44 0.52 0.54 0.53 0.57 0.69 0.88 1.07 1.20 1.50 1.72 1.86 2.06 2.29 2.47 2.52 2.64 2.77 2.84 2.78 2.61 2.49 2.33 2.16 1.94 1.72 1.60 1.45 1.43
1.54 1.14 0.64 0.46 0.50 0.52 0.52 0.54 0.42 0.42 0.43 0.50 0.51 0.45 0.40 0.47 0.55 0.53 0.53 0.53 0.59 0.76 0.93 1.12 1.33 1.49 1.69 1.90 2.02 2.31 2.46 2.48 2.53 2.53 2.62 2.62 2.74 2.61 2.44 2.28 1.97 1.77 1.62 1.52
1.19 0.74 0.55 0.60 0.66 0.66 0.53 0.47 0.43 0.48 0.52 0.57 0.55 0.54 0.47 0.53 0.49 0.53 0.57 0.59 0.62 0.66 0.81 0.98 1.23 1.38 1.51 1.76 1.87 2.01 2.24 2.36 2.44 2.52 2.80 2.87 2.85 2.70 2.45 2.20 1.99 1.82 1.71 1.63
1.05 0.63 0.67 0.75 0.71 0.64 0.57 0.33 0.38 0.52 0.68 0.75 0.64 0.76 0.60 0.54 0.47 0.51 0.57 0.58 0.64 0.67 0.78 0.92 1.04 1.24 1.41 1.55 1.71 1.83 2.02 2.20 2.35 2.49 2.65 2.68 2.52 2.36 2.22 2.13 2.07 1.94 1.78 1.70
1.08 0.72 0.77 0.84 0.63 0.58 0.53 0.33 0.39 0.57 0.72 0.75 0.53 0.61 0.58 0.42 0.42 0.46 0.50 0.52 0.55 0.63 0.70 0.77 0.86 1.03 1.20 1.33 1.51 1.69 1.81 1.95 2.15 2.35 2.33 2.49 2.43 2.24 2.18 2.15 2.09 1.97 1.83 1.73
0.83 0.72 0.86 0.79 0.55 0.59 0.58 0.59 0.65 0.73 1.02 1.02 0.44 0.48 0.55 0.43 0.42 0.44 0.45 0.48 0.51 0.56 0.64 0.68 0.73 0.86 1.01 1.12 1.23 1.46 1.68 1.77 1.91 2.17 2.15 2.10 2.09 2.01 2.02 2.03 2.00 1.97 1.83 1.70
1.22 0.99 0.85 0.80 0.83 0.85 0.87 1.18 1.52 1.46 1.36 0.81 0.29 0.34 0.44 0.34 0.36 0.42 0.41 0.40 0.42 0.44 0.52 0.57 0.55 0.66 0.86 0.99 1.06 1.21 1.45 1.61 1.68 1.83 1.95 2.00 1.98 1.92 1.89 1.84 1.88 1.93 1.86 1.61
1.29 1.20 0.84 0.86 0.94 1.01 0.90 1.02 1.20 1.01 0.64 0.36 0.24 0.31 0.32 0.24 0.26 0.30 0.31 0.30 0.35 0.40 0.43 0.47 0.49 0.58 0.73 0.87 0.96 1.02 1.16 1.36 1.49 1.53 1.64 1.83 1.88 1.83 1.80 1.75 1.77 1.84 1.84 1.73
0.91 0.94 0.60 0.62 0.63 0.71 0.91 0.89 0.71 0.90 0.60 0.39 0.28 0.27 0.25 0.18 0.20 0.22 0.25 0.26 0.30 0.36 0.39 0.44 0.47 0.53 0.59 0.69 0.81 0.87 0.92 1.11 1.25 1.31 1.43 1.55 1.58 1.54 1.51 1.51 1.54 1.59 1.66 1.65
0.80 0.94 0.62 0.60 0.79 0.78 0.78 0.75 0.91 1.34 1.04 0.58 0.29 0.23 0.28 0.22 0.21 0.21 0.23 0.26 0.30 0.33 0.34 0.39 0.45 0.49 0.52 0.57 0.64 0.71 0.80 0.94 1.08 1.14 1.23 1.26 1.28 1.33 1.29 1.26 1.28 1.32 1.37 1.38
0.75 1.02 0.82 0.80 0.98 0.78 0.75 0.87 1.01 1.05 0.85 0.74 0.43 0.29 0.26 0.25 0.22 0.21 0.23 0.27 0.30 0.31 0.33 0.36 0.41 0.47 0.52 0.59 0.63 0.65 0.70 0.78 0.92 1.00 0.99 0.95 0.96 1.08 1.13 1.12 1.09 1.10 1.17 1.26
0.67 1.04 0.87 0.63 0.55 0.46 0.60 0.65 0.78 1.09 0.80 0.59 0.50 0.34 0.21 0.21 0.24 0.25 0.26 0.29 0.28 0.27 0.29 0.33 0.38 0.45 0.49 0.55 0.62 0.66 0.66 0.70 0.79 0.85 0.88 0.85 0.81 0.90 0.95 0.89 0.87 0.91 0.94 1.02
0.79 1.23 1.15 0.83 0.75 0.70 0.72 0.57 0.61 0.92 1.14 0.85 0.67 0.39 0.19 0.16 0.20 0.25 0.28 0.30 0.26 0.25 0.26 0.28 0.32 0.40 0.46 0.51 0.55 0.59 0.61 0.63 0.69 0.72 0.78 0.84 0.82 0.87 0.94 0.87 0.76 0.76 0.77 0.79
1.03 1.24 1.06 0.91 0.75 0.74 0.72 0.54 0.60 1.19 1.50 0.81 0.44 0.32 0.23 0.20 0.23 0.27 0.30 0.31 0.27 0.26 0.28 0.30 0.32 0.37 0.42 0.47 0.51 0.53 0.56 0.60 0.62 0.63 0.69 0.75 0.78 0.82 0.91 0.91 0.78 0.74 0.72 0.72
0.96 1.18 0.77 0.52 0.42 0.55 0.57 0.52 0.61 0.93 0.88 0.77 0.40 0.30 0.32 0.31 0.31 0.30 0.29 0.28 0.25 0.25 0.29 0.31 0.34 0.37 0.39 0.39 0.43 0.44 0.46 0.50 0.54 0.56 0.59 0.69 0.72 0.74 0.83 0.88 0.87 0.86 0.83 0.78
0.67 0.95 0.76 0.54 0.36 0.45 0.51 0.46 0.51 0.58 0.54 0.53 0.43 0.40 0.29 0.28 0.26 0.28 0.29 0.27 0.28 0.26 0.27 0.28 0.32 0.34 0.34 0.37 0.41 0.42 0.44 0.47 0.50 0.54 0.56 0.59 0.62 0.64 0.71 0.78 0.79 0.83 0.89 0.89
0.47 0.72 0.93 0.69 0.40 0.55 0.68 0.55 0.52 0.49 0.40 0.40 0.45 0.35 0.23 0.25 0.25 0.25 0.23 0.21 0.23 0.23 0.22 0.24 0.27 0.31 0.33 0.33 0.35 0.38 0.43 0.47 0.51 0.56 0.58 0.58 0.59 0.59 0.60 0.64 0.72 0.80 0.88 0.94
0.32 0.55 0.93 0.75 0.59 0.78 0.61 0.43 0.40 0.40 0.37 0.34 0.32 0.23 0.22 0.24 0.25 0.24 0.20 0.18 0.16 0.17 0.17 0.18 0.21 0.25 0.31 0.31 0.31 0.32 0.32 0.36 0.42 0.47 0.49 0.52 0.58 0.62 0.63 0.67 0.80 0.91 0.98 1.06
0.19 0.50 0.92 0.82 0.61 0.41 0.27 0.22 0.27 0.34 0.36 0.28 0.24 0.20 0.18 0.20 0.24 0.25 0.22 0.20 0.17 0.15 0.15 0.15 0.16 0.18 0.23 0.27 0.27 0.29 0.30 0.33 0.36 0.42 0.45 0.47 0.54 0.66 0.77 0.86 0.97 1.06 1.15 1.21
0.20 0.44 0.92 0.85 0.72 0.41 0.23 0.10 0.13 0.26 0.39 0.21 0.19 0.21 0.21 0.21 0.26 0.23 0.19 0.17 0.16 0.15 0.14 0.14 0.13 0.14 0.17 0.20 0.24 0.26 0.30 0.37 0.43 0.50 0.55 0.59 0.65 0.78 0.90 0.97 1.02 1.03 1.06 1.08
0.39 0.61 0.82 0.72 0.70 0.36 0.18 0.09 0.12 0.38 0.46 0.18 0.15 0.19 0.22 0.26 0.27 0.20 0.15 0.14 0.14 0.14 0.15 0.17 0.20 0.23 0.23 0.25 0.30 0.37 0.41 0.50 0.58 0.62 0.69 0.74 0.73 0.74 0.77 0.79 0.78 0.72 0.68 0.68
0.36 0.48 0.50 0.52 0.71 0.49 0.21 0.15 0.29 0.40 0.24 0.18 0.16 0.17 0.21 0.23 0.21 0.19 0.17 0.14 0.13 0.14 0.15 0.18 0.26 0.34 0.36 0.38 0.47 0.54 0.57 0.61 0.63 0.67 0.69 0.70 0.70 0.66 0.61 0.57 0.52 0.44 0.39 0.37
0.35 0.46 0.50 0.52 0.57 0.44 0.28 0.27 0.27 0.22 0.21 0.20 0.20 0.20 0.21 0.22 0.21 0.21 0.20 0.17 0.13 0.12 0.13 0.16 0.21 0.26 0.31 0.34 0.39 0.45 0.47 0.47 0.48 0.53 0.55 0.56 0.53 0.48 0.44 0.40 0.37 0.34 0.30 0.28
0.34 0.28 0.35 0.40 0.38 0.30 0.24 0.19 0.17 0.18 0.20 0.21 0.20 0.20 0.19 0.20 0.19 0.19 0.17 0.17 0.16 0.15 0.14 0.13 0.14 0.15 0.17 0.18 0.23 0.26 0.24 0.25 0.26 0.29 0.33 0.36 0.37 0.36 0.33 0.30 0.29 0.30 0.28 0.26
0.32 0.30 0.34 0.38 0.31 0.23 0.21 0.19 0.18 0.16 0.15 0.15 0.16 0.18 0.20 0.19 0.20 0.18 0.17 0.16 0.16 0.16 0.16 0.16 0.15 0.16 0.17 0.17 0.17 0.18 0.18 0.19 0.20 0.19 0.20 0.23 0.25 0.27 0.29 0.28 0.28 0.29 0.29 0.30
0.28 0.34 0.43 0.44 0.30 0.28 0.27 0.19 0.15 0.14 0.13 0.12 0.12 0.14 0.16 0.16 0.18 0.19 0.19 0.18 0.18 0.18 0.17 0.17 0.17 0.17 0.17 0.18 0.17 0.17 0.18 0.19 0.21 0.22 0.20 0.19 0.22 0.25 0.27 0.28 0.29 0.32 0.32 0.35

GEFSCGP_prec_meanprecacc_228.txt.gz
Total_Precipitation_Accumulation
1.64 1.55 1.16 0.70 0.52 0.45 0.48 0.47 0.41 0.44 0.41 0.45 0.44 0.43 0.41 0.44 0.52 0.54 0.54 0.59 0.70 0.88 1.07 1.20 1.50 1.72 1.86 2.07 2.29 2.48 2.53 2.66 2.77 2.84 2.79 2.61 2.49 2.34 2.17 1.96 1.78 1.68 1.53 1.50
1.56 1.16 0.65 0.46 0.51 0.52 0.53 0.55 0.43 0.43 0.44 0.51 0.51 0.45 0.40 0.47 0.55 0.54 0.53 0.54 0.61 0.76 0.94 1.12 1.33 1.49 1.69 1.90 2.02 2.33 2.48 2.50 2.54 2.53 2.62 2.62 2.74 2.62 2.46 2.30 2.01 1.84 1.70 1.58
1.21 0.75 0.56 0.61 0.67 0.68 0.54 0.48 0.44 0.49 0.53 0.57 0.56 0.54 0.47 0.53 0.49 0.53 0.57 0.59 0.63 0.68 0.82 0.99 1.24 1.38 1.52 1.76 1.88 2.02 2.25 2.37 2.45 2.53 2.81 2.87 2.86 2.71 2.47 2.22 2.01 1.85 1.76 1.68
1.07 0.64 0.68 0.76 0.72 0.66 0.59 0.33 0.39 0.53 0.70 0.77 0.65 0.77 0.60 0.54 0.47 0.51 0.57 0.59 0.64 0.69 0.80 0.92 1.04 1.24 1.41 1.55 1.71 1.84 2.03 2.20 2.36 2.50 2.66 2.69 2.53 2.38 2.23 2.15 2.09 1.96 1.81 1.73
1.10 0.73 0.78 0.85 0.64 0.60 0.55 0.34 0.40 0.58 0.74 0.77 0.54 0.63 0.58 0.42 0.42 0.46 0.50 0.52 0.56 0.64 0.71 0.78 0.87 1.03 1.20 1.34 1.52 1.70 1.82 1.96 2.17 2.36 2.35 2.51 2.45 2.26 2.20 2.17 2.10 1.99 1.85 1.75
0.84 0.73 0.87 0.80 0.56 0.60 0.59 0.60 0.67 0.76 1.06 1.06 0.45 0.48 0.55 0.44 0.42 0.44 0.45 0.48 0.51 0.56 0.64 0.69 0.74 0.86 1.01 1.12 1.23 1.47 1.69 1.78 1.92 2.18 2.17 2.12 2.11 2.03 2.03 2.04 2.01 1.99 1.85 1.72
1.24 1.01 0.86 0.81 0.84 0.86 0.90 1.23 1.59 1.53 1.44 0.85 0.29 0.34 0.45 0.35 0.36 0.42 0.41 0.40 0.42 0.44 0.52 0.57 0.56 0.67 0.86 1.00 1.07 1.21 1.46 1.62 1.69 1.85 1.97 2.02 1.99 1.94 1.91 1.85 1.89 1.94 1.87 1.62
1.31 1.22 0.86 0.88 0.97 1.04 0.93 1.07 1.25 1.06 0.67 0.37 0.25 0.32 0.33 0.24 0.27 0.30 0.31 0.31 0.35 0.40 0.44 0.47 0.50 0.58 0.73 0.88 0.97 1.03 1.17 1.38 1.50 1.54 1.66 1.84 1.90 1.85 1.81 1.75 1.77 1.85 1.85 1.74
0.94 0.96 0.61 0.63 0.65 0.74 0.94 0.92 0.74 0.93 0.63 0.41 0.30 0.28 0.26 0.18 0.21 0.23 0.25 0.26 0.30 0.36 0.39 0.44 0.47 0.53 0.60 0.70 0.83 0.89 0.93 1.12 1.27 1.33 1.44 1.57 1.60 1.57 1.54 1.52 1.55 1.60 1.67 1.65
0.84 0.97 0.63 0.61 0.81 0.80 0.80 0.78 0.94 1.38 1.08 0.61 0.31 0.24 0.31 0.23 0.22 0.21 0.23 0.27 0.31 0.33 0.34 0.39 0.46 0.50 0.53 0.58 0.66 0.73 0.82 0.96 1.09 1.17 1.25 1.28 1.30 1.35 1.31 1.27 1.29 1.33 1.37 1.39
0.77 1.05 0.84 0.82 1.01 0.81 0.78 0.91 1.05 1.09 0.88 0.77 0.45 0.32 0.29 0.26 0.22 0.21 0.23 0.27 0.30 0.31 0.33 0.36 0.41 0.48 0.53 0.61 0.64 0.67 0.72 0.80 0.94 1.02 1.02 0.97 0.99 1.10 1.15 1.14 1.11 1.11 1.18 1.26
0.69 1.07 0.89 0.65 0.57 0.49 0.63 0.69 0.83 1.16 0.84 0.61 0.53 0.37 0.22 0.21 0.24 0.25 0.26 0.29 0.28 0.27 0.29 0.34 0.38 0.45 0.49 0.56 0.63 0.68 0.68 0.72 0.81 0.87 0.90 0.87 0.83 0.91 0.97 0.91 0.90 0.95 0.97 1.04
0.83 1.28 1.20 0.87 0.80 0.73 0.76 0.60 0.64 0.96 1.19 0.88 0.70 0.42 0.20 0.16 0.21 0.25 0.28 0.30 0.26 0.25 0.26 0.28 0.32 0.40 0.46 0.52 0.57 0.60 0.62 0.65 0.72 0.74 0.80 0.85 0.84 0.89 0.96 0.88 0.78 0.78 0.79 0.81
1.07 1.29 1.12 0.97 0.80 0.78 0.76 0.57 0.62 1.22 1.54 0.84 0.47 0.34 0.24 0.21 0.23 0.27 0.30 0.32 0.27 0.26 0.29 0.30 0.32 0.37 0.43 0.47 0.52 0.54 0.57 0.61 0.64 0.65 0.70 0.76 0.79 0.83 0.93 0.92 0.79 0.75 0.73 0.73
0.99 1.21 0.79 0.53 0.44 0.56 0.60 0.54 0.63 0.95 0.91 0.80 0.43 0.33 0.35 0.32 0.32 0.31 0.30 0.28 0.26 0.25 0.29 0.31 0.34 0.38 0.39 0.40 0.43 0.45 0.47 0.51 0.55 0.57 0.60 0.70 0.73 0.75 0.84 0.90 0.88 0.87 0.84 0.79
0.70 0.98 0.78 0.56 0.37 0.46 0.53 0.48 0.53 0.60 0.56 0.55 0.45 0.43 0.32 0.29 0.27 0.29 0.29 0.28 0.29 0.26 0.27 0.28 0.32 0.35 0.35 0.38 0.41 0.43 0.45 0.47 0.51 0.55 0.56 0.59 0.62 0.65 0.71 0.79 0.80 0.84 0.91 0.91
0.50 0.75 0.96 0.72 0.42 0.57 0.72 0.59 0.55 0.52 0.43 0.43 0.48 0.39 0.26 0.27 0.27 0.27 0.24 0.22 0.24 0.24 0.23 0.24 0.27 0.31 0.34 0.34 0.36 0.39 0.44 0.48 0.51 0.56 0.58 0.58 0.59 0.60 0.60 0.65 0.73 0.83 0.91 0.96
0.35 0.58 0.98 0.79 0.62 0.82 0.66 0.46 0.43 0.43 0.40 0.37 0.35 0.26 0.24 0.27 0.28 0.26 0.22 0.19 0.17 0.18 0.18 0.19 0.22 0.25 0.32 0.32 0.31 0.33 0.33 0.37 0.43 0.48 0.49 0.52 0.58 0.63 0.63 0.69 0.82 0.94 1.01 1.08
0.21 0.53 0.97 0.86 0.66 0.44 0.28 0.23 0.30 0.38 0.40 0.31 0.27 0.22 0.20 0.22 0.25 0.27 0.25 0.22 0.19 0.16 0.16 0.16 0.17 0.19 0.24 0.28 0.28 0.29 0.31 0.34 0.37 0.43 0.45 0.48 0.54 0.67 0.78 0.88 1.00 1.09 1.18 1.23
0.23 0.47 0.97 0.89 0.77 0.45 0.25 0.12 0.15 0.28 0.43 0.23 0.20 0.22 0.22 0.22 0.29 0.26 0.21 0.19 0.18 0.16 0.15 0.15 0.15 0.16 0.19 0.22 0.25 0.27 0.31 0.38 0.44 0.51 0.56 0.60 0.66 0.79 0.91 0.99 1.05 1.06 1.08 1.11
0.44 0.66 0.87 0.76 0.74 0.40 0.20 0.10 0.12 0.41 0.50 0.20 0.16 0.21 0.24 0.29 0.31 0.23 0.17 0.17 0.16 0.16 0.16 0.18 0.22 0.25 0.25 0.26 0.31 0.38 0.42 0.52 0.59 0.63 0.70 0.76 0.74 0.75 0.78 0.81 0.81 0.75 0.70 0.69
0.40 0.53 0.55 0.57 0.76 0.54 0.23 0.17 0.32 0.45 0.27 0.20 0.17 0.19 0.23 0.25 0.23 0.21 0.19 0.17 0.16 0.15 0.16 0.19 0.28 0.36 0.38 0.40 0.48 0.56 0.60 0.63 0.65 0.68 0.71 0.73 0.72 0.69 0.65 0.60 0.55 0.47 0.41 0.39
0.39 0.51 0.56 0.57 0.62 0.49 0.31 0.30 0.31 0.26 0.24 0.22 0.22 0.22 0.22 0.23 0.23 0.22 0.23 0.19 0.16 0.14 0.14 0.17 0.23 0.28 0.33 0.36 0.41 0.48 0.50 0.50 0.51 0.56 0.58 0.59 0.57 0.52 0.48 0.43 0.39 0.36 0.33 0.31
0.36 0.30 0.39 0.44 0.41 0.32 0.26 0.21 0.20 0.21 0.24 0.24 0.23 0.22 0.20 0.21 0.21 0.20 0.19 0.20 0.19 0.18 0.16 0.15 0.16 0.17 0.19 0.20 0.25 0.28 0.27 0.28 0.30 0.33 0.38 0.41 0.42 0.40 0.36 0.32 0.31 0.31 0.30 0.29
0.35 0.32 0.37 0.41 0.33 0.25 0.23 0.21 0.21 0.19 0.18 0.18 0.19 0.20 0.22 0.21 0.21 0.20 0.19 0.19 0.19 0.20 0.19 0.19 0.18 0.19 0.20 0.19 0.19 0.20 0.20 0.21 0.22 0.23 0.24 0.27 0.29 0.31 0.31 0.30 0.29 0.31 0.31 0.32
0.31 0.38 0.48 0.48 0.32 0.31 0.29 0.21 0.17 0.16 0.16 0.15 0.14 0.16 0.18 0.18 0.21 0.21 0.21 0.21 0.21 0.21 0.20 0.19 0.19 0.20 0.20 0.20 0.19 0.19 0.19 0.20 0.23 0.24 0.23 0.22 0.24 0.27 0.29 0.30 0.31 0.34 0.35 0.37

GEFSCGP_prec_meanprecacc_234.txt.gz
Total_Precipitation_Accumulation
1.66 1.58 1.19 0.72 0.54 0.47 0.50 0.49 0.42 0.45 0.41 0.45 0.44 0.43 0.41 0.44 0.52 0.54 0.54 0.59 0.72 0.91 1.10 1.21 1.51 1.73 1.88 2.08 2.31 2.49 2.54 2.67 2.78 2.85 2.80 2.62 2.49 2.34 2.18 1.97 1.79 1.69 1.56 1.54
1.59 1.19 0.66 0.47 0.52 0.54 0.55 0.57 0.45 0.43 0.44 0.51 0.51 0.45 0.40 0.47 0.55 0.54 0.53 0.55 0.62 0.78 0.96 1.13 1.34 1.50 1.71 1.91 2.04 2.34 2.49 2.51 2.55 2.54 2.63 2.63 2.75 2.63 2.47 2.31 2.02 1.85 1.72 1.61
1.24 0.77 0.57 0.62 0.69 0.71 0.58 0.51 0.45 0.49 0.53 0.58 0.57 0.55 0.47 0.53 0.49 0.53 0.57 0.59 0.64 0.68 0.83 1.01 1.25 1.39 1.53 1.77 1.89 2.03 2.25 2.37 2.46 2.53 2.81 2.88 2.87 2.72 2.48 2.23 2.02 1.86 1.77 1.70
1.08 0.65 0.69 0.78 0.74 0.68 0.63 0.36 0.41 0.54 0.72 0.79 0.67 0.80 0.61 0.54 0.47 0.51 0.57 0.59 0.64 0.69 0.80 0.93 1.05 1.25 1.42 1.56 1.72 1.84 2.03 2.21 2.36 2.50 2.66 2.69 2.54 2.38 2.24 2.16 2.09 1.97 1.82 1.75
1.12 0.74 0.79 0.87 0.65 0.61 0.57 0.35 0.42 0.60 0.77 0.81 0.57 0.65 0.60 0.43 0.43 0.46 0.50 0.52 0.56 0.64 0.71 0.78 0.87 1.04 1.20 1.34 1.52 1.70 1.82 1.96 2.17 2.36 2.35 2.51 2.45 2.27 2.20 2.18 2.12 2.00 1.85 1.76
0.85 0.74 0.89 0.82 0.57 0.61 0.61 0.63 0.70 0.79 1.10 1.11 0.47 0.50 0.57 0.44 0.43 0.44 0.46 0.48 0.51 0.56 0.64 0.69 0.74 0.87 1.02 1.13 1.24 1.47 1.69 1.78 1.92 2.18 2.17 2.13 2.11 2.04 2.04 2.05 2.02 2.00 1.86 1.72
1.25 1.01 0.87 0.82 0.85 0.88 0.92 1.27 1.66 1.62 1.52 0.89 0.30 0.37 0.47 0.36 0.37 0.43 0.42 0.41 0.42 0.44 0.52 0.57 0.56 0.67 0.87 1.00 1.08 1.22 1.47 1.62 1.69 1.85 1.98 2.03 2.00 1.94 1.91 1.86 1.89 1.95 1.88 1.63
1.32 1.23 0.86 0.88 0.99 1.08 0.96 1.11 1.31 1.12 0.73 0.40 0.26 0.34 0.35 0.25 0.27 0.30 0.31 0.31 0.35 0.40 0.44 0.47 0.50 0.59 0.73 0.88 0.98 1.03 1.18 1.38 1.51 1.55 1.66 1.85 1.90 1.85 1.82 1.76 1.78 1.85 1.85 1.74
0.96 0.97 0.61 0.63 0.66 0.76 0.97 0.96 0.77 0.98 0.67 0.45 0.33 0.32 0.29 0.20 0.22 0.24 0.26 0.26 0.31 0.36 0.39 0.45 0.47 0.54 0.60 0.70 0.83 0.89 0.94 1.13 1.27 1.33 1.45 1.58 1.60 1.57 1.54 1.52 1.55 1.60 1.67 1.66
0.87 0.98 0.64 0.62 0.82 0.82 0.84 0.82 0.99 1.44 1.14 0.66 0.35 0.30 0.36 0.27 0.24 0.23 0.24 0.27 0.31 0.34 0.34 0.39 0.46 0.50 0.53 0.59 0.66 0.73 0.83 0.96 1.10 1.17 1.25 1.28 1.31 1.35 1.31 1.28 1.30 1.34 1.38 1.39
0.79 1.08 0.85 0.84 1.03 0.84 0.82 0.96 1.12 1.16 0.93 0.82 0.50 0.38 0.34 0.30 0.26 0.24 0.24 0.27 0.30 0.31 0.33 0.37 0.42 0.48 0.53 0.61 0.65 0.67 0.72 0.81 0.95 1.03 1.02 0.98 0.99 1.11 1.15 1.15 1.12 1.12 1.19 1.27
0.70 1.09 0.91 0.67 0.60 0.51 0.67 0.75 0.91 1.23 0.91 0.66 0.56 0.42 0.26 0.25 0.27 0.27 0.27 0.29 0.28 0.27 0.29 0.34 0.38 0.45 0.49 0.56 0.63 0.68 0.69 0.73 0.82 0.88 0.91 0.88 0.84 0.92 0.97 0.92 0.91 0.96 0.98 1.05
0.86 1.32 1.23 0.90 0.83 0.75 0.79 0.65 0.71 1.02 1.25 0.94 0.75 0.46 0.25 0.19 0.23 0.27 0.29 0.30 0.26 0.25 0.26 0.28 0.32 0.40 0.46 0.52 0.57 0.61 0.63 0.65 0.72 0.75 0.81 0.87 0.85 0.90 0.97 0.89 0.79 0.79 0.81 0.83
1.11 1.33 1.15 1.01 0.84 0.81 0.78 0.60 0.67 1.29 1.60 0.88 0.51 0.39 0.28 0.25 0.27 0.30 0.32 0.32 0.28 0.27 0.29 0.30 0.32 0.38 0.43 0.47 0.52 0.54 0.58 0.61 0.64 0.66 0.71 0.77 0.80 0.84 0.94 0.93 0.80 0.76 0.75 0.75
1.01 1.23 0.81 0.55 0.45 0.57 0.62 0.57 0.65 0.98 0.95 0.84 0.46 0.38 0.40 0.36 0.37 0.35 0.33 0.29 0.26 0.26 0.29 0.32 0.34 0.38 0.39 0.40 0.44 0.45 0.48 0.51 0.56 0.58 0.61 0.71 0.74 0.76 0.86 0.91 0.89 0.89 0.86 0.81
0.74 1.01 0.80 0.58 0.39 0.47 0.54 0.51 0.56 0.63 0.58 0.57 0.47 0.47 0.36 0.33 0.31 0.33 0.32 0.30 0.30 0.28 0.28 0.29 0.33 0.35 0.35 0.38 0.42 0.43 0.45 0.48 0.52 0.56 0.57 0.60 0.63 0.66 0.73 0.81 0.81 0.86 0.92 0.92
0.54 0.79 1.00 0.75 0.44 0.60 0.75 0.64 0.61 0.57 0.47 0.46 0.53 0.44 0.30 0.30 0.31 0.32 0.28 0.26 0.26 0.26 0.24 0.25 0.28 0.32 0.34 0.34 0.36 0.40 0.44 0.48 0.52 0.57 0.58 0.59 0.60 0.61 0.62 0.66 0.75 0.83 0.92 0.97
0.39 0.62 1.03 0.83 0.65 0.87 0.72 0.50 0.47 0.47 0.45 0.41 0.40 0.31 0.28 0.30 0.32 0.32 0.27 0.23 0.20 0.20 0.19 0.19 0.23 0.26 0.32 0.32 0.32 0.34 0.33 0.38 0.44 0.49 0.50 0.53 0.59 0.63 0.64 0.69 0.83 0.95 1.02 1.08
0.23 0.58 1.04 0.92 0.70 0.49 0.32 0.26 0.34 0.42 0.44 0.35 0.30 0.25 0.22 0.24 0.28 0.32 0.29 0.25 0.21 0.18 0.17 0.17 0.17 0.20 0.25 0.28 0.29 0.30 0.32 0.35 0.39 0.44 0.47 0.49 0.55 0.67 0.79 0.89 1.01 1.10 1.19 1.24
0.24 0.50 1.03 0.95 0.82 0.50 0.29 0.13 0.16 0.31 0.48 0.26 0.22 0.25 0.24 0.24 0.32 0.30 0.25 0.22 0.20 0.17 0.16 0.16 0.15 0.16 0.20 0.23 0.26 0.28 0.32 0.39 0.45 0.52 0.58 0.62 0.68 0.81 0.93 1.00 1.07 1.08 1.10 1.12
0.46 0.69 0.91 0.80 0.78 0.45 0.23 0.11 0.13 0.44 0.55 0.23 0.19 0.23 0.26 0.31 0.34 0.26 0.20 0.20 0.19 0.18 0.18 0.19 0.22 0.25 0.26 0.27 0.32 0.39 0.43 0.53 0.61 0.64 0.72 0.78 0.77 0.78 0.80 0.83 0.82 0.76 0.72 0.71
0.43 0.56 0.57 0.59 0.80 0.58 0.25 0.19 0.37 0.51 0.31 0.23 0.20 0.21 0.25 0.27 0.24 0.23 0.22 0.20 0.19 0.18 0.18 0.21 0.28 0.37 0.39 0.41 0.50 0.57 0.61 0.65 0.67 0.70 0.72 0.74 0.74 0.71 0.68 0.63 0.57 0.49 0.43 0.41
0.41 0.54 0.59 0.60 0.66 0.53 0.35 0.35 0.37 0.31 0.28 0.25 0.24 0.24 0.24 0.25 0.24 0.24 0.25 0.22 0.19 0.17 0.17 0.20 0.24 0.29 0.34 0.38 0.43 0.50 0.52 0.51 0.53 0.57 0.59 0.60 0.59 0.55 0.50 0.46 0.43 0.39 0.35 0.34
0.38 0.31 0.40 0.46 0.44 0.35 0.28 0.24 0.23 0.24 0.28 0.27 0.26 0.24 0.22 0.23 0.22 0.22 0.21 0.22 0.22 0.21 0.19 0.18 0.19 0.19 0.21 0.22 0.26 0.30 0.29 0.30 0.31 0.35 0.40 0.43 0.44 0.42 0.39 0.34 0.33 0.34 0.33 0.32
0.37 0.34 0.39 0.43 0.35 0.27 0.24 0.23 0.23 0.22 0.20 0.21 0.21 0.22 0.24 0.22 0.23 0.21 0.21 0.21 0.22 0.23 0.23 0.22 0.21 0.22 0.22 0.20 0.20 0.22 0.22 0.23 0.24 0.24 0.26 0.29 0.32 0.34 0.34 0.32 0.31 0.32 0.33 0.34
0.35 0.42 0.52 0.51 0.35 0.35 0.32 0.23 0.20 0.19 0.19 0.17 0.17 0.18 0.19 0.20 0.22 0.22 0.22 0.22 0.23 0.24 0.23 0.22 0.22 0.22 0.22 0.22 0.21 0.20 0.21 0.22 0.25 0.26 0.25 0.25 0.27 0.30 0.31 0.32 0.33 0.35 0.36 0.39

GEFSCGP_prec_meanprecacc_240.txt.gz
Total_Precipitation_Accumulation
1.68 1.60 1.21 0.73 0.56 0.50 0.53 0.51 0.43 0.45 0.42 0.46 0.45 0.43 0.42 0.44 0.52 0.54 0.54 0.60 0.72 0.91 1.11 1.24 1.54 1.76 1.91 2.11 2.35 2.54 2.60 2.72 2.81 2.88 2.82 2.64 2.51 2.36 2.20 1.99 1.80 1.71 1.57 1.55
1.61 1.20 0.66 0.47 0.53 0.57 0.59 0.61 0.47 0.44 0.44 0.52 0.52 0.46 0.41 0.48 0.56 0.54 0.53 0.55 0.62 0.79 0.98 1.16 1.37 1.54 1.74 1.94 2.07 2.38 2.53 2.54 2.57 2.56 2.65 2.66 2.77 2.66 2.49 2.33 2.04 1.87 1.74 1.62
1.25 0.78 0.58 0.63 0.70 0.73 0.62 0.54 0.48 0.51 0.54 0.59 0.59 0.56 0.48 0.53 0.50 0.53 0.57 0.59 0.64 0.69 0.84 1.02 1.27 1.42 1.56 1.79 1.91 2.06 2.29 2.39 2.48 2.56 2.83 2.90 2.89 2.75 2.50 2.25 2.03 1.87 1.79 1.71
1.09 0.67 0.70 0.79 0.75 0.70 0.65 0.39 0.44 0.58 0.75 0.82 0.69 0.82 0.62 0.55 0.48 0.51 0.57 0.59 0.65 0.69 0.81 0.94 1.08 1.29 1.45 1.58 1.74 1.87 2.06 2.23 2.38 2.52 2.68 2.70 2.55 2.39 2.25 2.17 2.10 1.97 1.83 1.76
1.13 0.75 0.81 0.89 0.67 0.63 0.59 0.37 0.45 0.64 0.82 0.85 0.59 0.68 0.62 0.44 0.44 0.48 0.51 0.53 0.56 0.65 0.72 0.78 0.89 1.08 1.24 1.37 1.54 1.72 1.85 1.98 2.19 2.38 2.37 2.53 2.47 2.27 2.21 2.18 2.12 2.00 1.86 1.77
0.86 0.75 0.90 0.84 0.58 0.62 0.62 0.64 0.73 0.83 1.17 1.19 0.51 0.52 0.59 0.46 0.45 0.46 0.47 0.50 0.51 0.57 0.65 0.70 0.75 0.90 1.06 1.17 1.27 1.50 1.71 1.80 1.94 2.20 2.19 2.14 2.12 2.05 2.04 2.05 2.02 2.00 1.86 1.73
1.26 1.02 0.88 0.83 0.86 0.89 0.95 1.31 1.71 1.69 1.61 0.96 0.34 0.39 0.50 0.38 0.39 0.45 0.43 0.42 0.43 0.45 0.53 0.58 0.56 0.68 0.90 1.04 1.11 1.24 1.49 1.63 1.71 1.87 2.00 2.04 2.01 1.95 1.91 1.86 1.90 1.95 1.88 1.63
1.33 1.24 0.87 0.89 1.01 1.10 1.00 1.16 1.35 1.16 0.77 0.43 0.29 0.37 0.38 0.28 0.29 0.32 0.33 0.32 0.36 0.41 0.44 0.48 0.50 0.59 0.75 0.90 1.00 1.05 1.19 1.39 1.52 1.57 1.69 1.86 1.91 1.85 1.82 1.76 1.78 1.86 1.86 1.75
0.97 0.98 0.62 0.64 0.67 0.77 0.99 0.99 0.80 1.02 0.70 0.48 0.38 0.36 0.32 0.22 0.23 0.25 0.27 0.27 0.31 0.37 0.40 0.45 0.48 0.54 0.61 0.72 0.85 0.90 0.95 1.14 1.28 1.35 1.47 1.60 1.61 1.57 1.54 1.53 1.55 1.61 1.68 1.66
0.89 1.00 0.64 0.63 0.83 0.83 0.86 0.84 1.02 1.49 1.18 0.69 0.39 0.33 0.39 0.28 0.25 0.25 0.25 0.28 0.31 0.34 0.35 0.40 0.46 0.51 0.53 0.60 0.68 0.75 0.84 0.97 1.11 1.18 1.27 1.30 1.32 1.36 1.32 1.28 1.30 1.34 1.38 1.40
0.81 1.09 0.86 0.85 1.05 0.86 0.84 0.99 1.16 1.21 0.97 0.85 0.53 0.41 0.37 0.32 0.28 0.27 0.27 0.29 0.31 0.32 0.33 0.37 0.42 0.48 0.54 0.61 0.66 0.69 0.74 0.82 0.96 1.04 1.04 1.00 1.00 1.12 1.16 1.16 1.13 1.13 1.20 1.28
0.72 1.11 0.92 0.68 0.61 0.53 0.69 0.79 0.96 1.30 0.96 0.68 0.59 0.45 0.29 0.26 0.29 0.29 0.29 0.31 0.29 0.27 0.30 0.34 0.38 0.45 0.50 0.57 0.64 0.70 0.70 0.74 0.83 0.90 0.93 0.90 0.86 0.93 0.98 0.93 0.92 0.96 0.99 1.06
0.90 1.35 1.25 0.91 0.85 0.78 0.81 0.67 0.75 1.08 1.30 0.98 0.78 0.48 0.26 0.21 0.25 0.29 0.31 0.31 0.27 0.26 0.27 0.28 0.32 0.40 0.46 0.52 0.58 0.62 0.64 0.67 0.74 0.77 0.83 0.89 0.88 0.92 0.98 0.91 0.80 0.81 0.82 0.84
1.17 1.36 1.17 1.02 0.85 0.83 0.80 0.61 0.69 1.33 1.65 0.93 0.54 0.41 0.31 0.27 0.29 0.32 0.35 0.34 0.30 0.28 0.30 0.30 0.33 0.38 0.43 0.48 0.53 0.55 0.59 0.62 0.66 0.67 0.73 0.79 0.83 0.86 0.96 0.95 0.82 0.78 0.76 0.76
1.04 1.25 0.81 0.57 0.46 0.59 0.64 0.59 0.67 1.02 0.99 0.88 0.50 0.41 0.43 0.40 0.41 0.40 0.37 0.33 0.29 0.27 0.30 0.32 0.35 0.39 0.40 0.41 0.44 0.46 0.49 0.52 0.57 0.59 0.62 0.71 0.75 0.77 0.87 0.92 0.91 0.90 0.87 0.81
0.77 1.05 0.82 0.60 0.41 0.49 0.56 0.54 0.59 0.66 0.62 0.61 0.50 0.51 0.41 0.38 0.35 0.37 0.37 0.34 0.34 0.30 0.30 0.31 0.34 0.36 0.36 0.39 0.43 0.45 0.46 0.49 0.53 0.57 0.58 0.61 0.64 0.67 0.74 0.82 0.82 0.87 0.93 0.93
0.58 0.83 1.04 0.78 0.46 0.61 0.79 0.68 0.65 0.61 0.52 0.50 0.57 0.50 0.35 0.35 0.37 0.39 0.35 0.32 0.32 0.31 0.28 0.29 0.31 0.34 0.36 0.36 0.38 0.41 0.45 0.50 0.54 0.58 0.59 0.60 0.61 0.61 0.63 0.67 0.76 0.85 0.93 0.98
0.43 0.67 1.08 0.87 0.67 0.92 0.76 0.54 0.51 0.51 0.50 0.45 0.44 0.36 0.33 0.36 0.38 0.39 0.34 0.29 0.25 0.24 0.23 0.23 0.26 0.29 0.34 0.34 0.34 0.35 0.35 0.40 0.46 0.50 0.51 0.54 0.60 0.64 0.65 0.71 0.84 0.96 1.03 1.10
0.25 0.61 1.09 0.97 0.74 0.52 0.34 0.28 0.38 0.46 0.49 0.39 0.34 0.29 0.26 0.28 0.32 0.37 0.34 0.29 0.26 0.22 0.21 0.20 0.21 0.23 0.27 0.30 0.30 0.31 0.33 0.37 0.40 0.46 0.48 0.49 0.56 0.68 0.80 0.90 1.02 1.11 1.20 1.25
0.25 0.52 1.07 0.99 0.86 0.54 0.32 0.16 0.19 0.34 0.53 0.31 0.27 0.29 0.27 0.26 0.35 0.35 0.30 0.27 0.24 0.21 0.20 0.19 0.19 0.19 0.22 0.25 0.27 0.29 0.33 0.40 0.47 0.53 0.59 0.63 0.68 0.81 0.94 1.01 1.08 1.09 1.11 1.13
0.47 0.70 0.93 0.83 0.81 0.48 0.27 0.14 0.15 0.48 0.61 0.27 0.23 0.27 0.30 0.35 0.40 0.32 0.25 0.26 0.24 0.22 0.22 0.23 0.25 0.28 0.28 0.29 0.34 0.41 0.45 0.55 0.62 0.66 0.73 0.79 0.78 0.79 0.81 0.84 0.83 0.77 0.73 0.72
0.44 0.57 0.59 0.61 0.83 0.62 0.28 0.21 0.42 0.58 0.36 0.27 0.24 0.25 0.28 0.31 0.28 0.27 0.26 0.25 0.25 0.23 0.21 0.23 0.31 0.39 0.41 0.43 0.51 0.59 0.63 0.67 0.69 0.72 0.74 0.75 0.75 0.73 0.70 0.65 0.59 0.50 0.44 0.42
0.43 0.56 0.61 0.62 0.69 0.57 0.38 0.40 0.42 0.35 0.33 0.29 0.29 0.28 0.27 0.28 0.28 0.27 0.28 0.25 0.22 0.20 0.20 0.22 0.27 0.31 0.36 0.40 0.45 0.52 0.54 0.54 0.56 0.59 0.62 0.62 0.61 0.57 0.53 0.49 0.46 0.42 0.37 0.36
0.39 0.32 0.42 0.48 0.46 0.37 0.31 0.26 0.25 0.27 0.31 0.31 0.29 0.28 0.25 0.26 0.25 0.24 0.23 0.24 0.24 0.23 0.21 0.21 0.21 0.21 0.23 0.24 0.29 0.33 0.32 0.33 0.34 0.38 0.42 0.45 0.46 0.45 0.41 0.37 0.37 0.38 0.37 0.35
0.39 0.35 0.40 0.45 0.37 0.28 0.26 0.25 0.25 0.23 0.22 0.23 0.23 0.25 0.26 0.25 0.25 0.24 0.23 0.23 0.24 0.25 0.25 0.25 0.24 0.24 0.24 0.23 0.23 0.25 0.25 0.26 0.27 0.28 0.30 0.32 0.34 0.36 0.36 0.35 0.34 0.35 0.36 0.37
0.37 0.44 0.53 0.52 0.36 0.37 0.33 0.25 0.22 0.21 0.21 0.20 0.19 0.21 0.22 0.22 0.25 0.24 0.25 0.25 0.25 0.26 0.25 0.24 0.24 0.25 0.26 0.25 0.23 0.23 0.23 0.24 0.27 0.28 0.28 0.28 0.29 0.32 0.34 0.34 0.35 0.38 0.38 0.40